<?xml version="1.0" encoding="UTF-8" standalone="no" ?>
<gpx xmlns="http://www.topografix.com/GPX/1/1" xmlns:xsi="http://www.w3.org/2001/XMLSchema-instance" xsi:schemaLocation="http://www.topografix.com/GPX/1/1 http://www.topografix.com/GPX/1/1/gpx.xsd" version="1.1" creator="VisuGPX - https://www.visugpx.com">
  <metadata>
    <name>La Grande course des Templiers 2012</name>
    <desc><![CDATA[Course des Templiers à Millau le 28/10/2012]]></desc>
  </metadata>
  <trk>
    <name><![CDATA[Les Templiers]]></name>
    <trkseg>
      <trkpt lat="44.1146" lon="3.08686">
        <ele>359.7</ele>
        <time>2012-10-28T04:16:07Z</time>
      </trkpt>
      <trkpt lat="44.11478" lon="3.08693">
        <ele>362.39999389648</ele>
        <time>2012-10-28T04:16:14Z</time>
      </trkpt>
      <trkpt lat="44.11496" lon="3.08704">
        <ele>362.39999389648</ele>
        <time>2012-10-28T04:16:20Z</time>
      </trkpt>
      <trkpt lat="44.11515" lon="3.08713">
        <ele>362.60000610352</ele>
        <time>2012-10-28T04:16:26Z</time>
      </trkpt>
      <trkpt lat="44.11532" lon="3.08724">
        <ele>362.60000610352</ele>
        <time>2012-10-28T04:16:32Z</time>
      </trkpt>
      <trkpt lat="44.11551" lon="3.08736">
        <ele>362.79998779297</ele>
        <time>2012-10-28T04:16:38Z</time>
      </trkpt>
      <trkpt lat="44.11569" lon="3.08747">
        <ele>363</ele>
        <time>2012-10-28T04:16:44Z</time>
      </trkpt>
      <trkpt lat="44.11588" lon="3.08755">
        <ele>363</ele>
        <time>2012-10-28T04:16:50Z</time>
      </trkpt>
      <trkpt lat="44.11607" lon="3.08768">
        <ele>363</ele>
        <time>2012-10-28T04:16:56Z</time>
      </trkpt>
      <trkpt lat="44.11625" lon="3.0878">
        <ele>363</ele>
        <time>2012-10-28T04:17:02Z</time>
      </trkpt>
      <trkpt lat="44.11644" lon="3.0879">
        <ele>363</ele>
        <time>2012-10-28T04:17:08Z</time>
      </trkpt>
      <trkpt lat="44.11663" lon="3.08802">
        <ele>363</ele>
        <time>2012-10-28T04:17:14Z</time>
      </trkpt>
      <trkpt lat="44.11682" lon="3.08813">
        <ele>363</ele>
        <time>2012-10-28T04:17:20Z</time>
      </trkpt>
      <trkpt lat="44.11701" lon="3.08826">
        <ele>363</ele>
        <time>2012-10-28T04:17:26Z</time>
      </trkpt>
      <trkpt lat="44.11719" lon="3.0884">
        <ele>363</ele>
        <time>2012-10-28T04:17:32Z</time>
      </trkpt>
      <trkpt lat="44.11738" lon="3.08854">
        <ele>363</ele>
        <time>2012-10-28T04:17:38Z</time>
      </trkpt>
      <trkpt lat="44.11755" lon="3.0887">
        <ele>362.79998779297</ele>
        <time>2012-10-28T04:17:44Z</time>
      </trkpt>
      <trkpt lat="44.11772" lon="3.08889">
        <ele>362.79998779297</ele>
        <time>2012-10-28T04:17:50Z</time>
      </trkpt>
      <trkpt lat="44.11787" lon="3.08909">
        <ele>362.79998779297</ele>
        <time>2012-10-28T04:17:56Z</time>
      </trkpt>
      <trkpt lat="44.11801" lon="3.08929">
        <ele>362.60000610352</ele>
        <time>2012-10-28T04:18:02Z</time>
      </trkpt>
      <trkpt lat="44.11816" lon="3.08949">
        <ele>362.60000610352</ele>
        <time>2012-10-28T04:18:08Z</time>
      </trkpt>
      <trkpt lat="44.11829" lon="3.08969">
        <ele>362.60000610352</ele>
        <time>2012-10-28T04:18:14Z</time>
      </trkpt>
      <trkpt lat="44.11843" lon="3.08989">
        <ele>362.39999389648</ele>
        <time>2012-10-28T04:18:20Z</time>
      </trkpt>
      <trkpt lat="44.11858" lon="3.09009">
        <ele>362.60000610352</ele>
        <time>2012-10-28T04:18:26Z</time>
      </trkpt>
      <trkpt lat="44.11873" lon="3.09029">
        <ele>362.79998779297</ele>
        <time>2012-10-28T04:18:32Z</time>
      </trkpt>
      <trkpt lat="44.11887" lon="3.09051">
        <ele>362.79998779297</ele>
        <time>2012-10-28T04:18:38Z</time>
      </trkpt>
      <trkpt lat="44.11901" lon="3.09072">
        <ele>362.60000610352</ele>
        <time>2012-10-28T04:18:44Z</time>
      </trkpt>
      <trkpt lat="44.11915" lon="3.09093">
        <ele>362.60000610352</ele>
        <time>2012-10-28T04:18:50Z</time>
      </trkpt>
      <trkpt lat="44.11928" lon="3.09114">
        <ele>362.39999389648</ele>
        <time>2012-10-28T04:18:56Z</time>
      </trkpt>
      <trkpt lat="44.11943" lon="3.09134">
        <ele>362.20001220703</ele>
        <time>2012-10-28T04:19:02Z</time>
      </trkpt>
      <trkpt lat="44.11959" lon="3.09153">
        <ele>362.20001220703</ele>
        <time>2012-10-28T04:19:08Z</time>
      </trkpt>
      <trkpt lat="44.11974" lon="3.09171">
        <ele>362.20001220703</ele>
        <time>2012-10-28T04:19:14Z</time>
      </trkpt>
      <trkpt lat="44.11985" lon="3.09191">
        <ele>362.39999389648</ele>
        <time>2012-10-28T04:19:19Z</time>
      </trkpt>
      <trkpt lat="44.11994" lon="3.09211">
        <ele>362.60000610352</ele>
        <time>2012-10-28T04:19:24Z</time>
      </trkpt>
      <trkpt lat="44.12003" lon="3.09234">
        <ele>362.60000610352</ele>
        <time>2012-10-28T04:19:30Z</time>
      </trkpt>
      <trkpt lat="44.12016" lon="3.09254">
        <ele>363.20001220703</ele>
        <time>2012-10-28T04:19:36Z</time>
      </trkpt>
      <trkpt lat="44.12029" lon="3.09277">
        <ele>363.79998779297</ele>
        <time>2012-10-28T04:19:42Z</time>
      </trkpt>
      <trkpt lat="44.12042" lon="3.09296">
        <ele>364</ele>
        <time>2012-10-28T04:19:48Z</time>
      </trkpt>
      <trkpt lat="44.12055" lon="3.09316">
        <ele>364</ele>
        <time>2012-10-28T04:19:54Z</time>
      </trkpt>
      <trkpt lat="44.12069" lon="3.09338">
        <ele>364</ele>
        <time>2012-10-28T04:20:00Z</time>
      </trkpt>
      <trkpt lat="44.12082" lon="3.09359">
        <ele>363.79998779297</ele>
        <time>2012-10-28T04:20:06Z</time>
      </trkpt>
      <trkpt lat="44.12095" lon="3.09381">
        <ele>363.79998779297</ele>
        <time>2012-10-28T04:20:12Z</time>
      </trkpt>
      <trkpt lat="44.12109" lon="3.09403">
        <ele>363.79998779297</ele>
        <time>2012-10-28T04:20:18Z</time>
      </trkpt>
      <trkpt lat="44.1212" lon="3.09428">
        <ele>363.60000610352</ele>
        <time>2012-10-28T04:20:24Z</time>
      </trkpt>
      <trkpt lat="44.12132" lon="3.09452">
        <ele>363.60000610352</ele>
        <time>2012-10-28T04:20:30Z</time>
      </trkpt>
      <trkpt lat="44.12146" lon="3.09475">
        <ele>363.60000610352</ele>
        <time>2012-10-28T04:20:36Z</time>
      </trkpt>
      <trkpt lat="44.12159" lon="3.09498">
        <ele>363.60000610352</ele>
        <time>2012-10-28T04:20:42Z</time>
      </trkpt>
      <trkpt lat="44.12173" lon="3.09519">
        <ele>363.60000610352</ele>
        <time>2012-10-28T04:20:48Z</time>
      </trkpt>
      <trkpt lat="44.12187" lon="3.0954">
        <ele>363.60000610352</ele>
        <time>2012-10-28T04:20:54Z</time>
      </trkpt>
      <trkpt lat="44.12202" lon="3.0956">
        <ele>363.79998779297</ele>
        <time>2012-10-28T04:21:00Z</time>
      </trkpt>
      <trkpt lat="44.12219" lon="3.09578">
        <ele>364.20001220703</ele>
        <time>2012-10-28T04:21:06Z</time>
      </trkpt>
      <trkpt lat="44.12234" lon="3.09598">
        <ele>364.60000610352</ele>
        <time>2012-10-28T04:21:12Z</time>
      </trkpt>
      <trkpt lat="44.1225" lon="3.09617">
        <ele>364.60000610352</ele>
        <time>2012-10-28T04:21:18Z</time>
      </trkpt>
      <trkpt lat="44.12264" lon="3.09635">
        <ele>364.60000610352</ele>
        <time>2012-10-28T04:21:24Z</time>
      </trkpt>
      <trkpt lat="44.12278" lon="3.09655">
        <ele>364.60000610352</ele>
        <time>2012-10-28T04:21:30Z</time>
      </trkpt>
      <trkpt lat="44.12293" lon="3.09673">
        <ele>364.39999389648</ele>
        <time>2012-10-28T04:21:36Z</time>
      </trkpt>
      <trkpt lat="44.12309" lon="3.0969">
        <ele>364.20001220703</ele>
        <time>2012-10-28T04:21:42Z</time>
      </trkpt>
      <trkpt lat="44.12324" lon="3.09708">
        <ele>364.20001220703</ele>
        <time>2012-10-28T04:21:48Z</time>
      </trkpt>
      <trkpt lat="44.12339" lon="3.09729">
        <ele>364.20001220703</ele>
        <time>2012-10-28T04:21:54Z</time>
      </trkpt>
      <trkpt lat="44.12352" lon="3.0975">
        <ele>364.60000610352</ele>
        <time>2012-10-28T04:22:00Z</time>
      </trkpt>
      <trkpt lat="44.12361" lon="3.09775">
        <ele>364.60000610352</ele>
        <time>2012-10-28T04:22:06Z</time>
      </trkpt>
      <trkpt lat="44.12371" lon="3.09799">
        <ele>364.79998779297</ele>
        <time>2012-10-28T04:22:12Z</time>
      </trkpt>
      <trkpt lat="44.1238" lon="3.09824">
        <ele>365</ele>
        <time>2012-10-28T04:22:18Z</time>
      </trkpt>
      <trkpt lat="44.12387" lon="3.0985">
        <ele>365.39999389648</ele>
        <time>2012-10-28T04:22:24Z</time>
      </trkpt>
      <trkpt lat="44.12394" lon="3.09877">
        <ele>365.60000610352</ele>
        <time>2012-10-28T04:22:30Z</time>
      </trkpt>
      <trkpt lat="44.12402" lon="3.09903">
        <ele>365.79998779297</ele>
        <time>2012-10-28T04:22:36Z</time>
      </trkpt>
      <trkpt lat="44.12412" lon="3.09927">
        <ele>366</ele>
        <time>2012-10-28T04:22:42Z</time>
      </trkpt>
      <trkpt lat="44.12426" lon="3.09948">
        <ele>366.39999389648</ele>
        <time>2012-10-28T04:22:48Z</time>
      </trkpt>
      <trkpt lat="44.12439" lon="3.0997">
        <ele>367</ele>
        <time>2012-10-28T04:22:54Z</time>
      </trkpt>
      <trkpt lat="44.12455" lon="3.09988">
        <ele>367.60000610352</ele>
        <time>2012-10-28T04:23:00Z</time>
      </trkpt>
      <trkpt lat="44.12473" lon="3.10003">
        <ele>368.20001220703</ele>
        <time>2012-10-28T04:23:06Z</time>
      </trkpt>
      <trkpt lat="44.12491" lon="3.10016">
        <ele>368.79998779297</ele>
        <time>2012-10-28T04:23:12Z</time>
      </trkpt>
      <trkpt lat="44.1251" lon="3.10027">
        <ele>369.60000610352</ele>
        <time>2012-10-28T04:23:18Z</time>
      </trkpt>
      <trkpt lat="44.12527" lon="3.10039">
        <ele>370.39999389648</ele>
        <time>2012-10-28T04:23:24Z</time>
      </trkpt>
      <trkpt lat="44.12545" lon="3.10046">
        <ele>370.79998779297</ele>
        <time>2012-10-28T04:23:29Z</time>
      </trkpt>
      <trkpt lat="44.12565" lon="3.10053">
        <ele>371.39999389648</ele>
        <time>2012-10-28T04:23:35Z</time>
      </trkpt>
      <trkpt lat="44.12585" lon="3.10058">
        <ele>371.60000610352</ele>
        <time>2012-10-28T04:23:41Z</time>
      </trkpt>
      <trkpt lat="44.12604" lon="3.10062">
        <ele>372</ele>
        <time>2012-10-28T04:23:47Z</time>
      </trkpt>
      <trkpt lat="44.12625" lon="3.10064">
        <ele>372</ele>
        <time>2012-10-28T04:23:53Z</time>
      </trkpt>
      <trkpt lat="44.12646" lon="3.10064">
        <ele>372</ele>
        <time>2012-10-28T04:23:59Z</time>
      </trkpt>
      <trkpt lat="44.12666" lon="3.10063">
        <ele>372</ele>
        <time>2012-10-28T04:24:05Z</time>
      </trkpt>
      <trkpt lat="44.12687" lon="3.1006">
        <ele>371.79998779297</ele>
        <time>2012-10-28T04:24:11Z</time>
      </trkpt>
      <trkpt lat="44.12708" lon="3.10059">
        <ele>372</ele>
        <time>2012-10-28T04:24:17Z</time>
      </trkpt>
      <trkpt lat="44.12729" lon="3.10057">
        <ele>372.60000610352</ele>
        <time>2012-10-28T04:24:23Z</time>
      </trkpt>
      <trkpt lat="44.12749" lon="3.10058">
        <ele>372.79998779297</ele>
        <time>2012-10-28T04:24:29Z</time>
      </trkpt>
      <trkpt lat="44.12771" lon="3.10053">
        <ele>373.39999389648</ele>
        <time>2012-10-28T04:24:35Z</time>
      </trkpt>
      <trkpt lat="44.1279" lon="3.10046">
        <ele>374.20001220703</ele>
        <time>2012-10-28T04:24:41Z</time>
      </trkpt>
      <trkpt lat="44.12809" lon="3.1004">
        <ele>374.20001220703</ele>
        <time>2012-10-28T04:24:47Z</time>
      </trkpt>
      <trkpt lat="44.12828" lon="3.10035">
        <ele>374.20001220703</ele>
        <time>2012-10-28T04:24:53Z</time>
      </trkpt>
      <trkpt lat="44.12848" lon="3.10028">
        <ele>374.20001220703</ele>
        <time>2012-10-28T04:24:59Z</time>
      </trkpt>
      <trkpt lat="44.12868" lon="3.10021">
        <ele>374</ele>
        <time>2012-10-28T04:25:05Z</time>
      </trkpt>
      <trkpt lat="44.12888" lon="3.10016">
        <ele>374</ele>
        <time>2012-10-28T04:25:11Z</time>
      </trkpt>
      <trkpt lat="44.12906" lon="3.10007">
        <ele>373.79998779297</ele>
        <time>2012-10-28T04:25:17Z</time>
      </trkpt>
      <trkpt lat="44.12926" lon="3.1">
        <ele>373.79998779297</ele>
        <time>2012-10-28T04:25:23Z</time>
      </trkpt>
      <trkpt lat="44.12946" lon="3.09991">
        <ele>373.79998779297</ele>
        <time>2012-10-28T04:25:29Z</time>
      </trkpt>
      <trkpt lat="44.12963" lon="3.09984">
        <ele>373.79998779297</ele>
        <time>2012-10-28T04:25:34Z</time>
      </trkpt>
      <trkpt lat="44.12984" lon="3.09982">
        <ele>374</ele>
        <time>2012-10-28T04:25:39Z</time>
      </trkpt>
      <trkpt lat="44.13002" lon="3.09981">
        <ele>374.20001220703</ele>
        <time>2012-10-28T04:25:44Z</time>
      </trkpt>
      <trkpt lat="44.13022" lon="3.0998">
        <ele>374.39999389648</ele>
        <time>2012-10-28T04:25:50Z</time>
      </trkpt>
      <trkpt lat="44.13041" lon="3.09982">
        <ele>375</ele>
        <time>2012-10-28T04:25:55Z</time>
      </trkpt>
      <trkpt lat="44.13062" lon="3.09984">
        <ele>375.60000610352</ele>
        <time>2012-10-28T04:26:01Z</time>
      </trkpt>
      <trkpt lat="44.13084" lon="3.09985">
        <ele>376.20001220703</ele>
        <time>2012-10-28T04:26:07Z</time>
      </trkpt>
      <trkpt lat="44.13104" lon="3.09986">
        <ele>376.60000610352</ele>
        <time>2012-10-28T04:26:13Z</time>
      </trkpt>
      <trkpt lat="44.13122" lon="3.09989">
        <ele>377</ele>
        <time>2012-10-28T04:26:18Z</time>
      </trkpt>
      <trkpt lat="44.1314" lon="3.09994">
        <ele>376.79998779297</ele>
        <time>2012-10-28T04:26:23Z</time>
      </trkpt>
      <trkpt lat="44.13159" lon="3.10004">
        <ele>377</ele>
        <time>2012-10-28T04:26:29Z</time>
      </trkpt>
      <trkpt lat="44.13177" lon="3.10014">
        <ele>377</ele>
        <time>2012-10-28T04:26:35Z</time>
      </trkpt>
      <trkpt lat="44.13195" lon="3.10023">
        <ele>377.20001220703</ele>
        <time>2012-10-28T04:26:41Z</time>
      </trkpt>
      <trkpt lat="44.13214" lon="3.10031">
        <ele>377.60000610352</ele>
        <time>2012-10-28T04:26:48Z</time>
      </trkpt>
      <trkpt lat="44.13232" lon="3.10045">
        <ele>377.60000610352</ele>
        <time>2012-10-28T04:26:55Z</time>
      </trkpt>
      <trkpt lat="44.13249" lon="3.10062">
        <ele>377.60000610352</ele>
        <time>2012-10-28T04:27:02Z</time>
      </trkpt>
      <trkpt lat="44.13264" lon="3.10079">
        <ele>377.79998779297</ele>
        <time>2012-10-28T04:27:09Z</time>
      </trkpt>
      <trkpt lat="44.1328" lon="3.10096">
        <ele>378.60000610352</ele>
        <time>2012-10-28T04:27:16Z</time>
      </trkpt>
      <trkpt lat="44.13296" lon="3.10112">
        <ele>379.60000610352</ele>
        <time>2012-10-28T04:27:23Z</time>
      </trkpt>
      <trkpt lat="44.13312" lon="3.10128">
        <ele>380.79998779297</ele>
        <time>2012-10-28T04:27:30Z</time>
      </trkpt>
      <trkpt lat="44.13328" lon="3.10143">
        <ele>382</ele>
        <time>2012-10-28T04:27:37Z</time>
      </trkpt>
      <trkpt lat="44.13345" lon="3.10158">
        <ele>383.60000610352</ele>
        <time>2012-10-28T04:27:44Z</time>
      </trkpt>
      <trkpt lat="44.13362" lon="3.1017">
        <ele>385.39999389648</ele>
        <time>2012-10-28T04:27:51Z</time>
      </trkpt>
      <trkpt lat="44.1338" lon="3.10182">
        <ele>388.20001220703</ele>
        <time>2012-10-28T04:27:59Z</time>
      </trkpt>
      <trkpt lat="44.13397" lon="3.10197">
        <ele>390.20001220703</ele>
        <time>2012-10-28T04:28:06Z</time>
      </trkpt>
      <trkpt lat="44.13412" lon="3.10214">
        <ele>392</ele>
        <time>2012-10-28T04:28:13Z</time>
      </trkpt>
      <trkpt lat="44.13425" lon="3.10233">
        <ele>393.60000610352</ele>
        <time>2012-10-28T04:28:20Z</time>
      </trkpt>
      <trkpt lat="44.13439" lon="3.10253">
        <ele>395.79998779297</ele>
        <time>2012-10-28T04:28:28Z</time>
      </trkpt>
      <trkpt lat="44.13454" lon="3.10266">
        <ele>398.20001220703</ele>
        <time>2012-10-28T04:28:35Z</time>
      </trkpt>
      <trkpt lat="44.13472" lon="3.10277">
        <ele>400.79998779297</ele>
        <time>2012-10-28T04:28:42Z</time>
      </trkpt>
      <trkpt lat="44.1349" lon="3.10284">
        <ele>403.20001220703</ele>
        <time>2012-10-28T04:28:49Z</time>
      </trkpt>
      <trkpt lat="44.13509" lon="3.10293">
        <ele>405.20001220703</ele>
        <time>2012-10-28T04:28:56Z</time>
      </trkpt>
      <trkpt lat="44.13527" lon="3.10298">
        <ele>406.79998779297</ele>
        <time>2012-10-28T04:29:02Z</time>
      </trkpt>
      <trkpt lat="44.13547" lon="3.10302">
        <ele>408.79998779297</ele>
        <time>2012-10-28T04:29:09Z</time>
      </trkpt>
      <trkpt lat="44.13566" lon="3.1031">
        <ele>410.39999389648</ele>
        <time>2012-10-28T04:29:16Z</time>
      </trkpt>
      <trkpt lat="44.13584" lon="3.10318">
        <ele>411.60000610352</ele>
        <time>2012-10-28T04:29:23Z</time>
      </trkpt>
      <trkpt lat="44.13601" lon="3.10326">
        <ele>413.20001220703</ele>
        <time>2012-10-28T04:29:30Z</time>
      </trkpt>
      <trkpt lat="44.1362" lon="3.10336">
        <ele>415</ele>
        <time>2012-10-28T04:29:37Z</time>
      </trkpt>
      <trkpt lat="44.13637" lon="3.10346">
        <ele>416.79998779297</ele>
        <time>2012-10-28T04:29:44Z</time>
      </trkpt>
      <trkpt lat="44.13656" lon="3.10356">
        <ele>419.39999389648</ele>
        <time>2012-10-28T04:29:52Z</time>
      </trkpt>
      <trkpt lat="44.13676" lon="3.10361">
        <ele>422</ele>
        <time>2012-10-28T04:30:00Z</time>
      </trkpt>
      <trkpt lat="44.13694" lon="3.10369">
        <ele>423.79998779297</ele>
        <time>2012-10-28T04:30:07Z</time>
      </trkpt>
      <trkpt lat="44.13715" lon="3.10377">
        <ele>425.60000610352</ele>
        <time>2012-10-28T04:30:14Z</time>
      </trkpt>
      <trkpt lat="44.13734" lon="3.10384">
        <ele>427.20001220703</ele>
        <time>2012-10-28T04:30:21Z</time>
      </trkpt>
      <trkpt lat="44.13754" lon="3.1039">
        <ele>428.79998779297</ele>
        <time>2012-10-28T04:30:28Z</time>
      </trkpt>
      <trkpt lat="44.13773" lon="3.10398">
        <ele>430</ele>
        <time>2012-10-28T04:30:35Z</time>
      </trkpt>
      <trkpt lat="44.13791" lon="3.10408">
        <ele>431.20001220703</ele>
        <time>2012-10-28T04:30:42Z</time>
      </trkpt>
      <trkpt lat="44.13809" lon="3.10418">
        <ele>432.60000610352</ele>
        <time>2012-10-28T04:30:49Z</time>
      </trkpt>
      <trkpt lat="44.13826" lon="3.1043">
        <ele>434</ele>
        <time>2012-10-28T04:30:56Z</time>
      </trkpt>
      <trkpt lat="44.13844" lon="3.1044">
        <ele>435.20001220703</ele>
        <time>2012-10-28T04:31:03Z</time>
      </trkpt>
      <trkpt lat="44.13864" lon="3.10446">
        <ele>436.20001220703</ele>
        <time>2012-10-28T04:31:10Z</time>
      </trkpt>
      <trkpt lat="44.13882" lon="3.10451">
        <ele>437.60000610352</ele>
        <time>2012-10-28T04:31:17Z</time>
      </trkpt>
      <trkpt lat="44.13902" lon="3.10457">
        <ele>439.39999389648</ele>
        <time>2012-10-28T04:31:25Z</time>
      </trkpt>
      <trkpt lat="44.13921" lon="3.10463">
        <ele>440.79998779297</ele>
        <time>2012-10-28T04:31:32Z</time>
      </trkpt>
      <trkpt lat="44.13939" lon="3.10466">
        <ele>442.20001220703</ele>
        <time>2012-10-28T04:31:39Z</time>
      </trkpt>
      <trkpt lat="44.13959" lon="3.1047">
        <ele>443.79998779297</ele>
        <time>2012-10-28T04:31:46Z</time>
      </trkpt>
      <trkpt lat="44.13977" lon="3.10479">
        <ele>445.20001220703</ele>
        <time>2012-10-28T04:31:53Z</time>
      </trkpt>
      <trkpt lat="44.13996" lon="3.10491">
        <ele>446.60000610352</ele>
        <time>2012-10-28T04:32:01Z</time>
      </trkpt>
      <trkpt lat="44.14014" lon="3.10502">
        <ele>447.60000610352</ele>
        <time>2012-10-28T04:32:08Z</time>
      </trkpt>
      <trkpt lat="44.14034" lon="3.10514">
        <ele>448.20001220703</ele>
        <time>2012-10-28T04:32:16Z</time>
      </trkpt>
      <trkpt lat="44.14051" lon="3.10528">
        <ele>449</ele>
        <time>2012-10-28T04:32:23Z</time>
      </trkpt>
      <trkpt lat="44.14063" lon="3.10546">
        <ele>450.20001220703</ele>
        <time>2012-10-28T04:32:31Z</time>
      </trkpt>
      <trkpt lat="44.14067" lon="3.1057">
        <ele>451.60000610352</ele>
        <time>2012-10-28T04:32:38Z</time>
      </trkpt>
      <trkpt lat="44.14065" lon="3.10597">
        <ele>454.20001220703</ele>
        <time>2012-10-28T04:32:46Z</time>
      </trkpt>
      <trkpt lat="44.14055" lon="3.10618">
        <ele>456.60000610352</ele>
        <time>2012-10-28T04:32:53Z</time>
      </trkpt>
      <trkpt lat="44.14042" lon="3.10639">
        <ele>459.20001220703</ele>
        <time>2012-10-28T04:33:00Z</time>
      </trkpt>
      <trkpt lat="44.14028" lon="3.10657">
        <ele>460.20001220703</ele>
        <time>2012-10-28T04:33:07Z</time>
      </trkpt>
      <trkpt lat="44.14013" lon="3.10672">
        <ele>460.79998779297</ele>
        <time>2012-10-28T04:33:14Z</time>
      </trkpt>
      <trkpt lat="44.13997" lon="3.10678">
        <ele>461.79998779297</ele>
        <time>2012-10-28T04:33:20Z</time>
      </trkpt>
      <trkpt lat="44.13995" lon="3.10678">
        <ele>462</ele>
        <time>2012-10-28T04:33:21Z</time>
      </trkpt>
      <trkpt lat="44.13978" lon="3.10671">
        <ele>464</ele>
        <time>2012-10-28T04:33:27Z</time>
      </trkpt>
      <trkpt lat="44.13962" lon="3.10655">
        <ele>465.60000610352</ele>
        <time>2012-10-28T04:33:36Z</time>
      </trkpt>
      <trkpt lat="44.1396" lon="3.10628">
        <ele>467.20001220703</ele>
        <time>2012-10-28T04:33:45Z</time>
      </trkpt>
      <trkpt lat="44.1396" lon="3.10601">
        <ele>469.39999389648</ele>
        <time>2012-10-28T04:33:54Z</time>
      </trkpt>
      <trkpt lat="44.13959" lon="3.10596">
        <ele>470.20001220703</ele>
        <time>2012-10-28T04:33:57Z</time>
      </trkpt>
      <trkpt lat="44.1395" lon="3.10595">
        <ele>471</ele>
        <time>2012-10-28T04:34:01Z</time>
      </trkpt>
      <trkpt lat="44.13945" lon="3.10595">
        <ele>471.60000610352</ele>
        <time>2012-10-28T04:34:03Z</time>
      </trkpt>
      <trkpt lat="44.13926" lon="3.10595">
        <ele>473.79998779297</ele>
        <time>2012-10-28T04:34:09Z</time>
      </trkpt>
      <trkpt lat="44.13907" lon="3.10596">
        <ele>475.79998779297</ele>
        <time>2012-10-28T04:34:15Z</time>
      </trkpt>
      <trkpt lat="44.13891" lon="3.10613">
        <ele>476.60000610352</ele>
        <time>2012-10-28T04:34:23Z</time>
      </trkpt>
      <trkpt lat="44.1388" lon="3.10632">
        <ele>476.60000610352</ele>
        <time>2012-10-28T04:34:29Z</time>
      </trkpt>
      <trkpt lat="44.13868" lon="3.10654">
        <ele>476.60000610352</ele>
        <time>2012-10-28T04:34:36Z</time>
      </trkpt>
      <trkpt lat="44.13855" lon="3.10675">
        <ele>477.20001220703</ele>
        <time>2012-10-28T04:34:43Z</time>
      </trkpt>
      <trkpt lat="44.13842" lon="3.10696">
        <ele>478.39999389648</ele>
        <time>2012-10-28T04:34:51Z</time>
      </trkpt>
      <trkpt lat="44.13833" lon="3.10719">
        <ele>480.79998779297</ele>
        <time>2012-10-28T04:35:00Z</time>
      </trkpt>
      <trkpt lat="44.13827" lon="3.10744">
        <ele>483</ele>
        <time>2012-10-28T04:35:10Z</time>
      </trkpt>
      <trkpt lat="44.13824" lon="3.10766">
        <ele>485.20001220703</ele>
        <time>2012-10-28T04:35:20Z</time>
      </trkpt>
      <trkpt lat="44.13824" lon="3.1077">
        <ele>485.39999389648</ele>
        <time>2012-10-28T04:35:22Z</time>
      </trkpt>
      <trkpt lat="44.13826" lon="3.10779">
        <ele>486</ele>
        <time>2012-10-28T04:35:26Z</time>
      </trkpt>
      <trkpt lat="44.13824" lon="3.10795">
        <ele>487</ele>
        <time>2012-10-28T04:35:35Z</time>
      </trkpt>
      <trkpt lat="44.13827" lon="3.10811">
        <ele>488.20001220703</ele>
        <time>2012-10-28T04:35:43Z</time>
      </trkpt>
      <trkpt lat="44.1383" lon="3.1082">
        <ele>489.60000610352</ele>
        <time>2012-10-28T04:35:48Z</time>
      </trkpt>
      <trkpt lat="44.13833" lon="3.10827">
        <ele>490.60000610352</ele>
        <time>2012-10-28T04:35:51Z</time>
      </trkpt>
      <trkpt lat="44.13835" lon="3.10842">
        <ele>493.39999389648</ele>
        <time>2012-10-28T04:35:59Z</time>
      </trkpt>
      <trkpt lat="44.13836" lon="3.10844">
        <ele>493.79998779297</ele>
        <time>2012-10-28T04:36:00Z</time>
      </trkpt>
      <trkpt lat="44.13849" lon="3.10861">
        <ele>495.60000610352</ele>
        <time>2012-10-28T04:36:06Z</time>
      </trkpt>
      <trkpt lat="44.13863" lon="3.1088">
        <ele>498.20001220703</ele>
        <time>2012-10-28T04:36:13Z</time>
      </trkpt>
      <trkpt lat="44.13872" lon="3.10899">
        <ele>501</ele>
        <time>2012-10-28T04:36:20Z</time>
      </trkpt>
      <trkpt lat="44.13873" lon="3.10903">
        <ele>501.79998779297</ele>
        <time>2012-10-28T04:36:22Z</time>
      </trkpt>
      <trkpt lat="44.1388" lon="3.10915">
        <ele>504.60000610352</ele>
        <time>2012-10-28T04:36:27Z</time>
      </trkpt>
      <trkpt lat="44.13883" lon="3.10924">
        <ele>506.20001220703</ele>
        <time>2012-10-28T04:36:30Z</time>
      </trkpt>
      <trkpt lat="44.13894" lon="3.10949">
        <ele>510.20001220703</ele>
        <time>2012-10-28T04:36:39Z</time>
      </trkpt>
      <trkpt lat="44.13907" lon="3.1097">
        <ele>513.40002441406</ele>
        <time>2012-10-28T04:36:47Z</time>
      </trkpt>
      <trkpt lat="44.13914" lon="3.10995">
        <ele>517.20001220703</ele>
        <time>2012-10-28T04:36:55Z</time>
      </trkpt>
      <trkpt lat="44.1391" lon="3.11018">
        <ele>522</ele>
        <time>2012-10-28T04:37:05Z</time>
      </trkpt>
      <trkpt lat="44.1391" lon="3.1102">
        <ele>522.40002441406</ele>
        <time>2012-10-28T04:37:06Z</time>
      </trkpt>
      <trkpt lat="44.1391" lon="3.11034">
        <ele>524.40002441406</ele>
        <time>2012-10-28T04:37:13Z</time>
      </trkpt>
      <trkpt lat="44.13913" lon="3.11042">
        <ele>525.59997558594</ele>
        <time>2012-10-28T04:37:17Z</time>
      </trkpt>
      <trkpt lat="44.13912" lon="3.11045">
        <ele>526.20001220703</ele>
        <time>2012-10-28T04:37:19Z</time>
      </trkpt>
      <trkpt lat="44.13914" lon="3.11049">
        <ele>526.79998779297</ele>
        <time>2012-10-28T04:37:21Z</time>
      </trkpt>
      <trkpt lat="44.13912" lon="3.11052">
        <ele>527.20001220703</ele>
        <time>2012-10-28T04:37:23Z</time>
      </trkpt>
      <trkpt lat="44.13912" lon="3.11056">
        <ele>527.59997558594</ele>
        <time>2012-10-28T04:37:25Z</time>
      </trkpt>
      <trkpt lat="44.13913" lon="3.11068">
        <ele>528.40002441406</ele>
        <time>2012-10-28T04:37:31Z</time>
      </trkpt>
      <trkpt lat="44.13915" lon="3.11072">
        <ele>528.79998779297</ele>
        <time>2012-10-28T04:37:33Z</time>
      </trkpt>
      <trkpt lat="44.13914" lon="3.11078">
        <ele>529.59997558594</ele>
        <time>2012-10-28T04:37:37Z</time>
      </trkpt>
      <trkpt lat="44.13915" lon="3.11079">
        <ele>529.79998779297</ele>
        <time>2012-10-28T04:37:38Z</time>
      </trkpt>
      <trkpt lat="44.13922" lon="3.11094">
        <ele>531.40002441406</ele>
        <time>2012-10-28T04:37:47Z</time>
      </trkpt>
      <trkpt lat="44.1392" lon="3.11099">
        <ele>532.20001220703</ele>
        <time>2012-10-28T04:37:52Z</time>
      </trkpt>
      <trkpt lat="44.13921" lon="3.111">
        <ele>532.40002441406</ele>
        <time>2012-10-28T04:37:53Z</time>
      </trkpt>
      <trkpt lat="44.13921" lon="3.11103">
        <ele>532.59997558594</ele>
        <time>2012-10-28T04:37:55Z</time>
      </trkpt>
      <trkpt lat="44.13933" lon="3.11117">
        <ele>534.40002441406</ele>
        <time>2012-10-28T04:38:05Z</time>
      </trkpt>
      <trkpt lat="44.13933" lon="3.11119">
        <ele>534.59997558594</ele>
        <time>2012-10-28T04:38:06Z</time>
      </trkpt>
      <trkpt lat="44.13935" lon="3.11123">
        <ele>535.40002441406</ele>
        <time>2012-10-28T04:38:10Z</time>
      </trkpt>
      <trkpt lat="44.13947" lon="3.11135">
        <ele>538</ele>
        <time>2012-10-28T04:38:21Z</time>
      </trkpt>
      <trkpt lat="44.13947" lon="3.11137">
        <ele>538.20001220703</ele>
        <time>2012-10-28T04:38:22Z</time>
      </trkpt>
      <trkpt lat="44.13952" lon="3.11146">
        <ele>539.79998779297</ele>
        <time>2012-10-28T04:38:28Z</time>
      </trkpt>
      <trkpt lat="44.13954" lon="3.11158">
        <ele>542</ele>
        <time>2012-10-28T04:38:36Z</time>
      </trkpt>
      <trkpt lat="44.13954" lon="3.11179">
        <ele>546.40002441406</ele>
        <time>2012-10-28T04:38:49Z</time>
      </trkpt>
      <trkpt lat="44.13955" lon="3.1118">
        <ele>546.79998779297</ele>
        <time>2012-10-28T04:38:50Z</time>
      </trkpt>
      <trkpt lat="44.13954" lon="3.11183">
        <ele>547.40002441406</ele>
        <time>2012-10-28T04:38:52Z</time>
      </trkpt>
      <trkpt lat="44.13957" lon="3.11204">
        <ele>551.40002441406</ele>
        <time>2012-10-28T04:39:05Z</time>
      </trkpt>
      <trkpt lat="44.13956" lon="3.11206">
        <ele>552</ele>
        <time>2012-10-28T04:39:07Z</time>
      </trkpt>
      <trkpt lat="44.13952" lon="3.11205">
        <ele>552.59997558594</ele>
        <time>2012-10-28T04:39:09Z</time>
      </trkpt>
      <trkpt lat="44.13945" lon="3.11198">
        <ele>554.59997558594</ele>
        <time>2012-10-28T04:39:15Z</time>
      </trkpt>
      <trkpt lat="44.13944" lon="3.11197">
        <ele>555</ele>
        <time>2012-10-28T04:39:16Z</time>
      </trkpt>
      <trkpt lat="44.1394" lon="3.11192">
        <ele>556.20001220703</ele>
        <time>2012-10-28T04:39:20Z</time>
      </trkpt>
      <trkpt lat="44.13939" lon="3.1119">
        <ele>556.59997558594</ele>
        <time>2012-10-28T04:39:21Z</time>
      </trkpt>
      <trkpt lat="44.13927" lon="3.11182">
        <ele>559.59997558594</ele>
        <time>2012-10-28T04:39:28Z</time>
      </trkpt>
      <trkpt lat="44.13924" lon="3.11181">
        <ele>561.59997558594</ele>
        <time>2012-10-28T04:39:35Z</time>
      </trkpt>
      <trkpt lat="44.13908" lon="3.11175">
        <ele>565.79998779297</ele>
        <time>2012-10-28T04:39:47Z</time>
      </trkpt>
      <trkpt lat="44.13906" lon="3.11175">
        <ele>566</ele>
        <time>2012-10-28T04:39:48Z</time>
      </trkpt>
      <trkpt lat="44.1389" lon="3.11165">
        <ele>572</ele>
        <time>2012-10-28T04:40:06Z</time>
      </trkpt>
      <trkpt lat="44.1389" lon="3.11164">
        <ele>572.20001220703</ele>
        <time>2012-10-28T04:40:07Z</time>
      </trkpt>
      <trkpt lat="44.13885" lon="3.11157">
        <ele>574.59997558594</ele>
        <time>2012-10-28T04:40:13Z</time>
      </trkpt>
      <trkpt lat="44.13881" lon="3.11154">
        <ele>575.79998779297</ele>
        <time>2012-10-28T04:40:16Z</time>
      </trkpt>
      <trkpt lat="44.13874" lon="3.11153">
        <ele>577.59997558594</ele>
        <time>2012-10-28T04:40:22Z</time>
      </trkpt>
      <trkpt lat="44.13856" lon="3.11143">
        <ele>583.59997558594</ele>
        <time>2012-10-28T04:40:40Z</time>
      </trkpt>
      <trkpt lat="44.13839" lon="3.11136">
        <ele>590</ele>
        <time>2012-10-28T04:41:01Z</time>
      </trkpt>
      <trkpt lat="44.13822" lon="3.11128">
        <ele>596</ele>
        <time>2012-10-28T04:41:22Z</time>
      </trkpt>
      <trkpt lat="44.13806" lon="3.11116">
        <ele>601.40002441406</ele>
        <time>2012-10-28T04:41:41Z</time>
      </trkpt>
      <trkpt lat="44.13794" lon="3.1111">
        <ele>605.79998779297</ele>
        <time>2012-10-28T04:41:53Z</time>
      </trkpt>
      <trkpt lat="44.13789" lon="3.11107">
        <ele>607.20001220703</ele>
        <time>2012-10-28T04:41:57Z</time>
      </trkpt>
      <trkpt lat="44.13783" lon="3.11103">
        <ele>609.59997558594</ele>
        <time>2012-10-28T04:42:05Z</time>
      </trkpt>
      <trkpt lat="44.13779" lon="3.11099">
        <ele>611</ele>
        <time>2012-10-28T04:42:12Z</time>
      </trkpt>
      <trkpt lat="44.13773" lon="3.11097">
        <ele>612.59997558594</ele>
        <time>2012-10-28T04:42:18Z</time>
      </trkpt>
      <trkpt lat="44.13758" lon="3.11097">
        <ele>614.79998779297</ele>
        <time>2012-10-28T04:42:28Z</time>
      </trkpt>
      <trkpt lat="44.13755" lon="3.11097">
        <ele>615</ele>
        <time>2012-10-28T04:42:30Z</time>
      </trkpt>
      <trkpt lat="44.13748" lon="3.11098">
        <ele>615.20001220703</ele>
        <time>2012-10-28T04:42:34Z</time>
      </trkpt>
      <trkpt lat="44.13736" lon="3.11098">
        <ele>616.20001220703</ele>
        <time>2012-10-28T04:42:44Z</time>
      </trkpt>
      <trkpt lat="44.13735" lon="3.11098">
        <ele>616.40002441406</ele>
        <time>2012-10-28T04:42:46Z</time>
      </trkpt>
      <trkpt lat="44.13732" lon="3.111">
        <ele>616.59997558594</ele>
        <time>2012-10-28T04:42:50Z</time>
      </trkpt>
      <trkpt lat="44.13717" lon="3.11104">
        <ele>618.59997558594</ele>
        <time>2012-10-28T04:43:01Z</time>
      </trkpt>
      <trkpt lat="44.13708" lon="3.11111">
        <ele>621.20001220703</ele>
        <time>2012-10-28T04:43:12Z</time>
      </trkpt>
      <trkpt lat="44.137" lon="3.11112">
        <ele>623.79998779297</ele>
        <time>2012-10-28T04:43:20Z</time>
      </trkpt>
      <trkpt lat="44.13691" lon="3.11115">
        <ele>626</ele>
        <time>2012-10-28T04:43:27Z</time>
      </trkpt>
      <trkpt lat="44.13684" lon="3.1112">
        <ele>628.59997558594</ele>
        <time>2012-10-28T04:43:35Z</time>
      </trkpt>
      <trkpt lat="44.13682" lon="3.1112">
        <ele>628.79998779297</ele>
        <time>2012-10-28T04:43:36Z</time>
      </trkpt>
      <trkpt lat="44.13678" lon="3.11122">
        <ele>630</ele>
        <time>2012-10-28T04:43:39Z</time>
      </trkpt>
      <trkpt lat="44.13668" lon="3.11125">
        <ele>632.59997558594</ele>
        <time>2012-10-28T04:43:45Z</time>
      </trkpt>
      <trkpt lat="44.13663" lon="3.11128">
        <ele>635.40002441406</ele>
        <time>2012-10-28T04:43:51Z</time>
      </trkpt>
      <trkpt lat="44.13662" lon="3.11133">
        <ele>637</ele>
        <time>2012-10-28T04:43:56Z</time>
      </trkpt>
      <trkpt lat="44.13657" lon="3.11134">
        <ele>638.79998779297</ele>
        <time>2012-10-28T04:44:00Z</time>
      </trkpt>
      <trkpt lat="44.13647" lon="3.1114">
        <ele>643.20001220703</ele>
        <time>2012-10-28T04:44:10Z</time>
      </trkpt>
      <trkpt lat="44.13633" lon="3.11144">
        <ele>649.40002441406</ele>
        <time>2012-10-28T04:44:23Z</time>
      </trkpt>
      <trkpt lat="44.13629" lon="3.11147">
        <ele>650.79998779297</ele>
        <time>2012-10-28T04:44:27Z</time>
      </trkpt>
      <trkpt lat="44.13613" lon="3.11159">
        <ele>654.40002441406</ele>
        <time>2012-10-28T04:44:45Z</time>
      </trkpt>
      <trkpt lat="44.13608" lon="3.11161">
        <ele>655.20001220703</ele>
        <time>2012-10-28T04:44:50Z</time>
      </trkpt>
      <trkpt lat="44.13597" lon="3.11164">
        <ele>657.79998779297</ele>
        <time>2012-10-28T04:45:00Z</time>
      </trkpt>
      <trkpt lat="44.13596" lon="3.11165">
        <ele>658</ele>
        <time>2012-10-28T04:45:01Z</time>
      </trkpt>
      <trkpt lat="44.13581" lon="3.11171">
        <ele>663</ele>
        <time>2012-10-28T04:45:14Z</time>
      </trkpt>
      <trkpt lat="44.13578" lon="3.11175">
        <ele>664.20001220703</ele>
        <time>2012-10-28T04:45:19Z</time>
      </trkpt>
      <trkpt lat="44.13567" lon="3.11182">
        <ele>670.20001220703</ele>
        <time>2012-10-28T04:45:35Z</time>
      </trkpt>
      <trkpt lat="44.13561" lon="3.11183">
        <ele>672.59997558594</ele>
        <time>2012-10-28T04:45:40Z</time>
      </trkpt>
      <trkpt lat="44.13559" lon="3.11183">
        <ele>673.40002441406</ele>
        <time>2012-10-28T04:45:42Z</time>
      </trkpt>
      <trkpt lat="44.13556" lon="3.11184">
        <ele>674.79998779297</ele>
        <time>2012-10-28T04:45:45Z</time>
      </trkpt>
      <trkpt lat="44.13554" lon="3.11184">
        <ele>675.79998779297</ele>
        <time>2012-10-28T04:45:47Z</time>
      </trkpt>
      <trkpt lat="44.13553" lon="3.11185">
        <ele>676.59997558594</ele>
        <time>2012-10-28T04:45:49Z</time>
      </trkpt>
      <trkpt lat="44.13544" lon="3.11192">
        <ele>681.79998779297</ele>
        <time>2012-10-28T04:46:01Z</time>
      </trkpt>
      <trkpt lat="44.13525" lon="3.11198">
        <ele>687</ele>
        <time>2012-10-28T04:46:20Z</time>
      </trkpt>
      <trkpt lat="44.13508" lon="3.112">
        <ele>692.40002441406</ele>
        <time>2012-10-28T04:46:35Z</time>
      </trkpt>
      <trkpt lat="44.13506" lon="3.112">
        <ele>692.79998779297</ele>
        <time>2012-10-28T04:46:36Z</time>
      </trkpt>
      <trkpt lat="44.13499" lon="3.11201">
        <ele>695</ele>
        <time>2012-10-28T04:46:43Z</time>
      </trkpt>
      <trkpt lat="44.13488" lon="3.11202">
        <ele>697.40002441406</ele>
        <time>2012-10-28T04:46:52Z</time>
      </trkpt>
      <trkpt lat="44.13473" lon="3.11217">
        <ele>702.40002441406</ele>
        <time>2012-10-28T04:47:13Z</time>
      </trkpt>
      <trkpt lat="44.13472" lon="3.11218">
        <ele>702.79998779297</ele>
        <time>2012-10-28T04:47:15Z</time>
      </trkpt>
      <trkpt lat="44.13467" lon="3.1122">
        <ele>704.20001220703</ele>
        <time>2012-10-28T04:47:19Z</time>
      </trkpt>
      <trkpt lat="44.13464" lon="3.1122">
        <ele>704.79998779297</ele>
        <time>2012-10-28T04:47:21Z</time>
      </trkpt>
      <trkpt lat="44.13463" lon="3.11221">
        <ele>705.40002441406</ele>
        <time>2012-10-28T04:47:23Z</time>
      </trkpt>
      <trkpt lat="44.13461" lon="3.11224">
        <ele>706.20001220703</ele>
        <time>2012-10-28T04:47:27Z</time>
      </trkpt>
      <trkpt lat="44.13459" lon="3.11228">
        <ele>707</ele>
        <time>2012-10-28T04:47:31Z</time>
      </trkpt>
      <trkpt lat="44.13455" lon="3.11231">
        <ele>707.59997558594</ele>
        <time>2012-10-28T04:47:34Z</time>
      </trkpt>
      <trkpt lat="44.13453" lon="3.11233">
        <ele>707.79998779297</ele>
        <time>2012-10-28T04:47:36Z</time>
      </trkpt>
      <trkpt lat="44.13439" lon="3.11241">
        <ele>709.59997558594</ele>
        <time>2012-10-28T04:47:50Z</time>
      </trkpt>
      <trkpt lat="44.13437" lon="3.11241">
        <ele>710</ele>
        <time>2012-10-28T04:47:51Z</time>
      </trkpt>
      <trkpt lat="44.13422" lon="3.11248">
        <ele>712.59997558594</ele>
        <time>2012-10-28T04:48:02Z</time>
      </trkpt>
      <trkpt lat="44.13419" lon="3.11249">
        <ele>713.20001220703</ele>
        <time>2012-10-28T04:48:04Z</time>
      </trkpt>
      <trkpt lat="44.13415" lon="3.11252">
        <ele>714.79998779297</ele>
        <time>2012-10-28T04:48:08Z</time>
      </trkpt>
      <trkpt lat="44.13415" lon="3.11254">
        <ele>715.59997558594</ele>
        <time>2012-10-28T04:48:10Z</time>
      </trkpt>
      <trkpt lat="44.13425" lon="3.11256">
        <ele>717.59997558594</ele>
        <time>2012-10-28T04:48:15Z</time>
      </trkpt>
      <trkpt lat="44.13429" lon="3.11257">
        <ele>718.59997558594</ele>
        <time>2012-10-28T04:48:17Z</time>
      </trkpt>
      <trkpt lat="44.13441" lon="3.1126">
        <ele>720.79998779297</ele>
        <time>2012-10-28T04:48:23Z</time>
      </trkpt>
      <trkpt lat="44.13443" lon="3.11267">
        <ele>721.79998779297</ele>
        <time>2012-10-28T04:48:26Z</time>
      </trkpt>
      <trkpt lat="44.13434" lon="3.11273">
        <ele>724.40002441406</ele>
        <time>2012-10-28T04:48:32Z</time>
      </trkpt>
      <trkpt lat="44.13426" lon="3.11274">
        <ele>726</ele>
        <time>2012-10-28T04:48:36Z</time>
      </trkpt>
      <trkpt lat="44.13416" lon="3.11281">
        <ele>730.59997558594</ele>
        <time>2012-10-28T04:48:47Z</time>
      </trkpt>
      <trkpt lat="44.13408" lon="3.11284">
        <ele>732.59997558594</ele>
        <time>2012-10-28T04:48:52Z</time>
      </trkpt>
      <trkpt lat="44.13404" lon="3.11285">
        <ele>734</ele>
        <time>2012-10-28T04:48:55Z</time>
      </trkpt>
      <trkpt lat="44.13396" lon="3.11294">
        <ele>737.40002441406</ele>
        <time>2012-10-28T04:49:06Z</time>
      </trkpt>
      <trkpt lat="44.13391" lon="3.11296">
        <ele>739</ele>
        <time>2012-10-28T04:49:11Z</time>
      </trkpt>
      <trkpt lat="44.13383" lon="3.11301">
        <ele>740.79998779297</ele>
        <time>2012-10-28T04:49:18Z</time>
      </trkpt>
      <trkpt lat="44.13375" lon="3.11307">
        <ele>742.79998779297</ele>
        <time>2012-10-28T04:49:26Z</time>
      </trkpt>
      <trkpt lat="44.13373" lon="3.11308">
        <ele>743.20001220703</ele>
        <time>2012-10-28T04:49:27Z</time>
      </trkpt>
      <trkpt lat="44.13373" lon="3.11312">
        <ele>744.20001220703</ele>
        <time>2012-10-28T04:49:31Z</time>
      </trkpt>
      <trkpt lat="44.1338" lon="3.11314">
        <ele>745.59997558594</ele>
        <time>2012-10-28T04:49:38Z</time>
      </trkpt>
      <trkpt lat="44.13388" lon="3.11317">
        <ele>746.79998779297</ele>
        <time>2012-10-28T04:49:43Z</time>
      </trkpt>
      <trkpt lat="44.13399" lon="3.11324">
        <ele>749</ele>
        <time>2012-10-28T04:49:52Z</time>
      </trkpt>
      <trkpt lat="44.13403" lon="3.11328">
        <ele>751.20001220703</ele>
        <time>2012-10-28T04:49:59Z</time>
      </trkpt>
      <trkpt lat="44.13404" lon="3.11329">
        <ele>752</ele>
        <time>2012-10-28T04:50:01Z</time>
      </trkpt>
      <trkpt lat="44.13421" lon="3.11341">
        <ele>759.20001220703</ele>
        <time>2012-10-28T04:50:19Z</time>
      </trkpt>
      <trkpt lat="44.13439" lon="3.11347">
        <ele>764</ele>
        <time>2012-10-28T04:50:31Z</time>
      </trkpt>
      <trkpt lat="44.13456" lon="3.11355">
        <ele>766.79998779297</ele>
        <time>2012-10-28T04:50:41Z</time>
      </trkpt>
      <trkpt lat="44.13457" lon="3.11355">
        <ele>767.20001220703</ele>
        <time>2012-10-28T04:50:42Z</time>
      </trkpt>
      <trkpt lat="44.13462" lon="3.11359">
        <ele>768.20001220703</ele>
        <time>2012-10-28T04:50:46Z</time>
      </trkpt>
      <trkpt lat="44.13472" lon="3.11367">
        <ele>770.59997558594</ele>
        <time>2012-10-28T04:50:55Z</time>
      </trkpt>
      <trkpt lat="44.1349" lon="3.11376">
        <ele>774.79998779297</ele>
        <time>2012-10-28T04:51:10Z</time>
      </trkpt>
      <trkpt lat="44.13506" lon="3.11387">
        <ele>778.20001220703</ele>
        <time>2012-10-28T04:51:24Z</time>
      </trkpt>
      <trkpt lat="44.13522" lon="3.11399">
        <ele>780.40002441406</ele>
        <time>2012-10-28T04:51:38Z</time>
      </trkpt>
      <trkpt lat="44.13523" lon="3.114">
        <ele>780.59997558594</ele>
        <time>2012-10-28T04:51:39Z</time>
      </trkpt>
      <trkpt lat="44.13527" lon="3.11404">
        <ele>782</ele>
        <time>2012-10-28T04:51:44Z</time>
      </trkpt>
      <trkpt lat="44.13538" lon="3.11414">
        <ele>785.59997558594</ele>
        <time>2012-10-28T04:51:57Z</time>
      </trkpt>
      <trkpt lat="44.13554" lon="3.11428">
        <ele>790.20001220703</ele>
        <time>2012-10-28T04:52:13Z</time>
      </trkpt>
      <trkpt lat="44.13558" lon="3.11436">
        <ele>792.79998779297</ele>
        <time>2012-10-28T04:52:21Z</time>
      </trkpt>
      <trkpt lat="44.13562" lon="3.11443">
        <ele>795.79998779297</ele>
        <time>2012-10-28T04:52:29Z</time>
      </trkpt>
      <trkpt lat="44.13565" lon="3.11449">
        <ele>797.20001220703</ele>
        <time>2012-10-28T04:52:34Z</time>
      </trkpt>
      <trkpt lat="44.13577" lon="3.11468">
        <ele>802</ele>
        <time>2012-10-28T04:52:50Z</time>
      </trkpt>
      <trkpt lat="44.13581" lon="3.11475">
        <ele>804</ele>
        <time>2012-10-28T04:52:57Z</time>
      </trkpt>
      <trkpt lat="44.13589" lon="3.11487">
        <ele>806.20001220703</ele>
        <time>2012-10-28T04:53:05Z</time>
      </trkpt>
      <trkpt lat="44.13595" lon="3.11498">
        <ele>808</ele>
        <time>2012-10-28T04:53:12Z</time>
      </trkpt>
      <trkpt lat="44.13597" lon="3.11509">
        <ele>809.40002441406</ele>
        <time>2012-10-28T04:53:17Z</time>
      </trkpt>
      <trkpt lat="44.13594" lon="3.11515">
        <ele>810.59997558594</ele>
        <time>2012-10-28T04:53:21Z</time>
      </trkpt>
      <trkpt lat="44.13594" lon="3.11516">
        <ele>811</ele>
        <time>2012-10-28T04:53:22Z</time>
      </trkpt>
      <trkpt lat="44.13584" lon="3.11522">
        <ele>814</ele>
        <time>2012-10-28T04:53:32Z</time>
      </trkpt>
      <trkpt lat="44.13582" lon="3.11524">
        <ele>814.79998779297</ele>
        <time>2012-10-28T04:53:34Z</time>
      </trkpt>
      <trkpt lat="44.13575" lon="3.11548">
        <ele>818.79998779297</ele>
        <time>2012-10-28T04:53:44Z</time>
      </trkpt>
      <trkpt lat="44.13568" lon="3.11562">
        <ele>821.79998779297</ele>
        <time>2012-10-28T04:53:51Z</time>
      </trkpt>
      <trkpt lat="44.13566" lon="3.11569">
        <ele>823</ele>
        <time>2012-10-28T04:53:54Z</time>
      </trkpt>
      <trkpt lat="44.13566" lon="3.11572">
        <ele>823.40002441406</ele>
        <time>2012-10-28T04:53:55Z</time>
      </trkpt>
      <trkpt lat="44.13564" lon="3.11595">
        <ele>825.59997558594</ele>
        <time>2012-10-28T04:54:03Z</time>
      </trkpt>
      <trkpt lat="44.13559" lon="3.11618">
        <ele>826.79998779297</ele>
        <time>2012-10-28T04:54:10Z</time>
      </trkpt>
      <trkpt lat="44.13555" lon="3.11645">
        <ele>827.59997558594</ele>
        <time>2012-10-28T04:54:17Z</time>
      </trkpt>
      <trkpt lat="44.13556" lon="3.11673">
        <ele>828.59997558594</ele>
        <time>2012-10-28T04:54:25Z</time>
      </trkpt>
      <trkpt lat="44.13558" lon="3.11698">
        <ele>829.59997558594</ele>
        <time>2012-10-28T04:54:33Z</time>
      </trkpt>
      <trkpt lat="44.13557" lon="3.11725">
        <ele>831</ele>
        <time>2012-10-28T04:54:41Z</time>
      </trkpt>
      <trkpt lat="44.1355" lon="3.11749">
        <ele>832.20001220703</ele>
        <time>2012-10-28T04:54:48Z</time>
      </trkpt>
      <trkpt lat="44.13544" lon="3.11774">
        <ele>833.59997558594</ele>
        <time>2012-10-28T04:54:55Z</time>
      </trkpt>
      <trkpt lat="44.13538" lon="3.118">
        <ele>834.79998779297</ele>
        <time>2012-10-28T04:55:02Z</time>
      </trkpt>
      <trkpt lat="44.13532" lon="3.11824">
        <ele>835.79998779297</ele>
        <time>2012-10-28T04:55:08Z</time>
      </trkpt>
      <trkpt lat="44.13524" lon="3.11846">
        <ele>836.20001220703</ele>
        <time>2012-10-28T04:55:14Z</time>
      </trkpt>
      <trkpt lat="44.13517" lon="3.11871">
        <ele>836.40002441406</ele>
        <time>2012-10-28T04:55:20Z</time>
      </trkpt>
      <trkpt lat="44.13509" lon="3.11895">
        <ele>836.59997558594</ele>
        <time>2012-10-28T04:55:26Z</time>
      </trkpt>
      <trkpt lat="44.13501" lon="3.11919">
        <ele>836.59997558594</ele>
        <time>2012-10-28T04:55:32Z</time>
      </trkpt>
      <trkpt lat="44.13495" lon="3.11944">
        <ele>836.40002441406</ele>
        <time>2012-10-28T04:55:38Z</time>
      </trkpt>
      <trkpt lat="44.13488" lon="3.1197">
        <ele>836.20001220703</ele>
        <time>2012-10-28T04:55:44Z</time>
      </trkpt>
      <trkpt lat="44.13481" lon="3.11997">
        <ele>836</ele>
        <time>2012-10-28T04:55:50Z</time>
      </trkpt>
      <trkpt lat="44.13472" lon="3.12021">
        <ele>835.40002441406</ele>
        <time>2012-10-28T04:55:56Z</time>
      </trkpt>
      <trkpt lat="44.13463" lon="3.12046">
        <ele>835</ele>
        <time>2012-10-28T04:56:02Z</time>
      </trkpt>
      <trkpt lat="44.13463" lon="3.12072">
        <ele>834.20001220703</ele>
        <time>2012-10-28T04:56:09Z</time>
      </trkpt>
      <trkpt lat="44.13477" lon="3.1209">
        <ele>833.79998779297</ele>
        <time>2012-10-28T04:56:15Z</time>
      </trkpt>
      <trkpt lat="44.13485" lon="3.12114">
        <ele>833.40002441406</ele>
        <time>2012-10-28T04:56:22Z</time>
      </trkpt>
      <trkpt lat="44.13496" lon="3.12126">
        <ele>833.20001220703</ele>
        <time>2012-10-28T04:56:27Z</time>
      </trkpt>
      <trkpt lat="44.13503" lon="3.12129">
        <ele>833</ele>
        <time>2012-10-28T04:56:29Z</time>
      </trkpt>
      <trkpt lat="44.1352" lon="3.12137">
        <ele>832.79998779297</ele>
        <time>2012-10-28T04:56:34Z</time>
      </trkpt>
      <trkpt lat="44.13538" lon="3.12148">
        <ele>832.40002441406</ele>
        <time>2012-10-28T04:56:40Z</time>
      </trkpt>
      <trkpt lat="44.13556" lon="3.12163">
        <ele>831.79998779297</ele>
        <time>2012-10-28T04:56:46Z</time>
      </trkpt>
      <trkpt lat="44.13574" lon="3.12173">
        <ele>831</ele>
        <time>2012-10-28T04:56:53Z</time>
      </trkpt>
      <trkpt lat="44.13593" lon="3.12176">
        <ele>830.40002441406</ele>
        <time>2012-10-28T04:56:58Z</time>
      </trkpt>
      <trkpt lat="44.13603" lon="3.12183">
        <ele>829.79998779297</ele>
        <time>2012-10-28T04:57:02Z</time>
      </trkpt>
      <trkpt lat="44.13605" lon="3.12196">
        <ele>829.59997558594</ele>
        <time>2012-10-28T04:57:05Z</time>
      </trkpt>
      <trkpt lat="44.13605" lon="3.12224">
        <ele>828.79998779297</ele>
        <time>2012-10-28T04:57:12Z</time>
      </trkpt>
      <trkpt lat="44.13606" lon="3.1223">
        <ele>828.59997558594</ele>
        <time>2012-10-28T04:57:14Z</time>
      </trkpt>
      <trkpt lat="44.13607" lon="3.1225">
        <ele>828.20001220703</ele>
        <time>2012-10-28T04:57:20Z</time>
      </trkpt>
      <trkpt lat="44.13607" lon="3.12253">
        <ele>828</ele>
        <time>2012-10-28T04:57:21Z</time>
      </trkpt>
      <trkpt lat="44.13601" lon="3.12265">
        <ele>827.79998779297</ele>
        <time>2012-10-28T04:57:26Z</time>
      </trkpt>
      <trkpt lat="44.13599" lon="3.12272">
        <ele>827.79998779297</ele>
        <time>2012-10-28T04:57:29Z</time>
      </trkpt>
      <trkpt lat="44.13597" lon="3.12281">
        <ele>827.79998779297</ele>
        <time>2012-10-28T04:57:32Z</time>
      </trkpt>
      <trkpt lat="44.13599" lon="3.12297">
        <ele>828</ele>
        <time>2012-10-28T04:57:37Z</time>
      </trkpt>
      <trkpt lat="44.13605" lon="3.12322">
        <ele>828.59997558594</ele>
        <time>2012-10-28T04:57:45Z</time>
      </trkpt>
      <trkpt lat="44.13607" lon="3.12326">
        <ele>828.59997558594</ele>
        <time>2012-10-28T04:57:46Z</time>
      </trkpt>
      <trkpt lat="44.13601" lon="3.12345">
        <ele>829.40002441406</ele>
        <time>2012-10-28T04:57:52Z</time>
      </trkpt>
      <trkpt lat="44.136" lon="3.12346">
        <ele>829.59997558594</ele>
        <time>2012-10-28T04:57:53Z</time>
      </trkpt>
      <trkpt lat="44.13583" lon="3.12354">
        <ele>831</ele>
        <time>2012-10-28T04:58:00Z</time>
      </trkpt>
      <trkpt lat="44.13567" lon="3.12369">
        <ele>832.79998779297</ele>
        <time>2012-10-28T04:58:09Z</time>
      </trkpt>
      <trkpt lat="44.13548" lon="3.12374">
        <ele>834.40002441406</ele>
        <time>2012-10-28T04:58:15Z</time>
      </trkpt>
      <trkpt lat="44.13529" lon="3.12367">
        <ele>835.40002441406</ele>
        <time>2012-10-28T04:58:22Z</time>
      </trkpt>
      <trkpt lat="44.1351" lon="3.12367">
        <ele>836</ele>
        <time>2012-10-28T04:58:29Z</time>
      </trkpt>
      <trkpt lat="44.13492" lon="3.12354">
        <ele>836.59997558594</ele>
        <time>2012-10-28T04:58:34Z</time>
      </trkpt>
      <trkpt lat="44.13473" lon="3.1235">
        <ele>837</ele>
        <time>2012-10-28T04:58:42Z</time>
      </trkpt>
      <trkpt lat="44.13459" lon="3.12366">
        <ele>837.59997558594</ele>
        <time>2012-10-28T04:58:49Z</time>
      </trkpt>
      <trkpt lat="44.13441" lon="3.12376">
        <ele>838.20001220703</ele>
        <time>2012-10-28T04:58:55Z</time>
      </trkpt>
      <trkpt lat="44.13431" lon="3.12401">
        <ele>838.79998779297</ele>
        <time>2012-10-28T04:59:02Z</time>
      </trkpt>
      <trkpt lat="44.13428" lon="3.12427">
        <ele>839.40002441406</ele>
        <time>2012-10-28T04:59:09Z</time>
      </trkpt>
      <trkpt lat="44.13425" lon="3.12454">
        <ele>839.79998779297</ele>
        <time>2012-10-28T04:59:15Z</time>
      </trkpt>
      <trkpt lat="44.13422" lon="3.12481">
        <ele>840.59997558594</ele>
        <time>2012-10-28T04:59:22Z</time>
      </trkpt>
      <trkpt lat="44.13416" lon="3.12508">
        <ele>841.20001220703</ele>
        <time>2012-10-28T04:59:29Z</time>
      </trkpt>
      <trkpt lat="44.13408" lon="3.12533">
        <ele>841.59997558594</ele>
        <time>2012-10-28T04:59:35Z</time>
      </trkpt>
      <trkpt lat="44.13397" lon="3.12557">
        <ele>842.20001220703</ele>
        <time>2012-10-28T04:59:41Z</time>
      </trkpt>
      <trkpt lat="44.13387" lon="3.12579">
        <ele>842.40002441406</ele>
        <time>2012-10-28T04:59:47Z</time>
      </trkpt>
      <trkpt lat="44.13384" lon="3.12605">
        <ele>842.20001220703</ele>
        <time>2012-10-28T04:59:53Z</time>
      </trkpt>
      <trkpt lat="44.13381" lon="3.1263">
        <ele>842</ele>
        <time>2012-10-28T04:59:59Z</time>
      </trkpt>
      <trkpt lat="44.13379" lon="3.12655">
        <ele>842</ele>
        <time>2012-10-28T05:00:05Z</time>
      </trkpt>
      <trkpt lat="44.13377" lon="3.12685">
        <ele>841.79998779297</ele>
        <time>2012-10-28T05:00:11Z</time>
      </trkpt>
      <trkpt lat="44.13379" lon="3.12713">
        <ele>841.40002441406</ele>
        <time>2012-10-28T05:00:17Z</time>
      </trkpt>
      <trkpt lat="44.13379" lon="3.12739">
        <ele>841.20001220703</ele>
        <time>2012-10-28T05:00:23Z</time>
      </trkpt>
      <trkpt lat="44.13378" lon="3.12764">
        <ele>841</ele>
        <time>2012-10-28T05:00:29Z</time>
      </trkpt>
      <trkpt lat="44.13376" lon="3.1279">
        <ele>840.79998779297</ele>
        <time>2012-10-28T05:00:35Z</time>
      </trkpt>
      <trkpt lat="44.13379" lon="3.12815">
        <ele>840.59997558594</ele>
        <time>2012-10-28T05:00:41Z</time>
      </trkpt>
      <trkpt lat="44.13383" lon="3.12843">
        <ele>840.59997558594</ele>
        <time>2012-10-28T05:00:47Z</time>
      </trkpt>
      <trkpt lat="44.13389" lon="3.12867">
        <ele>840.40002441406</ele>
        <time>2012-10-28T05:00:53Z</time>
      </trkpt>
      <trkpt lat="44.13393" lon="3.12895">
        <ele>840.20001220703</ele>
        <time>2012-10-28T05:01:00Z</time>
      </trkpt>
      <trkpt lat="44.13391" lon="3.12923">
        <ele>840</ele>
        <time>2012-10-28T05:01:06Z</time>
      </trkpt>
      <trkpt lat="44.1339" lon="3.1295">
        <ele>840</ele>
        <time>2012-10-28T05:01:12Z</time>
      </trkpt>
      <trkpt lat="44.13391" lon="3.12977">
        <ele>839.79998779297</ele>
        <time>2012-10-28T05:01:18Z</time>
      </trkpt>
      <trkpt lat="44.13388" lon="3.13004">
        <ele>839.59997558594</ele>
        <time>2012-10-28T05:01:24Z</time>
      </trkpt>
      <trkpt lat="44.13383" lon="3.1303">
        <ele>839.40002441406</ele>
        <time>2012-10-28T05:01:30Z</time>
      </trkpt>
      <trkpt lat="44.13378" lon="3.13056">
        <ele>839.40002441406</ele>
        <time>2012-10-28T05:01:36Z</time>
      </trkpt>
      <trkpt lat="44.13376" lon="3.13083">
        <ele>839.20001220703</ele>
        <time>2012-10-28T05:01:42Z</time>
      </trkpt>
      <trkpt lat="44.13375" lon="3.1311">
        <ele>839</ele>
        <time>2012-10-28T05:01:49Z</time>
      </trkpt>
      <trkpt lat="44.13374" lon="3.13137">
        <ele>838.79998779297</ele>
        <time>2012-10-28T05:01:54Z</time>
      </trkpt>
      <trkpt lat="44.13372" lon="3.13164">
        <ele>838.59997558594</ele>
        <time>2012-10-28T05:02:00Z</time>
      </trkpt>
      <trkpt lat="44.13368" lon="3.13193">
        <ele>838.20001220703</ele>
        <time>2012-10-28T05:02:07Z</time>
      </trkpt>
      <trkpt lat="44.1337" lon="3.13219">
        <ele>837.79998779297</ele>
        <time>2012-10-28T05:02:13Z</time>
      </trkpt>
      <trkpt lat="44.13377" lon="3.13244">
        <ele>837.40002441406</ele>
        <time>2012-10-28T05:02:18Z</time>
      </trkpt>
      <trkpt lat="44.13377" lon="3.13271">
        <ele>836.79998779297</ele>
        <time>2012-10-28T05:02:25Z</time>
      </trkpt>
      <trkpt lat="44.13376" lon="3.13301">
        <ele>836</ele>
        <time>2012-10-28T05:02:31Z</time>
      </trkpt>
      <trkpt lat="44.13381" lon="3.13325">
        <ele>835.40002441406</ele>
        <time>2012-10-28T05:02:35Z</time>
      </trkpt>
      <trkpt lat="44.13388" lon="3.13349">
        <ele>834.59997558594</ele>
        <time>2012-10-28T05:02:41Z</time>
      </trkpt>
      <trkpt lat="44.13394" lon="3.13373">
        <ele>833.59997558594</ele>
        <time>2012-10-28T05:02:46Z</time>
      </trkpt>
      <trkpt lat="44.134" lon="3.134">
        <ele>832.40002441406</ele>
        <time>2012-10-28T05:02:52Z</time>
      </trkpt>
      <trkpt lat="44.13405" lon="3.13427">
        <ele>831.20001220703</ele>
        <time>2012-10-28T05:02:58Z</time>
      </trkpt>
      <trkpt lat="44.13404" lon="3.13444">
        <ele>830.20001220703</ele>
        <time>2012-10-28T05:03:02Z</time>
      </trkpt>
      <trkpt lat="44.13397" lon="3.13441">
        <ele>829.40002441406</ele>
        <time>2012-10-28T05:03:06Z</time>
      </trkpt>
      <trkpt lat="44.13387" lon="3.13428">
        <ele>828.59997558594</ele>
        <time>2012-10-28T05:03:10Z</time>
      </trkpt>
      <trkpt lat="44.13385" lon="3.13424">
        <ele>828.40002441406</ele>
        <time>2012-10-28T05:03:11Z</time>
      </trkpt>
      <trkpt lat="44.1337" lon="3.13406">
        <ele>827.20001220703</ele>
        <time>2012-10-28T05:03:17Z</time>
      </trkpt>
      <trkpt lat="44.1335" lon="3.13399">
        <ele>826</ele>
        <time>2012-10-28T05:03:23Z</time>
      </trkpt>
      <trkpt lat="44.13332" lon="3.13401">
        <ele>825</ele>
        <time>2012-10-28T05:03:28Z</time>
      </trkpt>
      <trkpt lat="44.13311" lon="3.13408">
        <ele>824</ele>
        <time>2012-10-28T05:03:34Z</time>
      </trkpt>
      <trkpt lat="44.13293" lon="3.13417">
        <ele>823</ele>
        <time>2012-10-28T05:03:40Z</time>
      </trkpt>
      <trkpt lat="44.13274" lon="3.13425">
        <ele>822</ele>
        <time>2012-10-28T05:03:46Z</time>
      </trkpt>
      <trkpt lat="44.13257" lon="3.13431">
        <ele>821.20001220703</ele>
        <time>2012-10-28T05:03:51Z</time>
      </trkpt>
      <trkpt lat="44.13238" lon="3.13439">
        <ele>820.40002441406</ele>
        <time>2012-10-28T05:03:57Z</time>
      </trkpt>
      <trkpt lat="44.13218" lon="3.13447">
        <ele>819.59997558594</ele>
        <time>2012-10-28T05:04:02Z</time>
      </trkpt>
      <trkpt lat="44.132" lon="3.13454">
        <ele>819</ele>
        <time>2012-10-28T05:04:09Z</time>
      </trkpt>
      <trkpt lat="44.13188" lon="3.13462">
        <ele>818.59997558594</ele>
        <time>2012-10-28T05:04:14Z</time>
      </trkpt>
      <trkpt lat="44.1319" lon="3.13469">
        <ele>818.20001220703</ele>
        <time>2012-10-28T05:04:17Z</time>
      </trkpt>
      <trkpt lat="44.132" lon="3.13482">
        <ele>817.59997558594</ele>
        <time>2012-10-28T05:04:22Z</time>
      </trkpt>
      <trkpt lat="44.13203" lon="3.13489">
        <ele>817.40002441406</ele>
        <time>2012-10-28T05:04:24Z</time>
      </trkpt>
      <trkpt lat="44.13214" lon="3.13513">
        <ele>816.79998779297</ele>
        <time>2012-10-28T05:04:30Z</time>
      </trkpt>
      <trkpt lat="44.13226" lon="3.13532">
        <ele>816.40002441406</ele>
        <time>2012-10-28T05:04:35Z</time>
      </trkpt>
      <trkpt lat="44.13243" lon="3.13544">
        <ele>815.40002441406</ele>
        <time>2012-10-28T05:04:43Z</time>
      </trkpt>
      <trkpt lat="44.13258" lon="3.13564">
        <ele>814.40002441406</ele>
        <time>2012-10-28T05:04:51Z</time>
      </trkpt>
      <trkpt lat="44.13262" lon="3.13575">
        <ele>814.20001220703</ele>
        <time>2012-10-28T05:04:54Z</time>
      </trkpt>
      <trkpt lat="44.13261" lon="3.13588">
        <ele>814</ele>
        <time>2012-10-28T05:04:57Z</time>
      </trkpt>
      <trkpt lat="44.13254" lon="3.13602">
        <ele>813.79998779297</ele>
        <time>2012-10-28T05:05:00Z</time>
      </trkpt>
      <trkpt lat="44.13249" lon="3.13609">
        <ele>813.59997558594</ele>
        <time>2012-10-28T05:05:02Z</time>
      </trkpt>
      <trkpt lat="44.13247" lon="3.13638">
        <ele>813</ele>
        <time>2012-10-28T05:05:09Z</time>
      </trkpt>
      <trkpt lat="44.13242" lon="3.13667">
        <ele>812.40002441406</ele>
        <time>2012-10-28T05:05:16Z</time>
      </trkpt>
      <trkpt lat="44.13239" lon="3.13695">
        <ele>811.79998779297</ele>
        <time>2012-10-28T05:05:23Z</time>
      </trkpt>
      <trkpt lat="44.13239" lon="3.13723">
        <ele>811.20001220703</ele>
        <time>2012-10-28T05:05:30Z</time>
      </trkpt>
      <trkpt lat="44.13233" lon="3.1375">
        <ele>810.79998779297</ele>
        <time>2012-10-28T05:05:37Z</time>
      </trkpt>
      <trkpt lat="44.13226" lon="3.13773">
        <ele>810.59997558594</ele>
        <time>2012-10-28T05:05:43Z</time>
      </trkpt>
      <trkpt lat="44.13211" lon="3.13791">
        <ele>810.59997558594</ele>
        <time>2012-10-28T05:05:49Z</time>
      </trkpt>
      <trkpt lat="44.13195" lon="3.13807">
        <ele>810.40002441406</ele>
        <time>2012-10-28T05:05:55Z</time>
      </trkpt>
      <trkpt lat="44.13179" lon="3.1382">
        <ele>810</ele>
        <time>2012-10-28T05:06:02Z</time>
      </trkpt>
      <trkpt lat="44.13164" lon="3.13834">
        <ele>809.40002441406</ele>
        <time>2012-10-28T05:06:08Z</time>
      </trkpt>
      <trkpt lat="44.13147" lon="3.13852">
        <ele>809</ele>
        <time>2012-10-28T05:06:14Z</time>
      </trkpt>
      <trkpt lat="44.13134" lon="3.13873">
        <ele>808.59997558594</ele>
        <time>2012-10-28T05:06:20Z</time>
      </trkpt>
      <trkpt lat="44.13124" lon="3.13898">
        <ele>808.40002441406</ele>
        <time>2012-10-28T05:06:26Z</time>
      </trkpt>
      <trkpt lat="44.13113" lon="3.13918">
        <ele>808.20001220703</ele>
        <time>2012-10-28T05:06:32Z</time>
      </trkpt>
      <trkpt lat="44.13102" lon="3.13942">
        <ele>808.20001220703</ele>
        <time>2012-10-28T05:06:39Z</time>
      </trkpt>
      <trkpt lat="44.13094" lon="3.13964">
        <ele>807.79998779297</ele>
        <time>2012-10-28T05:06:45Z</time>
      </trkpt>
      <trkpt lat="44.13086" lon="3.13989">
        <ele>807.59997558594</ele>
        <time>2012-10-28T05:06:51Z</time>
      </trkpt>
      <trkpt lat="44.13076" lon="3.14011">
        <ele>807.40002441406</ele>
        <time>2012-10-28T05:06:57Z</time>
      </trkpt>
      <trkpt lat="44.13072" lon="3.14021">
        <ele>807.20001220703</ele>
        <time>2012-10-28T05:07:00Z</time>
      </trkpt>
      <trkpt lat="44.13074" lon="3.14037">
        <ele>807</ele>
        <time>2012-10-28T05:07:04Z</time>
      </trkpt>
      <trkpt lat="44.13086" lon="3.1404">
        <ele>806.59997558594</ele>
        <time>2012-10-28T05:07:09Z</time>
      </trkpt>
      <trkpt lat="44.1309" lon="3.14039">
        <ele>806.40002441406</ele>
        <time>2012-10-28T05:07:10Z</time>
      </trkpt>
      <trkpt lat="44.13109" lon="3.14034">
        <ele>805.79998779297</ele>
        <time>2012-10-28T05:07:16Z</time>
      </trkpt>
      <trkpt lat="44.13129" lon="3.14037">
        <ele>805.20001220703</ele>
        <time>2012-10-28T05:07:23Z</time>
      </trkpt>
      <trkpt lat="44.13149" lon="3.14036">
        <ele>805</ele>
        <time>2012-10-28T05:07:30Z</time>
      </trkpt>
      <trkpt lat="44.13167" lon="3.14041">
        <ele>804.59997558594</ele>
        <time>2012-10-28T05:07:37Z</time>
      </trkpt>
      <trkpt lat="44.13183" lon="3.14055">
        <ele>804.59997558594</ele>
        <time>2012-10-28T05:07:45Z</time>
      </trkpt>
      <trkpt lat="44.13198" lon="3.14073">
        <ele>805</ele>
        <time>2012-10-28T05:07:52Z</time>
      </trkpt>
      <trkpt lat="44.13216" lon="3.14087">
        <ele>805.40002441406</ele>
        <time>2012-10-28T05:07:59Z</time>
      </trkpt>
      <trkpt lat="44.13233" lon="3.14101">
        <ele>806</ele>
        <time>2012-10-28T05:08:06Z</time>
      </trkpt>
      <trkpt lat="44.13248" lon="3.14116">
        <ele>806.59997558594</ele>
        <time>2012-10-28T05:08:12Z</time>
      </trkpt>
      <trkpt lat="44.13264" lon="3.14128">
        <ele>807.40002441406</ele>
        <time>2012-10-28T05:08:18Z</time>
      </trkpt>
      <trkpt lat="44.1328" lon="3.14142">
        <ele>808</ele>
        <time>2012-10-28T05:08:24Z</time>
      </trkpt>
      <trkpt lat="44.13295" lon="3.14156">
        <ele>808.59997558594</ele>
        <time>2012-10-28T05:08:30Z</time>
      </trkpt>
      <trkpt lat="44.13312" lon="3.14171">
        <ele>809.20001220703</ele>
        <time>2012-10-28T05:08:36Z</time>
      </trkpt>
      <trkpt lat="44.1333" lon="3.14184">
        <ele>809.79998779297</ele>
        <time>2012-10-28T05:08:42Z</time>
      </trkpt>
      <trkpt lat="44.13346" lon="3.14195">
        <ele>810.59997558594</ele>
        <time>2012-10-28T05:08:48Z</time>
      </trkpt>
      <trkpt lat="44.13363" lon="3.14207">
        <ele>811.40002441406</ele>
        <time>2012-10-28T05:08:55Z</time>
      </trkpt>
      <trkpt lat="44.13379" lon="3.14226">
        <ele>812</ele>
        <time>2012-10-28T05:09:02Z</time>
      </trkpt>
      <trkpt lat="44.13388" lon="3.14247">
        <ele>812.59997558594</ele>
        <time>2012-10-28T05:09:08Z</time>
      </trkpt>
      <trkpt lat="44.13403" lon="3.14267">
        <ele>813</ele>
        <time>2012-10-28T05:09:15Z</time>
      </trkpt>
      <trkpt lat="44.13419" lon="3.14286">
        <ele>813.79998779297</ele>
        <time>2012-10-28T05:09:22Z</time>
      </trkpt>
      <trkpt lat="44.13433" lon="3.14305">
        <ele>814.79998779297</ele>
        <time>2012-10-28T05:09:29Z</time>
      </trkpt>
      <trkpt lat="44.13448" lon="3.14322">
        <ele>815.79998779297</ele>
        <time>2012-10-28T05:09:35Z</time>
      </trkpt>
      <trkpt lat="44.1346" lon="3.1434">
        <ele>816.79998779297</ele>
        <time>2012-10-28T05:09:41Z</time>
      </trkpt>
      <trkpt lat="44.1348" lon="3.14346">
        <ele>817.59997558594</ele>
        <time>2012-10-28T05:09:48Z</time>
      </trkpt>
      <trkpt lat="44.13496" lon="3.14362">
        <ele>818.20001220703</ele>
        <time>2012-10-28T05:09:54Z</time>
      </trkpt>
      <trkpt lat="44.13509" lon="3.14381">
        <ele>818.79998779297</ele>
        <time>2012-10-28T05:10:00Z</time>
      </trkpt>
      <trkpt lat="44.13522" lon="3.144">
        <ele>819.40002441406</ele>
        <time>2012-10-28T05:10:06Z</time>
      </trkpt>
      <trkpt lat="44.13534" lon="3.14419">
        <ele>820.20001220703</ele>
        <time>2012-10-28T05:10:12Z</time>
      </trkpt>
      <trkpt lat="44.13552" lon="3.14427">
        <ele>821.20001220703</ele>
        <time>2012-10-28T05:10:19Z</time>
      </trkpt>
      <trkpt lat="44.13569" lon="3.14438">
        <ele>822.40002441406</ele>
        <time>2012-10-28T05:10:26Z</time>
      </trkpt>
      <trkpt lat="44.13583" lon="3.14456">
        <ele>823.40002441406</ele>
        <time>2012-10-28T05:10:32Z</time>
      </trkpt>
      <trkpt lat="44.13599" lon="3.14476">
        <ele>824.79998779297</ele>
        <time>2012-10-28T05:10:39Z</time>
      </trkpt>
      <trkpt lat="44.13614" lon="3.14493">
        <ele>825.59997558594</ele>
        <time>2012-10-28T05:10:45Z</time>
      </trkpt>
      <trkpt lat="44.13617" lon="3.14494">
        <ele>826</ele>
        <time>2012-10-28T05:10:47Z</time>
      </trkpt>
      <trkpt lat="44.1362" lon="3.1448">
        <ele>826.20001220703</ele>
        <time>2012-10-28T05:10:51Z</time>
      </trkpt>
      <trkpt lat="44.1362" lon="3.14475">
        <ele>826</ele>
        <time>2012-10-28T05:10:52Z</time>
      </trkpt>
      <trkpt lat="44.13621" lon="3.14449">
        <ele>826</ele>
        <time>2012-10-28T05:10:58Z</time>
      </trkpt>
      <trkpt lat="44.13624" lon="3.14425">
        <ele>826.20001220703</ele>
        <time>2012-10-28T05:11:04Z</time>
      </trkpt>
      <trkpt lat="44.13631" lon="3.14397">
        <ele>826</ele>
        <time>2012-10-28T05:11:11Z</time>
      </trkpt>
      <trkpt lat="44.13638" lon="3.14373">
        <ele>826.40002441406</ele>
        <time>2012-10-28T05:11:18Z</time>
      </trkpt>
      <trkpt lat="44.13643" lon="3.14346">
        <ele>827.20001220703</ele>
        <time>2012-10-28T05:11:25Z</time>
      </trkpt>
      <trkpt lat="44.13645" lon="3.14322">
        <ele>827.79998779297</ele>
        <time>2012-10-28T05:11:31Z</time>
      </trkpt>
      <trkpt lat="44.13647" lon="3.14296">
        <ele>828.20001220703</ele>
        <time>2012-10-28T05:11:37Z</time>
      </trkpt>
      <trkpt lat="44.13649" lon="3.14269">
        <ele>828.40002441406</ele>
        <time>2012-10-28T05:11:44Z</time>
      </trkpt>
      <trkpt lat="44.13651" lon="3.14243">
        <ele>828.79998779297</ele>
        <time>2012-10-28T05:11:50Z</time>
      </trkpt>
      <trkpt lat="44.13656" lon="3.14218">
        <ele>829.20001220703</ele>
        <time>2012-10-28T05:11:56Z</time>
      </trkpt>
      <trkpt lat="44.13665" lon="3.14191">
        <ele>829</ele>
        <time>2012-10-28T05:12:02Z</time>
      </trkpt>
      <trkpt lat="44.13676" lon="3.14169">
        <ele>829</ele>
        <time>2012-10-28T05:12:08Z</time>
      </trkpt>
      <trkpt lat="44.1369" lon="3.14148">
        <ele>828.79998779297</ele>
        <time>2012-10-28T05:12:14Z</time>
      </trkpt>
      <trkpt lat="44.13699" lon="3.14124">
        <ele>828.40002441406</ele>
        <time>2012-10-28T05:12:20Z</time>
      </trkpt>
      <trkpt lat="44.137" lon="3.14096">
        <ele>827.79998779297</ele>
        <time>2012-10-28T05:12:26Z</time>
      </trkpt>
      <trkpt lat="44.13697" lon="3.14067">
        <ele>827.20001220703</ele>
        <time>2012-10-28T05:12:32Z</time>
      </trkpt>
      <trkpt lat="44.137" lon="3.14038">
        <ele>826.79998779297</ele>
        <time>2012-10-28T05:12:38Z</time>
      </trkpt>
      <trkpt lat="44.13703" lon="3.14011">
        <ele>826.20001220703</ele>
        <time>2012-10-28T05:12:44Z</time>
      </trkpt>
      <trkpt lat="44.13703" lon="3.13984">
        <ele>825.79998779297</ele>
        <time>2012-10-28T05:12:50Z</time>
      </trkpt>
      <trkpt lat="44.13698" lon="3.13959">
        <ele>825.40002441406</ele>
        <time>2012-10-28T05:12:56Z</time>
      </trkpt>
      <trkpt lat="44.13689" lon="3.13933">
        <ele>825</ele>
        <time>2012-10-28T05:13:02Z</time>
      </trkpt>
      <trkpt lat="44.13679" lon="3.13909">
        <ele>824.40002441406</ele>
        <time>2012-10-28T05:13:08Z</time>
      </trkpt>
      <trkpt lat="44.13668" lon="3.13889">
        <ele>824.20001220703</ele>
        <time>2012-10-28T05:13:13Z</time>
      </trkpt>
      <trkpt lat="44.13672" lon="3.13863">
        <ele>823.59997558594</ele>
        <time>2012-10-28T05:13:19Z</time>
      </trkpt>
      <trkpt lat="44.13679" lon="3.13836">
        <ele>823.20001220703</ele>
        <time>2012-10-28T05:13:25Z</time>
      </trkpt>
      <trkpt lat="44.13675" lon="3.1381">
        <ele>822.59997558594</ele>
        <time>2012-10-28T05:13:31Z</time>
      </trkpt>
      <trkpt lat="44.13676" lon="3.13802">
        <ele>822.59997558594</ele>
        <time>2012-10-28T05:13:33Z</time>
      </trkpt>
      <trkpt lat="44.13689" lon="3.13798">
        <ele>822</ele>
        <time>2012-10-28T05:13:38Z</time>
      </trkpt>
      <trkpt lat="44.13701" lon="3.13799">
        <ele>821.79998779297</ele>
        <time>2012-10-28T05:13:42Z</time>
      </trkpt>
      <trkpt lat="44.1371" lon="3.13802">
        <ele>821.59997558594</ele>
        <time>2012-10-28T05:13:45Z</time>
      </trkpt>
      <trkpt lat="44.13727" lon="3.13809">
        <ele>821.40002441406</ele>
        <time>2012-10-28T05:13:51Z</time>
      </trkpt>
      <trkpt lat="44.13746" lon="3.13815">
        <ele>821.40002441406</ele>
        <time>2012-10-28T05:13:57Z</time>
      </trkpt>
      <trkpt lat="44.1376" lon="3.13832">
        <ele>821.59997558594</ele>
        <time>2012-10-28T05:14:03Z</time>
      </trkpt>
      <trkpt lat="44.13767" lon="3.13849">
        <ele>822.20001220703</ele>
        <time>2012-10-28T05:14:08Z</time>
      </trkpt>
      <trkpt lat="44.1377" lon="3.13856">
        <ele>822.59997558594</ele>
        <time>2012-10-28T05:14:10Z</time>
      </trkpt>
      <trkpt lat="44.13784" lon="3.13875">
        <ele>824.59997558594</ele>
        <time>2012-10-28T05:14:18Z</time>
      </trkpt>
      <trkpt lat="44.138" lon="3.13888">
        <ele>826.79998779297</ele>
        <time>2012-10-28T05:14:26Z</time>
      </trkpt>
      <trkpt lat="44.13816" lon="3.13901">
        <ele>828.79998779297</ele>
        <time>2012-10-28T05:14:33Z</time>
      </trkpt>
      <trkpt lat="44.13834" lon="3.13911">
        <ele>830.79998779297</ele>
        <time>2012-10-28T05:14:40Z</time>
      </trkpt>
      <trkpt lat="44.1385" lon="3.13922">
        <ele>832.79998779297</ele>
        <time>2012-10-28T05:14:47Z</time>
      </trkpt>
      <trkpt lat="44.13867" lon="3.13935">
        <ele>834.40002441406</ele>
        <time>2012-10-28T05:14:54Z</time>
      </trkpt>
      <trkpt lat="44.13885" lon="3.13941">
        <ele>836</ele>
        <time>2012-10-28T05:15:02Z</time>
      </trkpt>
      <trkpt lat="44.13903" lon="3.13949">
        <ele>837.40002441406</ele>
        <time>2012-10-28T05:15:09Z</time>
      </trkpt>
      <trkpt lat="44.1392" lon="3.13958">
        <ele>838.79998779297</ele>
        <time>2012-10-28T05:15:16Z</time>
      </trkpt>
      <trkpt lat="44.13939" lon="3.13967">
        <ele>840.40002441406</ele>
        <time>2012-10-28T05:15:24Z</time>
      </trkpt>
      <trkpt lat="44.13956" lon="3.1398">
        <ele>841.59997558594</ele>
        <time>2012-10-28T05:15:31Z</time>
      </trkpt>
      <trkpt lat="44.13971" lon="3.13998">
        <ele>842.40002441406</ele>
        <time>2012-10-28T05:15:38Z</time>
      </trkpt>
      <trkpt lat="44.13986" lon="3.14014">
        <ele>843</ele>
        <time>2012-10-28T05:15:44Z</time>
      </trkpt>
      <trkpt lat="44.14002" lon="3.14026">
        <ele>843.20001220703</ele>
        <time>2012-10-28T05:15:49Z</time>
      </trkpt>
      <trkpt lat="44.14016" lon="3.14042">
        <ele>843.40002441406</ele>
        <time>2012-10-28T05:15:54Z</time>
      </trkpt>
      <trkpt lat="44.14033" lon="3.1406">
        <ele>843.59997558594</ele>
        <time>2012-10-28T05:16:00Z</time>
      </trkpt>
      <trkpt lat="44.14052" lon="3.14075">
        <ele>843.40002441406</ele>
        <time>2012-10-28T05:16:06Z</time>
      </trkpt>
      <trkpt lat="44.14066" lon="3.1409">
        <ele>843.20001220703</ele>
        <time>2012-10-28T05:16:11Z</time>
      </trkpt>
      <trkpt lat="44.14083" lon="3.14102">
        <ele>843</ele>
        <time>2012-10-28T05:16:16Z</time>
      </trkpt>
      <trkpt lat="44.14101" lon="3.14114">
        <ele>842.79998779297</ele>
        <time>2012-10-28T05:16:21Z</time>
      </trkpt>
      <trkpt lat="44.14119" lon="3.14129">
        <ele>842.40002441406</ele>
        <time>2012-10-28T05:16:26Z</time>
      </trkpt>
      <trkpt lat="44.14135" lon="3.14148">
        <ele>842</ele>
        <time>2012-10-28T05:16:32Z</time>
      </trkpt>
      <trkpt lat="44.14149" lon="3.14164">
        <ele>841.79998779297</ele>
        <time>2012-10-28T05:16:37Z</time>
      </trkpt>
      <trkpt lat="44.14164" lon="3.14184">
        <ele>841.59997558594</ele>
        <time>2012-10-28T05:16:43Z</time>
      </trkpt>
      <trkpt lat="44.14181" lon="3.142">
        <ele>841.20001220703</ele>
        <time>2012-10-28T05:16:49Z</time>
      </trkpt>
      <trkpt lat="44.14198" lon="3.14213">
        <ele>840.79998779297</ele>
        <time>2012-10-28T05:16:56Z</time>
      </trkpt>
      <trkpt lat="44.14214" lon="3.14224">
        <ele>840.40002441406</ele>
        <time>2012-10-28T05:17:02Z</time>
      </trkpt>
      <trkpt lat="44.14231" lon="3.14233">
        <ele>840.20001220703</ele>
        <time>2012-10-28T05:17:09Z</time>
      </trkpt>
      <trkpt lat="44.14251" lon="3.14241">
        <ele>839.79998779297</ele>
        <time>2012-10-28T05:17:16Z</time>
      </trkpt>
      <trkpt lat="44.14268" lon="3.14253">
        <ele>839.59997558594</ele>
        <time>2012-10-28T05:17:22Z</time>
      </trkpt>
      <trkpt lat="44.14283" lon="3.14266">
        <ele>839.59997558594</ele>
        <time>2012-10-28T05:17:28Z</time>
      </trkpt>
      <trkpt lat="44.14298" lon="3.14282">
        <ele>839.40002441406</ele>
        <time>2012-10-28T05:17:34Z</time>
      </trkpt>
      <trkpt lat="44.14311" lon="3.14301">
        <ele>839.20001220703</ele>
        <time>2012-10-28T05:17:40Z</time>
      </trkpt>
      <trkpt lat="44.14325" lon="3.14318">
        <ele>839.20001220703</ele>
        <time>2012-10-28T05:17:46Z</time>
      </trkpt>
      <trkpt lat="44.14344" lon="3.14328">
        <ele>839</ele>
        <time>2012-10-28T05:17:53Z</time>
      </trkpt>
      <trkpt lat="44.14364" lon="3.14333">
        <ele>838.59997558594</ele>
        <time>2012-10-28T05:17:59Z</time>
      </trkpt>
      <trkpt lat="44.14382" lon="3.14336">
        <ele>838.20001220703</ele>
        <time>2012-10-28T05:18:05Z</time>
      </trkpt>
      <trkpt lat="44.14402" lon="3.14339">
        <ele>837.79998779297</ele>
        <time>2012-10-28T05:18:11Z</time>
      </trkpt>
      <trkpt lat="44.1442" lon="3.14344">
        <ele>837.59997558594</ele>
        <time>2012-10-28T05:18:18Z</time>
      </trkpt>
      <trkpt lat="44.14438" lon="3.14353">
        <ele>837.40002441406</ele>
        <time>2012-10-28T05:18:25Z</time>
      </trkpt>
      <trkpt lat="44.14457" lon="3.14362">
        <ele>837.40002441406</ele>
        <time>2012-10-28T05:18:31Z</time>
      </trkpt>
      <trkpt lat="44.14473" lon="3.14377">
        <ele>837.20001220703</ele>
        <time>2012-10-28T05:18:37Z</time>
      </trkpt>
      <trkpt lat="44.14487" lon="3.14394">
        <ele>837</ele>
        <time>2012-10-28T05:18:43Z</time>
      </trkpt>
      <trkpt lat="44.14502" lon="3.14413">
        <ele>836.79998779297</ele>
        <time>2012-10-28T05:18:49Z</time>
      </trkpt>
      <trkpt lat="44.14517" lon="3.14433">
        <ele>836.59997558594</ele>
        <time>2012-10-28T05:18:56Z</time>
      </trkpt>
      <trkpt lat="44.14532" lon="3.14448">
        <ele>836.40002441406</ele>
        <time>2012-10-28T05:19:02Z</time>
      </trkpt>
      <trkpt lat="44.1455" lon="3.14459">
        <ele>836.40002441406</ele>
        <time>2012-10-28T05:19:09Z</time>
      </trkpt>
      <trkpt lat="44.14569" lon="3.14466">
        <ele>836.20001220703</ele>
        <time>2012-10-28T05:19:17Z</time>
      </trkpt>
      <trkpt lat="44.14572" lon="3.14466">
        <ele>836.20001220703</ele>
        <time>2012-10-28T05:19:18Z</time>
      </trkpt>
      <trkpt lat="44.14587" lon="3.14464">
        <ele>836.40002441406</ele>
        <time>2012-10-28T05:19:24Z</time>
      </trkpt>
      <trkpt lat="44.14589" lon="3.14463">
        <ele>836.59997558594</ele>
        <time>2012-10-28T05:19:25Z</time>
      </trkpt>
      <trkpt lat="44.14605" lon="3.14458">
        <ele>836.79998779297</ele>
        <time>2012-10-28T05:19:31Z</time>
      </trkpt>
      <trkpt lat="44.14608" lon="3.14457">
        <ele>836.79998779297</ele>
        <time>2012-10-28T05:19:32Z</time>
      </trkpt>
      <trkpt lat="44.14626" lon="3.1446">
        <ele>837.59997558594</ele>
        <time>2012-10-28T05:19:39Z</time>
      </trkpt>
      <trkpt lat="44.14645" lon="3.14469">
        <ele>838.20001220703</ele>
        <time>2012-10-28T05:19:45Z</time>
      </trkpt>
      <trkpt lat="44.14665" lon="3.14473">
        <ele>839</ele>
        <time>2012-10-28T05:19:52Z</time>
      </trkpt>
      <trkpt lat="44.14682" lon="3.14482">
        <ele>840.40002441406</ele>
        <time>2012-10-28T05:19:59Z</time>
      </trkpt>
      <trkpt lat="44.14698" lon="3.14492">
        <ele>842.40002441406</ele>
        <time>2012-10-28T05:20:07Z</time>
      </trkpt>
      <trkpt lat="44.14717" lon="3.14497">
        <ele>844.40002441406</ele>
        <time>2012-10-28T05:20:14Z</time>
      </trkpt>
      <trkpt lat="44.14734" lon="3.14509">
        <ele>846</ele>
        <time>2012-10-28T05:20:21Z</time>
      </trkpt>
      <trkpt lat="44.14751" lon="3.14524">
        <ele>846.40002441406</ele>
        <time>2012-10-28T05:20:27Z</time>
      </trkpt>
      <trkpt lat="44.14766" lon="3.14539">
        <ele>846.59997558594</ele>
        <time>2012-10-28T05:20:32Z</time>
      </trkpt>
      <trkpt lat="44.14782" lon="3.14557">
        <ele>846.59997558594</ele>
        <time>2012-10-28T05:20:38Z</time>
      </trkpt>
      <trkpt lat="44.14796" lon="3.14574">
        <ele>846.59997558594</ele>
        <time>2012-10-28T05:20:45Z</time>
      </trkpt>
      <trkpt lat="44.14811" lon="3.14594">
        <ele>846.59997558594</ele>
        <time>2012-10-28T05:20:52Z</time>
      </trkpt>
      <trkpt lat="44.14824" lon="3.14614">
        <ele>846.59997558594</ele>
        <time>2012-10-28T05:20:58Z</time>
      </trkpt>
      <trkpt lat="44.14838" lon="3.14636">
        <ele>846.59997558594</ele>
        <time>2012-10-28T05:21:04Z</time>
      </trkpt>
      <trkpt lat="44.14851" lon="3.14658">
        <ele>846.40002441406</ele>
        <time>2012-10-28T05:21:10Z</time>
      </trkpt>
      <trkpt lat="44.14859" lon="3.14684">
        <ele>846.40002441406</ele>
        <time>2012-10-28T05:21:17Z</time>
      </trkpt>
      <trkpt lat="44.14865" lon="3.14707">
        <ele>846.59997558594</ele>
        <time>2012-10-28T05:21:23Z</time>
      </trkpt>
      <trkpt lat="44.14874" lon="3.14732">
        <ele>847</ele>
        <time>2012-10-28T05:21:30Z</time>
      </trkpt>
      <trkpt lat="44.1488" lon="3.14755">
        <ele>847.59997558594</ele>
        <time>2012-10-28T05:21:36Z</time>
      </trkpt>
      <trkpt lat="44.14889" lon="3.14777">
        <ele>848.20001220703</ele>
        <time>2012-10-28T05:21:42Z</time>
      </trkpt>
      <trkpt lat="44.14902" lon="3.14798">
        <ele>848.20001220703</ele>
        <time>2012-10-28T05:21:48Z</time>
      </trkpt>
      <trkpt lat="44.14915" lon="3.14818">
        <ele>848.20001220703</ele>
        <time>2012-10-28T05:21:54Z</time>
      </trkpt>
      <trkpt lat="44.14929" lon="3.14836">
        <ele>848</ele>
        <time>2012-10-28T05:22:00Z</time>
      </trkpt>
      <trkpt lat="44.14944" lon="3.14854">
        <ele>847.59997558594</ele>
        <time>2012-10-28T05:22:06Z</time>
      </trkpt>
      <trkpt lat="44.14956" lon="3.14876">
        <ele>847.40002441406</ele>
        <time>2012-10-28T05:22:12Z</time>
      </trkpt>
      <trkpt lat="44.14962" lon="3.14889">
        <ele>847.20001220703</ele>
        <time>2012-10-28T05:22:16Z</time>
      </trkpt>
      <trkpt lat="44.14969" lon="3.14889">
        <ele>847</ele>
        <time>2012-10-28T05:22:19Z</time>
      </trkpt>
      <trkpt lat="44.14987" lon="3.14883">
        <ele>846.79998779297</ele>
        <time>2012-10-28T05:22:25Z</time>
      </trkpt>
      <trkpt lat="44.15005" lon="3.14884">
        <ele>846.59997558594</ele>
        <time>2012-10-28T05:22:32Z</time>
      </trkpt>
      <trkpt lat="44.15007" lon="3.14887">
        <ele>846.59997558594</ele>
        <time>2012-10-28T05:22:33Z</time>
      </trkpt>
      <trkpt lat="44.15017" lon="3.14904">
        <ele>846.59997558594</ele>
        <time>2012-10-28T05:22:38Z</time>
      </trkpt>
      <trkpt lat="44.15018" lon="3.14907">
        <ele>846.59997558594</ele>
        <time>2012-10-28T05:22:39Z</time>
      </trkpt>
      <trkpt lat="44.15027" lon="3.14926">
        <ele>846.40002441406</ele>
        <time>2012-10-28T05:22:44Z</time>
      </trkpt>
      <trkpt lat="44.15041" lon="3.14947">
        <ele>846.40002441406</ele>
        <time>2012-10-28T05:22:51Z</time>
      </trkpt>
      <trkpt lat="44.15059" lon="3.14953">
        <ele>846.79998779297</ele>
        <time>2012-10-28T05:22:58Z</time>
      </trkpt>
      <trkpt lat="44.15078" lon="3.14948">
        <ele>847</ele>
        <time>2012-10-28T05:23:05Z</time>
      </trkpt>
      <trkpt lat="44.15097" lon="3.14942">
        <ele>847.20001220703</ele>
        <time>2012-10-28T05:23:12Z</time>
      </trkpt>
      <trkpt lat="44.15115" lon="3.14933">
        <ele>847</ele>
        <time>2012-10-28T05:23:18Z</time>
      </trkpt>
      <trkpt lat="44.15133" lon="3.14925">
        <ele>847</ele>
        <time>2012-10-28T05:23:24Z</time>
      </trkpt>
      <trkpt lat="44.15151" lon="3.14931">
        <ele>847</ele>
        <time>2012-10-28T05:23:30Z</time>
      </trkpt>
      <trkpt lat="44.15154" lon="3.1493">
        <ele>847</ele>
        <time>2012-10-28T05:23:31Z</time>
      </trkpt>
      <trkpt lat="44.15167" lon="3.14915">
        <ele>846.59997558594</ele>
        <time>2012-10-28T05:23:36Z</time>
      </trkpt>
      <trkpt lat="44.15183" lon="3.14897">
        <ele>846.40002441406</ele>
        <time>2012-10-28T05:23:42Z</time>
      </trkpt>
      <trkpt lat="44.15197" lon="3.14878">
        <ele>846.40002441406</ele>
        <time>2012-10-28T05:23:49Z</time>
      </trkpt>
      <trkpt lat="44.15213" lon="3.14859">
        <ele>846.59997558594</ele>
        <time>2012-10-28T05:23:57Z</time>
      </trkpt>
      <trkpt lat="44.15227" lon="3.14854">
        <ele>847.20001220703</ele>
        <time>2012-10-28T05:24:03Z</time>
      </trkpt>
      <trkpt lat="44.15233" lon="3.14854">
        <ele>847.59997558594</ele>
        <time>2012-10-28T05:24:05Z</time>
      </trkpt>
      <trkpt lat="44.15251" lon="3.14854">
        <ele>848.59997558594</ele>
        <time>2012-10-28T05:24:11Z</time>
      </trkpt>
      <trkpt lat="44.15269" lon="3.14864">
        <ele>849.59997558594</ele>
        <time>2012-10-28T05:24:17Z</time>
      </trkpt>
      <trkpt lat="44.15287" lon="3.14871">
        <ele>850</ele>
        <time>2012-10-28T05:24:22Z</time>
      </trkpt>
      <trkpt lat="44.15303" lon="3.14885">
        <ele>849.79998779297</ele>
        <time>2012-10-28T05:24:28Z</time>
      </trkpt>
      <trkpt lat="44.15318" lon="3.149">
        <ele>849.59997558594</ele>
        <time>2012-10-28T05:24:33Z</time>
      </trkpt>
      <trkpt lat="44.15335" lon="3.14917">
        <ele>848.79998779297</ele>
        <time>2012-10-28T05:24:39Z</time>
      </trkpt>
      <trkpt lat="44.15352" lon="3.14932">
        <ele>848.20001220703</ele>
        <time>2012-10-28T05:24:45Z</time>
      </trkpt>
      <trkpt lat="44.15367" lon="3.14948">
        <ele>847.59997558594</ele>
        <time>2012-10-28T05:24:51Z</time>
      </trkpt>
      <trkpt lat="44.15382" lon="3.14966">
        <ele>847.20001220703</ele>
        <time>2012-10-28T05:24:57Z</time>
      </trkpt>
      <trkpt lat="44.15398" lon="3.14982">
        <ele>846.79998779297</ele>
        <time>2012-10-28T05:25:03Z</time>
      </trkpt>
      <trkpt lat="44.15414" lon="3.14996">
        <ele>846.40002441406</ele>
        <time>2012-10-28T05:25:09Z</time>
      </trkpt>
      <trkpt lat="44.1543" lon="3.15011">
        <ele>846.20001220703</ele>
        <time>2012-10-28T05:25:16Z</time>
      </trkpt>
      <trkpt lat="44.15445" lon="3.15026">
        <ele>846</ele>
        <time>2012-10-28T05:25:23Z</time>
      </trkpt>
      <trkpt lat="44.15461" lon="3.15043">
        <ele>846.20001220703</ele>
        <time>2012-10-28T05:25:30Z</time>
      </trkpt>
      <trkpt lat="44.15479" lon="3.15055">
        <ele>846.20001220703</ele>
        <time>2012-10-28T05:25:38Z</time>
      </trkpt>
      <trkpt lat="44.15485" lon="3.1506">
        <ele>846.59997558594</ele>
        <time>2012-10-28T05:25:41Z</time>
      </trkpt>
      <trkpt lat="44.15495" lon="3.15071">
        <ele>847.40002441406</ele>
        <time>2012-10-28T05:25:46Z</time>
      </trkpt>
      <trkpt lat="44.15507" lon="3.15068">
        <ele>848</ele>
        <time>2012-10-28T05:25:50Z</time>
      </trkpt>
      <trkpt lat="44.15514" lon="3.15065">
        <ele>848.40002441406</ele>
        <time>2012-10-28T05:25:53Z</time>
      </trkpt>
      <trkpt lat="44.1552" lon="3.15063">
        <ele>848.59997558594</ele>
        <time>2012-10-28T05:25:55Z</time>
      </trkpt>
      <trkpt lat="44.15532" lon="3.15062">
        <ele>848.79998779297</ele>
        <time>2012-10-28T05:25:59Z</time>
      </trkpt>
      <trkpt lat="44.15538" lon="3.15066">
        <ele>848.79998779297</ele>
        <time>2012-10-28T05:26:01Z</time>
      </trkpt>
      <trkpt lat="44.15546" lon="3.15081">
        <ele>848.59997558594</ele>
        <time>2012-10-28T05:26:06Z</time>
      </trkpt>
      <trkpt lat="44.1556" lon="3.15101">
        <ele>848.20001220703</ele>
        <time>2012-10-28T05:26:12Z</time>
      </trkpt>
      <trkpt lat="44.15563" lon="3.15103">
        <ele>848.20001220703</ele>
        <time>2012-10-28T05:26:13Z</time>
      </trkpt>
      <trkpt lat="44.15577" lon="3.15116">
        <ele>847.59997558594</ele>
        <time>2012-10-28T05:26:18Z</time>
      </trkpt>
      <trkpt lat="44.15593" lon="3.15132">
        <ele>847.20001220703</ele>
        <time>2012-10-28T05:26:23Z</time>
      </trkpt>
      <trkpt lat="44.1561" lon="3.15147">
        <ele>846.40002441406</ele>
        <time>2012-10-28T05:26:29Z</time>
      </trkpt>
      <trkpt lat="44.15625" lon="3.15163">
        <ele>845.79998779297</ele>
        <time>2012-10-28T05:26:35Z</time>
      </trkpt>
      <trkpt lat="44.15639" lon="3.15178">
        <ele>845</ele>
        <time>2012-10-28T05:26:40Z</time>
      </trkpt>
      <trkpt lat="44.15656" lon="3.15195">
        <ele>844.20001220703</ele>
        <time>2012-10-28T05:26:46Z</time>
      </trkpt>
      <trkpt lat="44.15671" lon="3.15216">
        <ele>843.40002441406</ele>
        <time>2012-10-28T05:26:52Z</time>
      </trkpt>
      <trkpt lat="44.15682" lon="3.15241">
        <ele>842.59997558594</ele>
        <time>2012-10-28T05:26:58Z</time>
      </trkpt>
      <trkpt lat="44.15696" lon="3.1526">
        <ele>841.79998779297</ele>
        <time>2012-10-28T05:27:04Z</time>
      </trkpt>
      <trkpt lat="44.15708" lon="3.15278">
        <ele>841.20001220703</ele>
        <time>2012-10-28T05:27:09Z</time>
      </trkpt>
      <trkpt lat="44.15721" lon="3.153">
        <ele>840.40002441406</ele>
        <time>2012-10-28T05:27:16Z</time>
      </trkpt>
      <trkpt lat="44.15731" lon="3.15323">
        <ele>839.59997558594</ele>
        <time>2012-10-28T05:27:23Z</time>
      </trkpt>
      <trkpt lat="44.1574" lon="3.15346">
        <ele>839.20001220703</ele>
        <time>2012-10-28T05:27:29Z</time>
      </trkpt>
      <trkpt lat="44.15748" lon="3.1537">
        <ele>838.79998779297</ele>
        <time>2012-10-28T05:27:35Z</time>
      </trkpt>
      <trkpt lat="44.15751" lon="3.15381">
        <ele>838.59997558594</ele>
        <time>2012-10-28T05:27:38Z</time>
      </trkpt>
      <trkpt lat="44.15757" lon="3.15393">
        <ele>838.40002441406</ele>
        <time>2012-10-28T05:27:42Z</time>
      </trkpt>
      <trkpt lat="44.15762" lon="3.154">
        <ele>838.20001220703</ele>
        <time>2012-10-28T05:27:45Z</time>
      </trkpt>
      <trkpt lat="44.15772" lon="3.1541">
        <ele>838</ele>
        <time>2012-10-28T05:27:50Z</time>
      </trkpt>
      <trkpt lat="44.15789" lon="3.15415">
        <ele>838</ele>
        <time>2012-10-28T05:27:57Z</time>
      </trkpt>
      <trkpt lat="44.15806" lon="3.15426">
        <ele>839.20001220703</ele>
        <time>2012-10-28T05:28:06Z</time>
      </trkpt>
      <trkpt lat="44.15823" lon="3.15437">
        <ele>840.40002441406</ele>
        <time>2012-10-28T05:28:14Z</time>
      </trkpt>
      <trkpt lat="44.15838" lon="3.15457">
        <ele>841.59997558594</ele>
        <time>2012-10-28T05:28:21Z</time>
      </trkpt>
      <trkpt lat="44.15845" lon="3.15481">
        <ele>842.79998779297</ele>
        <time>2012-10-28T05:28:28Z</time>
      </trkpt>
      <trkpt lat="44.15852" lon="3.15507">
        <ele>843.40002441406</ele>
        <time>2012-10-28T05:28:35Z</time>
      </trkpt>
      <trkpt lat="44.15853" lon="3.1551">
        <ele>843.40002441406</ele>
        <time>2012-10-28T05:28:36Z</time>
      </trkpt>
      <trkpt lat="44.1586" lon="3.15529">
        <ele>843.79998779297</ele>
        <time>2012-10-28T05:28:42Z</time>
      </trkpt>
      <trkpt lat="44.15868" lon="3.15554">
        <ele>844.79998779297</ele>
        <time>2012-10-28T05:28:49Z</time>
      </trkpt>
      <trkpt lat="44.15869" lon="3.15581">
        <ele>845.79998779297</ele>
        <time>2012-10-28T05:28:57Z</time>
      </trkpt>
      <trkpt lat="44.1587" lon="3.15608">
        <ele>846.59997558594</ele>
        <time>2012-10-28T05:29:04Z</time>
      </trkpt>
      <trkpt lat="44.15868" lon="3.15634">
        <ele>847</ele>
        <time>2012-10-28T05:29:10Z</time>
      </trkpt>
      <trkpt lat="44.15857" lon="3.15658">
        <ele>846.79998779297</ele>
        <time>2012-10-28T05:29:16Z</time>
      </trkpt>
      <trkpt lat="44.15846" lon="3.15684">
        <ele>846.59997558594</ele>
        <time>2012-10-28T05:29:22Z</time>
      </trkpt>
      <trkpt lat="44.15838" lon="3.15709">
        <ele>846.40002441406</ele>
        <time>2012-10-28T05:29:27Z</time>
      </trkpt>
      <trkpt lat="44.15829" lon="3.15731">
        <ele>846.20001220703</ele>
        <time>2012-10-28T05:29:32Z</time>
      </trkpt>
      <trkpt lat="44.15817" lon="3.15756">
        <ele>845.79998779297</ele>
        <time>2012-10-28T05:29:38Z</time>
      </trkpt>
      <trkpt lat="44.15812" lon="3.15784">
        <ele>845.40002441406</ele>
        <time>2012-10-28T05:29:44Z</time>
      </trkpt>
      <trkpt lat="44.1582" lon="3.15811">
        <ele>845</ele>
        <time>2012-10-28T05:29:50Z</time>
      </trkpt>
      <trkpt lat="44.15833" lon="3.15835">
        <ele>844.59997558594</ele>
        <time>2012-10-28T05:29:56Z</time>
      </trkpt>
      <trkpt lat="44.15846" lon="3.15856">
        <ele>844</ele>
        <time>2012-10-28T05:30:02Z</time>
      </trkpt>
      <trkpt lat="44.15862" lon="3.15873">
        <ele>843.40002441406</ele>
        <time>2012-10-28T05:30:08Z</time>
      </trkpt>
      <trkpt lat="44.15878" lon="3.15892">
        <ele>842.79998779297</ele>
        <time>2012-10-28T05:30:15Z</time>
      </trkpt>
      <trkpt lat="44.15895" lon="3.15906">
        <ele>842.20001220703</ele>
        <time>2012-10-28T05:30:21Z</time>
      </trkpt>
      <trkpt lat="44.15912" lon="3.15915">
        <ele>841.59997558594</ele>
        <time>2012-10-28T05:30:27Z</time>
      </trkpt>
      <trkpt lat="44.15932" lon="3.15906">
        <ele>841.20001220703</ele>
        <time>2012-10-28T05:30:34Z</time>
      </trkpt>
      <trkpt lat="44.1595" lon="3.15898">
        <ele>841.20001220703</ele>
        <time>2012-10-28T05:30:40Z</time>
      </trkpt>
      <trkpt lat="44.15966" lon="3.15888">
        <ele>841.20001220703</ele>
        <time>2012-10-28T05:30:46Z</time>
      </trkpt>
      <trkpt lat="44.15985" lon="3.15875">
        <ele>841.40002441406</ele>
        <time>2012-10-28T05:30:53Z</time>
      </trkpt>
      <trkpt lat="44.16002" lon="3.15869">
        <ele>841.59997558594</ele>
        <time>2012-10-28T05:30:59Z</time>
      </trkpt>
      <trkpt lat="44.16019" lon="3.15859">
        <ele>841.79998779297</ele>
        <time>2012-10-28T05:31:05Z</time>
      </trkpt>
      <trkpt lat="44.16037" lon="3.15852">
        <ele>842</ele>
        <time>2012-10-28T05:31:11Z</time>
      </trkpt>
      <trkpt lat="44.16055" lon="3.15845">
        <ele>842.20001220703</ele>
        <time>2012-10-28T05:31:17Z</time>
      </trkpt>
      <trkpt lat="44.16074" lon="3.15842">
        <ele>842.20001220703</ele>
        <time>2012-10-28T05:31:23Z</time>
      </trkpt>
      <trkpt lat="44.16093" lon="3.15845">
        <ele>842</ele>
        <time>2012-10-28T05:31:29Z</time>
      </trkpt>
      <trkpt lat="44.16108" lon="3.15861">
        <ele>842.20001220703</ele>
        <time>2012-10-28T05:31:35Z</time>
      </trkpt>
      <trkpt lat="44.16124" lon="3.15876">
        <ele>843.20001220703</ele>
        <time>2012-10-28T05:31:41Z</time>
      </trkpt>
      <trkpt lat="44.16139" lon="3.15889">
        <ele>844.40002441406</ele>
        <time>2012-10-28T05:31:47Z</time>
      </trkpt>
      <trkpt lat="44.16156" lon="3.15905">
        <ele>845</ele>
        <time>2012-10-28T05:31:53Z</time>
      </trkpt>
      <trkpt lat="44.16172" lon="3.15918">
        <ele>845.59997558594</ele>
        <time>2012-10-28T05:31:59Z</time>
      </trkpt>
      <trkpt lat="44.1619" lon="3.15932">
        <ele>845.59997558594</ele>
        <time>2012-10-28T05:32:05Z</time>
      </trkpt>
      <trkpt lat="44.16206" lon="3.15946">
        <ele>845.59997558594</ele>
        <time>2012-10-28T05:32:10Z</time>
      </trkpt>
      <trkpt lat="44.1622" lon="3.15964">
        <ele>845.40002441406</ele>
        <time>2012-10-28T05:32:16Z</time>
      </trkpt>
      <trkpt lat="44.16235" lon="3.15981">
        <ele>845.20001220703</ele>
        <time>2012-10-28T05:32:22Z</time>
      </trkpt>
      <trkpt lat="44.16251" lon="3.15996">
        <ele>844.79998779297</ele>
        <time>2012-10-28T05:32:28Z</time>
      </trkpt>
      <trkpt lat="44.16266" lon="3.16009">
        <ele>844.59997558594</ele>
        <time>2012-10-28T05:32:34Z</time>
      </trkpt>
      <trkpt lat="44.16283" lon="3.16022">
        <ele>844.20001220703</ele>
        <time>2012-10-28T05:32:40Z</time>
      </trkpt>
      <trkpt lat="44.163" lon="3.16035">
        <ele>843.79998779297</ele>
        <time>2012-10-28T05:32:46Z</time>
      </trkpt>
      <trkpt lat="44.16319" lon="3.16049">
        <ele>844</ele>
        <time>2012-10-28T05:32:53Z</time>
      </trkpt>
      <trkpt lat="44.16335" lon="3.16062">
        <ele>845</ele>
        <time>2012-10-28T05:33:00Z</time>
      </trkpt>
      <trkpt lat="44.16352" lon="3.16073">
        <ele>846</ele>
        <time>2012-10-28T05:33:07Z</time>
      </trkpt>
      <trkpt lat="44.16368" lon="3.16084">
        <ele>847</ele>
        <time>2012-10-28T05:33:14Z</time>
      </trkpt>
      <trkpt lat="44.16387" lon="3.16092">
        <ele>847.79998779297</ele>
        <time>2012-10-28T05:33:21Z</time>
      </trkpt>
      <trkpt lat="44.16405" lon="3.16093">
        <ele>848.40002441406</ele>
        <time>2012-10-28T05:33:27Z</time>
      </trkpt>
      <trkpt lat="44.16424" lon="3.16103">
        <ele>848.59997558594</ele>
        <time>2012-10-28T05:33:33Z</time>
      </trkpt>
      <trkpt lat="44.16444" lon="3.16108">
        <ele>849.20001220703</ele>
        <time>2012-10-28T05:33:40Z</time>
      </trkpt>
      <trkpt lat="44.16462" lon="3.16107">
        <ele>849.20001220703</ele>
        <time>2012-10-28T05:33:46Z</time>
      </trkpt>
      <trkpt lat="44.16483" lon="3.16105">
        <ele>849.40002441406</ele>
        <time>2012-10-28T05:33:53Z</time>
      </trkpt>
      <trkpt lat="44.16498" lon="3.16097">
        <ele>849.59997558594</ele>
        <time>2012-10-28T05:33:59Z</time>
      </trkpt>
      <trkpt lat="44.16501" lon="3.16097">
        <ele>849.59997558594</ele>
        <time>2012-10-28T05:34:00Z</time>
      </trkpt>
      <trkpt lat="44.16511" lon="3.16101">
        <ele>849.79998779297</ele>
        <time>2012-10-28T05:34:03Z</time>
      </trkpt>
      <trkpt lat="44.16519" lon="3.16108">
        <ele>849.79998779297</ele>
        <time>2012-10-28T05:34:06Z</time>
      </trkpt>
      <trkpt lat="44.16536" lon="3.1612">
        <ele>850</ele>
        <time>2012-10-28T05:34:13Z</time>
      </trkpt>
      <trkpt lat="44.16556" lon="3.16121">
        <ele>850.59997558594</ele>
        <time>2012-10-28T05:34:20Z</time>
      </trkpt>
      <trkpt lat="44.16574" lon="3.16115">
        <ele>850.79998779297</ele>
        <time>2012-10-28T05:34:26Z</time>
      </trkpt>
      <trkpt lat="44.16592" lon="3.16113">
        <ele>851.40002441406</ele>
        <time>2012-10-28T05:34:32Z</time>
      </trkpt>
      <trkpt lat="44.16609" lon="3.16097">
        <ele>852.59997558594</ele>
        <time>2012-10-28T05:34:39Z</time>
      </trkpt>
      <trkpt lat="44.1662" lon="3.16076">
        <ele>853.40002441406</ele>
        <time>2012-10-28T05:34:45Z</time>
      </trkpt>
      <trkpt lat="44.16632" lon="3.16052">
        <ele>854.40002441406</ele>
        <time>2012-10-28T05:34:51Z</time>
      </trkpt>
      <trkpt lat="44.16628" lon="3.16024">
        <ele>854.20001220703</ele>
        <time>2012-10-28T05:34:57Z</time>
      </trkpt>
      <trkpt lat="44.16626" lon="3.15999">
        <ele>854.79998779297</ele>
        <time>2012-10-28T05:35:02Z</time>
      </trkpt>
      <trkpt lat="44.16638" lon="3.15976">
        <ele>855.79998779297</ele>
        <time>2012-10-28T05:35:08Z</time>
      </trkpt>
      <trkpt lat="44.16647" lon="3.15952">
        <ele>856.59997558594</ele>
        <time>2012-10-28T05:35:14Z</time>
      </trkpt>
      <trkpt lat="44.16651" lon="3.15923">
        <ele>857</ele>
        <time>2012-10-28T05:35:20Z</time>
      </trkpt>
      <trkpt lat="44.16662" lon="3.15899">
        <ele>857.59997558594</ele>
        <time>2012-10-28T05:35:26Z</time>
      </trkpt>
      <trkpt lat="44.16681" lon="3.15889">
        <ele>857.79998779297</ele>
        <time>2012-10-28T05:35:32Z</time>
      </trkpt>
      <trkpt lat="44.16698" lon="3.15896">
        <ele>857.40002441406</ele>
        <time>2012-10-28T05:35:37Z</time>
      </trkpt>
      <trkpt lat="44.16715" lon="3.15903">
        <ele>857</ele>
        <time>2012-10-28T05:35:42Z</time>
      </trkpt>
      <trkpt lat="44.16735" lon="3.15906">
        <ele>856.40002441406</ele>
        <time>2012-10-28T05:35:47Z</time>
      </trkpt>
      <trkpt lat="44.16756" lon="3.15913">
        <ele>855.79998779297</ele>
        <time>2012-10-28T05:35:54Z</time>
      </trkpt>
      <trkpt lat="44.16774" lon="3.1592">
        <ele>855.40002441406</ele>
        <time>2012-10-28T05:36:00Z</time>
      </trkpt>
      <trkpt lat="44.16793" lon="3.15923">
        <ele>855</ele>
        <time>2012-10-28T05:36:06Z</time>
      </trkpt>
      <trkpt lat="44.16813" lon="3.15926">
        <ele>854.40002441406</ele>
        <time>2012-10-28T05:36:13Z</time>
      </trkpt>
      <trkpt lat="44.1683" lon="3.15929">
        <ele>853.79998779297</ele>
        <time>2012-10-28T05:36:19Z</time>
      </trkpt>
      <trkpt lat="44.16851" lon="3.15929">
        <ele>853.40002441406</ele>
        <time>2012-10-28T05:36:26Z</time>
      </trkpt>
      <trkpt lat="44.16871" lon="3.15927">
        <ele>852.79998779297</ele>
        <time>2012-10-28T05:36:33Z</time>
      </trkpt>
      <trkpt lat="44.1689" lon="3.1592">
        <ele>852.40002441406</ele>
        <time>2012-10-28T05:36:40Z</time>
      </trkpt>
      <trkpt lat="44.16908" lon="3.15908">
        <ele>852</ele>
        <time>2012-10-28T05:36:47Z</time>
      </trkpt>
      <trkpt lat="44.16926" lon="3.15896">
        <ele>851.79998779297</ele>
        <time>2012-10-28T05:36:54Z</time>
      </trkpt>
      <trkpt lat="44.16946" lon="3.15893">
        <ele>851.79998779297</ele>
        <time>2012-10-28T05:37:01Z</time>
      </trkpt>
      <trkpt lat="44.16964" lon="3.15889">
        <ele>851.40002441406</ele>
        <time>2012-10-28T05:37:07Z</time>
      </trkpt>
      <trkpt lat="44.16982" lon="3.15884">
        <ele>851.20001220703</ele>
        <time>2012-10-28T05:37:13Z</time>
      </trkpt>
      <trkpt lat="44.17002" lon="3.15877">
        <ele>851</ele>
        <time>2012-10-28T05:37:20Z</time>
      </trkpt>
      <trkpt lat="44.1702" lon="3.1587">
        <ele>851</ele>
        <time>2012-10-28T05:37:27Z</time>
      </trkpt>
      <trkpt lat="44.17038" lon="3.15864">
        <ele>851.79998779297</ele>
        <time>2012-10-28T05:37:34Z</time>
      </trkpt>
      <trkpt lat="44.17057" lon="3.1586">
        <ele>852.79998779297</ele>
        <time>2012-10-28T05:37:41Z</time>
      </trkpt>
      <trkpt lat="44.17078" lon="3.15857">
        <ele>854</ele>
        <time>2012-10-28T05:37:48Z</time>
      </trkpt>
      <trkpt lat="44.17097" lon="3.15857">
        <ele>855.20001220703</ele>
        <time>2012-10-28T05:37:55Z</time>
      </trkpt>
      <trkpt lat="44.17116" lon="3.15863">
        <ele>856.40002441406</ele>
        <time>2012-10-28T05:38:02Z</time>
      </trkpt>
      <trkpt lat="44.17136" lon="3.15866">
        <ele>857.79998779297</ele>
        <time>2012-10-28T05:38:09Z</time>
      </trkpt>
      <trkpt lat="44.17154" lon="3.15862">
        <ele>859.20001220703</ele>
        <time>2012-10-28T05:38:16Z</time>
      </trkpt>
      <trkpt lat="44.17171" lon="3.15849">
        <ele>860.20001220703</ele>
        <time>2012-10-28T05:38:23Z</time>
      </trkpt>
      <trkpt lat="44.17188" lon="3.15834">
        <ele>861</ele>
        <time>2012-10-28T05:38:30Z</time>
      </trkpt>
      <trkpt lat="44.17203" lon="3.15816">
        <ele>861</ele>
        <time>2012-10-28T05:38:37Z</time>
      </trkpt>
      <trkpt lat="44.17216" lon="3.15796">
        <ele>861</ele>
        <time>2012-10-28T05:38:44Z</time>
      </trkpt>
      <trkpt lat="44.17229" lon="3.15775">
        <ele>861</ele>
        <time>2012-10-28T05:38:51Z</time>
      </trkpt>
      <trkpt lat="44.17241" lon="3.15755">
        <ele>860.79998779297</ele>
        <time>2012-10-28T05:38:58Z</time>
      </trkpt>
      <trkpt lat="44.1725" lon="3.15733">
        <ele>860.79998779297</ele>
        <time>2012-10-28T05:39:05Z</time>
      </trkpt>
      <trkpt lat="44.1726" lon="3.15709">
        <ele>860.40002441406</ele>
        <time>2012-10-28T05:39:12Z</time>
      </trkpt>
      <trkpt lat="44.17273" lon="3.15693">
        <ele>860.20001220703</ele>
        <time>2012-10-28T05:39:19Z</time>
      </trkpt>
      <trkpt lat="44.17292" lon="3.15698">
        <ele>860</ele>
        <time>2012-10-28T05:39:27Z</time>
      </trkpt>
      <trkpt lat="44.17312" lon="3.15703">
        <ele>860</ele>
        <time>2012-10-28T05:39:34Z</time>
      </trkpt>
      <trkpt lat="44.17332" lon="3.15703">
        <ele>860</ele>
        <time>2012-10-28T05:39:41Z</time>
      </trkpt>
      <trkpt lat="44.17352" lon="3.15702">
        <ele>860.20001220703</ele>
        <time>2012-10-28T05:39:47Z</time>
      </trkpt>
      <trkpt lat="44.17371" lon="3.15704">
        <ele>860.20001220703</ele>
        <time>2012-10-28T05:39:53Z</time>
      </trkpt>
      <trkpt lat="44.17391" lon="3.15707">
        <ele>860.20001220703</ele>
        <time>2012-10-28T05:39:59Z</time>
      </trkpt>
      <trkpt lat="44.1741" lon="3.15711">
        <ele>860</ele>
        <time>2012-10-28T05:40:05Z</time>
      </trkpt>
      <trkpt lat="44.17422" lon="3.15719">
        <ele>860</ele>
        <time>2012-10-28T05:40:09Z</time>
      </trkpt>
      <trkpt lat="44.17424" lon="3.15728">
        <ele>859.79998779297</ele>
        <time>2012-10-28T05:40:11Z</time>
      </trkpt>
      <trkpt lat="44.17425" lon="3.15757">
        <ele>859.59997558594</ele>
        <time>2012-10-28T05:40:17Z</time>
      </trkpt>
      <trkpt lat="44.17426" lon="3.15787">
        <ele>859.40002441406</ele>
        <time>2012-10-28T05:40:23Z</time>
      </trkpt>
      <trkpt lat="44.17426" lon="3.15812">
        <ele>859</ele>
        <time>2012-10-28T05:40:28Z</time>
      </trkpt>
      <trkpt lat="44.17423" lon="3.15839">
        <ele>858.59997558594</ele>
        <time>2012-10-28T05:40:34Z</time>
      </trkpt>
      <trkpt lat="44.17422" lon="3.15867">
        <ele>858</ele>
        <time>2012-10-28T05:40:40Z</time>
      </trkpt>
      <trkpt lat="44.17422" lon="3.15896">
        <ele>857.40002441406</ele>
        <time>2012-10-28T05:40:46Z</time>
      </trkpt>
      <trkpt lat="44.17422" lon="3.15925">
        <ele>856.79998779297</ele>
        <time>2012-10-28T05:40:52Z</time>
      </trkpt>
      <trkpt lat="44.17419" lon="3.15952">
        <ele>856.20001220703</ele>
        <time>2012-10-28T05:40:58Z</time>
      </trkpt>
      <trkpt lat="44.17421" lon="3.15978">
        <ele>855.59997558594</ele>
        <time>2012-10-28T05:41:03Z</time>
      </trkpt>
      <trkpt lat="44.17426" lon="3.16006">
        <ele>855</ele>
        <time>2012-10-28T05:41:09Z</time>
      </trkpt>
      <trkpt lat="44.17429" lon="3.16035">
        <ele>854.20001220703</ele>
        <time>2012-10-28T05:41:15Z</time>
      </trkpt>
      <trkpt lat="44.17431" lon="3.16064">
        <ele>853.40002441406</ele>
        <time>2012-10-28T05:41:21Z</time>
      </trkpt>
      <trkpt lat="44.17432" lon="3.16093">
        <ele>852.59997558594</ele>
        <time>2012-10-28T05:41:27Z</time>
      </trkpt>
      <trkpt lat="44.17432" lon="3.16118">
        <ele>852</ele>
        <time>2012-10-28T05:41:32Z</time>
      </trkpt>
      <trkpt lat="44.17429" lon="3.16147">
        <ele>851.20001220703</ele>
        <time>2012-10-28T05:41:38Z</time>
      </trkpt>
      <trkpt lat="44.17424" lon="3.16175">
        <ele>850.40002441406</ele>
        <time>2012-10-28T05:41:44Z</time>
      </trkpt>
      <trkpt lat="44.17422" lon="3.16199">
        <ele>849.59997558594</ele>
        <time>2012-10-28T05:41:49Z</time>
      </trkpt>
      <trkpt lat="44.17425" lon="3.16229">
        <ele>848.79998779297</ele>
        <time>2012-10-28T05:41:55Z</time>
      </trkpt>
      <trkpt lat="44.17429" lon="3.16255">
        <ele>847.79998779297</ele>
        <time>2012-10-28T05:42:01Z</time>
      </trkpt>
      <trkpt lat="44.17433" lon="3.16282">
        <ele>847</ele>
        <time>2012-10-28T05:42:07Z</time>
      </trkpt>
      <trkpt lat="44.1744" lon="3.16308">
        <ele>846</ele>
        <time>2012-10-28T05:42:13Z</time>
      </trkpt>
      <trkpt lat="44.17449" lon="3.16333">
        <ele>845.40002441406</ele>
        <time>2012-10-28T05:42:19Z</time>
      </trkpt>
      <trkpt lat="44.1746" lon="3.16357">
        <ele>844.59997558594</ele>
        <time>2012-10-28T05:42:25Z</time>
      </trkpt>
      <trkpt lat="44.17472" lon="3.16379">
        <ele>843.79998779297</ele>
        <time>2012-10-28T05:42:31Z</time>
      </trkpt>
      <trkpt lat="44.17487" lon="3.16399">
        <ele>843</ele>
        <time>2012-10-28T05:42:37Z</time>
      </trkpt>
      <trkpt lat="44.17501" lon="3.16418">
        <ele>842.20001220703</ele>
        <time>2012-10-28T05:42:43Z</time>
      </trkpt>
      <trkpt lat="44.17516" lon="3.16436">
        <ele>841.20001220703</ele>
        <time>2012-10-28T05:42:49Z</time>
      </trkpt>
      <trkpt lat="44.1753" lon="3.16456">
        <ele>840.20001220703</ele>
        <time>2012-10-28T05:42:55Z</time>
      </trkpt>
      <trkpt lat="44.17542" lon="3.16474">
        <ele>839.40002441406</ele>
        <time>2012-10-28T05:43:00Z</time>
      </trkpt>
      <trkpt lat="44.17558" lon="3.16494">
        <ele>838.20001220703</ele>
        <time>2012-10-28T05:43:06Z</time>
      </trkpt>
      <trkpt lat="44.17572" lon="3.16514">
        <ele>837.20001220703</ele>
        <time>2012-10-28T05:43:12Z</time>
      </trkpt>
      <trkpt lat="44.17587" lon="3.1653">
        <ele>836</ele>
        <time>2012-10-28T05:43:18Z</time>
      </trkpt>
      <trkpt lat="44.17605" lon="3.16542">
        <ele>835</ele>
        <time>2012-10-28T05:43:24Z</time>
      </trkpt>
      <trkpt lat="44.17625" lon="3.16548">
        <ele>834</ele>
        <time>2012-10-28T05:43:30Z</time>
      </trkpt>
      <trkpt lat="44.17645" lon="3.16549">
        <ele>833</ele>
        <time>2012-10-28T05:43:36Z</time>
      </trkpt>
      <trkpt lat="44.17663" lon="3.16555">
        <ele>832.20001220703</ele>
        <time>2012-10-28T05:43:42Z</time>
      </trkpt>
      <trkpt lat="44.17682" lon="3.16558">
        <ele>831.40002441406</ele>
        <time>2012-10-28T05:43:48Z</time>
      </trkpt>
      <trkpt lat="44.177" lon="3.16559">
        <ele>830.59997558594</ele>
        <time>2012-10-28T05:43:54Z</time>
      </trkpt>
      <trkpt lat="44.17718" lon="3.16559">
        <ele>830</ele>
        <time>2012-10-28T05:44:00Z</time>
      </trkpt>
      <trkpt lat="44.17737" lon="3.16558">
        <ele>829.20001220703</ele>
        <time>2012-10-28T05:44:06Z</time>
      </trkpt>
      <trkpt lat="44.17755" lon="3.16554">
        <ele>828.40002441406</ele>
        <time>2012-10-28T05:44:12Z</time>
      </trkpt>
      <trkpt lat="44.17771" lon="3.16537">
        <ele>827.40002441406</ele>
        <time>2012-10-28T05:44:18Z</time>
      </trkpt>
      <trkpt lat="44.17786" lon="3.16518">
        <ele>826.40002441406</ele>
        <time>2012-10-28T05:44:24Z</time>
      </trkpt>
      <trkpt lat="44.17803" lon="3.16501">
        <ele>825.20001220703</ele>
        <time>2012-10-28T05:44:30Z</time>
      </trkpt>
      <trkpt lat="44.17822" lon="3.16503">
        <ele>823.79998779297</ele>
        <time>2012-10-28T05:44:36Z</time>
      </trkpt>
      <trkpt lat="44.17836" lon="3.16523">
        <ele>822.79998779297</ele>
        <time>2012-10-28T05:44:42Z</time>
      </trkpt>
      <trkpt lat="44.17849" lon="3.16546">
        <ele>821.59997558594</ele>
        <time>2012-10-28T05:44:48Z</time>
      </trkpt>
      <trkpt lat="44.1786" lon="3.16571">
        <ele>820.40002441406</ele>
        <time>2012-10-28T05:44:54Z</time>
      </trkpt>
      <trkpt lat="44.17869" lon="3.16595">
        <ele>819.20001220703</ele>
        <time>2012-10-28T05:45:00Z</time>
      </trkpt>
      <trkpt lat="44.17875" lon="3.16622">
        <ele>818</ele>
        <time>2012-10-28T05:45:06Z</time>
      </trkpt>
      <trkpt lat="44.17878" lon="3.16651">
        <ele>816.59997558594</ele>
        <time>2012-10-28T05:45:12Z</time>
      </trkpt>
      <trkpt lat="44.1788" lon="3.16679">
        <ele>815.59997558594</ele>
        <time>2012-10-28T05:45:18Z</time>
      </trkpt>
      <trkpt lat="44.17883" lon="3.16705">
        <ele>814.40002441406</ele>
        <time>2012-10-28T05:45:24Z</time>
      </trkpt>
      <trkpt lat="44.1789" lon="3.16728">
        <ele>813.40002441406</ele>
        <time>2012-10-28T05:45:30Z</time>
      </trkpt>
      <trkpt lat="44.17902" lon="3.1675">
        <ele>812.20001220703</ele>
        <time>2012-10-28T05:45:36Z</time>
      </trkpt>
      <trkpt lat="44.17912" lon="3.16772">
        <ele>811.40002441406</ele>
        <time>2012-10-28T05:45:42Z</time>
      </trkpt>
      <trkpt lat="44.17923" lon="3.16794">
        <ele>810.40002441406</ele>
        <time>2012-10-28T05:45:48Z</time>
      </trkpt>
      <trkpt lat="44.17933" lon="3.16815">
        <ele>809.59997558594</ele>
        <time>2012-10-28T05:45:54Z</time>
      </trkpt>
      <trkpt lat="44.17942" lon="3.16837">
        <ele>809</ele>
        <time>2012-10-28T05:46:00Z</time>
      </trkpt>
      <trkpt lat="44.17955" lon="3.16856">
        <ele>808.40002441406</ele>
        <time>2012-10-28T05:46:06Z</time>
      </trkpt>
      <trkpt lat="44.17969" lon="3.16871">
        <ele>807.40002441406</ele>
        <time>2012-10-28T05:46:15Z</time>
      </trkpt>
      <trkpt lat="44.17982" lon="3.16891">
        <ele>807</ele>
        <time>2012-10-28T05:46:20Z</time>
      </trkpt>
      <trkpt lat="44.17995" lon="3.16914">
        <ele>806.40002441406</ele>
        <time>2012-10-28T05:46:26Z</time>
      </trkpt>
      <trkpt lat="44.18011" lon="3.16934">
        <ele>805.79998779297</ele>
        <time>2012-10-28T05:46:32Z</time>
      </trkpt>
      <trkpt lat="44.18029" lon="3.16945">
        <ele>805.20001220703</ele>
        <time>2012-10-28T05:46:38Z</time>
      </trkpt>
      <trkpt lat="44.18048" lon="3.16956">
        <ele>804.59997558594</ele>
        <time>2012-10-28T05:46:45Z</time>
      </trkpt>
      <trkpt lat="44.18065" lon="3.16964">
        <ele>804</ele>
        <time>2012-10-28T05:46:51Z</time>
      </trkpt>
      <trkpt lat="44.18083" lon="3.1697">
        <ele>803.59997558594</ele>
        <time>2012-10-28T05:46:57Z</time>
      </trkpt>
      <trkpt lat="44.18102" lon="3.16973">
        <ele>803</ele>
        <time>2012-10-28T05:47:03Z</time>
      </trkpt>
      <trkpt lat="44.18118" lon="3.16986">
        <ele>802.79998779297</ele>
        <time>2012-10-28T05:47:09Z</time>
      </trkpt>
      <trkpt lat="44.18135" lon="3.16999">
        <ele>802.59997558594</ele>
        <time>2012-10-28T05:47:15Z</time>
      </trkpt>
      <trkpt lat="44.18152" lon="3.17008">
        <ele>802.20001220703</ele>
        <time>2012-10-28T05:47:21Z</time>
      </trkpt>
      <trkpt lat="44.18171" lon="3.17014">
        <ele>801.79998779297</ele>
        <time>2012-10-28T05:47:27Z</time>
      </trkpt>
      <trkpt lat="44.18188" lon="3.17022">
        <ele>801.59997558594</ele>
        <time>2012-10-28T05:47:32Z</time>
      </trkpt>
      <trkpt lat="44.18206" lon="3.17033">
        <ele>801.20001220703</ele>
        <time>2012-10-28T05:47:38Z</time>
      </trkpt>
      <trkpt lat="44.18215" lon="3.17039">
        <ele>800.79998779297</ele>
        <time>2012-10-28T05:47:41Z</time>
      </trkpt>
      <trkpt lat="44.18223" lon="3.17047">
        <ele>800.59997558594</ele>
        <time>2012-10-28T05:47:44Z</time>
      </trkpt>
      <trkpt lat="44.18225" lon="3.17049">
        <ele>800.40002441406</ele>
        <time>2012-10-28T05:47:45Z</time>
      </trkpt>
      <trkpt lat="44.18239" lon="3.17054">
        <ele>800</ele>
        <time>2012-10-28T05:47:49Z</time>
      </trkpt>
      <trkpt lat="44.18251" lon="3.17063">
        <ele>799.59997558594</ele>
        <time>2012-10-28T05:47:53Z</time>
      </trkpt>
      <trkpt lat="44.18252" lon="3.17072">
        <ele>799.20001220703</ele>
        <time>2012-10-28T05:47:55Z</time>
      </trkpt>
      <trkpt lat="44.18259" lon="3.17094">
        <ele>798.59997558594</ele>
        <time>2012-10-28T05:48:00Z</time>
      </trkpt>
      <trkpt lat="44.18275" lon="3.17113">
        <ele>797.79998779297</ele>
        <time>2012-10-28T05:48:06Z</time>
      </trkpt>
      <trkpt lat="44.18292" lon="3.17128">
        <ele>797.20001220703</ele>
        <time>2012-10-28T05:48:12Z</time>
      </trkpt>
      <trkpt lat="44.18311" lon="3.17138">
        <ele>796.40002441406</ele>
        <time>2012-10-28T05:48:18Z</time>
      </trkpt>
      <trkpt lat="44.1833" lon="3.17146">
        <ele>795.79998779297</ele>
        <time>2012-10-28T05:48:24Z</time>
      </trkpt>
      <trkpt lat="44.18349" lon="3.17151">
        <ele>795</ele>
        <time>2012-10-28T05:48:30Z</time>
      </trkpt>
      <trkpt lat="44.18367" lon="3.17153">
        <ele>794.20001220703</ele>
        <time>2012-10-28T05:48:36Z</time>
      </trkpt>
      <trkpt lat="44.18386" lon="3.17151">
        <ele>793.59997558594</ele>
        <time>2012-10-28T05:48:42Z</time>
      </trkpt>
      <trkpt lat="44.18404" lon="3.17147">
        <ele>793</ele>
        <time>2012-10-28T05:48:48Z</time>
      </trkpt>
      <trkpt lat="44.18422" lon="3.17152">
        <ele>792.40002441406</ele>
        <time>2012-10-28T05:48:55Z</time>
      </trkpt>
      <trkpt lat="44.18421" lon="3.17169">
        <ele>792.20001220703</ele>
        <time>2012-10-28T05:48:59Z</time>
      </trkpt>
      <trkpt lat="44.1842" lon="3.17177">
        <ele>792</ele>
        <time>2012-10-28T05:49:01Z</time>
      </trkpt>
      <trkpt lat="44.18415" lon="3.17202">
        <ele>791.59997558594</ele>
        <time>2012-10-28T05:49:07Z</time>
      </trkpt>
      <trkpt lat="44.1841" lon="3.17229">
        <ele>791.20001220703</ele>
        <time>2012-10-28T05:49:13Z</time>
      </trkpt>
      <trkpt lat="44.18403" lon="3.17253">
        <ele>790.79998779297</ele>
        <time>2012-10-28T05:49:19Z</time>
      </trkpt>
      <trkpt lat="44.18399" lon="3.17278">
        <ele>790.20001220703</ele>
        <time>2012-10-28T05:49:27Z</time>
      </trkpt>
      <trkpt lat="44.18394" lon="3.17306">
        <ele>789.79998779297</ele>
        <time>2012-10-28T05:49:34Z</time>
      </trkpt>
      <trkpt lat="44.1839" lon="3.1733">
        <ele>789.40002441406</ele>
        <time>2012-10-28T05:49:40Z</time>
      </trkpt>
      <trkpt lat="44.18386" lon="3.17357">
        <ele>789</ele>
        <time>2012-10-28T05:49:46Z</time>
      </trkpt>
      <trkpt lat="44.18385" lon="3.17384">
        <ele>788.59997558594</ele>
        <time>2012-10-28T05:49:52Z</time>
      </trkpt>
      <trkpt lat="44.18393" lon="3.17408">
        <ele>788.20001220703</ele>
        <time>2012-10-28T05:49:58Z</time>
      </trkpt>
      <trkpt lat="44.1841" lon="3.17416">
        <ele>787.79998779297</ele>
        <time>2012-10-28T05:50:04Z</time>
      </trkpt>
      <trkpt lat="44.18429" lon="3.17413">
        <ele>787.40002441406</ele>
        <time>2012-10-28T05:50:10Z</time>
      </trkpt>
      <trkpt lat="44.18447" lon="3.17406">
        <ele>787</ele>
        <time>2012-10-28T05:50:16Z</time>
      </trkpt>
      <trkpt lat="44.18458" lon="3.17424">
        <ele>786.59997558594</ele>
        <time>2012-10-28T05:50:21Z</time>
      </trkpt>
      <trkpt lat="44.18459" lon="3.17429">
        <ele>786.59997558594</ele>
        <time>2012-10-28T05:50:22Z</time>
      </trkpt>
      <trkpt lat="44.1846" lon="3.17442">
        <ele>786.40002441406</ele>
        <time>2012-10-28T05:50:25Z</time>
      </trkpt>
      <trkpt lat="44.18461" lon="3.17455">
        <ele>786.20001220703</ele>
        <time>2012-10-28T05:50:28Z</time>
      </trkpt>
      <trkpt lat="44.18464" lon="3.17483">
        <ele>785.79998779297</ele>
        <time>2012-10-28T05:50:34Z</time>
      </trkpt>
      <trkpt lat="44.18472" lon="3.17508">
        <ele>785.40002441406</ele>
        <time>2012-10-28T05:50:40Z</time>
      </trkpt>
      <trkpt lat="44.18488" lon="3.17522">
        <ele>785</ele>
        <time>2012-10-28T05:50:46Z</time>
      </trkpt>
      <trkpt lat="44.18508" lon="3.17524">
        <ele>784.40002441406</ele>
        <time>2012-10-28T05:50:52Z</time>
      </trkpt>
      <trkpt lat="44.18528" lon="3.17532">
        <ele>783.59997558594</ele>
        <time>2012-10-28T05:50:58Z</time>
      </trkpt>
      <trkpt lat="44.18542" lon="3.1755">
        <ele>783</ele>
        <time>2012-10-28T05:51:03Z</time>
      </trkpt>
      <trkpt lat="44.18547" lon="3.17578">
        <ele>782.40002441406</ele>
        <time>2012-10-28T05:51:09Z</time>
      </trkpt>
      <trkpt lat="44.18549" lon="3.17582">
        <ele>782</ele>
        <time>2012-10-28T05:51:11Z</time>
      </trkpt>
      <trkpt lat="44.18562" lon="3.17589">
        <ele>781.40002441406</ele>
        <time>2012-10-28T05:51:17Z</time>
      </trkpt>
      <trkpt lat="44.1858" lon="3.17598">
        <ele>780.79998779297</ele>
        <time>2012-10-28T05:51:23Z</time>
      </trkpt>
      <trkpt lat="44.18584" lon="3.17624">
        <ele>780.20001220703</ele>
        <time>2012-10-28T05:51:29Z</time>
      </trkpt>
      <trkpt lat="44.18579" lon="3.17653">
        <ele>779.59997558594</ele>
        <time>2012-10-28T05:51:35Z</time>
      </trkpt>
      <trkpt lat="44.18586" lon="3.17676">
        <ele>779</ele>
        <time>2012-10-28T05:51:40Z</time>
      </trkpt>
      <trkpt lat="44.18597" lon="3.17699">
        <ele>778.40002441406</ele>
        <time>2012-10-28T05:51:46Z</time>
      </trkpt>
      <trkpt lat="44.1861" lon="3.1772">
        <ele>777.79998779297</ele>
        <time>2012-10-28T05:51:52Z</time>
      </trkpt>
      <trkpt lat="44.18615" lon="3.17746">
        <ele>777.40002441406</ele>
        <time>2012-10-28T05:51:58Z</time>
      </trkpt>
      <trkpt lat="44.18613" lon="3.17773">
        <ele>776.79998779297</ele>
        <time>2012-10-28T05:52:04Z</time>
      </trkpt>
      <trkpt lat="44.18616" lon="3.178">
        <ele>776.40002441406</ele>
        <time>2012-10-28T05:52:10Z</time>
      </trkpt>
      <trkpt lat="44.18624" lon="3.17827">
        <ele>775.79998779297</ele>
        <time>2012-10-28T05:52:16Z</time>
      </trkpt>
      <trkpt lat="44.18633" lon="3.17851">
        <ele>775.20001220703</ele>
        <time>2012-10-28T05:52:22Z</time>
      </trkpt>
      <trkpt lat="44.18626" lon="3.17878">
        <ele>774.40002441406</ele>
        <time>2012-10-28T05:52:28Z</time>
      </trkpt>
      <trkpt lat="44.18613" lon="3.17901">
        <ele>773.79998779297</ele>
        <time>2012-10-28T05:52:34Z</time>
      </trkpt>
      <trkpt lat="44.18609" lon="3.17928">
        <ele>773</ele>
        <time>2012-10-28T05:52:40Z</time>
      </trkpt>
      <trkpt lat="44.18608" lon="3.17937">
        <ele>772.79998779297</ele>
        <time>2012-10-28T05:52:42Z</time>
      </trkpt>
      <trkpt lat="44.18599" lon="3.17952">
        <ele>772</ele>
        <time>2012-10-28T05:52:46Z</time>
      </trkpt>
      <trkpt lat="44.18589" lon="3.17973">
        <ele>771.20001220703</ele>
        <time>2012-10-28T05:52:51Z</time>
      </trkpt>
      <trkpt lat="44.18587" lon="3.18002">
        <ele>770</ele>
        <time>2012-10-28T05:52:57Z</time>
      </trkpt>
      <trkpt lat="44.18579" lon="3.18025">
        <ele>769.20001220703</ele>
        <time>2012-10-28T05:53:02Z</time>
      </trkpt>
      <trkpt lat="44.18568" lon="3.18046">
        <ele>768.20001220703</ele>
        <time>2012-10-28T05:53:07Z</time>
      </trkpt>
      <trkpt lat="44.18565" lon="3.18058">
        <ele>767.79998779297</ele>
        <time>2012-10-28T05:53:10Z</time>
      </trkpt>
      <trkpt lat="44.18572" lon="3.1807">
        <ele>767.20001220703</ele>
        <time>2012-10-28T05:53:14Z</time>
      </trkpt>
      <trkpt lat="44.18589" lon="3.18072">
        <ele>766.20001220703</ele>
        <time>2012-10-28T05:53:20Z</time>
      </trkpt>
      <trkpt lat="44.18592" lon="3.18072">
        <ele>766</ele>
        <time>2012-10-28T05:53:21Z</time>
      </trkpt>
      <trkpt lat="44.18613" lon="3.18071">
        <ele>764.79998779297</ele>
        <time>2012-10-28T05:53:28Z</time>
      </trkpt>
      <trkpt lat="44.18629" lon="3.18058">
        <ele>763.79998779297</ele>
        <time>2012-10-28T05:53:35Z</time>
      </trkpt>
      <trkpt lat="44.18647" lon="3.1805">
        <ele>762.79998779297</ele>
        <time>2012-10-28T05:53:42Z</time>
      </trkpt>
      <trkpt lat="44.18663" lon="3.18065">
        <ele>762.20001220703</ele>
        <time>2012-10-28T05:53:49Z</time>
      </trkpt>
      <trkpt lat="44.1867" lon="3.18089">
        <ele>761.59997558594</ele>
        <time>2012-10-28T05:53:55Z</time>
      </trkpt>
      <trkpt lat="44.18674" lon="3.18114">
        <ele>761.20001220703</ele>
        <time>2012-10-28T05:54:01Z</time>
      </trkpt>
      <trkpt lat="44.18669" lon="3.1814">
        <ele>760.79998779297</ele>
        <time>2012-10-28T05:54:07Z</time>
      </trkpt>
      <trkpt lat="44.18655" lon="3.18161">
        <ele>760.40002441406</ele>
        <time>2012-10-28T05:54:13Z</time>
      </trkpt>
      <trkpt lat="44.18641" lon="3.18181">
        <ele>760</ele>
        <time>2012-10-28T05:54:19Z</time>
      </trkpt>
      <trkpt lat="44.18628" lon="3.18201">
        <ele>759.40002441406</ele>
        <time>2012-10-28T05:54:25Z</time>
      </trkpt>
      <trkpt lat="44.18615" lon="3.18223">
        <ele>759</ele>
        <time>2012-10-28T05:54:31Z</time>
      </trkpt>
      <trkpt lat="44.18602" lon="3.18244">
        <ele>758.40002441406</ele>
        <time>2012-10-28T05:54:37Z</time>
      </trkpt>
      <trkpt lat="44.18586" lon="3.18262">
        <ele>757.79998779297</ele>
        <time>2012-10-28T05:54:43Z</time>
      </trkpt>
      <trkpt lat="44.18567" lon="3.18275">
        <ele>757.20001220703</ele>
        <time>2012-10-28T05:54:49Z</time>
      </trkpt>
      <trkpt lat="44.18549" lon="3.1829">
        <ele>756.59997558594</ele>
        <time>2012-10-28T05:54:55Z</time>
      </trkpt>
      <trkpt lat="44.18531" lon="3.18298">
        <ele>756</ele>
        <time>2012-10-28T05:55:00Z</time>
      </trkpt>
      <trkpt lat="44.18515" lon="3.18318">
        <ele>755.40002441406</ele>
        <time>2012-10-28T05:55:06Z</time>
      </trkpt>
      <trkpt lat="44.18504" lon="3.18338">
        <ele>754.59997558594</ele>
        <time>2012-10-28T05:55:11Z</time>
      </trkpt>
      <trkpt lat="44.18485" lon="3.1835">
        <ele>753.79998779297</ele>
        <time>2012-10-28T05:55:17Z</time>
      </trkpt>
      <trkpt lat="44.18467" lon="3.18364">
        <ele>752.79998779297</ele>
        <time>2012-10-28T05:55:23Z</time>
      </trkpt>
      <trkpt lat="44.18451" lon="3.18378">
        <ele>751.79998779297</ele>
        <time>2012-10-28T05:55:28Z</time>
      </trkpt>
      <trkpt lat="44.18442" lon="3.18401">
        <ele>751</ele>
        <time>2012-10-28T05:55:33Z</time>
      </trkpt>
      <trkpt lat="44.18436" lon="3.18427">
        <ele>750.20001220703</ele>
        <time>2012-10-28T05:55:38Z</time>
      </trkpt>
      <trkpt lat="44.18423" lon="3.18443">
        <ele>749.40002441406</ele>
        <time>2012-10-28T05:55:43Z</time>
      </trkpt>
      <trkpt lat="44.18407" lon="3.18462">
        <ele>748.40002441406</ele>
        <time>2012-10-28T05:55:49Z</time>
      </trkpt>
      <trkpt lat="44.18391" lon="3.18482">
        <ele>747.40002441406</ele>
        <time>2012-10-28T05:55:55Z</time>
      </trkpt>
      <trkpt lat="44.18391" lon="3.185">
        <ele>746.59997558594</ele>
        <time>2012-10-28T05:55:59Z</time>
      </trkpt>
      <trkpt lat="44.18391" lon="3.18505">
        <ele>746.40002441406</ele>
        <time>2012-10-28T05:56:00Z</time>
      </trkpt>
      <trkpt lat="44.18388" lon="3.18533">
        <ele>745.20001220703</ele>
        <time>2012-10-28T05:56:06Z</time>
      </trkpt>
      <trkpt lat="44.18378" lon="3.18556">
        <ele>744.20001220703</ele>
        <time>2012-10-28T05:56:11Z</time>
      </trkpt>
      <trkpt lat="44.18369" lon="3.18579">
        <ele>743.40002441406</ele>
        <time>2012-10-28T05:56:16Z</time>
      </trkpt>
      <trkpt lat="44.18357" lon="3.18602">
        <ele>742.59997558594</ele>
        <time>2012-10-28T05:56:22Z</time>
      </trkpt>
      <trkpt lat="44.18339" lon="3.18614">
        <ele>741.79998779297</ele>
        <time>2012-10-28T05:56:28Z</time>
      </trkpt>
      <trkpt lat="44.18322" lon="3.18624">
        <ele>741</ele>
        <time>2012-10-28T05:56:33Z</time>
      </trkpt>
      <trkpt lat="44.18308" lon="3.18645">
        <ele>740.20001220703</ele>
        <time>2012-10-28T05:56:39Z</time>
      </trkpt>
      <trkpt lat="44.18292" lon="3.18662">
        <ele>739.20001220703</ele>
        <time>2012-10-28T05:56:45Z</time>
      </trkpt>
      <trkpt lat="44.18276" lon="3.18678">
        <ele>738.20001220703</ele>
        <time>2012-10-28T05:56:51Z</time>
      </trkpt>
      <trkpt lat="44.18259" lon="3.18694">
        <ele>737.20001220703</ele>
        <time>2012-10-28T05:56:57Z</time>
      </trkpt>
      <trkpt lat="44.18243" lon="3.18712">
        <ele>736</ele>
        <time>2012-10-28T05:57:03Z</time>
      </trkpt>
      <trkpt lat="44.18228" lon="3.1873">
        <ele>734.79998779297</ele>
        <time>2012-10-28T05:57:09Z</time>
      </trkpt>
      <trkpt lat="44.18214" lon="3.18752">
        <ele>733.59997558594</ele>
        <time>2012-10-28T05:57:15Z</time>
      </trkpt>
      <trkpt lat="44.18203" lon="3.18776">
        <ele>732.40002441406</ele>
        <time>2012-10-28T05:57:21Z</time>
      </trkpt>
      <trkpt lat="44.18199" lon="3.18786">
        <ele>731.79998779297</ele>
        <time>2012-10-28T05:57:24Z</time>
      </trkpt>
      <trkpt lat="44.18203" lon="3.18801">
        <ele>731</ele>
        <time>2012-10-28T05:57:28Z</time>
      </trkpt>
      <trkpt lat="44.18209" lon="3.18821">
        <ele>730</ele>
        <time>2012-10-28T05:57:33Z</time>
      </trkpt>
      <trkpt lat="44.18207" lon="3.18824">
        <ele>729.79998779297</ele>
        <time>2012-10-28T05:57:34Z</time>
      </trkpt>
      <trkpt lat="44.18197" lon="3.18827">
        <ele>729.40002441406</ele>
        <time>2012-10-28T05:57:37Z</time>
      </trkpt>
      <trkpt lat="44.18188" lon="3.18828">
        <ele>728.79998779297</ele>
        <time>2012-10-28T05:57:40Z</time>
      </trkpt>
      <trkpt lat="44.18171" lon="3.18833">
        <ele>727.79998779297</ele>
        <time>2012-10-28T05:57:46Z</time>
      </trkpt>
      <trkpt lat="44.1817" lon="3.18836">
        <ele>727.59997558594</ele>
        <time>2012-10-28T05:57:47Z</time>
      </trkpt>
      <trkpt lat="44.18158" lon="3.18859">
        <ele>726.79998779297</ele>
        <time>2012-10-28T05:57:54Z</time>
      </trkpt>
      <trkpt lat="44.18152" lon="3.18881">
        <ele>726</ele>
        <time>2012-10-28T05:58:00Z</time>
      </trkpt>
      <trkpt lat="44.18138" lon="3.18898">
        <ele>725.40002441406</ele>
        <time>2012-10-28T05:58:06Z</time>
      </trkpt>
      <trkpt lat="44.18122" lon="3.18911">
        <ele>724.79998779297</ele>
        <time>2012-10-28T05:58:12Z</time>
      </trkpt>
      <trkpt lat="44.18103" lon="3.18923">
        <ele>724</ele>
        <time>2012-10-28T05:58:18Z</time>
      </trkpt>
      <trkpt lat="44.18084" lon="3.18936">
        <ele>723.20001220703</ele>
        <time>2012-10-28T05:58:24Z</time>
      </trkpt>
      <trkpt lat="44.18067" lon="3.1895">
        <ele>722.20001220703</ele>
        <time>2012-10-28T05:58:30Z</time>
      </trkpt>
      <trkpt lat="44.18051" lon="3.18971">
        <ele>721</ele>
        <time>2012-10-28T05:58:37Z</time>
      </trkpt>
      <trkpt lat="44.18038" lon="3.1899">
        <ele>719.79998779297</ele>
        <time>2012-10-28T05:58:43Z</time>
      </trkpt>
      <trkpt lat="44.18033" lon="3.19016">
        <ele>718.59997558594</ele>
        <time>2012-10-28T05:58:49Z</time>
      </trkpt>
      <trkpt lat="44.18032" lon="3.19043">
        <ele>717.59997558594</ele>
        <time>2012-10-28T05:58:55Z</time>
      </trkpt>
      <trkpt lat="44.1803" lon="3.1907">
        <ele>716.40002441406</ele>
        <time>2012-10-28T05:59:01Z</time>
      </trkpt>
      <trkpt lat="44.18026" lon="3.19097">
        <ele>715.20001220703</ele>
        <time>2012-10-28T05:59:07Z</time>
      </trkpt>
      <trkpt lat="44.18017" lon="3.19121">
        <ele>714</ele>
        <time>2012-10-28T05:59:13Z</time>
      </trkpt>
      <trkpt lat="44.18008" lon="3.19145">
        <ele>712.79998779297</ele>
        <time>2012-10-28T05:59:19Z</time>
      </trkpt>
      <trkpt lat="44.17999" lon="3.1917">
        <ele>711.40002441406</ele>
        <time>2012-10-28T05:59:26Z</time>
      </trkpt>
      <trkpt lat="44.17999" lon="3.19198">
        <ele>709.79998779297</ele>
        <time>2012-10-28T05:59:33Z</time>
      </trkpt>
      <trkpt lat="44.18002" lon="3.19225">
        <ele>708.20001220703</ele>
        <time>2012-10-28T05:59:39Z</time>
      </trkpt>
      <trkpt lat="44.18008" lon="3.19251">
        <ele>706.59997558594</ele>
        <time>2012-10-28T05:59:45Z</time>
      </trkpt>
      <trkpt lat="44.18014" lon="3.19275">
        <ele>705.20001220703</ele>
        <time>2012-10-28T05:59:51Z</time>
      </trkpt>
      <trkpt lat="44.18026" lon="3.19297">
        <ele>703.40002441406</ele>
        <time>2012-10-28T05:59:58Z</time>
      </trkpt>
      <trkpt lat="44.18034" lon="3.19307">
        <ele>702.40002441406</ele>
        <time>2012-10-28T06:00:02Z</time>
      </trkpt>
      <trkpt lat="44.1804" lon="3.19316">
        <ele>701.59997558594</ele>
        <time>2012-10-28T06:00:05Z</time>
      </trkpt>
      <trkpt lat="44.1805" lon="3.19334">
        <ele>700.40002441406</ele>
        <time>2012-10-28T06:00:10Z</time>
      </trkpt>
      <trkpt lat="44.1805" lon="3.19338">
        <ele>700.20001220703</ele>
        <time>2012-10-28T06:00:11Z</time>
      </trkpt>
      <trkpt lat="44.1804" lon="3.1936">
        <ele>698.79998779297</ele>
        <time>2012-10-28T06:00:17Z</time>
      </trkpt>
      <trkpt lat="44.18038" lon="3.19363">
        <ele>698.59997558594</ele>
        <time>2012-10-28T06:00:18Z</time>
      </trkpt>
      <trkpt lat="44.18032" lon="3.19384">
        <ele>696.59997558594</ele>
        <time>2012-10-28T06:00:25Z</time>
      </trkpt>
      <trkpt lat="44.1803" lon="3.19391">
        <ele>696</ele>
        <time>2012-10-28T06:00:27Z</time>
      </trkpt>
      <trkpt lat="44.18029" lon="3.1941">
        <ele>694</ele>
        <time>2012-10-28T06:00:33Z</time>
      </trkpt>
      <trkpt lat="44.18047" lon="3.19419">
        <ele>692.20001220703</ele>
        <time>2012-10-28T06:00:39Z</time>
      </trkpt>
      <trkpt lat="44.1806" lon="3.19435">
        <ele>690</ele>
        <time>2012-10-28T06:00:45Z</time>
      </trkpt>
      <trkpt lat="44.18074" lon="3.19452">
        <ele>688</ele>
        <time>2012-10-28T06:00:51Z</time>
      </trkpt>
      <trkpt lat="44.18089" lon="3.1947">
        <ele>685.40002441406</ele>
        <time>2012-10-28T06:00:58Z</time>
      </trkpt>
      <trkpt lat="44.18095" lon="3.19496">
        <ele>683.20001220703</ele>
        <time>2012-10-28T06:01:04Z</time>
      </trkpt>
      <trkpt lat="44.18101" lon="3.19523">
        <ele>681</ele>
        <time>2012-10-28T06:01:10Z</time>
      </trkpt>
      <trkpt lat="44.18105" lon="3.19543">
        <ele>678.59997558594</ele>
        <time>2012-10-28T06:01:16Z</time>
      </trkpt>
      <trkpt lat="44.18101" lon="3.19543">
        <ele>677.79998779297</ele>
        <time>2012-10-28T06:01:18Z</time>
      </trkpt>
      <trkpt lat="44.18095" lon="3.1953">
        <ele>676.40002441406</ele>
        <time>2012-10-28T06:01:21Z</time>
      </trkpt>
      <trkpt lat="44.1809" lon="3.19523">
        <ele>675.59997558594</ele>
        <time>2012-10-28T06:01:23Z</time>
      </trkpt>
      <trkpt lat="44.18077" lon="3.19501">
        <ele>673</ele>
        <time>2012-10-28T06:01:29Z</time>
      </trkpt>
      <trkpt lat="44.18063" lon="3.19483">
        <ele>670.20001220703</ele>
        <time>2012-10-28T06:01:35Z</time>
      </trkpt>
      <trkpt lat="44.18048" lon="3.19467">
        <ele>668</ele>
        <time>2012-10-28T06:01:40Z</time>
      </trkpt>
      <trkpt lat="44.18031" lon="3.19458">
        <ele>665.79998779297</ele>
        <time>2012-10-28T06:01:45Z</time>
      </trkpt>
      <trkpt lat="44.18011" lon="3.19457">
        <ele>663</ele>
        <time>2012-10-28T06:01:51Z</time>
      </trkpt>
      <trkpt lat="44.1799" lon="3.19462">
        <ele>659.59997558594</ele>
        <time>2012-10-28T06:01:58Z</time>
      </trkpt>
      <trkpt lat="44.1798" lon="3.19467">
        <ele>657.79998779297</ele>
        <time>2012-10-28T06:02:02Z</time>
      </trkpt>
      <trkpt lat="44.17978" lon="3.1948">
        <ele>655.79998779297</ele>
        <time>2012-10-28T06:02:06Z</time>
      </trkpt>
      <trkpt lat="44.17977" lon="3.19504">
        <ele>652.59997558594</ele>
        <time>2012-10-28T06:02:13Z</time>
      </trkpt>
      <trkpt lat="44.1798" lon="3.19512">
        <ele>651.79998779297</ele>
        <time>2012-10-28T06:02:15Z</time>
      </trkpt>
      <trkpt lat="44.17992" lon="3.1952">
        <ele>650</ele>
        <time>2012-10-28T06:02:19Z</time>
      </trkpt>
      <trkpt lat="44.18003" lon="3.19528">
        <ele>648.40002441406</ele>
        <time>2012-10-28T06:02:23Z</time>
      </trkpt>
      <trkpt lat="44.18008" lon="3.19534">
        <ele>647.40002441406</ele>
        <time>2012-10-28T06:02:25Z</time>
      </trkpt>
      <trkpt lat="44.18013" lon="3.19559">
        <ele>644.79998779297</ele>
        <time>2012-10-28T06:02:31Z</time>
      </trkpt>
      <trkpt lat="44.18014" lon="3.19564">
        <ele>644.40002441406</ele>
        <time>2012-10-28T06:02:32Z</time>
      </trkpt>
      <trkpt lat="44.18021" lon="3.19585">
        <ele>641.79998779297</ele>
        <time>2012-10-28T06:02:38Z</time>
      </trkpt>
      <trkpt lat="44.18023" lon="3.19613">
        <ele>638.40002441406</ele>
        <time>2012-10-28T06:02:45Z</time>
      </trkpt>
      <trkpt lat="44.18026" lon="3.1964">
        <ele>635.20001220703</ele>
        <time>2012-10-28T06:02:52Z</time>
      </trkpt>
      <trkpt lat="44.18028" lon="3.1964">
        <ele>634.59997558594</ele>
        <time>2012-10-28T06:02:53Z</time>
      </trkpt>
      <trkpt lat="44.1804" lon="3.19623">
        <ele>632.79998779297</ele>
        <time>2012-10-28T06:02:57Z</time>
      </trkpt>
      <trkpt lat="44.18053" lon="3.19632">
        <ele>629.40002441406</ele>
        <time>2012-10-28T06:03:04Z</time>
      </trkpt>
      <trkpt lat="44.18058" lon="3.19652">
        <ele>626.79998779297</ele>
        <time>2012-10-28T06:03:09Z</time>
      </trkpt>
      <trkpt lat="44.18061" lon="3.19659">
        <ele>626</ele>
        <time>2012-10-28T06:03:11Z</time>
      </trkpt>
      <trkpt lat="44.18075" lon="3.19674">
        <ele>623.59997558594</ele>
        <time>2012-10-28T06:03:16Z</time>
      </trkpt>
      <trkpt lat="44.1809" lon="3.19693">
        <ele>620.40002441406</ele>
        <time>2012-10-28T06:03:22Z</time>
      </trkpt>
      <trkpt lat="44.18106" lon="3.19713">
        <ele>617.79998779297</ele>
        <time>2012-10-28T06:03:28Z</time>
      </trkpt>
      <trkpt lat="44.18122" lon="3.19726">
        <ele>615.20001220703</ele>
        <time>2012-10-28T06:03:34Z</time>
      </trkpt>
      <trkpt lat="44.18142" lon="3.19733">
        <ele>612.40002441406</ele>
        <time>2012-10-28T06:03:40Z</time>
      </trkpt>
      <trkpt lat="44.1816" lon="3.19739">
        <ele>610</ele>
        <time>2012-10-28T06:03:46Z</time>
      </trkpt>
      <trkpt lat="44.18178" lon="3.19749">
        <ele>607</ele>
        <time>2012-10-28T06:03:53Z</time>
      </trkpt>
      <trkpt lat="44.18194" lon="3.19761">
        <ele>604.59997558594</ele>
        <time>2012-10-28T06:03:59Z</time>
      </trkpt>
      <trkpt lat="44.1821" lon="3.19775">
        <ele>602.40002441406</ele>
        <time>2012-10-28T06:04:05Z</time>
      </trkpt>
      <trkpt lat="44.18224" lon="3.19787">
        <ele>599.79998779297</ele>
        <time>2012-10-28T06:04:11Z</time>
      </trkpt>
      <trkpt lat="44.1822" lon="3.19789">
        <ele>599</ele>
        <time>2012-10-28T06:04:13Z</time>
      </trkpt>
      <trkpt lat="44.18201" lon="3.19792">
        <ele>596.79998779297</ele>
        <time>2012-10-28T06:04:18Z</time>
      </trkpt>
      <trkpt lat="44.18195" lon="3.19798">
        <ele>595.59997558594</ele>
        <time>2012-10-28T06:04:21Z</time>
      </trkpt>
      <trkpt lat="44.18197" lon="3.19808">
        <ele>593.20001220703</ele>
        <time>2012-10-28T06:04:26Z</time>
      </trkpt>
      <trkpt lat="44.18193" lon="3.19832">
        <ele>590.20001220703</ele>
        <time>2012-10-28T06:04:32Z</time>
      </trkpt>
      <trkpt lat="44.18203" lon="3.19854">
        <ele>587.40002441406</ele>
        <time>2012-10-28T06:04:38Z</time>
      </trkpt>
      <trkpt lat="44.18222" lon="3.19861">
        <ele>584.40002441406</ele>
        <time>2012-10-28T06:04:44Z</time>
      </trkpt>
      <trkpt lat="44.18233" lon="3.19868">
        <ele>583</ele>
        <time>2012-10-28T06:04:47Z</time>
      </trkpt>
      <trkpt lat="44.1824" lon="3.19875">
        <ele>581.59997558594</ele>
        <time>2012-10-28T06:04:50Z</time>
      </trkpt>
      <trkpt lat="44.18251" lon="3.19897">
        <ele>579</ele>
        <time>2012-10-28T06:04:56Z</time>
      </trkpt>
      <trkpt lat="44.18267" lon="3.19913">
        <ele>576.20001220703</ele>
        <time>2012-10-28T06:05:02Z</time>
      </trkpt>
      <trkpt lat="44.18284" lon="3.19925">
        <ele>573.40002441406</ele>
        <time>2012-10-28T06:05:08Z</time>
      </trkpt>
      <trkpt lat="44.183" lon="3.19936">
        <ele>571.20001220703</ele>
        <time>2012-10-28T06:05:13Z</time>
      </trkpt>
      <trkpt lat="44.18319" lon="3.19945">
        <ele>568.59997558594</ele>
        <time>2012-10-28T06:05:19Z</time>
      </trkpt>
      <trkpt lat="44.18336" lon="3.19953">
        <ele>566.59997558594</ele>
        <time>2012-10-28T06:05:24Z</time>
      </trkpt>
      <trkpt lat="44.18356" lon="3.1996">
        <ele>563.40002441406</ele>
        <time>2012-10-28T06:05:32Z</time>
      </trkpt>
      <trkpt lat="44.18365" lon="3.19953">
        <ele>561.59997558594</ele>
        <time>2012-10-28T06:05:36Z</time>
      </trkpt>
      <trkpt lat="44.18371" lon="3.19948">
        <ele>560.40002441406</ele>
        <time>2012-10-28T06:05:39Z</time>
      </trkpt>
      <trkpt lat="44.18391" lon="3.19946">
        <ele>558.20001220703</ele>
        <time>2012-10-28T06:05:45Z</time>
      </trkpt>
      <trkpt lat="44.18404" lon="3.19968">
        <ele>555.59997558594</ele>
        <time>2012-10-28T06:05:51Z</time>
      </trkpt>
      <trkpt lat="44.18411" lon="3.19993">
        <ele>553</ele>
        <time>2012-10-28T06:05:57Z</time>
      </trkpt>
      <trkpt lat="44.18416" lon="3.20007">
        <ele>551.20001220703</ele>
        <time>2012-10-28T06:06:01Z</time>
      </trkpt>
      <trkpt lat="44.18422" lon="3.20015">
        <ele>549.79998779297</ele>
        <time>2012-10-28T06:06:04Z</time>
      </trkpt>
      <trkpt lat="44.18424" lon="3.20018">
        <ele>549.40002441406</ele>
        <time>2012-10-28T06:06:05Z</time>
      </trkpt>
      <trkpt lat="44.18436" lon="3.20037">
        <ele>546.59997558594</ele>
        <time>2012-10-28T06:06:11Z</time>
      </trkpt>
      <trkpt lat="44.18439" lon="3.20043">
        <ele>545.59997558594</ele>
        <time>2012-10-28T06:06:13Z</time>
      </trkpt>
      <trkpt lat="44.18431" lon="3.20043">
        <ele>543.59997558594</ele>
        <time>2012-10-28T06:06:17Z</time>
      </trkpt>
      <trkpt lat="44.18415" lon="3.20035">
        <ele>541</ele>
        <time>2012-10-28T06:06:22Z</time>
      </trkpt>
      <trkpt lat="44.18412" lon="3.20034">
        <ele>540.59997558594</ele>
        <time>2012-10-28T06:06:23Z</time>
      </trkpt>
      <trkpt lat="44.18399" lon="3.20052">
        <ele>537.20001220703</ele>
        <time>2012-10-28T06:06:30Z</time>
      </trkpt>
      <trkpt lat="44.18399" lon="3.20064">
        <ele>535.79998779297</ele>
        <time>2012-10-28T06:06:33Z</time>
      </trkpt>
      <trkpt lat="44.18401" lon="3.20077">
        <ele>534.40002441406</ele>
        <time>2012-10-28T06:06:36Z</time>
      </trkpt>
      <trkpt lat="44.18414" lon="3.20096">
        <ele>531.59997558594</ele>
        <time>2012-10-28T06:06:42Z</time>
      </trkpt>
      <trkpt lat="44.1843" lon="3.20112">
        <ele>529.20001220703</ele>
        <time>2012-10-28T06:06:48Z</time>
      </trkpt>
      <trkpt lat="44.18439" lon="3.20135">
        <ele>526</ele>
        <time>2012-10-28T06:06:55Z</time>
      </trkpt>
      <trkpt lat="44.18447" lon="3.2016">
        <ele>522.20001220703</ele>
        <time>2012-10-28T06:07:03Z</time>
      </trkpt>
      <trkpt lat="44.18459" lon="3.20181">
        <ele>519.40002441406</ele>
        <time>2012-10-28T06:07:09Z</time>
      </trkpt>
      <trkpt lat="44.18471" lon="3.20206">
        <ele>516.79998779297</ele>
        <time>2012-10-28T06:07:15Z</time>
      </trkpt>
      <trkpt lat="44.18476" lon="3.20215">
        <ele>515.40002441406</ele>
        <time>2012-10-28T06:07:18Z</time>
      </trkpt>
      <trkpt lat="44.18484" lon="3.20224">
        <ele>513.59997558594</ele>
        <time>2012-10-28T06:07:22Z</time>
      </trkpt>
      <trkpt lat="44.18498" lon="3.20241">
        <ele>511.39999389648</ele>
        <time>2012-10-28T06:07:27Z</time>
      </trkpt>
      <trkpt lat="44.18512" lon="3.20259">
        <ele>509</ele>
        <time>2012-10-28T06:07:32Z</time>
      </trkpt>
      <trkpt lat="44.18526" lon="3.2028">
        <ele>506.39999389648</ele>
        <time>2012-10-28T06:07:38Z</time>
      </trkpt>
      <trkpt lat="44.18542" lon="3.203">
        <ele>503.79998779297</ele>
        <time>2012-10-28T06:07:44Z</time>
      </trkpt>
      <trkpt lat="44.18557" lon="3.20318">
        <ele>501</ele>
        <time>2012-10-28T06:07:50Z</time>
      </trkpt>
      <trkpt lat="44.18569" lon="3.20341">
        <ele>498.39999389648</ele>
        <time>2012-10-28T06:07:56Z</time>
      </trkpt>
      <trkpt lat="44.18587" lon="3.20354">
        <ele>496</ele>
        <time>2012-10-28T06:08:02Z</time>
      </trkpt>
      <trkpt lat="44.18604" lon="3.20372">
        <ele>493.60000610352</ele>
        <time>2012-10-28T06:08:08Z</time>
      </trkpt>
      <trkpt lat="44.1862" lon="3.20392">
        <ele>491.20001220703</ele>
        <time>2012-10-28T06:08:14Z</time>
      </trkpt>
      <trkpt lat="44.18636" lon="3.20409">
        <ele>489.20001220703</ele>
        <time>2012-10-28T06:08:19Z</time>
      </trkpt>
      <trkpt lat="44.18647" lon="3.20429">
        <ele>487.20001220703</ele>
        <time>2012-10-28T06:08:24Z</time>
      </trkpt>
      <trkpt lat="44.18657" lon="3.2045">
        <ele>485.39999389648</ele>
        <time>2012-10-28T06:08:29Z</time>
      </trkpt>
      <trkpt lat="44.1867" lon="3.20474">
        <ele>483</ele>
        <time>2012-10-28T06:08:35Z</time>
      </trkpt>
      <trkpt lat="44.18684" lon="3.20488">
        <ele>481.20001220703</ele>
        <time>2012-10-28T06:08:40Z</time>
      </trkpt>
      <trkpt lat="44.18703" lon="3.20499">
        <ele>478.79998779297</ele>
        <time>2012-10-28T06:08:46Z</time>
      </trkpt>
      <trkpt lat="44.18723" lon="3.20509">
        <ele>476.60000610352</ele>
        <time>2012-10-28T06:08:52Z</time>
      </trkpt>
      <trkpt lat="44.18744" lon="3.20516">
        <ele>474.39999389648</ele>
        <time>2012-10-28T06:08:58Z</time>
      </trkpt>
      <trkpt lat="44.18763" lon="3.20524">
        <ele>472.39999389648</ele>
        <time>2012-10-28T06:09:04Z</time>
      </trkpt>
      <trkpt lat="44.18782" lon="3.20531">
        <ele>471</ele>
        <time>2012-10-28T06:09:09Z</time>
      </trkpt>
      <trkpt lat="44.18798" lon="3.20543">
        <ele>469.60000610352</ele>
        <time>2012-10-28T06:09:14Z</time>
      </trkpt>
      <trkpt lat="44.18813" lon="3.20559">
        <ele>468</ele>
        <time>2012-10-28T06:09:19Z</time>
      </trkpt>
      <trkpt lat="44.18828" lon="3.20578">
        <ele>466.20001220703</ele>
        <time>2012-10-28T06:09:25Z</time>
      </trkpt>
      <trkpt lat="44.18844" lon="3.20592">
        <ele>464.79998779297</ele>
        <time>2012-10-28T06:09:30Z</time>
      </trkpt>
      <trkpt lat="44.18858" lon="3.20611">
        <ele>463.20001220703</ele>
        <time>2012-10-28T06:09:37Z</time>
      </trkpt>
      <trkpt lat="44.18871" lon="3.20629">
        <ele>462</ele>
        <time>2012-10-28T06:09:43Z</time>
      </trkpt>
      <trkpt lat="44.18874" lon="3.20631">
        <ele>461.79998779297</ele>
        <time>2012-10-28T06:09:44Z</time>
      </trkpt>
      <trkpt lat="44.18881" lon="3.20643">
        <ele>461.39999389648</ele>
        <time>2012-10-28T06:09:48Z</time>
      </trkpt>
      <trkpt lat="44.18884" lon="3.20646">
        <ele>461.20001220703</ele>
        <time>2012-10-28T06:09:49Z</time>
      </trkpt>
      <trkpt lat="44.18889" lon="3.20672">
        <ele>460.60000610352</ele>
        <time>2012-10-28T06:09:56Z</time>
      </trkpt>
      <trkpt lat="44.18889" lon="3.20698">
        <ele>460</ele>
        <time>2012-10-28T06:10:02Z</time>
      </trkpt>
      <trkpt lat="44.18884" lon="3.20725">
        <ele>459.60000610352</ele>
        <time>2012-10-28T06:10:08Z</time>
      </trkpt>
      <trkpt lat="44.18873" lon="3.20746">
        <ele>459.39999389648</ele>
        <time>2012-10-28T06:10:13Z</time>
      </trkpt>
      <trkpt lat="44.18865" lon="3.20758">
        <ele>458.79998779297</ele>
        <time>2012-10-28T06:10:18Z</time>
      </trkpt>
      <trkpt lat="44.18868" lon="3.20749">
        <ele>458.20001220703</ele>
        <time>2012-10-28T06:10:22Z</time>
      </trkpt>
      <trkpt lat="44.18868" lon="3.20748">
        <ele>457.60000610352</ele>
        <time>2012-10-28T06:10:26Z</time>
      </trkpt>
      <trkpt lat="44.18858" lon="3.20762">
        <ele>456.39999389648</ele>
        <time>2012-10-28T06:10:33Z</time>
      </trkpt>
      <trkpt lat="44.18843" lon="3.20775">
        <ele>455</ele>
        <time>2012-10-28T06:10:39Z</time>
      </trkpt>
      <trkpt lat="44.18839" lon="3.20774">
        <ele>454.39999389648</ele>
        <time>2012-10-28T06:10:41Z</time>
      </trkpt>
      <trkpt lat="44.18826" lon="3.20762">
        <ele>452.79998779297</ele>
        <time>2012-10-28T06:10:47Z</time>
      </trkpt>
      <trkpt lat="44.18824" lon="3.2076">
        <ele>452.39999389648</ele>
        <time>2012-10-28T06:10:48Z</time>
      </trkpt>
      <trkpt lat="44.18811" lon="3.20762">
        <ele>451</ele>
        <time>2012-10-28T06:10:54Z</time>
      </trkpt>
      <trkpt lat="44.18808" lon="3.20764">
        <ele>450.60000610352</ele>
        <time>2012-10-28T06:10:55Z</time>
      </trkpt>
      <trkpt lat="44.18799" lon="3.20783">
        <ele>449.20001220703</ele>
        <time>2012-10-28T06:11:00Z</time>
      </trkpt>
      <trkpt lat="44.188" lon="3.20811">
        <ele>447.60000610352</ele>
        <time>2012-10-28T06:11:06Z</time>
      </trkpt>
      <trkpt lat="44.18803" lon="3.20839">
        <ele>445.79998779297</ele>
        <time>2012-10-28T06:11:12Z</time>
      </trkpt>
      <trkpt lat="44.18808" lon="3.20856">
        <ele>444.20001220703</ele>
        <time>2012-10-28T06:11:18Z</time>
      </trkpt>
      <trkpt lat="44.1881" lon="3.20866">
        <ele>440.20001220703</ele>
        <time>2012-10-28T06:11:36Z</time>
      </trkpt>
      <trkpt lat="44.18812" lon="3.2087">
        <ele>439.60000610352</ele>
        <time>2012-10-28T06:11:39Z</time>
      </trkpt>
      <trkpt lat="44.1881" lon="3.20871">
        <ele>438.20001220703</ele>
        <time>2012-10-28T06:11:46Z</time>
      </trkpt>
      <trkpt lat="44.1881" lon="3.20875">
        <ele>437.39999389648</ele>
        <time>2012-10-28T06:11:50Z</time>
      </trkpt>
      <trkpt lat="44.18813" lon="3.20882">
        <ele>436.79998779297</ele>
        <time>2012-10-28T06:11:53Z</time>
      </trkpt>
      <trkpt lat="44.18819" lon="3.20905">
        <ele>435.60000610352</ele>
        <time>2012-10-28T06:11:59Z</time>
      </trkpt>
      <trkpt lat="44.18816" lon="3.20928">
        <ele>434.60000610352</ele>
        <time>2012-10-28T06:12:04Z</time>
      </trkpt>
      <trkpt lat="44.18816" lon="3.20932">
        <ele>434.39999389648</ele>
        <time>2012-10-28T06:12:05Z</time>
      </trkpt>
      <trkpt lat="44.18819" lon="3.20958">
        <ele>433.20001220703</ele>
        <time>2012-10-28T06:12:11Z</time>
      </trkpt>
      <trkpt lat="44.18821" lon="3.20967">
        <ele>428</ele>
        <time>2012-10-28T06:12:37Z</time>
      </trkpt>
      <trkpt lat="44.18828" lon="3.20978">
        <ele>427.60000610352</ele>
        <time>2012-10-28T06:12:41Z</time>
      </trkpt>
      <trkpt lat="44.18843" lon="3.20996">
        <ele>426.60000610352</ele>
        <time>2012-10-28T06:12:47Z</time>
      </trkpt>
      <trkpt lat="44.18858" lon="3.21011">
        <ele>425.39999389648</ele>
        <time>2012-10-28T06:12:53Z</time>
      </trkpt>
      <trkpt lat="44.18872" lon="3.21027">
        <ele>424</ele>
        <time>2012-10-28T06:12:59Z</time>
      </trkpt>
      <trkpt lat="44.18888" lon="3.21042">
        <ele>422.39999389648</ele>
        <time>2012-10-28T06:13:05Z</time>
      </trkpt>
      <trkpt lat="44.18905" lon="3.21054">
        <ele>421</ele>
        <time>2012-10-28T06:13:10Z</time>
      </trkpt>
      <trkpt lat="44.18923" lon="3.21066">
        <ele>419.39999389648</ele>
        <time>2012-10-28T06:13:16Z</time>
      </trkpt>
      <trkpt lat="44.18937" lon="3.21085">
        <ele>417.39999389648</ele>
        <time>2012-10-28T06:13:23Z</time>
      </trkpt>
      <trkpt lat="44.18922" lon="3.21091">
        <ele>416.39999389648</ele>
        <time>2012-10-28T06:13:28Z</time>
      </trkpt>
      <trkpt lat="44.18919" lon="3.21092">
        <ele>416.20001220703</ele>
        <time>2012-10-28T06:13:29Z</time>
      </trkpt>
      <trkpt lat="44.18898" lon="3.21094">
        <ele>414.79998779297</ele>
        <time>2012-10-28T06:13:37Z</time>
      </trkpt>
      <trkpt lat="44.18883" lon="3.21098">
        <ele>414.39999389648</ele>
        <time>2012-10-28T06:13:43Z</time>
      </trkpt>
      <trkpt lat="44.1888" lon="3.21097">
        <ele>414.39999389648</ele>
        <time>2012-10-28T06:13:44Z</time>
      </trkpt>
      <trkpt lat="44.1886" lon="3.21095">
        <ele>413.79998779297</ele>
        <time>2012-10-28T06:13:53Z</time>
      </trkpt>
      <trkpt lat="44.18842" lon="3.21098">
        <ele>413.60000610352</ele>
        <time>2012-10-28T06:14:00Z</time>
      </trkpt>
      <trkpt lat="44.18823" lon="3.21105">
        <ele>414</ele>
        <time>2012-10-28T06:14:07Z</time>
      </trkpt>
      <trkpt lat="44.18805" lon="3.21109">
        <ele>414</ele>
        <time>2012-10-28T06:14:15Z</time>
      </trkpt>
      <trkpt lat="44.18788" lon="3.21121">
        <ele>414.60000610352</ele>
        <time>2012-10-28T06:14:22Z</time>
      </trkpt>
      <trkpt lat="44.18771" lon="3.21134">
        <ele>414.60000610352</ele>
        <time>2012-10-28T06:14:31Z</time>
      </trkpt>
      <trkpt lat="44.18759" lon="3.21155">
        <ele>414.60000610352</ele>
        <time>2012-10-28T06:14:40Z</time>
      </trkpt>
      <trkpt lat="44.18748" lon="3.21177">
        <ele>414.60000610352</ele>
        <time>2012-10-28T06:14:50Z</time>
      </trkpt>
      <trkpt lat="44.18738" lon="3.212">
        <ele>414.79998779297</ele>
        <time>2012-10-28T06:14:58Z</time>
      </trkpt>
      <trkpt lat="44.18721" lon="3.21214">
        <ele>415.20001220703</ele>
        <time>2012-10-28T06:15:08Z</time>
      </trkpt>
      <trkpt lat="44.18714" lon="3.21218">
        <ele>415.60000610352</ele>
        <time>2012-10-28T06:15:12Z</time>
      </trkpt>
      <trkpt lat="44.18703" lon="3.21215">
        <ele>415.39999389648</ele>
        <time>2012-10-28T06:15:17Z</time>
      </trkpt>
      <trkpt lat="44.18689" lon="3.21212">
        <ele>415.60000610352</ele>
        <time>2012-10-28T06:15:23Z</time>
      </trkpt>
      <trkpt lat="44.18684" lon="3.21212">
        <ele>415.79998779297</ele>
        <time>2012-10-28T06:15:25Z</time>
      </trkpt>
      <trkpt lat="44.18665" lon="3.21211">
        <ele>417.20001220703</ele>
        <time>2012-10-28T06:15:34Z</time>
      </trkpt>
      <trkpt lat="44.18645" lon="3.21216">
        <ele>419</ele>
        <time>2012-10-28T06:15:42Z</time>
      </trkpt>
      <trkpt lat="44.18626" lon="3.2122">
        <ele>420.60000610352</ele>
        <time>2012-10-28T06:15:52Z</time>
      </trkpt>
      <trkpt lat="44.18607" lon="3.21224">
        <ele>422.60000610352</ele>
        <time>2012-10-28T06:16:00Z</time>
      </trkpt>
      <trkpt lat="44.18599" lon="3.21228">
        <ele>423.39999389648</ele>
        <time>2012-10-28T06:16:06Z</time>
      </trkpt>
      <trkpt lat="44.18594" lon="3.21232">
        <ele>424.20001220703</ele>
        <time>2012-10-28T06:16:11Z</time>
      </trkpt>
      <trkpt lat="44.18589" lon="3.21234">
        <ele>424.39999389648</ele>
        <time>2012-10-28T06:16:15Z</time>
      </trkpt>
      <trkpt lat="44.18583" lon="3.21234">
        <ele>424.79998779297</ele>
        <time>2012-10-28T06:16:22Z</time>
      </trkpt>
      <trkpt lat="44.18571" lon="3.21236">
        <ele>425.79998779297</ele>
        <time>2012-10-28T06:16:30Z</time>
      </trkpt>
      <trkpt lat="44.1857" lon="3.21236">
        <ele>426</ele>
        <time>2012-10-28T06:16:31Z</time>
      </trkpt>
      <trkpt lat="44.18565" lon="3.21235">
        <ele>427</ele>
        <time>2012-10-28T06:16:35Z</time>
      </trkpt>
      <trkpt lat="44.18562" lon="3.21235">
        <ele>427.39999389648</ele>
        <time>2012-10-28T06:16:38Z</time>
      </trkpt>
      <trkpt lat="44.18553" lon="3.21238">
        <ele>428.39999389648</ele>
        <time>2012-10-28T06:16:44Z</time>
      </trkpt>
      <trkpt lat="44.18552" lon="3.21239">
        <ele>428.39999389648</ele>
        <time>2012-10-28T06:16:45Z</time>
      </trkpt>
      <trkpt lat="44.18547" lon="3.21239">
        <ele>429.20001220703</ele>
        <time>2012-10-28T06:16:49Z</time>
      </trkpt>
      <trkpt lat="44.18534" lon="3.21239">
        <ele>430.79998779297</ele>
        <time>2012-10-28T06:16:59Z</time>
      </trkpt>
      <trkpt lat="44.18521" lon="3.21241">
        <ele>433</ele>
        <time>2012-10-28T06:17:11Z</time>
      </trkpt>
      <trkpt lat="44.18516" lon="3.21243">
        <ele>434.20001220703</ele>
        <time>2012-10-28T06:17:15Z</time>
      </trkpt>
      <trkpt lat="44.18514" lon="3.21245">
        <ele>435.20001220703</ele>
        <time>2012-10-28T06:17:17Z</time>
      </trkpt>
      <trkpt lat="44.18512" lon="3.21245">
        <ele>435.79998779297</ele>
        <time>2012-10-28T06:17:18Z</time>
      </trkpt>
      <trkpt lat="44.18501" lon="3.21244">
        <ele>438.60000610352</ele>
        <time>2012-10-28T06:17:26Z</time>
      </trkpt>
      <trkpt lat="44.18498" lon="3.21245">
        <ele>439</ele>
        <time>2012-10-28T06:17:29Z</time>
      </trkpt>
      <trkpt lat="44.1848" lon="3.21239">
        <ele>443.20001220703</ele>
        <time>2012-10-28T06:17:48Z</time>
      </trkpt>
      <trkpt lat="44.18462" lon="3.21234">
        <ele>448.20001220703</ele>
        <time>2012-10-28T06:18:04Z</time>
      </trkpt>
      <trkpt lat="44.18461" lon="3.21234">
        <ele>448.60000610352</ele>
        <time>2012-10-28T06:18:05Z</time>
      </trkpt>
      <trkpt lat="44.18444" lon="3.21231">
        <ele>450.60000610352</ele>
        <time>2012-10-28T06:18:16Z</time>
      </trkpt>
      <trkpt lat="44.18443" lon="3.21232">
        <ele>450.60000610352</ele>
        <time>2012-10-28T06:18:17Z</time>
      </trkpt>
      <trkpt lat="44.18439" lon="3.21233">
        <ele>450.79998779297</ele>
        <time>2012-10-28T06:18:20Z</time>
      </trkpt>
      <trkpt lat="44.18432" lon="3.21234">
        <ele>451.39999389648</ele>
        <time>2012-10-28T06:18:26Z</time>
      </trkpt>
      <trkpt lat="44.18429" lon="3.21235">
        <ele>451.60000610352</ele>
        <time>2012-10-28T06:18:29Z</time>
      </trkpt>
      <trkpt lat="44.18425" lon="3.21235">
        <ele>452.39999389648</ele>
        <time>2012-10-28T06:18:33Z</time>
      </trkpt>
      <trkpt lat="44.18424" lon="3.21235">
        <ele>452.79998779297</ele>
        <time>2012-10-28T06:18:34Z</time>
      </trkpt>
      <trkpt lat="44.18419" lon="3.21239">
        <ele>455.39999389648</ele>
        <time>2012-10-28T06:18:40Z</time>
      </trkpt>
      <trkpt lat="44.18418" lon="3.21241">
        <ele>456</ele>
        <time>2012-10-28T06:18:42Z</time>
      </trkpt>
      <trkpt lat="44.18412" lon="3.21252">
        <ele>462</ele>
        <time>2012-10-28T06:18:54Z</time>
      </trkpt>
      <trkpt lat="44.18409" lon="3.21255">
        <ele>462.79998779297</ele>
        <time>2012-10-28T06:18:57Z</time>
      </trkpt>
      <trkpt lat="44.18401" lon="3.21268">
        <ele>468</ele>
        <time>2012-10-28T06:19:12Z</time>
      </trkpt>
      <trkpt lat="44.18398" lon="3.21269">
        <ele>468.79998779297</ele>
        <time>2012-10-28T06:19:14Z</time>
      </trkpt>
      <trkpt lat="44.18387" lon="3.21291">
        <ele>471</ele>
        <time>2012-10-28T06:19:21Z</time>
      </trkpt>
      <trkpt lat="44.18385" lon="3.21294">
        <ele>471</ele>
        <time>2012-10-28T06:19:22Z</time>
      </trkpt>
      <trkpt lat="44.18377" lon="3.21312">
        <ele>472.20001220703</ele>
        <time>2012-10-28T06:19:28Z</time>
      </trkpt>
      <trkpt lat="44.18362" lon="3.21328">
        <ele>475.20001220703</ele>
        <time>2012-10-28T06:19:36Z</time>
      </trkpt>
      <trkpt lat="44.18354" lon="3.21333">
        <ele>476.39999389648</ele>
        <time>2012-10-28T06:19:42Z</time>
      </trkpt>
      <trkpt lat="44.18343" lon="3.21334">
        <ele>478</ele>
        <time>2012-10-28T06:19:52Z</time>
      </trkpt>
      <trkpt lat="44.18341" lon="3.21331">
        <ele>478.39999389648</ele>
        <time>2012-10-28T06:19:55Z</time>
      </trkpt>
      <trkpt lat="44.18339" lon="3.21333">
        <ele>478.79998779297</ele>
        <time>2012-10-28T06:19:58Z</time>
      </trkpt>
      <trkpt lat="44.18336" lon="3.21335">
        <ele>479.20001220703</ele>
        <time>2012-10-28T06:20:02Z</time>
      </trkpt>
      <trkpt lat="44.18332" lon="3.21333">
        <ele>480</ele>
        <time>2012-10-28T06:20:07Z</time>
      </trkpt>
      <trkpt lat="44.18326" lon="3.21331">
        <ele>481.60000610352</ele>
        <time>2012-10-28T06:20:15Z</time>
      </trkpt>
      <trkpt lat="44.18325" lon="3.21331">
        <ele>481.79998779297</ele>
        <time>2012-10-28T06:20:17Z</time>
      </trkpt>
      <trkpt lat="44.18311" lon="3.21341">
        <ele>490.39999389648</ele>
        <time>2012-10-28T06:20:36Z</time>
      </trkpt>
      <trkpt lat="44.18311" lon="3.21338">
        <ele>491.39999389648</ele>
        <time>2012-10-28T06:20:38Z</time>
      </trkpt>
      <trkpt lat="44.18312" lon="3.21335">
        <ele>492</ele>
        <time>2012-10-28T06:20:40Z</time>
      </trkpt>
      <trkpt lat="44.18314" lon="3.21329">
        <ele>493.39999389648</ele>
        <time>2012-10-28T06:20:44Z</time>
      </trkpt>
      <trkpt lat="44.18314" lon="3.21327">
        <ele>493.79998779297</ele>
        <time>2012-10-28T06:20:45Z</time>
      </trkpt>
      <trkpt lat="44.18315" lon="3.21321">
        <ele>495</ele>
        <time>2012-10-28T06:20:49Z</time>
      </trkpt>
      <trkpt lat="44.18318" lon="3.21315">
        <ele>496.20001220703</ele>
        <time>2012-10-28T06:20:53Z</time>
      </trkpt>
      <trkpt lat="44.18319" lon="3.21312">
        <ele>496.60000610352</ele>
        <time>2012-10-28T06:20:55Z</time>
      </trkpt>
      <trkpt lat="44.18317" lon="3.21307">
        <ele>497.39999389648</ele>
        <time>2012-10-28T06:20:59Z</time>
      </trkpt>
      <trkpt lat="44.18312" lon="3.21292">
        <ele>499.79998779297</ele>
        <time>2012-10-28T06:21:12Z</time>
      </trkpt>
      <trkpt lat="44.18307" lon="3.21279">
        <ele>501.39999389648</ele>
        <time>2012-10-28T06:21:22Z</time>
      </trkpt>
      <trkpt lat="44.18307" lon="3.21275">
        <ele>502.20001220703</ele>
        <time>2012-10-28T06:21:26Z</time>
      </trkpt>
      <trkpt lat="44.18306" lon="3.21269">
        <ele>502.79998779297</ele>
        <time>2012-10-28T06:21:29Z</time>
      </trkpt>
      <trkpt lat="44.18306" lon="3.21253">
        <ele>503.60000610352</ele>
        <time>2012-10-28T06:21:34Z</time>
      </trkpt>
      <trkpt lat="44.18306" lon="3.21249">
        <ele>503.79998779297</ele>
        <time>2012-10-28T06:21:35Z</time>
      </trkpt>
      <trkpt lat="44.18306" lon="3.21242">
        <ele>504.20001220703</ele>
        <time>2012-10-28T06:21:37Z</time>
      </trkpt>
      <trkpt lat="44.18307" lon="3.21227">
        <ele>505</ele>
        <time>2012-10-28T06:21:41Z</time>
      </trkpt>
      <trkpt lat="44.18309" lon="3.21218">
        <ele>505.39999389648</ele>
        <time>2012-10-28T06:21:43Z</time>
      </trkpt>
      <trkpt lat="44.18311" lon="3.21195">
        <ele>507.39999389648</ele>
        <time>2012-10-28T06:21:51Z</time>
      </trkpt>
      <trkpt lat="44.18303" lon="3.21212">
        <ele>510</ele>
        <time>2012-10-28T06:21:59Z</time>
      </trkpt>
      <trkpt lat="44.18301" lon="3.21215">
        <ele>510.39999389648</ele>
        <time>2012-10-28T06:22:01Z</time>
      </trkpt>
      <trkpt lat="44.18295" lon="3.2124">
        <ele>514.59997558594</ele>
        <time>2012-10-28T06:22:13Z</time>
      </trkpt>
      <trkpt lat="44.18289" lon="3.21249">
        <ele>516.20001220703</ele>
        <time>2012-10-28T06:22:19Z</time>
      </trkpt>
      <trkpt lat="44.18286" lon="3.21259">
        <ele>518.40002441406</ele>
        <time>2012-10-28T06:22:27Z</time>
      </trkpt>
      <trkpt lat="44.18285" lon="3.21262">
        <ele>519</ele>
        <time>2012-10-28T06:22:29Z</time>
      </trkpt>
      <trkpt lat="44.1828" lon="3.21272">
        <ele>521.79998779297</ele>
        <time>2012-10-28T06:22:38Z</time>
      </trkpt>
      <trkpt lat="44.18277" lon="3.21276">
        <ele>522.79998779297</ele>
        <time>2012-10-28T06:22:42Z</time>
      </trkpt>
      <trkpt lat="44.18274" lon="3.21282">
        <ele>524.20001220703</ele>
        <time>2012-10-28T06:22:48Z</time>
      </trkpt>
      <trkpt lat="44.18274" lon="3.21283">
        <ele>524.40002441406</ele>
        <time>2012-10-28T06:22:49Z</time>
      </trkpt>
      <trkpt lat="44.18265" lon="3.21303">
        <ele>527</ele>
        <time>2012-10-28T06:23:04Z</time>
      </trkpt>
      <trkpt lat="44.18262" lon="3.21309">
        <ele>528</ele>
        <time>2012-10-28T06:23:08Z</time>
      </trkpt>
      <trkpt lat="44.18254" lon="3.21323">
        <ele>531</ele>
        <time>2012-10-28T06:23:19Z</time>
      </trkpt>
      <trkpt lat="44.18245" lon="3.2133">
        <ele>533</ele>
        <time>2012-10-28T06:23:26Z</time>
      </trkpt>
      <trkpt lat="44.18238" lon="3.21337">
        <ele>535</ele>
        <time>2012-10-28T06:23:31Z</time>
      </trkpt>
      <trkpt lat="44.18221" lon="3.21344">
        <ele>538.59997558594</ele>
        <time>2012-10-28T06:23:40Z</time>
      </trkpt>
      <trkpt lat="44.18218" lon="3.21345">
        <ele>539.79998779297</ele>
        <time>2012-10-28T06:23:42Z</time>
      </trkpt>
      <trkpt lat="44.18202" lon="3.21344">
        <ele>545.79998779297</ele>
        <time>2012-10-28T06:23:51Z</time>
      </trkpt>
      <trkpt lat="44.18185" lon="3.21338">
        <ele>550.59997558594</ele>
        <time>2012-10-28T06:23:59Z</time>
      </trkpt>
      <trkpt lat="44.18182" lon="3.21336">
        <ele>551.59997558594</ele>
        <time>2012-10-28T06:24:01Z</time>
      </trkpt>
      <trkpt lat="44.18165" lon="3.21325">
        <ele>556.20001220703</ele>
        <time>2012-10-28T06:24:13Z</time>
      </trkpt>
      <trkpt lat="44.18156" lon="3.21325">
        <ele>558</ele>
        <time>2012-10-28T06:24:19Z</time>
      </trkpt>
      <trkpt lat="44.18148" lon="3.21321">
        <ele>558.40002441406</ele>
        <time>2012-10-28T06:24:25Z</time>
      </trkpt>
      <trkpt lat="44.18145" lon="3.2132">
        <ele>558.59997558594</ele>
        <time>2012-10-28T06:24:27Z</time>
      </trkpt>
      <trkpt lat="44.18126" lon="3.21318">
        <ele>560.79998779297</ele>
        <time>2012-10-28T06:24:43Z</time>
      </trkpt>
      <trkpt lat="44.18113" lon="3.21316">
        <ele>566.59997558594</ele>
        <time>2012-10-28T06:24:56Z</time>
      </trkpt>
      <trkpt lat="44.18107" lon="3.21316">
        <ele>569.79998779297</ele>
        <time>2012-10-28T06:25:02Z</time>
      </trkpt>
      <trkpt lat="44.18092" lon="3.21314">
        <ele>577.40002441406</ele>
        <time>2012-10-28T06:25:16Z</time>
      </trkpt>
      <trkpt lat="44.18089" lon="3.21313">
        <ele>578.20001220703</ele>
        <time>2012-10-28T06:25:18Z</time>
      </trkpt>
      <trkpt lat="44.18071" lon="3.21308">
        <ele>581.79998779297</ele>
        <time>2012-10-28T06:25:30Z</time>
      </trkpt>
      <trkpt lat="44.18061" lon="3.21302">
        <ele>583.79998779297</ele>
        <time>2012-10-28T06:25:38Z</time>
      </trkpt>
      <trkpt lat="44.18055" lon="3.21303">
        <ele>585.79998779297</ele>
        <time>2012-10-28T06:25:42Z</time>
      </trkpt>
      <trkpt lat="44.18053" lon="3.21304">
        <ele>586.59997558594</ele>
        <time>2012-10-28T06:25:43Z</time>
      </trkpt>
      <trkpt lat="44.18045" lon="3.21305">
        <ele>589.59997558594</ele>
        <time>2012-10-28T06:25:48Z</time>
      </trkpt>
      <trkpt lat="44.18036" lon="3.21309">
        <ele>591.79998779297</ele>
        <time>2012-10-28T06:25:51Z</time>
      </trkpt>
      <trkpt lat="44.18016" lon="3.21309">
        <ele>597.40002441406</ele>
        <time>2012-10-28T06:25:59Z</time>
      </trkpt>
      <trkpt lat="44.17997" lon="3.21314">
        <ele>604</ele>
        <time>2012-10-28T06:26:11Z</time>
      </trkpt>
      <trkpt lat="44.17996" lon="3.21309">
        <ele>604.40002441406</ele>
        <time>2012-10-28T06:26:15Z</time>
      </trkpt>
      <trkpt lat="44.17989" lon="3.21304">
        <ele>606.20001220703</ele>
        <time>2012-10-28T06:26:26Z</time>
      </trkpt>
      <trkpt lat="44.17981" lon="3.21307">
        <ele>607</ele>
        <time>2012-10-28T06:26:38Z</time>
      </trkpt>
      <trkpt lat="44.17975" lon="3.2131">
        <ele>607.59997558594</ele>
        <time>2012-10-28T06:26:45Z</time>
      </trkpt>
      <trkpt lat="44.17965" lon="3.21317">
        <ele>608.40002441406</ele>
        <time>2012-10-28T06:26:56Z</time>
      </trkpt>
      <trkpt lat="44.17958" lon="3.2132">
        <ele>609.20001220703</ele>
        <time>2012-10-28T06:27:03Z</time>
      </trkpt>
      <trkpt lat="44.17947" lon="3.21327">
        <ele>609.20001220703</ele>
        <time>2012-10-28T06:27:13Z</time>
      </trkpt>
      <trkpt lat="44.17933" lon="3.21345">
        <ele>610.79998779297</ele>
        <time>2012-10-28T06:27:24Z</time>
      </trkpt>
      <trkpt lat="44.1792" lon="3.21365">
        <ele>612.59997558594</ele>
        <time>2012-10-28T06:27:32Z</time>
      </trkpt>
      <trkpt lat="44.17904" lon="3.21381">
        <ele>616</ele>
        <time>2012-10-28T06:27:44Z</time>
      </trkpt>
      <trkpt lat="44.17888" lon="3.21393">
        <ele>619.79998779297</ele>
        <time>2012-10-28T06:28:00Z</time>
      </trkpt>
      <trkpt lat="44.17877" lon="3.21411">
        <ele>622.40002441406</ele>
        <time>2012-10-28T06:28:09Z</time>
      </trkpt>
      <trkpt lat="44.1786" lon="3.21404">
        <ele>625</ele>
        <time>2012-10-28T06:28:17Z</time>
      </trkpt>
      <trkpt lat="44.17859" lon="3.21401">
        <ele>625.20001220703</ele>
        <time>2012-10-28T06:28:18Z</time>
      </trkpt>
      <trkpt lat="44.17847" lon="3.21394">
        <ele>627.59997558594</ele>
        <time>2012-10-28T06:28:24Z</time>
      </trkpt>
      <trkpt lat="44.17847" lon="3.21399">
        <ele>628.20001220703</ele>
        <time>2012-10-28T06:28:26Z</time>
      </trkpt>
      <trkpt lat="44.17847" lon="3.21422">
        <ele>629.20001220703</ele>
        <time>2012-10-28T06:28:39Z</time>
      </trkpt>
      <trkpt lat="44.17846" lon="3.21426">
        <ele>629.20001220703</ele>
        <time>2012-10-28T06:28:42Z</time>
      </trkpt>
      <trkpt lat="44.17845" lon="3.21427">
        <ele>629.20001220703</ele>
        <time>2012-10-28T06:28:43Z</time>
      </trkpt>
      <trkpt lat="44.17838" lon="3.21443">
        <ele>629.59997558594</ele>
        <time>2012-10-28T06:28:54Z</time>
      </trkpt>
      <trkpt lat="44.17833" lon="3.21453">
        <ele>631.20001220703</ele>
        <time>2012-10-28T06:29:02Z</time>
      </trkpt>
      <trkpt lat="44.17831" lon="3.21459">
        <ele>632.79998779297</ele>
        <time>2012-10-28T06:29:07Z</time>
      </trkpt>
      <trkpt lat="44.17828" lon="3.21463">
        <ele>633.79998779297</ele>
        <time>2012-10-28T06:29:10Z</time>
      </trkpt>
      <trkpt lat="44.17826" lon="3.21467">
        <ele>634.40002441406</ele>
        <time>2012-10-28T06:29:12Z</time>
      </trkpt>
      <trkpt lat="44.17812" lon="3.21472">
        <ele>636.59997558594</ele>
        <time>2012-10-28T06:29:19Z</time>
      </trkpt>
      <trkpt lat="44.17798" lon="3.21479">
        <ele>639.59997558594</ele>
        <time>2012-10-28T06:29:25Z</time>
      </trkpt>
      <trkpt lat="44.17795" lon="3.21483">
        <ele>640.79998779297</ele>
        <time>2012-10-28T06:29:28Z</time>
      </trkpt>
      <trkpt lat="44.1778" lon="3.21495">
        <ele>643.20001220703</ele>
        <time>2012-10-28T06:29:36Z</time>
      </trkpt>
      <trkpt lat="44.17779" lon="3.21497">
        <ele>643.40002441406</ele>
        <time>2012-10-28T06:29:37Z</time>
      </trkpt>
      <trkpt lat="44.17766" lon="3.21516">
        <ele>646</ele>
        <time>2012-10-28T06:29:47Z</time>
      </trkpt>
      <trkpt lat="44.17758" lon="3.21527">
        <ele>647.40002441406</ele>
        <time>2012-10-28T06:29:53Z</time>
      </trkpt>
      <trkpt lat="44.17752" lon="3.21533">
        <ele>648.59997558594</ele>
        <time>2012-10-28T06:29:59Z</time>
      </trkpt>
      <trkpt lat="44.17739" lon="3.21551">
        <ele>650.20001220703</ele>
        <time>2012-10-28T06:30:13Z</time>
      </trkpt>
      <trkpt lat="44.17733" lon="3.21569">
        <ele>651.20001220703</ele>
        <time>2012-10-28T06:30:26Z</time>
      </trkpt>
      <trkpt lat="44.17733" lon="3.21573">
        <ele>651.40002441406</ele>
        <time>2012-10-28T06:30:28Z</time>
      </trkpt>
      <trkpt lat="44.17721" lon="3.21588">
        <ele>654.59997558594</ele>
        <time>2012-10-28T06:30:40Z</time>
      </trkpt>
      <trkpt lat="44.17702" lon="3.21592">
        <ele>657.79998779297</ele>
        <time>2012-10-28T06:30:47Z</time>
      </trkpt>
      <trkpt lat="44.17683" lon="3.21597">
        <ele>661.79998779297</ele>
        <time>2012-10-28T06:30:54Z</time>
      </trkpt>
      <trkpt lat="44.17665" lon="3.21603">
        <ele>666.59997558594</ele>
        <time>2012-10-28T06:31:03Z</time>
      </trkpt>
      <trkpt lat="44.17646" lon="3.21604">
        <ele>671.79998779297</ele>
        <time>2012-10-28T06:31:14Z</time>
      </trkpt>
      <trkpt lat="44.17635" lon="3.21605">
        <ele>673.59997558594</ele>
        <time>2012-10-28T06:31:24Z</time>
      </trkpt>
      <trkpt lat="44.1763" lon="3.2161">
        <ele>673.79998779297</ele>
        <time>2012-10-28T06:31:27Z</time>
      </trkpt>
      <trkpt lat="44.17615" lon="3.21629">
        <ele>673.79998779297</ele>
        <time>2012-10-28T06:31:34Z</time>
      </trkpt>
      <trkpt lat="44.17603" lon="3.21647">
        <ele>673.59997558594</ele>
        <time>2012-10-28T06:31:40Z</time>
      </trkpt>
      <trkpt lat="44.1759" lon="3.21664">
        <ele>673.59997558594</ele>
        <time>2012-10-28T06:31:48Z</time>
      </trkpt>
      <trkpt lat="44.17588" lon="3.21665">
        <ele>673.40002441406</ele>
        <time>2012-10-28T06:31:49Z</time>
      </trkpt>
      <trkpt lat="44.17581" lon="3.21686">
        <ele>673.79998779297</ele>
        <time>2012-10-28T06:31:58Z</time>
      </trkpt>
      <trkpt lat="44.17569" lon="3.21702">
        <ele>675.59997558594</ele>
        <time>2012-10-28T06:32:06Z</time>
      </trkpt>
      <trkpt lat="44.17567" lon="3.21704">
        <ele>675.79998779297</ele>
        <time>2012-10-28T06:32:07Z</time>
      </trkpt>
      <trkpt lat="44.17553" lon="3.21719">
        <ele>677.59997558594</ele>
        <time>2012-10-28T06:32:14Z</time>
      </trkpt>
      <trkpt lat="44.17541" lon="3.21728">
        <ele>680</ele>
        <time>2012-10-28T06:32:21Z</time>
      </trkpt>
      <trkpt lat="44.17536" lon="3.21732">
        <ele>680.79998779297</ele>
        <time>2012-10-28T06:32:23Z</time>
      </trkpt>
      <trkpt lat="44.1752" lon="3.2175">
        <ele>682.59997558594</ele>
        <time>2012-10-28T06:32:30Z</time>
      </trkpt>
      <trkpt lat="44.17515" lon="3.21772">
        <ele>683</ele>
        <time>2012-10-28T06:32:37Z</time>
      </trkpt>
      <trkpt lat="44.17516" lon="3.21775">
        <ele>683</ele>
        <time>2012-10-28T06:32:38Z</time>
      </trkpt>
      <trkpt lat="44.1752" lon="3.2179">
        <ele>683.20001220703</ele>
        <time>2012-10-28T06:32:44Z</time>
      </trkpt>
      <trkpt lat="44.1752" lon="3.21798">
        <ele>683.20001220703</ele>
        <time>2012-10-28T06:32:50Z</time>
      </trkpt>
      <trkpt lat="44.1752" lon="3.21799">
        <ele>683.20001220703</ele>
        <time>2012-10-28T06:32:51Z</time>
      </trkpt>
      <trkpt lat="44.17519" lon="3.21804">
        <ele>683.40002441406</ele>
        <time>2012-10-28T06:32:56Z</time>
      </trkpt>
      <trkpt lat="44.1752" lon="3.21809">
        <ele>683.79998779297</ele>
        <time>2012-10-28T06:33:00Z</time>
      </trkpt>
      <trkpt lat="44.1752" lon="3.21817">
        <ele>684.20001220703</ele>
        <time>2012-10-28T06:33:05Z</time>
      </trkpt>
      <trkpt lat="44.17518" lon="3.21829">
        <ele>685</ele>
        <time>2012-10-28T06:33:12Z</time>
      </trkpt>
      <trkpt lat="44.17519" lon="3.21841">
        <ele>686.20001220703</ele>
        <time>2012-10-28T06:33:19Z</time>
      </trkpt>
      <trkpt lat="44.17519" lon="3.21848">
        <ele>687</ele>
        <time>2012-10-28T06:33:24Z</time>
      </trkpt>
      <trkpt lat="44.17521" lon="3.21855">
        <ele>687.79998779297</ele>
        <time>2012-10-28T06:33:29Z</time>
      </trkpt>
      <trkpt lat="44.1752" lon="3.21858">
        <ele>688</ele>
        <time>2012-10-28T06:33:31Z</time>
      </trkpt>
      <trkpt lat="44.17519" lon="3.2186">
        <ele>688.40002441406</ele>
        <time>2012-10-28T06:33:33Z</time>
      </trkpt>
      <trkpt lat="44.17518" lon="3.21862">
        <ele>689.20001220703</ele>
        <time>2012-10-28T06:33:35Z</time>
      </trkpt>
      <trkpt lat="44.17508" lon="3.21872">
        <ele>690.59997558594</ele>
        <time>2012-10-28T06:33:41Z</time>
      </trkpt>
      <trkpt lat="44.1749" lon="3.21884">
        <ele>693.20001220703</ele>
        <time>2012-10-28T06:33:50Z</time>
      </trkpt>
      <trkpt lat="44.17485" lon="3.21888">
        <ele>694.20001220703</ele>
        <time>2012-10-28T06:33:53Z</time>
      </trkpt>
      <trkpt lat="44.1748" lon="3.21896">
        <ele>695.20001220703</ele>
        <time>2012-10-28T06:33:57Z</time>
      </trkpt>
      <trkpt lat="44.1748" lon="3.21901">
        <ele>695.40002441406</ele>
        <time>2012-10-28T06:33:59Z</time>
      </trkpt>
      <trkpt lat="44.17481" lon="3.21903">
        <ele>695.79998779297</ele>
        <time>2012-10-28T06:34:00Z</time>
      </trkpt>
      <trkpt lat="44.17485" lon="3.21909">
        <ele>696.79998779297</ele>
        <time>2012-10-28T06:34:05Z</time>
      </trkpt>
      <trkpt lat="44.17488" lon="3.21914">
        <ele>696.79998779297</ele>
        <time>2012-10-28T06:34:07Z</time>
      </trkpt>
      <trkpt lat="44.17493" lon="3.21921">
        <ele>697.20001220703</ele>
        <time>2012-10-28T06:34:09Z</time>
      </trkpt>
      <trkpt lat="44.17499" lon="3.21935">
        <ele>698</ele>
        <time>2012-10-28T06:34:13Z</time>
      </trkpt>
      <trkpt lat="44.17501" lon="3.21945">
        <ele>698.20001220703</ele>
        <time>2012-10-28T06:34:16Z</time>
      </trkpt>
      <trkpt lat="44.17504" lon="3.21952">
        <ele>698.59997558594</ele>
        <time>2012-10-28T06:34:19Z</time>
      </trkpt>
      <trkpt lat="44.175" lon="3.21969">
        <ele>699.79998779297</ele>
        <time>2012-10-28T06:34:25Z</time>
      </trkpt>
      <trkpt lat="44.17496" lon="3.21974">
        <ele>700.20001220703</ele>
        <time>2012-10-28T06:34:27Z</time>
      </trkpt>
      <trkpt lat="44.1749" lon="3.21982">
        <ele>700.79998779297</ele>
        <time>2012-10-28T06:34:31Z</time>
      </trkpt>
      <trkpt lat="44.17486" lon="3.21987">
        <ele>701.79998779297</ele>
        <time>2012-10-28T06:34:34Z</time>
      </trkpt>
      <trkpt lat="44.17479" lon="3.21991">
        <ele>702.79998779297</ele>
        <time>2012-10-28T06:34:37Z</time>
      </trkpt>
      <trkpt lat="44.17477" lon="3.22003">
        <ele>703.59997558594</ele>
        <time>2012-10-28T06:34:42Z</time>
      </trkpt>
      <trkpt lat="44.17467" lon="3.22025">
        <ele>705.59997558594</ele>
        <time>2012-10-28T06:34:50Z</time>
      </trkpt>
      <trkpt lat="44.17459" lon="3.22038">
        <ele>705.79998779297</ele>
        <time>2012-10-28T06:34:57Z</time>
      </trkpt>
      <trkpt lat="44.17459" lon="3.22046">
        <ele>706.20001220703</ele>
        <time>2012-10-28T06:35:02Z</time>
      </trkpt>
      <trkpt lat="44.17459" lon="3.22046">
        <ele>706.20001220703</ele>
        <time>2012-10-28T06:35:03Z</time>
      </trkpt>
      <trkpt lat="44.17461" lon="3.22049">
        <ele>706.40002441406</ele>
        <time>2012-10-28T06:35:04Z</time>
      </trkpt>
      <trkpt lat="44.17458" lon="3.22057">
        <ele>706.79998779297</ele>
        <time>2012-10-28T06:35:07Z</time>
      </trkpt>
      <trkpt lat="44.17455" lon="3.2206">
        <ele>707</ele>
        <time>2012-10-28T06:35:09Z</time>
      </trkpt>
      <trkpt lat="44.17448" lon="3.22064">
        <ele>707.20001220703</ele>
        <time>2012-10-28T06:35:12Z</time>
      </trkpt>
      <trkpt lat="44.17442" lon="3.22075">
        <ele>708.79998779297</ele>
        <time>2012-10-28T06:35:17Z</time>
      </trkpt>
      <trkpt lat="44.17441" lon="3.22075">
        <ele>709.20001220703</ele>
        <time>2012-10-28T06:35:19Z</time>
      </trkpt>
      <trkpt lat="44.17435" lon="3.22078">
        <ele>710.79998779297</ele>
        <time>2012-10-28T06:35:24Z</time>
      </trkpt>
      <trkpt lat="44.17434" lon="3.2208">
        <ele>711.20001220703</ele>
        <time>2012-10-28T06:35:25Z</time>
      </trkpt>
      <trkpt lat="44.17434" lon="3.22091">
        <ele>712.79998779297</ele>
        <time>2012-10-28T06:35:31Z</time>
      </trkpt>
      <trkpt lat="44.17432" lon="3.22105">
        <ele>714</ele>
        <time>2012-10-28T06:35:37Z</time>
      </trkpt>
      <trkpt lat="44.17424" lon="3.22129">
        <ele>715.40002441406</ele>
        <time>2012-10-28T06:35:47Z</time>
      </trkpt>
      <trkpt lat="44.17416" lon="3.22153">
        <ele>716.40002441406</ele>
        <time>2012-10-28T06:35:55Z</time>
      </trkpt>
      <trkpt lat="44.17415" lon="3.22157">
        <ele>716.40002441406</ele>
        <time>2012-10-28T06:35:57Z</time>
      </trkpt>
      <trkpt lat="44.17416" lon="3.22179">
        <ele>716.79998779297</ele>
        <time>2012-10-28T06:36:04Z</time>
      </trkpt>
      <trkpt lat="44.17417" lon="3.22186">
        <ele>716.79998779297</ele>
        <time>2012-10-28T06:36:06Z</time>
      </trkpt>
      <trkpt lat="44.17416" lon="3.22207">
        <ele>717.20001220703</ele>
        <time>2012-10-28T06:36:13Z</time>
      </trkpt>
      <trkpt lat="44.17417" lon="3.22209">
        <ele>717.20001220703</ele>
        <time>2012-10-28T06:36:14Z</time>
      </trkpt>
      <trkpt lat="44.17423" lon="3.22229">
        <ele>717.79998779297</ele>
        <time>2012-10-28T06:36:22Z</time>
      </trkpt>
      <trkpt lat="44.17435" lon="3.2225">
        <ele>718.79998779297</ele>
        <time>2012-10-28T06:36:30Z</time>
      </trkpt>
      <trkpt lat="44.17439" lon="3.22269">
        <ele>720.40002441406</ele>
        <time>2012-10-28T06:36:39Z</time>
      </trkpt>
      <trkpt lat="44.17442" lon="3.22275">
        <ele>721</ele>
        <time>2012-10-28T06:36:43Z</time>
      </trkpt>
      <trkpt lat="44.17442" lon="3.22277">
        <ele>721.20001220703</ele>
        <time>2012-10-28T06:36:44Z</time>
      </trkpt>
      <trkpt lat="44.1745" lon="3.22285">
        <ele>722.20001220703</ele>
        <time>2012-10-28T06:36:48Z</time>
      </trkpt>
      <trkpt lat="44.17452" lon="3.22288">
        <ele>722.59997558594</ele>
        <time>2012-10-28T06:36:49Z</time>
      </trkpt>
      <trkpt lat="44.17455" lon="3.22292">
        <ele>723.40002441406</ele>
        <time>2012-10-28T06:36:51Z</time>
      </trkpt>
      <trkpt lat="44.17456" lon="3.22294">
        <ele>723.59997558594</ele>
        <time>2012-10-28T06:36:52Z</time>
      </trkpt>
      <trkpt lat="44.17467" lon="3.22311">
        <ele>726.79998779297</ele>
        <time>2012-10-28T06:37:01Z</time>
      </trkpt>
      <trkpt lat="44.17465" lon="3.22336">
        <ele>730.20001220703</ele>
        <time>2012-10-28T06:37:14Z</time>
      </trkpt>
      <trkpt lat="44.17459" lon="3.22359">
        <ele>732</ele>
        <time>2012-10-28T06:37:24Z</time>
      </trkpt>
      <trkpt lat="44.17459" lon="3.22383">
        <ele>733.40002441406</ele>
        <time>2012-10-28T06:37:33Z</time>
      </trkpt>
      <trkpt lat="44.17459" lon="3.22386">
        <ele>733.40002441406</ele>
        <time>2012-10-28T06:37:34Z</time>
      </trkpt>
      <trkpt lat="44.17463" lon="3.2241">
        <ele>734.40002441406</ele>
        <time>2012-10-28T06:37:42Z</time>
      </trkpt>
      <trkpt lat="44.17461" lon="3.22412">
        <ele>734.40002441406</ele>
        <time>2012-10-28T06:37:43Z</time>
      </trkpt>
      <trkpt lat="44.17461" lon="3.22419">
        <ele>734.59997558594</ele>
        <time>2012-10-28T06:37:46Z</time>
      </trkpt>
      <trkpt lat="44.17467" lon="3.22435">
        <ele>734.79998779297</ele>
        <time>2012-10-28T06:37:51Z</time>
      </trkpt>
      <trkpt lat="44.17469" lon="3.22446">
        <ele>735.40002441406</ele>
        <time>2012-10-28T06:37:56Z</time>
      </trkpt>
      <trkpt lat="44.17471" lon="3.22456">
        <ele>735.59997558594</ele>
        <time>2012-10-28T06:38:00Z</time>
      </trkpt>
      <trkpt lat="44.17472" lon="3.22459">
        <ele>735.59997558594</ele>
        <time>2012-10-28T06:38:01Z</time>
      </trkpt>
      <trkpt lat="44.17481" lon="3.22484">
        <ele>736.79998779297</ele>
        <time>2012-10-28T06:38:10Z</time>
      </trkpt>
      <trkpt lat="44.17483" lon="3.22494">
        <ele>737.40002441406</ele>
        <time>2012-10-28T06:38:15Z</time>
      </trkpt>
      <trkpt lat="44.17488" lon="3.22509">
        <ele>738.40002441406</ele>
        <time>2012-10-28T06:38:22Z</time>
      </trkpt>
      <trkpt lat="44.17493" lon="3.22536">
        <ele>740.79998779297</ele>
        <time>2012-10-28T06:38:29Z</time>
      </trkpt>
      <trkpt lat="44.17495" lon="3.22548">
        <ele>742.40002441406</ele>
        <time>2012-10-28T06:38:34Z</time>
      </trkpt>
      <trkpt lat="44.17499" lon="3.22562">
        <ele>746.20001220703</ele>
        <time>2012-10-28T06:38:41Z</time>
      </trkpt>
      <trkpt lat="44.17505" lon="3.22583">
        <ele>751.59997558594</ele>
        <time>2012-10-28T06:38:52Z</time>
      </trkpt>
      <trkpt lat="44.17501" lon="3.22594">
        <ele>753.20001220703</ele>
        <time>2012-10-28T06:38:56Z</time>
      </trkpt>
      <trkpt lat="44.17497" lon="3.22608">
        <ele>754.20001220703</ele>
        <time>2012-10-28T06:39:01Z</time>
      </trkpt>
      <trkpt lat="44.17493" lon="3.2262">
        <ele>754.59997558594</ele>
        <time>2012-10-28T06:39:05Z</time>
      </trkpt>
      <trkpt lat="44.1749" lon="3.22632">
        <ele>755</ele>
        <time>2012-10-28T06:39:09Z</time>
      </trkpt>
      <trkpt lat="44.17485" lon="3.22655">
        <ele>755.20001220703</ele>
        <time>2012-10-28T06:39:17Z</time>
      </trkpt>
      <trkpt lat="44.17482" lon="3.22681">
        <ele>755.40002441406</ele>
        <time>2012-10-28T06:39:25Z</time>
      </trkpt>
      <trkpt lat="44.17476" lon="3.22706">
        <ele>755.79998779297</ele>
        <time>2012-10-28T06:39:33Z</time>
      </trkpt>
      <trkpt lat="44.17473" lon="3.22732">
        <ele>756</ele>
        <time>2012-10-28T06:39:40Z</time>
      </trkpt>
      <trkpt lat="44.17474" lon="3.22758">
        <ele>756.20001220703</ele>
        <time>2012-10-28T06:39:48Z</time>
      </trkpt>
      <trkpt lat="44.17486" lon="3.22781">
        <ele>757.40002441406</ele>
        <time>2012-10-28T06:39:55Z</time>
      </trkpt>
      <trkpt lat="44.175" lon="3.22798">
        <ele>758.59997558594</ele>
        <time>2012-10-28T06:40:02Z</time>
      </trkpt>
      <trkpt lat="44.17513" lon="3.22817">
        <ele>759.79998779297</ele>
        <time>2012-10-28T06:40:10Z</time>
      </trkpt>
      <trkpt lat="44.17529" lon="3.22829">
        <ele>761.40002441406</ele>
        <time>2012-10-28T06:40:16Z</time>
      </trkpt>
      <trkpt lat="44.17541" lon="3.22851">
        <ele>763</ele>
        <time>2012-10-28T06:40:24Z</time>
      </trkpt>
      <trkpt lat="44.17544" lon="3.22863">
        <ele>763.59997558594</ele>
        <time>2012-10-28T06:40:28Z</time>
      </trkpt>
      <trkpt lat="44.17549" lon="3.22872">
        <ele>764</ele>
        <time>2012-10-28T06:40:32Z</time>
      </trkpt>
      <trkpt lat="44.17561" lon="3.22877">
        <ele>766</ele>
        <time>2012-10-28T06:40:39Z</time>
      </trkpt>
      <trkpt lat="44.17563" lon="3.22877">
        <ele>766.40002441406</ele>
        <time>2012-10-28T06:40:41Z</time>
      </trkpt>
      <trkpt lat="44.17563" lon="3.22881">
        <ele>767.20001220703</ele>
        <time>2012-10-28T06:40:44Z</time>
      </trkpt>
      <trkpt lat="44.17563" lon="3.22883">
        <ele>767.20001220703</ele>
        <time>2012-10-28T06:40:45Z</time>
      </trkpt>
      <trkpt lat="44.17562" lon="3.22884">
        <ele>767.59997558594</ele>
        <time>2012-10-28T06:40:46Z</time>
      </trkpt>
      <trkpt lat="44.17567" lon="3.22892">
        <ele>768.79998779297</ele>
        <time>2012-10-28T06:40:53Z</time>
      </trkpt>
      <trkpt lat="44.17567" lon="3.22892">
        <ele>768.79998779297</ele>
        <time>2012-10-28T06:40:54Z</time>
      </trkpt>
      <trkpt lat="44.17573" lon="3.22898">
        <ele>770</ele>
        <time>2012-10-28T06:41:00Z</time>
      </trkpt>
      <trkpt lat="44.17576" lon="3.22903">
        <ele>770.79998779297</ele>
        <time>2012-10-28T06:41:04Z</time>
      </trkpt>
      <trkpt lat="44.17579" lon="3.22906">
        <ele>771.20001220703</ele>
        <time>2012-10-28T06:41:07Z</time>
      </trkpt>
      <trkpt lat="44.17585" lon="3.2291">
        <ele>771.79998779297</ele>
        <time>2012-10-28T06:41:12Z</time>
      </trkpt>
      <trkpt lat="44.17588" lon="3.22914">
        <ele>772.79998779297</ele>
        <time>2012-10-28T06:41:15Z</time>
      </trkpt>
      <trkpt lat="44.17595" lon="3.22917">
        <ele>773.79998779297</ele>
        <time>2012-10-28T06:41:19Z</time>
      </trkpt>
      <trkpt lat="44.17599" lon="3.22928">
        <ele>775.79998779297</ele>
        <time>2012-10-28T06:41:26Z</time>
      </trkpt>
      <trkpt lat="44.17604" lon="3.22927">
        <ele>776.40002441406</ele>
        <time>2012-10-28T06:41:28Z</time>
      </trkpt>
      <trkpt lat="44.17607" lon="3.22926">
        <ele>776.79998779297</ele>
        <time>2012-10-28T06:41:29Z</time>
      </trkpt>
      <trkpt lat="44.17617" lon="3.22924">
        <ele>778</ele>
        <time>2012-10-28T06:41:33Z</time>
      </trkpt>
      <trkpt lat="44.17635" lon="3.22925">
        <ele>780.79998779297</ele>
        <time>2012-10-28T06:41:41Z</time>
      </trkpt>
      <trkpt lat="44.17653" lon="3.22939">
        <ele>782.79998779297</ele>
        <time>2012-10-28T06:41:48Z</time>
      </trkpt>
      <trkpt lat="44.17671" lon="3.22935">
        <ele>783.79998779297</ele>
        <time>2012-10-28T06:41:54Z</time>
      </trkpt>
      <trkpt lat="44.17675" lon="3.22911">
        <ele>784</ele>
        <time>2012-10-28T06:42:00Z</time>
      </trkpt>
      <trkpt lat="44.17665" lon="3.22887">
        <ele>784.20001220703</ele>
        <time>2012-10-28T06:42:06Z</time>
      </trkpt>
      <trkpt lat="44.17656" lon="3.22863">
        <ele>784</ele>
        <time>2012-10-28T06:42:12Z</time>
      </trkpt>
      <trkpt lat="44.1765" lon="3.22836">
        <ele>783.79998779297</ele>
        <time>2012-10-28T06:42:19Z</time>
      </trkpt>
      <trkpt lat="44.17639" lon="3.22817">
        <ele>783.59997558594</ele>
        <time>2012-10-28T06:42:26Z</time>
      </trkpt>
      <trkpt lat="44.17635" lon="3.22802">
        <ele>783.59997558594</ele>
        <time>2012-10-28T06:42:31Z</time>
      </trkpt>
      <trkpt lat="44.1764" lon="3.22796">
        <ele>783.59997558594</ele>
        <time>2012-10-28T06:42:35Z</time>
      </trkpt>
      <trkpt lat="44.17641" lon="3.22795">
        <ele>783.59997558594</ele>
        <time>2012-10-28T06:42:36Z</time>
      </trkpt>
      <trkpt lat="44.17654" lon="3.22778">
        <ele>784.59997558594</ele>
        <time>2012-10-28T06:42:46Z</time>
      </trkpt>
      <trkpt lat="44.17657" lon="3.22774">
        <ele>785</ele>
        <time>2012-10-28T06:42:48Z</time>
      </trkpt>
      <trkpt lat="44.17664" lon="3.22771">
        <ele>786.20001220703</ele>
        <time>2012-10-28T06:42:53Z</time>
      </trkpt>
      <trkpt lat="44.17669" lon="3.22763">
        <ele>788</ele>
        <time>2012-10-28T06:43:00Z</time>
      </trkpt>
      <trkpt lat="44.17673" lon="3.22761">
        <ele>789.40002441406</ele>
        <time>2012-10-28T06:43:05Z</time>
      </trkpt>
      <trkpt lat="44.17677" lon="3.22758">
        <ele>790.79998779297</ele>
        <time>2012-10-28T06:43:11Z</time>
      </trkpt>
      <trkpt lat="44.17681" lon="3.22755">
        <ele>791.20001220703</ele>
        <time>2012-10-28T06:43:15Z</time>
      </trkpt>
      <trkpt lat="44.17685" lon="3.22759">
        <ele>792.20001220703</ele>
        <time>2012-10-28T06:43:19Z</time>
      </trkpt>
      <trkpt lat="44.17686" lon="3.22761">
        <ele>793</ele>
        <time>2012-10-28T06:43:22Z</time>
      </trkpt>
      <trkpt lat="44.17694" lon="3.22759">
        <ele>794.79998779297</ele>
        <time>2012-10-28T06:43:30Z</time>
      </trkpt>
      <trkpt lat="44.17695" lon="3.22757">
        <ele>795.20001220703</ele>
        <time>2012-10-28T06:43:32Z</time>
      </trkpt>
      <trkpt lat="44.17696" lon="3.22752">
        <ele>795.79998779297</ele>
        <time>2012-10-28T06:43:36Z</time>
      </trkpt>
      <trkpt lat="44.17696" lon="3.22749">
        <ele>796</ele>
        <time>2012-10-28T06:43:38Z</time>
      </trkpt>
      <trkpt lat="44.1771" lon="3.22737">
        <ele>798.40002441406</ele>
        <time>2012-10-28T06:43:48Z</time>
      </trkpt>
      <trkpt lat="44.17719" lon="3.2273">
        <ele>799.79998779297</ele>
        <time>2012-10-28T06:43:53Z</time>
      </trkpt>
      <trkpt lat="44.17723" lon="3.22729">
        <ele>800.59997558594</ele>
        <time>2012-10-28T06:43:55Z</time>
      </trkpt>
      <trkpt lat="44.17727" lon="3.22728">
        <ele>802.20001220703</ele>
        <time>2012-10-28T06:43:59Z</time>
      </trkpt>
      <trkpt lat="44.17728" lon="3.22727">
        <ele>802.40002441406</ele>
        <time>2012-10-28T06:44:00Z</time>
      </trkpt>
      <trkpt lat="44.17735" lon="3.22724">
        <ele>804</ele>
        <time>2012-10-28T06:44:05Z</time>
      </trkpt>
      <trkpt lat="44.17743" lon="3.22721">
        <ele>805</ele>
        <time>2012-10-28T06:44:09Z</time>
      </trkpt>
      <trkpt lat="44.1775" lon="3.22721">
        <ele>805.59997558594</ele>
        <time>2012-10-28T06:44:12Z</time>
      </trkpt>
      <trkpt lat="44.1776" lon="3.22717">
        <ele>806.59997558594</ele>
        <time>2012-10-28T06:44:17Z</time>
      </trkpt>
      <trkpt lat="44.17761" lon="3.22716">
        <ele>807</ele>
        <time>2012-10-28T06:44:18Z</time>
      </trkpt>
      <trkpt lat="44.17767" lon="3.22714">
        <ele>808.40002441406</ele>
        <time>2012-10-28T06:44:22Z</time>
      </trkpt>
      <trkpt lat="44.17778" lon="3.22719">
        <ele>809.79998779297</ele>
        <time>2012-10-28T06:44:27Z</time>
      </trkpt>
      <trkpt lat="44.17782" lon="3.2272">
        <ele>810.59997558594</ele>
        <time>2012-10-28T06:44:29Z</time>
      </trkpt>
      <trkpt lat="44.17795" lon="3.22717">
        <ele>813.79998779297</ele>
        <time>2012-10-28T06:44:37Z</time>
      </trkpt>
      <trkpt lat="44.17799" lon="3.22716">
        <ele>814.40002441406</ele>
        <time>2012-10-28T06:44:39Z</time>
      </trkpt>
      <trkpt lat="44.17811" lon="3.22715">
        <ele>816.79998779297</ele>
        <time>2012-10-28T06:44:46Z</time>
      </trkpt>
      <trkpt lat="44.17813" lon="3.22714">
        <ele>817</ele>
        <time>2012-10-28T06:44:47Z</time>
      </trkpt>
      <trkpt lat="44.1782" lon="3.22715">
        <ele>818.20001220703</ele>
        <time>2012-10-28T06:44:51Z</time>
      </trkpt>
      <trkpt lat="44.17822" lon="3.22715">
        <ele>818.40002441406</ele>
        <time>2012-10-28T06:44:52Z</time>
      </trkpt>
      <trkpt lat="44.17831" lon="3.22712">
        <ele>819.40002441406</ele>
        <time>2012-10-28T06:44:56Z</time>
      </trkpt>
      <trkpt lat="44.17836" lon="3.22713">
        <ele>819.79998779297</ele>
        <time>2012-10-28T06:44:58Z</time>
      </trkpt>
      <trkpt lat="44.17847" lon="3.22724">
        <ele>821.40002441406</ele>
        <time>2012-10-28T06:45:04Z</time>
      </trkpt>
      <trkpt lat="44.17851" lon="3.22725">
        <ele>822.20001220703</ele>
        <time>2012-10-28T06:45:07Z</time>
      </trkpt>
      <trkpt lat="44.17852" lon="3.22725">
        <ele>822.40002441406</ele>
        <time>2012-10-28T06:45:08Z</time>
      </trkpt>
      <trkpt lat="44.17863" lon="3.22719">
        <ele>825.20001220703</ele>
        <time>2012-10-28T06:45:20Z</time>
      </trkpt>
      <trkpt lat="44.17864" lon="3.22718">
        <ele>825.40002441406</ele>
        <time>2012-10-28T06:45:21Z</time>
      </trkpt>
      <trkpt lat="44.17865" lon="3.22718">
        <ele>825.59997558594</ele>
        <time>2012-10-28T06:45:22Z</time>
      </trkpt>
      <trkpt lat="44.17869" lon="3.22715">
        <ele>826.20001220703</ele>
        <time>2012-10-28T06:45:25Z</time>
      </trkpt>
      <trkpt lat="44.17877" lon="3.2271">
        <ele>828.40002441406</ele>
        <time>2012-10-28T06:45:33Z</time>
      </trkpt>
      <trkpt lat="44.17882" lon="3.22708">
        <ele>829.40002441406</ele>
        <time>2012-10-28T06:45:37Z</time>
      </trkpt>
      <trkpt lat="44.17898" lon="3.2271">
        <ele>832.79998779297</ele>
        <time>2012-10-28T06:45:49Z</time>
      </trkpt>
      <trkpt lat="44.17909" lon="3.2271">
        <ele>834.40002441406</ele>
        <time>2012-10-28T06:45:55Z</time>
      </trkpt>
      <trkpt lat="44.17915" lon="3.22711">
        <ele>835.20001220703</ele>
        <time>2012-10-28T06:45:58Z</time>
      </trkpt>
      <trkpt lat="44.17916" lon="3.22711">
        <ele>835.40002441406</ele>
        <time>2012-10-28T06:45:59Z</time>
      </trkpt>
      <trkpt lat="44.17926" lon="3.2272">
        <ele>836.59997558594</ele>
        <time>2012-10-28T06:46:05Z</time>
      </trkpt>
      <trkpt lat="44.17933" lon="3.22723">
        <ele>837</ele>
        <time>2012-10-28T06:46:08Z</time>
      </trkpt>
      <trkpt lat="44.17947" lon="3.22738">
        <ele>838.20001220703</ele>
        <time>2012-10-28T06:46:16Z</time>
      </trkpt>
      <trkpt lat="44.1794" lon="3.22752">
        <ele>839</ele>
        <time>2012-10-28T06:46:21Z</time>
      </trkpt>
      <trkpt lat="44.17935" lon="3.22759">
        <ele>839.79998779297</ele>
        <time>2012-10-28T06:46:24Z</time>
      </trkpt>
      <trkpt lat="44.17919" lon="3.22771">
        <ele>841.40002441406</ele>
        <time>2012-10-28T06:46:31Z</time>
      </trkpt>
      <trkpt lat="44.17904" lon="3.22787">
        <ele>843.20001220703</ele>
        <time>2012-10-28T06:46:38Z</time>
      </trkpt>
      <trkpt lat="44.17889" lon="3.22806">
        <ele>844.59997558594</ele>
        <time>2012-10-28T06:46:45Z</time>
      </trkpt>
      <trkpt lat="44.17878" lon="3.22829">
        <ele>845.20001220703</ele>
        <time>2012-10-28T06:46:52Z</time>
      </trkpt>
      <trkpt lat="44.17869" lon="3.22853">
        <ele>845.59997558594</ele>
        <time>2012-10-28T06:46:59Z</time>
      </trkpt>
      <trkpt lat="44.17857" lon="3.22874">
        <ele>846.20001220703</ele>
        <time>2012-10-28T06:47:06Z</time>
      </trkpt>
      <trkpt lat="44.17846" lon="3.22898">
        <ele>846.59997558594</ele>
        <time>2012-10-28T06:47:13Z</time>
      </trkpt>
      <trkpt lat="44.17834" lon="3.22922">
        <ele>847</ele>
        <time>2012-10-28T06:47:19Z</time>
      </trkpt>
      <trkpt lat="44.17832" lon="3.22949">
        <ele>846.79998779297</ele>
        <time>2012-10-28T06:47:25Z</time>
      </trkpt>
      <trkpt lat="44.17831" lon="3.22977">
        <ele>846.40002441406</ele>
        <time>2012-10-28T06:47:31Z</time>
      </trkpt>
      <trkpt lat="44.17835" lon="3.23002">
        <ele>846.20001220703</ele>
        <time>2012-10-28T06:47:37Z</time>
      </trkpt>
      <trkpt lat="44.17836" lon="3.2303">
        <ele>845.59997558594</ele>
        <time>2012-10-28T06:47:44Z</time>
      </trkpt>
      <trkpt lat="44.17836" lon="3.23055">
        <ele>845.20001220703</ele>
        <time>2012-10-28T06:47:50Z</time>
      </trkpt>
      <trkpt lat="44.1783" lon="3.23082">
        <ele>844.79998779297</ele>
        <time>2012-10-28T06:47:56Z</time>
      </trkpt>
      <trkpt lat="44.17822" lon="3.23111">
        <ele>844.40002441406</ele>
        <time>2012-10-28T06:48:02Z</time>
      </trkpt>
      <trkpt lat="44.17813" lon="3.23129">
        <ele>844.20001220703</ele>
        <time>2012-10-28T06:48:08Z</time>
      </trkpt>
      <trkpt lat="44.17805" lon="3.23152">
        <ele>843.79998779297</ele>
        <time>2012-10-28T06:48:14Z</time>
      </trkpt>
      <trkpt lat="44.17806" lon="3.2316">
        <ele>843.79998779297</ele>
        <time>2012-10-28T06:48:15Z</time>
      </trkpt>
      <trkpt lat="44.17814" lon="3.23168">
        <ele>843.59997558594</ele>
        <time>2012-10-28T06:48:18Z</time>
      </trkpt>
      <trkpt lat="44.17817" lon="3.2317">
        <ele>843.40002441406</ele>
        <time>2012-10-28T06:48:20Z</time>
      </trkpt>
      <trkpt lat="44.17834" lon="3.2319">
        <ele>843</ele>
        <time>2012-10-28T06:48:26Z</time>
      </trkpt>
      <trkpt lat="44.17836" lon="3.23216">
        <ele>842.59997558594</ele>
        <time>2012-10-28T06:48:32Z</time>
      </trkpt>
      <trkpt lat="44.17842" lon="3.23238">
        <ele>842.20001220703</ele>
        <time>2012-10-28T06:48:39Z</time>
      </trkpt>
      <trkpt lat="44.17859" lon="3.23256">
        <ele>841.79998779297</ele>
        <time>2012-10-28T06:48:45Z</time>
      </trkpt>
      <trkpt lat="44.17873" lon="3.23273">
        <ele>841.40002441406</ele>
        <time>2012-10-28T06:48:51Z</time>
      </trkpt>
      <trkpt lat="44.17882" lon="3.2329">
        <ele>841</ele>
        <time>2012-10-28T06:48:57Z</time>
      </trkpt>
      <trkpt lat="44.17891" lon="3.23319">
        <ele>840.40002441406</ele>
        <time>2012-10-28T06:49:04Z</time>
      </trkpt>
      <trkpt lat="44.17902" lon="3.23344">
        <ele>840.20001220703</ele>
        <time>2012-10-28T06:49:11Z</time>
      </trkpt>
      <trkpt lat="44.17915" lon="3.23363">
        <ele>839.79998779297</ele>
        <time>2012-10-28T06:49:17Z</time>
      </trkpt>
      <trkpt lat="44.17929" lon="3.23384">
        <ele>839.40002441406</ele>
        <time>2012-10-28T06:49:24Z</time>
      </trkpt>
      <trkpt lat="44.17941" lon="3.23404">
        <ele>838.79998779297</ele>
        <time>2012-10-28T06:49:30Z</time>
      </trkpt>
      <trkpt lat="44.17944" lon="3.23427">
        <ele>838.20001220703</ele>
        <time>2012-10-28T06:49:37Z</time>
      </trkpt>
      <trkpt lat="44.17937" lon="3.23456">
        <ele>837.79998779297</ele>
        <time>2012-10-28T06:49:44Z</time>
      </trkpt>
      <trkpt lat="44.17933" lon="3.23482">
        <ele>837.59997558594</ele>
        <time>2012-10-28T06:49:51Z</time>
      </trkpt>
      <trkpt lat="44.17935" lon="3.23506">
        <ele>837.20001220703</ele>
        <time>2012-10-28T06:49:59Z</time>
      </trkpt>
      <trkpt lat="44.17948" lon="3.23532">
        <ele>836.79998779297</ele>
        <time>2012-10-28T06:50:06Z</time>
      </trkpt>
      <trkpt lat="44.17956" lon="3.23555">
        <ele>836.59997558594</ele>
        <time>2012-10-28T06:50:13Z</time>
      </trkpt>
      <trkpt lat="44.1797" lon="3.23573">
        <ele>836.59997558594</ele>
        <time>2012-10-28T06:50:20Z</time>
      </trkpt>
      <trkpt lat="44.17984" lon="3.23585">
        <ele>836.59997558594</ele>
        <time>2012-10-28T06:50:27Z</time>
      </trkpt>
      <trkpt lat="44.18" lon="3.23594">
        <ele>837</ele>
        <time>2012-10-28T06:50:33Z</time>
      </trkpt>
      <trkpt lat="44.18012" lon="3.23615">
        <ele>837.59997558594</ele>
        <time>2012-10-28T06:50:39Z</time>
      </trkpt>
      <trkpt lat="44.18018" lon="3.23642">
        <ele>838.40002441406</ele>
        <time>2012-10-28T06:50:46Z</time>
      </trkpt>
      <trkpt lat="44.1803" lon="3.23666">
        <ele>839.20001220703</ele>
        <time>2012-10-28T06:50:53Z</time>
      </trkpt>
      <trkpt lat="44.18046" lon="3.23683">
        <ele>839.79998779297</ele>
        <time>2012-10-28T06:51:00Z</time>
      </trkpt>
      <trkpt lat="44.18061" lon="3.23693">
        <ele>840.20001220703</ele>
        <time>2012-10-28T06:51:06Z</time>
      </trkpt>
      <trkpt lat="44.18067" lon="3.23701">
        <ele>840.20001220703</ele>
        <time>2012-10-28T06:51:09Z</time>
      </trkpt>
      <trkpt lat="44.18066" lon="3.23713">
        <ele>840</ele>
        <time>2012-10-28T06:51:12Z</time>
      </trkpt>
      <trkpt lat="44.18061" lon="3.23732">
        <ele>840</ele>
        <time>2012-10-28T06:51:15Z</time>
      </trkpt>
      <trkpt lat="44.18054" lon="3.23741">
        <ele>840</ele>
        <time>2012-10-28T06:51:18Z</time>
      </trkpt>
      <trkpt lat="44.18053" lon="3.23745">
        <ele>839.79998779297</ele>
        <time>2012-10-28T06:51:19Z</time>
      </trkpt>
      <trkpt lat="44.18053" lon="3.23749">
        <ele>839.79998779297</ele>
        <time>2012-10-28T06:51:21Z</time>
      </trkpt>
      <trkpt lat="44.18059" lon="3.23764">
        <ele>839.59997558594</ele>
        <time>2012-10-28T06:51:24Z</time>
      </trkpt>
      <trkpt lat="44.18072" lon="3.23784">
        <ele>839.40002441406</ele>
        <time>2012-10-28T06:51:30Z</time>
      </trkpt>
      <trkpt lat="44.18077" lon="3.2381">
        <ele>839</ele>
        <time>2012-10-28T06:51:36Z</time>
      </trkpt>
      <trkpt lat="44.18086" lon="3.23834">
        <ele>838.59997558594</ele>
        <time>2012-10-28T06:51:42Z</time>
      </trkpt>
      <trkpt lat="44.18096" lon="3.23858">
        <ele>838.20001220703</ele>
        <time>2012-10-28T06:51:49Z</time>
      </trkpt>
      <trkpt lat="44.18106" lon="3.2388">
        <ele>838</ele>
        <time>2012-10-28T06:51:56Z</time>
      </trkpt>
      <trkpt lat="44.18114" lon="3.23902">
        <ele>838</ele>
        <time>2012-10-28T06:52:03Z</time>
      </trkpt>
      <trkpt lat="44.18132" lon="3.2391">
        <ele>838</ele>
        <time>2012-10-28T06:52:11Z</time>
      </trkpt>
      <trkpt lat="44.18138" lon="3.23917">
        <ele>838.20001220703</ele>
        <time>2012-10-28T06:52:14Z</time>
      </trkpt>
      <trkpt lat="44.18137" lon="3.23928">
        <ele>838.20001220703</ele>
        <time>2012-10-28T06:52:18Z</time>
      </trkpt>
      <trkpt lat="44.18126" lon="3.23948">
        <ele>838.40002441406</ele>
        <time>2012-10-28T06:52:25Z</time>
      </trkpt>
      <trkpt lat="44.18123" lon="3.23954">
        <ele>838.59997558594</ele>
        <time>2012-10-28T06:52:26Z</time>
      </trkpt>
      <trkpt lat="44.18124" lon="3.23971">
        <ele>838.59997558594</ele>
        <time>2012-10-28T06:52:31Z</time>
      </trkpt>
      <trkpt lat="44.18118" lon="3.23999">
        <ele>838.59997558594</ele>
        <time>2012-10-28T06:52:37Z</time>
      </trkpt>
      <trkpt lat="44.18106" lon="3.24021">
        <ele>838.59997558594</ele>
        <time>2012-10-28T06:52:44Z</time>
      </trkpt>
      <trkpt lat="44.18094" lon="3.2404">
        <ele>838.40002441406</ele>
        <time>2012-10-28T06:52:50Z</time>
      </trkpt>
      <trkpt lat="44.18086" lon="3.24062">
        <ele>838.40002441406</ele>
        <time>2012-10-28T06:52:57Z</time>
      </trkpt>
      <trkpt lat="44.18078" lon="3.24089">
        <ele>839.40002441406</ele>
        <time>2012-10-28T06:53:04Z</time>
      </trkpt>
      <trkpt lat="44.18066" lon="3.2411">
        <ele>840.20001220703</ele>
        <time>2012-10-28T06:53:11Z</time>
      </trkpt>
      <trkpt lat="44.18052" lon="3.24126">
        <ele>841</ele>
        <time>2012-10-28T06:53:18Z</time>
      </trkpt>
      <trkpt lat="44.18037" lon="3.24142">
        <ele>841.79998779297</ele>
        <time>2012-10-28T06:53:26Z</time>
      </trkpt>
      <trkpt lat="44.18028" lon="3.24167">
        <ele>843.59997558594</ele>
        <time>2012-10-28T06:53:35Z</time>
      </trkpt>
      <trkpt lat="44.1802" lon="3.2419">
        <ele>845.40002441406</ele>
        <time>2012-10-28T06:53:44Z</time>
      </trkpt>
      <trkpt lat="44.18012" lon="3.24208">
        <ele>847.20001220703</ele>
        <time>2012-10-28T06:53:50Z</time>
      </trkpt>
      <trkpt lat="44.18014" lon="3.24211">
        <ele>847.59997558594</ele>
        <time>2012-10-28T06:53:52Z</time>
      </trkpt>
      <trkpt lat="44.18021" lon="3.2421">
        <ele>848.59997558594</ele>
        <time>2012-10-28T06:53:56Z</time>
      </trkpt>
      <trkpt lat="44.18032" lon="3.24209">
        <ele>849.79998779297</ele>
        <time>2012-10-28T06:54:02Z</time>
      </trkpt>
      <trkpt lat="44.1805" lon="3.24221">
        <ele>851</ele>
        <time>2012-10-28T06:54:10Z</time>
      </trkpt>
      <trkpt lat="44.18065" lon="3.24239">
        <ele>852.20001220703</ele>
        <time>2012-10-28T06:54:18Z</time>
      </trkpt>
      <trkpt lat="44.18077" lon="3.24259">
        <ele>853.59997558594</ele>
        <time>2012-10-28T06:54:26Z</time>
      </trkpt>
      <trkpt lat="44.18079" lon="3.24281">
        <ele>855</ele>
        <time>2012-10-28T06:54:33Z</time>
      </trkpt>
      <trkpt lat="44.18076" lon="3.24286">
        <ele>855.40002441406</ele>
        <time>2012-10-28T06:54:35Z</time>
      </trkpt>
      <trkpt lat="44.1807" lon="3.24312">
        <ele>858.79998779297</ele>
        <time>2012-10-28T06:54:45Z</time>
      </trkpt>
      <trkpt lat="44.18061" lon="3.24336">
        <ele>861.20001220703</ele>
        <time>2012-10-28T06:54:55Z</time>
      </trkpt>
      <trkpt lat="44.1806" lon="3.24337">
        <ele>861.20001220703</ele>
        <time>2012-10-28T06:54:56Z</time>
      </trkpt>
      <trkpt lat="44.18059" lon="3.24348">
        <ele>862.59997558594</ele>
        <time>2012-10-28T06:55:01Z</time>
      </trkpt>
      <trkpt lat="44.18064" lon="3.24359">
        <ele>863</ele>
        <time>2012-10-28T06:55:05Z</time>
      </trkpt>
      <trkpt lat="44.18076" lon="3.24369">
        <ele>863.79998779297</ele>
        <time>2012-10-28T06:55:11Z</time>
      </trkpt>
      <trkpt lat="44.18082" lon="3.24372">
        <ele>864.40002441406</ele>
        <time>2012-10-28T06:55:14Z</time>
      </trkpt>
      <trkpt lat="44.18097" lon="3.24388">
        <ele>866.40002441406</ele>
        <time>2012-10-28T06:55:23Z</time>
      </trkpt>
      <trkpt lat="44.181" lon="3.24414">
        <ele>868.40002441406</ele>
        <time>2012-10-28T06:55:32Z</time>
      </trkpt>
      <trkpt lat="44.18103" lon="3.24437">
        <ele>870.20001220703</ele>
        <time>2012-10-28T06:55:40Z</time>
      </trkpt>
      <trkpt lat="44.18108" lon="3.24467">
        <ele>871.79998779297</ele>
        <time>2012-10-28T06:55:47Z</time>
      </trkpt>
      <trkpt lat="44.18111" lon="3.24495">
        <ele>873.59997558594</ele>
        <time>2012-10-28T06:55:54Z</time>
      </trkpt>
      <trkpt lat="44.18101" lon="3.24519">
        <ele>874.79998779297</ele>
        <time>2012-10-28T06:56:01Z</time>
      </trkpt>
      <trkpt lat="44.18089" lon="3.24535">
        <ele>875.79998779297</ele>
        <time>2012-10-28T06:56:08Z</time>
      </trkpt>
      <trkpt lat="44.1807" lon="3.24549">
        <ele>876.20001220703</ele>
        <time>2012-10-28T06:56:15Z</time>
      </trkpt>
      <trkpt lat="44.18055" lon="3.24566">
        <ele>876.59997558594</ele>
        <time>2012-10-28T06:56:22Z</time>
      </trkpt>
      <trkpt lat="44.18042" lon="3.24585">
        <ele>877.40002441406</ele>
        <time>2012-10-28T06:56:29Z</time>
      </trkpt>
      <trkpt lat="44.18028" lon="3.24605">
        <ele>878.59997558594</ele>
        <time>2012-10-28T06:56:36Z</time>
      </trkpt>
      <trkpt lat="44.18013" lon="3.24622">
        <ele>880</ele>
        <time>2012-10-28T06:56:44Z</time>
      </trkpt>
      <trkpt lat="44.17998" lon="3.24638">
        <ele>880.40002441406</ele>
        <time>2012-10-28T06:56:50Z</time>
      </trkpt>
      <trkpt lat="44.17982" lon="3.24655">
        <ele>880.59997558594</ele>
        <time>2012-10-28T06:56:57Z</time>
      </trkpt>
      <trkpt lat="44.17965" lon="3.2467">
        <ele>881</ele>
        <time>2012-10-28T06:57:04Z</time>
      </trkpt>
      <trkpt lat="44.17947" lon="3.24681">
        <ele>881.59997558594</ele>
        <time>2012-10-28T06:57:11Z</time>
      </trkpt>
      <trkpt lat="44.1793" lon="3.24695">
        <ele>882</ele>
        <time>2012-10-28T06:57:18Z</time>
      </trkpt>
      <trkpt lat="44.17914" lon="3.24712">
        <ele>882.40002441406</ele>
        <time>2012-10-28T06:57:25Z</time>
      </trkpt>
      <trkpt lat="44.17905" lon="3.24738">
        <ele>882.40002441406</ele>
        <time>2012-10-28T06:57:32Z</time>
      </trkpt>
      <trkpt lat="44.17893" lon="3.24757">
        <ele>882.79998779297</ele>
        <time>2012-10-28T06:57:38Z</time>
      </trkpt>
      <trkpt lat="44.17873" lon="3.24761">
        <ele>882.59997558594</ele>
        <time>2012-10-28T06:57:44Z</time>
      </trkpt>
      <trkpt lat="44.17855" lon="3.2476">
        <ele>882.40002441406</ele>
        <time>2012-10-28T06:57:50Z</time>
      </trkpt>
      <trkpt lat="44.17839" lon="3.24772">
        <ele>882.20001220703</ele>
        <time>2012-10-28T06:57:57Z</time>
      </trkpt>
      <trkpt lat="44.17828" lon="3.24795">
        <ele>882.40002441406</ele>
        <time>2012-10-28T06:58:05Z</time>
      </trkpt>
      <trkpt lat="44.17818" lon="3.24816">
        <ele>883.40002441406</ele>
        <time>2012-10-28T06:58:12Z</time>
      </trkpt>
      <trkpt lat="44.17802" lon="3.24831">
        <ele>883.79998779297</ele>
        <time>2012-10-28T06:58:19Z</time>
      </trkpt>
      <trkpt lat="44.17783" lon="3.24842">
        <ele>884</ele>
        <time>2012-10-28T06:58:26Z</time>
      </trkpt>
      <trkpt lat="44.17766" lon="3.2485">
        <ele>884.79998779297</ele>
        <time>2012-10-28T06:58:33Z</time>
      </trkpt>
      <trkpt lat="44.17751" lon="3.24868">
        <ele>885.79998779297</ele>
        <time>2012-10-28T06:58:41Z</time>
      </trkpt>
      <trkpt lat="44.17732" lon="3.24873">
        <ele>886.20001220703</ele>
        <time>2012-10-28T06:58:47Z</time>
      </trkpt>
      <trkpt lat="44.17711" lon="3.24877">
        <ele>886.20001220703</ele>
        <time>2012-10-28T06:58:53Z</time>
      </trkpt>
      <trkpt lat="44.17693" lon="3.24874">
        <ele>886</ele>
        <time>2012-10-28T06:58:58Z</time>
      </trkpt>
      <trkpt lat="44.17691" lon="3.24871">
        <ele>886</ele>
        <time>2012-10-28T06:58:59Z</time>
      </trkpt>
      <trkpt lat="44.17677" lon="3.24862">
        <ele>885.79998779297</ele>
        <time>2012-10-28T06:59:04Z</time>
      </trkpt>
      <trkpt lat="44.17659" lon="3.24853">
        <ele>885.40002441406</ele>
        <time>2012-10-28T06:59:10Z</time>
      </trkpt>
      <trkpt lat="44.17643" lon="3.24841">
        <ele>885</ele>
        <time>2012-10-28T06:59:16Z</time>
      </trkpt>
      <trkpt lat="44.17633" lon="3.24819">
        <ele>884.59997558594</ele>
        <time>2012-10-28T06:59:22Z</time>
      </trkpt>
      <trkpt lat="44.17635" lon="3.24793">
        <ele>884</ele>
        <time>2012-10-28T06:59:28Z</time>
      </trkpt>
      <trkpt lat="44.17638" lon="3.24777">
        <ele>883.59997558594</ele>
        <time>2012-10-28T06:59:32Z</time>
      </trkpt>
      <trkpt lat="44.17636" lon="3.24768">
        <ele>883.59997558594</ele>
        <time>2012-10-28T06:59:34Z</time>
      </trkpt>
      <trkpt lat="44.17632" lon="3.24761">
        <ele>883.40002441406</ele>
        <time>2012-10-28T06:59:36Z</time>
      </trkpt>
      <trkpt lat="44.17621" lon="3.24751">
        <ele>883</ele>
        <time>2012-10-28T06:59:40Z</time>
      </trkpt>
      <trkpt lat="44.17603" lon="3.24739">
        <ele>882.79998779297</ele>
        <time>2012-10-28T06:59:46Z</time>
      </trkpt>
      <trkpt lat="44.17584" lon="3.24729">
        <ele>882.20001220703</ele>
        <time>2012-10-28T06:59:52Z</time>
      </trkpt>
      <trkpt lat="44.17566" lon="3.24718">
        <ele>881.79998779297</ele>
        <time>2012-10-28T06:59:59Z</time>
      </trkpt>
      <trkpt lat="44.17548" lon="3.24706">
        <ele>881.40002441406</ele>
        <time>2012-10-28T07:00:06Z</time>
      </trkpt>
      <trkpt lat="44.17528" lon="3.24699">
        <ele>881</ele>
        <time>2012-10-28T07:00:13Z</time>
      </trkpt>
      <trkpt lat="44.17507" lon="3.24701">
        <ele>880.59997558594</ele>
        <time>2012-10-28T07:00:19Z</time>
      </trkpt>
      <trkpt lat="44.17489" lon="3.24715">
        <ele>880.20001220703</ele>
        <time>2012-10-28T07:00:26Z</time>
      </trkpt>
      <trkpt lat="44.17472" lon="3.24734">
        <ele>879.79998779297</ele>
        <time>2012-10-28T07:00:33Z</time>
      </trkpt>
      <trkpt lat="44.17456" lon="3.2475">
        <ele>879.40002441406</ele>
        <time>2012-10-28T07:00:40Z</time>
      </trkpt>
      <trkpt lat="44.17437" lon="3.24759">
        <ele>879</ele>
        <time>2012-10-28T07:00:46Z</time>
      </trkpt>
      <trkpt lat="44.17418" lon="3.24755">
        <ele>878.59997558594</ele>
        <time>2012-10-28T07:00:52Z</time>
      </trkpt>
      <trkpt lat="44.17399" lon="3.24749">
        <ele>878</ele>
        <time>2012-10-28T07:00:58Z</time>
      </trkpt>
      <trkpt lat="44.17381" lon="3.2474">
        <ele>877.40002441406</ele>
        <time>2012-10-28T07:01:04Z</time>
      </trkpt>
      <trkpt lat="44.17362" lon="3.24731">
        <ele>876.40002441406</ele>
        <time>2012-10-28T07:01:11Z</time>
      </trkpt>
      <trkpt lat="44.17344" lon="3.24719">
        <ele>875.59997558594</ele>
        <time>2012-10-28T07:01:17Z</time>
      </trkpt>
      <trkpt lat="44.17324" lon="3.24711">
        <ele>874.79998779297</ele>
        <time>2012-10-28T07:01:23Z</time>
      </trkpt>
      <trkpt lat="44.17306" lon="3.24701">
        <ele>874.20001220703</ele>
        <time>2012-10-28T07:01:29Z</time>
      </trkpt>
      <trkpt lat="44.1729" lon="3.24688">
        <ele>873.59997558594</ele>
        <time>2012-10-28T07:01:35Z</time>
      </trkpt>
      <trkpt lat="44.17274" lon="3.24684">
        <ele>872.59997558594</ele>
        <time>2012-10-28T07:01:43Z</time>
      </trkpt>
      <trkpt lat="44.17273" lon="3.24685">
        <ele>872.20001220703</ele>
        <time>2012-10-28T07:01:45Z</time>
      </trkpt>
      <trkpt lat="44.17271" lon="3.24684">
        <ele>872</ele>
        <time>2012-10-28T07:01:46Z</time>
      </trkpt>
      <trkpt lat="44.17263" lon="3.24672">
        <ele>871.20001220703</ele>
        <time>2012-10-28T07:01:52Z</time>
      </trkpt>
      <trkpt lat="44.17263" lon="3.24665">
        <ele>870.79998779297</ele>
        <time>2012-10-28T07:01:54Z</time>
      </trkpt>
      <trkpt lat="44.17261" lon="3.24662">
        <ele>870.79998779297</ele>
        <time>2012-10-28T07:01:55Z</time>
      </trkpt>
      <trkpt lat="44.17252" lon="3.24674">
        <ele>870</ele>
        <time>2012-10-28T07:02:00Z</time>
      </trkpt>
      <trkpt lat="44.17251" lon="3.2468">
        <ele>869.79998779297</ele>
        <time>2012-10-28T07:02:01Z</time>
      </trkpt>
      <trkpt lat="44.1725" lon="3.24699">
        <ele>869.40002441406</ele>
        <time>2012-10-28T07:02:05Z</time>
      </trkpt>
      <trkpt lat="44.1726" lon="3.2472">
        <ele>868.59997558594</ele>
        <time>2012-10-28T07:02:11Z</time>
      </trkpt>
      <trkpt lat="44.17265" lon="3.24746">
        <ele>867.79998779297</ele>
        <time>2012-10-28T07:02:17Z</time>
      </trkpt>
      <trkpt lat="44.17268" lon="3.24773">
        <ele>867</ele>
        <time>2012-10-28T07:02:23Z</time>
      </trkpt>
      <trkpt lat="44.17266" lon="3.24799">
        <ele>866.40002441406</ele>
        <time>2012-10-28T07:02:29Z</time>
      </trkpt>
      <trkpt lat="44.17263" lon="3.24806">
        <ele>866.40002441406</ele>
        <time>2012-10-28T07:02:31Z</time>
      </trkpt>
      <trkpt lat="44.1725" lon="3.24808">
        <ele>866</ele>
        <time>2012-10-28T07:02:35Z</time>
      </trkpt>
      <trkpt lat="44.17247" lon="3.24808">
        <ele>865.79998779297</ele>
        <time>2012-10-28T07:02:36Z</time>
      </trkpt>
      <trkpt lat="44.17232" lon="3.24814">
        <ele>865.59997558594</ele>
        <time>2012-10-28T07:02:41Z</time>
      </trkpt>
      <trkpt lat="44.17215" lon="3.24826">
        <ele>865.20001220703</ele>
        <time>2012-10-28T07:02:47Z</time>
      </trkpt>
      <trkpt lat="44.17201" lon="3.24846">
        <ele>864.79998779297</ele>
        <time>2012-10-28T07:02:54Z</time>
      </trkpt>
      <trkpt lat="44.17187" lon="3.24866">
        <ele>864.20001220703</ele>
        <time>2012-10-28T07:03:01Z</time>
      </trkpt>
      <trkpt lat="44.1718" lon="3.24891">
        <ele>864</ele>
        <time>2012-10-28T07:03:08Z</time>
      </trkpt>
      <trkpt lat="44.17176" lon="3.249">
        <ele>863.79998779297</ele>
        <time>2012-10-28T07:03:11Z</time>
      </trkpt>
      <trkpt lat="44.17163" lon="3.24903">
        <ele>863.79998779297</ele>
        <time>2012-10-28T07:03:15Z</time>
      </trkpt>
      <trkpt lat="44.17146" lon="3.24893">
        <ele>863.40002441406</ele>
        <time>2012-10-28T07:03:21Z</time>
      </trkpt>
      <trkpt lat="44.17128" lon="3.24877">
        <ele>863.20001220703</ele>
        <time>2012-10-28T07:03:28Z</time>
      </trkpt>
      <trkpt lat="44.17116" lon="3.24859">
        <ele>863.20001220703</ele>
        <time>2012-10-28T07:03:34Z</time>
      </trkpt>
      <trkpt lat="44.17101" lon="3.24841">
        <ele>863</ele>
        <time>2012-10-28T07:03:41Z</time>
      </trkpt>
      <trkpt lat="44.17081" lon="3.24837">
        <ele>863</ele>
        <time>2012-10-28T07:03:47Z</time>
      </trkpt>
      <trkpt lat="44.17068" lon="3.24836">
        <ele>863</ele>
        <time>2012-10-28T07:03:52Z</time>
      </trkpt>
      <trkpt lat="44.17062" lon="3.24837">
        <ele>863.20001220703</ele>
        <time>2012-10-28T07:03:55Z</time>
      </trkpt>
      <trkpt lat="44.17049" lon="3.24838">
        <ele>863.79998779297</ele>
        <time>2012-10-28T07:04:01Z</time>
      </trkpt>
      <trkpt lat="44.17042" lon="3.24837">
        <ele>864</ele>
        <time>2012-10-28T07:04:04Z</time>
      </trkpt>
      <trkpt lat="44.17038" lon="3.24837">
        <ele>864.40002441406</ele>
        <time>2012-10-28T07:04:06Z</time>
      </trkpt>
      <trkpt lat="44.17021" lon="3.24836">
        <ele>865.40002441406</ele>
        <time>2012-10-28T07:04:13Z</time>
      </trkpt>
      <trkpt lat="44.17012" lon="3.24836">
        <ele>866</ele>
        <time>2012-10-28T07:04:17Z</time>
      </trkpt>
      <trkpt lat="44.17009" lon="3.24837">
        <ele>866.20001220703</ele>
        <time>2012-10-28T07:04:19Z</time>
      </trkpt>
      <trkpt lat="44.17005" lon="3.24842">
        <ele>866.40002441406</ele>
        <time>2012-10-28T07:04:21Z</time>
      </trkpt>
      <trkpt lat="44.17003" lon="3.2485">
        <ele>866.79998779297</ele>
        <time>2012-10-28T07:04:23Z</time>
      </trkpt>
      <trkpt lat="44.17001" lon="3.24871">
        <ele>868</ele>
        <time>2012-10-28T07:04:28Z</time>
      </trkpt>
      <trkpt lat="44.16985" lon="3.24888">
        <ele>869</ele>
        <time>2012-10-28T07:04:35Z</time>
      </trkpt>
      <trkpt lat="44.16966" lon="3.24885">
        <ele>869.79998779297</ele>
        <time>2012-10-28T07:04:41Z</time>
      </trkpt>
      <trkpt lat="44.16946" lon="3.2488">
        <ele>870.40002441406</ele>
        <time>2012-10-28T07:04:49Z</time>
      </trkpt>
      <trkpt lat="44.16928" lon="3.24884">
        <ele>870.79998779297</ele>
        <time>2012-10-28T07:04:55Z</time>
      </trkpt>
      <trkpt lat="44.16909" lon="3.24886">
        <ele>871.20001220703</ele>
        <time>2012-10-28T07:05:02Z</time>
      </trkpt>
      <trkpt lat="44.16892" lon="3.24891">
        <ele>871.79998779297</ele>
        <time>2012-10-28T07:05:09Z</time>
      </trkpt>
      <trkpt lat="44.16877" lon="3.24907">
        <ele>872.20001220703</ele>
        <time>2012-10-28T07:05:17Z</time>
      </trkpt>
      <trkpt lat="44.16872" lon="3.24931">
        <ele>873</ele>
        <time>2012-10-28T07:05:25Z</time>
      </trkpt>
      <trkpt lat="44.16875" lon="3.24946">
        <ele>873.59997558594</ele>
        <time>2012-10-28T07:05:30Z</time>
      </trkpt>
      <trkpt lat="44.16875" lon="3.24956">
        <ele>874</ele>
        <time>2012-10-28T07:05:33Z</time>
      </trkpt>
      <trkpt lat="44.16868" lon="3.24981">
        <ele>874.79998779297</ele>
        <time>2012-10-28T07:05:41Z</time>
      </trkpt>
      <trkpt lat="44.16863" lon="3.25007">
        <ele>876</ele>
        <time>2012-10-28T07:05:50Z</time>
      </trkpt>
      <trkpt lat="44.16857" lon="3.25012">
        <ele>876.40002441406</ele>
        <time>2012-10-28T07:05:53Z</time>
      </trkpt>
      <trkpt lat="44.16846" lon="3.2502">
        <ele>876.79998779297</ele>
        <time>2012-10-28T07:05:59Z</time>
      </trkpt>
      <trkpt lat="44.16843" lon="3.25019">
        <ele>876.79998779297</ele>
        <time>2012-10-28T07:06:00Z</time>
      </trkpt>
      <trkpt lat="44.16842" lon="3.25019">
        <ele>877</ele>
        <time>2012-10-28T07:06:02Z</time>
      </trkpt>
      <trkpt lat="44.16828" lon="3.25024">
        <ele>877.59997558594</ele>
        <time>2012-10-28T07:06:08Z</time>
      </trkpt>
      <trkpt lat="44.16816" lon="3.2502">
        <ele>878</ele>
        <time>2012-10-28T07:06:12Z</time>
      </trkpt>
      <trkpt lat="44.1681" lon="3.25017">
        <ele>878.20001220703</ele>
        <time>2012-10-28T07:06:14Z</time>
      </trkpt>
      <trkpt lat="44.16803" lon="3.25017">
        <ele>878.40002441406</ele>
        <time>2012-10-28T07:06:17Z</time>
      </trkpt>
      <trkpt lat="44.1679" lon="3.25014">
        <ele>878.59997558594</ele>
        <time>2012-10-28T07:06:21Z</time>
      </trkpt>
      <trkpt lat="44.16782" lon="3.25006">
        <ele>878.59997558594</ele>
        <time>2012-10-28T07:06:25Z</time>
      </trkpt>
      <trkpt lat="44.16781" lon="3.24995">
        <ele>878.79998779297</ele>
        <time>2012-10-28T07:06:29Z</time>
      </trkpt>
      <trkpt lat="44.1678" lon="3.24978">
        <ele>879.20001220703</ele>
        <time>2012-10-28T07:06:34Z</time>
      </trkpt>
      <trkpt lat="44.1678" lon="3.2497">
        <ele>879.20001220703</ele>
        <time>2012-10-28T07:06:36Z</time>
      </trkpt>
      <trkpt lat="44.16765" lon="3.24957">
        <ele>880</ele>
        <time>2012-10-28T07:06:43Z</time>
      </trkpt>
      <trkpt lat="44.16749" lon="3.24966">
        <ele>881</ele>
        <time>2012-10-28T07:06:52Z</time>
      </trkpt>
      <trkpt lat="44.16733" lon="3.24981">
        <ele>882.20001220703</ele>
        <time>2012-10-28T07:07:01Z</time>
      </trkpt>
      <trkpt lat="44.16715" lon="3.24992">
        <ele>884.20001220703</ele>
        <time>2012-10-28T07:07:14Z</time>
      </trkpt>
      <trkpt lat="44.16702" lon="3.2499">
        <ele>885.79998779297</ele>
        <time>2012-10-28T07:07:23Z</time>
      </trkpt>
      <trkpt lat="44.16697" lon="3.24987">
        <ele>886.40002441406</ele>
        <time>2012-10-28T07:07:27Z</time>
      </trkpt>
      <trkpt lat="44.16696" lon="3.24986">
        <ele>886.59997558594</ele>
        <time>2012-10-28T07:07:28Z</time>
      </trkpt>
      <trkpt lat="44.16678" lon="3.24977">
        <ele>889.40002441406</ele>
        <time>2012-10-28T07:07:44Z</time>
      </trkpt>
      <trkpt lat="44.16675" lon="3.24977">
        <ele>889.79998779297</ele>
        <time>2012-10-28T07:07:46Z</time>
      </trkpt>
      <trkpt lat="44.1666" lon="3.24973">
        <ele>893</ele>
        <time>2012-10-28T07:07:58Z</time>
      </trkpt>
      <trkpt lat="44.16658" lon="3.24973">
        <ele>893.20001220703</ele>
        <time>2012-10-28T07:07:59Z</time>
      </trkpt>
      <trkpt lat="44.16642" lon="3.24975">
        <ele>895.79998779297</ele>
        <time>2012-10-28T07:08:07Z</time>
      </trkpt>
      <trkpt lat="44.16632" lon="3.24976">
        <ele>897.20001220703</ele>
        <time>2012-10-28T07:08:12Z</time>
      </trkpt>
      <trkpt lat="44.16624" lon="3.2498">
        <ele>898.40002441406</ele>
        <time>2012-10-28T07:08:16Z</time>
      </trkpt>
      <trkpt lat="44.16605" lon="3.24982">
        <ele>900.59997558594</ele>
        <time>2012-10-28T07:08:24Z</time>
      </trkpt>
      <trkpt lat="44.16586" lon="3.24991">
        <ele>902.40002441406</ele>
        <time>2012-10-28T07:08:31Z</time>
      </trkpt>
      <trkpt lat="44.16579" lon="3.24992">
        <ele>903.40002441406</ele>
        <time>2012-10-28T07:08:35Z</time>
      </trkpt>
      <trkpt lat="44.16567" lon="3.24993">
        <ele>904.40002441406</ele>
        <time>2012-10-28T07:08:40Z</time>
      </trkpt>
      <trkpt lat="44.16556" lon="3.24993">
        <ele>905.59997558594</ele>
        <time>2012-10-28T07:08:46Z</time>
      </trkpt>
      <trkpt lat="44.16549" lon="3.24999">
        <ele>906.20001220703</ele>
        <time>2012-10-28T07:08:50Z</time>
      </trkpt>
      <trkpt lat="44.16541" lon="3.25001">
        <ele>907.20001220703</ele>
        <time>2012-10-28T07:08:55Z</time>
      </trkpt>
      <trkpt lat="44.16532" lon="3.25005">
        <ele>908.59997558594</ele>
        <time>2012-10-28T07:09:00Z</time>
      </trkpt>
      <trkpt lat="44.16513" lon="3.25012">
        <ele>910.59997558594</ele>
        <time>2012-10-28T07:09:07Z</time>
      </trkpt>
      <trkpt lat="44.16493" lon="3.25019">
        <ele>913.20001220703</ele>
        <time>2012-10-28T07:09:15Z</time>
      </trkpt>
      <trkpt lat="44.16491" lon="3.2502">
        <ele>913.40002441406</ele>
        <time>2012-10-28T07:09:16Z</time>
      </trkpt>
      <trkpt lat="44.16487" lon="3.25021">
        <ele>914</ele>
        <time>2012-10-28T07:09:19Z</time>
      </trkpt>
      <trkpt lat="44.16473" lon="3.25019">
        <ele>915</ele>
        <time>2012-10-28T07:09:24Z</time>
      </trkpt>
      <trkpt lat="44.16455" lon="3.25014">
        <ele>915.79998779297</ele>
        <time>2012-10-28T07:09:30Z</time>
      </trkpt>
      <trkpt lat="44.16437" lon="3.25018">
        <ele>916.40002441406</ele>
        <time>2012-10-28T07:09:37Z</time>
      </trkpt>
      <trkpt lat="44.16419" lon="3.25021">
        <ele>917.20001220703</ele>
        <time>2012-10-28T07:09:44Z</time>
      </trkpt>
      <trkpt lat="44.16406" lon="3.25025">
        <ele>917.79998779297</ele>
        <time>2012-10-28T07:09:49Z</time>
      </trkpt>
      <trkpt lat="44.164" lon="3.25025">
        <ele>918</ele>
        <time>2012-10-28T07:09:51Z</time>
      </trkpt>
      <trkpt lat="44.16381" lon="3.2503">
        <ele>918.59997558594</ele>
        <time>2012-10-28T07:09:58Z</time>
      </trkpt>
      <trkpt lat="44.16362" lon="3.25029">
        <ele>919.20001220703</ele>
        <time>2012-10-28T07:10:05Z</time>
      </trkpt>
      <trkpt lat="44.16344" lon="3.25029">
        <ele>919.59997558594</ele>
        <time>2012-10-28T07:10:11Z</time>
      </trkpt>
      <trkpt lat="44.16324" lon="3.25027">
        <ele>920</ele>
        <time>2012-10-28T07:10:18Z</time>
      </trkpt>
      <trkpt lat="44.16306" lon="3.25031">
        <ele>920.40002441406</ele>
        <time>2012-10-28T07:10:24Z</time>
      </trkpt>
      <trkpt lat="44.16288" lon="3.25041">
        <ele>921.20001220703</ele>
        <time>2012-10-28T07:10:31Z</time>
      </trkpt>
      <trkpt lat="44.16273" lon="3.25054">
        <ele>921.79998779297</ele>
        <time>2012-10-28T07:10:37Z</time>
      </trkpt>
      <trkpt lat="44.16258" lon="3.25073">
        <ele>922.79998779297</ele>
        <time>2012-10-28T07:10:44Z</time>
      </trkpt>
      <trkpt lat="44.16242" lon="3.25087">
        <ele>923.79998779297</ele>
        <time>2012-10-28T07:10:51Z</time>
      </trkpt>
      <trkpt lat="44.16225" lon="3.25096">
        <ele>924.40002441406</ele>
        <time>2012-10-28T07:10:57Z</time>
      </trkpt>
      <trkpt lat="44.16206" lon="3.25105">
        <ele>925</ele>
        <time>2012-10-28T07:11:04Z</time>
      </trkpt>
      <trkpt lat="44.16187" lon="3.25113">
        <ele>925.20001220703</ele>
        <time>2012-10-28T07:11:11Z</time>
      </trkpt>
      <trkpt lat="44.16169" lon="3.25123">
        <ele>925.20001220703</ele>
        <time>2012-10-28T07:11:18Z</time>
      </trkpt>
      <trkpt lat="44.1615" lon="3.25132">
        <ele>925</ele>
        <time>2012-10-28T07:11:25Z</time>
      </trkpt>
      <trkpt lat="44.16132" lon="3.2514">
        <ele>925</ele>
        <time>2012-10-28T07:11:32Z</time>
      </trkpt>
      <trkpt lat="44.16112" lon="3.2515">
        <ele>924.79998779297</ele>
        <time>2012-10-28T07:11:39Z</time>
      </trkpt>
      <trkpt lat="44.16092" lon="3.25159">
        <ele>924.79998779297</ele>
        <time>2012-10-28T07:11:46Z</time>
      </trkpt>
      <trkpt lat="44.16072" lon="3.25162">
        <ele>924.79998779297</ele>
        <time>2012-10-28T07:11:53Z</time>
      </trkpt>
      <trkpt lat="44.16053" lon="3.25168">
        <ele>924.59997558594</ele>
        <time>2012-10-28T07:11:59Z</time>
      </trkpt>
      <trkpt lat="44.16033" lon="3.25166">
        <ele>924.59997558594</ele>
        <time>2012-10-28T07:12:05Z</time>
      </trkpt>
      <trkpt lat="44.16012" lon="3.25164">
        <ele>924.40002441406</ele>
        <time>2012-10-28T07:12:11Z</time>
      </trkpt>
      <trkpt lat="44.15997" lon="3.2518">
        <ele>924.20001220703</ele>
        <time>2012-10-28T07:12:17Z</time>
      </trkpt>
      <trkpt lat="44.15982" lon="3.25194">
        <ele>923.79998779297</ele>
        <time>2012-10-28T07:12:23Z</time>
      </trkpt>
      <trkpt lat="44.15965" lon="3.25203">
        <ele>923.59997558594</ele>
        <time>2012-10-28T07:12:29Z</time>
      </trkpt>
      <trkpt lat="44.15944" lon="3.25209">
        <ele>923.40002441406</ele>
        <time>2012-10-28T07:12:36Z</time>
      </trkpt>
      <trkpt lat="44.15926" lon="3.25215">
        <ele>923.20001220703</ele>
        <time>2012-10-28T07:12:42Z</time>
      </trkpt>
      <trkpt lat="44.15906" lon="3.2522">
        <ele>923</ele>
        <time>2012-10-28T07:12:48Z</time>
      </trkpt>
      <trkpt lat="44.15888" lon="3.25228">
        <ele>922.59997558594</ele>
        <time>2012-10-28T07:12:54Z</time>
      </trkpt>
      <trkpt lat="44.15868" lon="3.25231">
        <ele>922.20001220703</ele>
        <time>2012-10-28T07:13:00Z</time>
      </trkpt>
      <trkpt lat="44.15848" lon="3.2523">
        <ele>921.59997558594</ele>
        <time>2012-10-28T07:13:06Z</time>
      </trkpt>
      <trkpt lat="44.1583" lon="3.25237">
        <ele>920.79998779297</ele>
        <time>2012-10-28T07:13:12Z</time>
      </trkpt>
      <trkpt lat="44.15813" lon="3.25249">
        <ele>920</ele>
        <time>2012-10-28T07:13:18Z</time>
      </trkpt>
      <trkpt lat="44.15811" lon="3.25256">
        <ele>919.59997558594</ele>
        <time>2012-10-28T07:13:20Z</time>
      </trkpt>
      <trkpt lat="44.15818" lon="3.25271">
        <ele>918.79998779297</ele>
        <time>2012-10-28T07:13:25Z</time>
      </trkpt>
      <trkpt lat="44.15823" lon="3.25271">
        <ele>918.40002441406</ele>
        <time>2012-10-28T07:13:27Z</time>
      </trkpt>
      <trkpt lat="44.15837" lon="3.25267">
        <ele>917.59997558594</ele>
        <time>2012-10-28T07:13:32Z</time>
      </trkpt>
      <trkpt lat="44.15857" lon="3.25277">
        <ele>916.40002441406</ele>
        <time>2012-10-28T07:13:39Z</time>
      </trkpt>
      <trkpt lat="44.15865" lon="3.25301">
        <ele>915.59997558594</ele>
        <time>2012-10-28T07:13:45Z</time>
      </trkpt>
      <trkpt lat="44.1587" lon="3.25326">
        <ele>914.79998779297</ele>
        <time>2012-10-28T07:13:51Z</time>
      </trkpt>
      <trkpt lat="44.15879" lon="3.25351">
        <ele>914.20001220703</ele>
        <time>2012-10-28T07:13:57Z</time>
      </trkpt>
      <trkpt lat="44.15892" lon="3.25371">
        <ele>913.40002441406</ele>
        <time>2012-10-28T07:14:03Z</time>
      </trkpt>
      <trkpt lat="44.15892" lon="3.25395">
        <ele>912.59997558594</ele>
        <time>2012-10-28T07:14:09Z</time>
      </trkpt>
      <trkpt lat="44.1589" lon="3.25398">
        <ele>912.40002441406</ele>
        <time>2012-10-28T07:14:10Z</time>
      </trkpt>
      <trkpt lat="44.15881" lon="3.25405">
        <ele>912</ele>
        <time>2012-10-28T07:14:13Z</time>
      </trkpt>
      <trkpt lat="44.15873" lon="3.2541">
        <ele>911.40002441406</ele>
        <time>2012-10-28T07:14:16Z</time>
      </trkpt>
      <trkpt lat="44.15857" lon="3.25426">
        <ele>910.40002441406</ele>
        <time>2012-10-28T07:14:22Z</time>
      </trkpt>
      <trkpt lat="44.15842" lon="3.25441">
        <ele>909.20001220703</ele>
        <time>2012-10-28T07:14:28Z</time>
      </trkpt>
      <trkpt lat="44.15826" lon="3.25457">
        <ele>908</ele>
        <time>2012-10-28T07:14:34Z</time>
      </trkpt>
      <trkpt lat="44.1581" lon="3.25467">
        <ele>906.79998779297</ele>
        <time>2012-10-28T07:14:40Z</time>
      </trkpt>
      <trkpt lat="44.1579" lon="3.25473">
        <ele>904.59997558594</ele>
        <time>2012-10-28T07:14:48Z</time>
      </trkpt>
      <trkpt lat="44.15791" lon="3.25486">
        <ele>902.79998779297</ele>
        <time>2012-10-28T07:14:55Z</time>
      </trkpt>
      <trkpt lat="44.15793" lon="3.25489">
        <ele>902.20001220703</ele>
        <time>2012-10-28T07:14:57Z</time>
      </trkpt>
      <trkpt lat="44.15796" lon="3.25492">
        <ele>901.59997558594</ele>
        <time>2012-10-28T07:14:59Z</time>
      </trkpt>
      <trkpt lat="44.15795" lon="3.25511">
        <ele>899.59997558594</ele>
        <time>2012-10-28T07:15:06Z</time>
      </trkpt>
      <trkpt lat="44.15793" lon="3.25515">
        <ele>899.20001220703</ele>
        <time>2012-10-28T07:15:07Z</time>
      </trkpt>
      <trkpt lat="44.15789" lon="3.25544">
        <ele>897.20001220703</ele>
        <time>2012-10-28T07:15:13Z</time>
      </trkpt>
      <trkpt lat="44.15791" lon="3.25571">
        <ele>895.20001220703</ele>
        <time>2012-10-28T07:15:19Z</time>
      </trkpt>
      <trkpt lat="44.15794" lon="3.25597">
        <ele>893.20001220703</ele>
        <time>2012-10-28T07:15:25Z</time>
      </trkpt>
      <trkpt lat="44.15803" lon="3.25622">
        <ele>891.59997558594</ele>
        <time>2012-10-28T07:15:31Z</time>
      </trkpt>
      <trkpt lat="44.15806" lon="3.25636">
        <ele>886.40002441406</ele>
        <time>2012-10-28T07:15:50Z</time>
      </trkpt>
      <trkpt lat="44.15811" lon="3.25646">
        <ele>885.79998779297</ele>
        <time>2012-10-28T07:15:53Z</time>
      </trkpt>
      <trkpt lat="44.15816" lon="3.25674">
        <ele>884.20001220703</ele>
        <time>2012-10-28T07:16:00Z</time>
      </trkpt>
      <trkpt lat="44.15817" lon="3.25691">
        <ele>883.20001220703</ele>
        <time>2012-10-28T07:16:04Z</time>
      </trkpt>
      <trkpt lat="44.15819" lon="3.257">
        <ele>882.79998779297</ele>
        <time>2012-10-28T07:16:06Z</time>
      </trkpt>
      <trkpt lat="44.15823" lon="3.25728">
        <ele>881.40002441406</ele>
        <time>2012-10-28T07:16:12Z</time>
      </trkpt>
      <trkpt lat="44.15826" lon="3.25756">
        <ele>880</ele>
        <time>2012-10-28T07:16:18Z</time>
      </trkpt>
      <trkpt lat="44.15823" lon="3.25784">
        <ele>878.79998779297</ele>
        <time>2012-10-28T07:16:24Z</time>
      </trkpt>
      <trkpt lat="44.15814" lon="3.25809">
        <ele>877.79998779297</ele>
        <time>2012-10-28T07:16:30Z</time>
      </trkpt>
      <trkpt lat="44.15805" lon="3.25832">
        <ele>876.59997558594</ele>
        <time>2012-10-28T07:16:36Z</time>
      </trkpt>
      <trkpt lat="44.15796" lon="3.25856">
        <ele>875.59997558594</ele>
        <time>2012-10-28T07:16:42Z</time>
      </trkpt>
      <trkpt lat="44.15781" lon="3.25875">
        <ele>874.59997558594</ele>
        <time>2012-10-28T07:16:48Z</time>
      </trkpt>
      <trkpt lat="44.15768" lon="3.25893">
        <ele>873.59997558594</ele>
        <time>2012-10-28T07:16:54Z</time>
      </trkpt>
      <trkpt lat="44.15753" lon="3.2591">
        <ele>872.40002441406</ele>
        <time>2012-10-28T07:17:00Z</time>
      </trkpt>
      <trkpt lat="44.15738" lon="3.25928">
        <ele>871.40002441406</ele>
        <time>2012-10-28T07:17:06Z</time>
      </trkpt>
      <trkpt lat="44.15723" lon="3.25944">
        <ele>870.40002441406</ele>
        <time>2012-10-28T07:17:12Z</time>
      </trkpt>
      <trkpt lat="44.15704" lon="3.25952">
        <ele>869.59997558594</ele>
        <time>2012-10-28T07:17:18Z</time>
      </trkpt>
      <trkpt lat="44.15687" lon="3.25963">
        <ele>868.79998779297</ele>
        <time>2012-10-28T07:17:24Z</time>
      </trkpt>
      <trkpt lat="44.15668" lon="3.25968">
        <ele>867.79998779297</ele>
        <time>2012-10-28T07:17:30Z</time>
      </trkpt>
      <trkpt lat="44.15648" lon="3.25963">
        <ele>867</ele>
        <time>2012-10-28T07:17:37Z</time>
      </trkpt>
      <trkpt lat="44.15629" lon="3.25967">
        <ele>866.40002441406</ele>
        <time>2012-10-28T07:17:43Z</time>
      </trkpt>
      <trkpt lat="44.15612" lon="3.25977">
        <ele>865.79998779297</ele>
        <time>2012-10-28T07:17:49Z</time>
      </trkpt>
      <trkpt lat="44.15594" lon="3.2599">
        <ele>865.20001220703</ele>
        <time>2012-10-28T07:17:56Z</time>
      </trkpt>
      <trkpt lat="44.15581" lon="3.2601">
        <ele>864.79998779297</ele>
        <time>2012-10-28T07:18:02Z</time>
      </trkpt>
      <trkpt lat="44.15568" lon="3.26031">
        <ele>864</ele>
        <time>2012-10-28T07:18:08Z</time>
      </trkpt>
      <trkpt lat="44.15564" lon="3.26057">
        <ele>863.40002441406</ele>
        <time>2012-10-28T07:18:14Z</time>
      </trkpt>
      <trkpt lat="44.15561" lon="3.2607">
        <ele>863</ele>
        <time>2012-10-28T07:18:17Z</time>
      </trkpt>
      <trkpt lat="44.1555" lon="3.26073">
        <ele>862.59997558594</ele>
        <time>2012-10-28T07:18:21Z</time>
      </trkpt>
      <trkpt lat="44.15545" lon="3.26072">
        <ele>862.40002441406</ele>
        <time>2012-10-28T07:18:23Z</time>
      </trkpt>
      <trkpt lat="44.15531" lon="3.26068">
        <ele>862</ele>
        <time>2012-10-28T07:18:28Z</time>
      </trkpt>
      <trkpt lat="44.15513" lon="3.26059">
        <ele>861.59997558594</ele>
        <time>2012-10-28T07:18:35Z</time>
      </trkpt>
      <trkpt lat="44.15497" lon="3.26044">
        <ele>861.20001220703</ele>
        <time>2012-10-28T07:18:42Z</time>
      </trkpt>
      <trkpt lat="44.15481" lon="3.26026">
        <ele>861.20001220703</ele>
        <time>2012-10-28T07:18:49Z</time>
      </trkpt>
      <trkpt lat="44.15464" lon="3.26009">
        <ele>861.20001220703</ele>
        <time>2012-10-28T07:18:56Z</time>
      </trkpt>
      <trkpt lat="44.15448" lon="3.25996">
        <ele>861.40002441406</ele>
        <time>2012-10-28T07:19:03Z</time>
      </trkpt>
      <trkpt lat="44.15433" lon="3.25981">
        <ele>861.79998779297</ele>
        <time>2012-10-28T07:19:10Z</time>
      </trkpt>
      <trkpt lat="44.15418" lon="3.25966">
        <ele>862.20001220703</ele>
        <time>2012-10-28T07:19:17Z</time>
      </trkpt>
      <trkpt lat="44.15403" lon="3.25951">
        <ele>863.20001220703</ele>
        <time>2012-10-28T07:19:24Z</time>
      </trkpt>
      <trkpt lat="44.15385" lon="3.25938">
        <ele>864.59997558594</ele>
        <time>2012-10-28T07:19:32Z</time>
      </trkpt>
      <trkpt lat="44.15367" lon="3.2593">
        <ele>866</ele>
        <time>2012-10-28T07:19:39Z</time>
      </trkpt>
      <trkpt lat="44.15351" lon="3.25914">
        <ele>867.20001220703</ele>
        <time>2012-10-28T07:19:46Z</time>
      </trkpt>
      <trkpt lat="44.15333" lon="3.2591">
        <ele>867.59997558594</ele>
        <time>2012-10-28T07:19:52Z</time>
      </trkpt>
      <trkpt lat="44.15314" lon="3.25919">
        <ele>867.59997558594</ele>
        <time>2012-10-28T07:19:59Z</time>
      </trkpt>
      <trkpt lat="44.15308" lon="3.25925">
        <ele>867.79998779297</ele>
        <time>2012-10-28T07:20:02Z</time>
      </trkpt>
      <trkpt lat="44.15297" lon="3.25922">
        <ele>868.20001220703</ele>
        <time>2012-10-28T07:20:07Z</time>
      </trkpt>
      <trkpt lat="44.15281" lon="3.25907">
        <ele>869</ele>
        <time>2012-10-28T07:20:15Z</time>
      </trkpt>
      <trkpt lat="44.15276" lon="3.25903">
        <ele>869.20001220703</ele>
        <time>2012-10-28T07:20:18Z</time>
      </trkpt>
      <trkpt lat="44.15268" lon="3.25908">
        <ele>869.79998779297</ele>
        <time>2012-10-28T07:20:23Z</time>
      </trkpt>
      <trkpt lat="44.15264" lon="3.2591">
        <ele>870</ele>
        <time>2012-10-28T07:20:25Z</time>
      </trkpt>
      <trkpt lat="44.15263" lon="3.2591">
        <ele>870</ele>
        <time>2012-10-28T07:20:26Z</time>
      </trkpt>
      <trkpt lat="44.15258" lon="3.25904">
        <ele>871.20001220703</ele>
        <time>2012-10-28T07:20:41Z</time>
      </trkpt>
      <trkpt lat="44.15262" lon="3.25911">
        <ele>875</ele>
        <time>2012-10-28T07:21:36Z</time>
      </trkpt>
      <trkpt lat="44.15269" lon="3.25901">
        <ele>874.59997558594</ele>
        <time>2012-10-28T07:21:48Z</time>
      </trkpt>
      <trkpt lat="44.15264" lon="3.25902">
        <ele>874.40002441406</ele>
        <time>2012-10-28T07:21:52Z</time>
      </trkpt>
      <trkpt lat="44.15262" lon="3.25899">
        <ele>874.40002441406</ele>
        <time>2012-10-28T07:21:55Z</time>
      </trkpt>
      <trkpt lat="44.15263" lon="3.25899">
        <ele>874.40002441406</ele>
        <time>2012-10-28T07:21:59Z</time>
      </trkpt>
      <trkpt lat="44.15272" lon="3.25888">
        <ele>874.20001220703</ele>
        <time>2012-10-28T07:22:11Z</time>
      </trkpt>
      <trkpt lat="44.15275" lon="3.25886">
        <ele>874</ele>
        <time>2012-10-28T07:22:13Z</time>
      </trkpt>
      <trkpt lat="44.15286" lon="3.2587">
        <ele>874</ele>
        <time>2012-10-28T07:22:23Z</time>
      </trkpt>
      <trkpt lat="44.15294" lon="3.25847">
        <ele>874.20001220703</ele>
        <time>2012-10-28T07:22:35Z</time>
      </trkpt>
      <trkpt lat="44.1529" lon="3.25822">
        <ele>874.40002441406</ele>
        <time>2012-10-28T07:22:47Z</time>
      </trkpt>
      <trkpt lat="44.15287" lon="3.25796">
        <ele>874.59997558594</ele>
        <time>2012-10-28T07:23:00Z</time>
      </trkpt>
      <trkpt lat="44.15283" lon="3.25771">
        <ele>875.20001220703</ele>
        <time>2012-10-28T07:23:12Z</time>
      </trkpt>
      <trkpt lat="44.15283" lon="3.25769">
        <ele>875.20001220703</ele>
        <time>2012-10-28T07:23:13Z</time>
      </trkpt>
      <trkpt lat="44.15282" lon="3.25744">
        <ele>877.40002441406</ele>
        <time>2012-10-28T07:23:21Z</time>
      </trkpt>
      <trkpt lat="44.15267" lon="3.25736">
        <ele>878.20001220703</ele>
        <time>2012-10-28T07:23:26Z</time>
      </trkpt>
      <trkpt lat="44.15265" lon="3.25733">
        <ele>878.40002441406</ele>
        <time>2012-10-28T07:23:27Z</time>
      </trkpt>
      <trkpt lat="44.15246" lon="3.25725">
        <ele>878.59997558594</ele>
        <time>2012-10-28T07:23:33Z</time>
      </trkpt>
      <trkpt lat="44.15228" lon="3.25723">
        <ele>878.40002441406</ele>
        <time>2012-10-28T07:23:39Z</time>
      </trkpt>
      <trkpt lat="44.15209" lon="3.2572">
        <ele>878</ele>
        <time>2012-10-28T07:23:45Z</time>
      </trkpt>
      <trkpt lat="44.1519" lon="3.25709">
        <ele>877.59997558594</ele>
        <time>2012-10-28T07:23:51Z</time>
      </trkpt>
      <trkpt lat="44.15178" lon="3.25689">
        <ele>877.20001220703</ele>
        <time>2012-10-28T07:23:57Z</time>
      </trkpt>
      <trkpt lat="44.15175" lon="3.25663">
        <ele>876.79998779297</ele>
        <time>2012-10-28T07:24:03Z</time>
      </trkpt>
      <trkpt lat="44.1518" lon="3.25637">
        <ele>876.59997558594</ele>
        <time>2012-10-28T07:24:10Z</time>
      </trkpt>
      <trkpt lat="44.15184" lon="3.2561">
        <ele>876.40002441406</ele>
        <time>2012-10-28T07:24:18Z</time>
      </trkpt>
      <trkpt lat="44.1518" lon="3.25583">
        <ele>876.59997558594</ele>
        <time>2012-10-28T07:24:25Z</time>
      </trkpt>
      <trkpt lat="44.15171" lon="3.25558">
        <ele>876.79998779297</ele>
        <time>2012-10-28T07:24:32Z</time>
      </trkpt>
      <trkpt lat="44.15161" lon="3.25532">
        <ele>876.79998779297</ele>
        <time>2012-10-28T07:24:39Z</time>
      </trkpt>
      <trkpt lat="44.15149" lon="3.2551">
        <ele>877</ele>
        <time>2012-10-28T07:24:46Z</time>
      </trkpt>
      <trkpt lat="44.15133" lon="3.25492">
        <ele>877</ele>
        <time>2012-10-28T07:24:53Z</time>
      </trkpt>
      <trkpt lat="44.1512" lon="3.25472">
        <ele>876.79998779297</ele>
        <time>2012-10-28T07:25:00Z</time>
      </trkpt>
      <trkpt lat="44.15112" lon="3.25447">
        <ele>876.79998779297</ele>
        <time>2012-10-28T07:25:07Z</time>
      </trkpt>
      <trkpt lat="44.15102" lon="3.25422">
        <ele>877.40002441406</ele>
        <time>2012-10-28T07:25:14Z</time>
      </trkpt>
      <trkpt lat="44.1509" lon="3.25399">
        <ele>878.20001220703</ele>
        <time>2012-10-28T07:25:21Z</time>
      </trkpt>
      <trkpt lat="44.1508" lon="3.25375">
        <ele>879</ele>
        <time>2012-10-28T07:25:28Z</time>
      </trkpt>
      <trkpt lat="44.15073" lon="3.25347">
        <ele>879.59997558594</ele>
        <time>2012-10-28T07:25:35Z</time>
      </trkpt>
      <trkpt lat="44.15068" lon="3.25323">
        <ele>879.79998779297</ele>
        <time>2012-10-28T07:25:41Z</time>
      </trkpt>
      <trkpt lat="44.15065" lon="3.25297">
        <ele>879.79998779297</ele>
        <time>2012-10-28T07:25:47Z</time>
      </trkpt>
      <trkpt lat="44.15059" lon="3.25273">
        <ele>880</ele>
        <time>2012-10-28T07:25:53Z</time>
      </trkpt>
      <trkpt lat="44.15054" lon="3.25245">
        <ele>880.20001220703</ele>
        <time>2012-10-28T07:26:00Z</time>
      </trkpt>
      <trkpt lat="44.15049" lon="3.25219">
        <ele>880.40002441406</ele>
        <time>2012-10-28T07:26:07Z</time>
      </trkpt>
      <trkpt lat="44.15041" lon="3.25194">
        <ele>880.79998779297</ele>
        <time>2012-10-28T07:26:14Z</time>
      </trkpt>
      <trkpt lat="44.15036" lon="3.25166">
        <ele>881.20001220703</ele>
        <time>2012-10-28T07:26:21Z</time>
      </trkpt>
      <trkpt lat="44.15033" lon="3.25139">
        <ele>881.59997558594</ele>
        <time>2012-10-28T07:26:28Z</time>
      </trkpt>
      <trkpt lat="44.15028" lon="3.25112">
        <ele>882</ele>
        <time>2012-10-28T07:26:35Z</time>
      </trkpt>
      <trkpt lat="44.15036" lon="3.25087">
        <ele>882</ele>
        <time>2012-10-28T07:26:41Z</time>
      </trkpt>
      <trkpt lat="44.15048" lon="3.25067">
        <ele>882.20001220703</ele>
        <time>2012-10-28T07:26:47Z</time>
      </trkpt>
      <trkpt lat="44.15063" lon="3.2505">
        <ele>882</ele>
        <time>2012-10-28T07:26:53Z</time>
      </trkpt>
      <trkpt lat="44.15082" lon="3.25045">
        <ele>882</ele>
        <time>2012-10-28T07:26:59Z</time>
      </trkpt>
      <trkpt lat="44.15093" lon="3.25042">
        <ele>882</ele>
        <time>2012-10-28T07:27:03Z</time>
      </trkpt>
      <trkpt lat="44.15102" lon="3.25038">
        <ele>882</ele>
        <time>2012-10-28T07:27:06Z</time>
      </trkpt>
      <trkpt lat="44.15121" lon="3.25033">
        <ele>882.40002441406</ele>
        <time>2012-10-28T07:27:13Z</time>
      </trkpt>
      <trkpt lat="44.1514" lon="3.25041">
        <ele>882.59997558594</ele>
        <time>2012-10-28T07:27:20Z</time>
      </trkpt>
      <trkpt lat="44.15144" lon="3.25039">
        <ele>882.79998779297</ele>
        <time>2012-10-28T07:27:22Z</time>
      </trkpt>
      <trkpt lat="44.15151" lon="3.25022">
        <ele>883.20001220703</ele>
        <time>2012-10-28T07:27:28Z</time>
      </trkpt>
      <trkpt lat="44.15154" lon="3.24994">
        <ele>883</ele>
        <time>2012-10-28T07:27:35Z</time>
      </trkpt>
      <trkpt lat="44.1515" lon="3.24968">
        <ele>882.79998779297</ele>
        <time>2012-10-28T07:27:42Z</time>
      </trkpt>
      <trkpt lat="44.1515" lon="3.24943">
        <ele>882.59997558594</ele>
        <time>2012-10-28T07:27:48Z</time>
      </trkpt>
      <trkpt lat="44.15159" lon="3.24917">
        <ele>882.40002441406</ele>
        <time>2012-10-28T07:27:54Z</time>
      </trkpt>
      <trkpt lat="44.15166" lon="3.24889">
        <ele>882.20001220703</ele>
        <time>2012-10-28T07:28:01Z</time>
      </trkpt>
      <trkpt lat="44.15172" lon="3.24866">
        <ele>882.20001220703</ele>
        <time>2012-10-28T07:28:07Z</time>
      </trkpt>
      <trkpt lat="44.15182" lon="3.24841">
        <ele>882.20001220703</ele>
        <time>2012-10-28T07:28:14Z</time>
      </trkpt>
      <trkpt lat="44.15194" lon="3.24822">
        <ele>882</ele>
        <time>2012-10-28T07:28:20Z</time>
      </trkpt>
      <trkpt lat="44.15208" lon="3.24804">
        <ele>881.59997558594</ele>
        <time>2012-10-28T07:28:26Z</time>
      </trkpt>
      <trkpt lat="44.15221" lon="3.24782">
        <ele>881</ele>
        <time>2012-10-28T07:28:33Z</time>
      </trkpt>
      <trkpt lat="44.15218" lon="3.24759">
        <ele>880.40002441406</ele>
        <time>2012-10-28T07:28:39Z</time>
      </trkpt>
      <trkpt lat="44.15216" lon="3.24756">
        <ele>880.20001220703</ele>
        <time>2012-10-28T07:28:40Z</time>
      </trkpt>
      <trkpt lat="44.15208" lon="3.24734">
        <ele>879.40002441406</ele>
        <time>2012-10-28T07:28:46Z</time>
      </trkpt>
      <trkpt lat="44.1521" lon="3.24719">
        <ele>879</ele>
        <time>2012-10-28T07:28:49Z</time>
      </trkpt>
      <trkpt lat="44.15211" lon="3.24706">
        <ele>878.59997558594</ele>
        <time>2012-10-28T07:28:52Z</time>
      </trkpt>
      <trkpt lat="44.1521" lon="3.24679">
        <ele>877.59997558594</ele>
        <time>2012-10-28T07:28:58Z</time>
      </trkpt>
      <trkpt lat="44.15207" lon="3.24651">
        <ele>876.59997558594</ele>
        <time>2012-10-28T07:29:04Z</time>
      </trkpt>
      <trkpt lat="44.15205" lon="3.24623">
        <ele>875.20001220703</ele>
        <time>2012-10-28T07:29:10Z</time>
      </trkpt>
      <trkpt lat="44.15199" lon="3.24597">
        <ele>874</ele>
        <time>2012-10-28T07:29:16Z</time>
      </trkpt>
      <trkpt lat="44.1519" lon="3.24573">
        <ele>872.40002441406</ele>
        <time>2012-10-28T07:29:22Z</time>
      </trkpt>
      <trkpt lat="44.1519" lon="3.24548">
        <ele>871.20001220703</ele>
        <time>2012-10-28T07:29:27Z</time>
      </trkpt>
      <trkpt lat="44.15189" lon="3.24545">
        <ele>871</ele>
        <time>2012-10-28T07:29:28Z</time>
      </trkpt>
      <trkpt lat="44.15188" lon="3.24528">
        <ele>869.59997558594</ele>
        <time>2012-10-28T07:29:33Z</time>
      </trkpt>
      <trkpt lat="44.15187" lon="3.2452">
        <ele>869</ele>
        <time>2012-10-28T07:29:35Z</time>
      </trkpt>
      <trkpt lat="44.15191" lon="3.24495">
        <ele>867.40002441406</ele>
        <time>2012-10-28T07:29:41Z</time>
      </trkpt>
      <trkpt lat="44.152" lon="3.24473">
        <ele>865.79998779297</ele>
        <time>2012-10-28T07:29:48Z</time>
      </trkpt>
      <trkpt lat="44.15199" lon="3.24454">
        <ele>864.59997558594</ele>
        <time>2012-10-28T07:29:53Z</time>
      </trkpt>
      <trkpt lat="44.152" lon="3.24444">
        <ele>864.20001220703</ele>
        <time>2012-10-28T07:29:55Z</time>
      </trkpt>
      <trkpt lat="44.15196" lon="3.24422">
        <ele>863</ele>
        <time>2012-10-28T07:30:00Z</time>
      </trkpt>
      <trkpt lat="44.15193" lon="3.2442">
        <ele>862.79998779297</ele>
        <time>2012-10-28T07:30:01Z</time>
      </trkpt>
      <trkpt lat="44.15184" lon="3.24401">
        <ele>861.40002441406</ele>
        <time>2012-10-28T07:30:07Z</time>
      </trkpt>
      <trkpt lat="44.15184" lon="3.24387">
        <ele>860.79998779297</ele>
        <time>2012-10-28T07:30:10Z</time>
      </trkpt>
      <trkpt lat="44.15185" lon="3.24373">
        <ele>860.20001220703</ele>
        <time>2012-10-28T07:30:13Z</time>
      </trkpt>
      <trkpt lat="44.15179" lon="3.24347">
        <ele>859</ele>
        <time>2012-10-28T07:30:19Z</time>
      </trkpt>
      <trkpt lat="44.15179" lon="3.24319">
        <ele>857.59997558594</ele>
        <time>2012-10-28T07:30:25Z</time>
      </trkpt>
      <trkpt lat="44.15172" lon="3.24295">
        <ele>856.40002441406</ele>
        <time>2012-10-28T07:30:31Z</time>
      </trkpt>
      <trkpt lat="44.15166" lon="3.24276">
        <ele>855.20001220703</ele>
        <time>2012-10-28T07:30:36Z</time>
      </trkpt>
      <trkpt lat="44.15167" lon="3.24272">
        <ele>855</ele>
        <time>2012-10-28T07:30:37Z</time>
      </trkpt>
      <trkpt lat="44.15174" lon="3.24257">
        <ele>853.59997558594</ele>
        <time>2012-10-28T07:30:42Z</time>
      </trkpt>
      <trkpt lat="44.15175" lon="3.2425">
        <ele>853.20001220703</ele>
        <time>2012-10-28T07:30:44Z</time>
      </trkpt>
      <trkpt lat="44.15184" lon="3.24227">
        <ele>850.79998779297</ele>
        <time>2012-10-28T07:30:52Z</time>
      </trkpt>
      <trkpt lat="44.15201" lon="3.24214">
        <ele>848.59997558594</ele>
        <time>2012-10-28T07:30:59Z</time>
      </trkpt>
      <trkpt lat="44.15206" lon="3.24202">
        <ele>847.40002441406</ele>
        <time>2012-10-28T07:31:03Z</time>
      </trkpt>
      <trkpt lat="44.15204" lon="3.24189">
        <ele>846.40002441406</ele>
        <time>2012-10-28T07:31:06Z</time>
      </trkpt>
      <trkpt lat="44.15203" lon="3.24185">
        <ele>846</ele>
        <time>2012-10-28T07:31:07Z</time>
      </trkpt>
      <trkpt lat="44.15199" lon="3.24161">
        <ele>844</ele>
        <time>2012-10-28T07:31:13Z</time>
      </trkpt>
      <trkpt lat="44.15193" lon="3.24133">
        <ele>842.20001220703</ele>
        <time>2012-10-28T07:31:19Z</time>
      </trkpt>
      <trkpt lat="44.1519" lon="3.24105">
        <ele>840.20001220703</ele>
        <time>2012-10-28T07:31:25Z</time>
      </trkpt>
      <trkpt lat="44.15187" lon="3.2408">
        <ele>838.20001220703</ele>
        <time>2012-10-28T07:31:31Z</time>
      </trkpt>
      <trkpt lat="44.15185" lon="3.24074">
        <ele>837.59997558594</ele>
        <time>2012-10-28T07:31:33Z</time>
      </trkpt>
      <trkpt lat="44.15183" lon="3.24053">
        <ele>836</ele>
        <time>2012-10-28T07:31:38Z</time>
      </trkpt>
      <trkpt lat="44.15169" lon="3.24032">
        <ele>834</ele>
        <time>2012-10-28T07:31:44Z</time>
      </trkpt>
      <trkpt lat="44.15161" lon="3.24007">
        <ele>832</ele>
        <time>2012-10-28T07:31:50Z</time>
      </trkpt>
      <trkpt lat="44.15163" lon="3.23991">
        <ele>830.79998779297</ele>
        <time>2012-10-28T07:31:54Z</time>
      </trkpt>
      <trkpt lat="44.15162" lon="3.2398">
        <ele>829.20001220703</ele>
        <time>2012-10-28T07:31:59Z</time>
      </trkpt>
      <trkpt lat="44.15154" lon="3.23957">
        <ele>827.40002441406</ele>
        <time>2012-10-28T07:32:05Z</time>
      </trkpt>
      <trkpt lat="44.15147" lon="3.23932">
        <ele>825</ele>
        <time>2012-10-28T07:32:12Z</time>
      </trkpt>
      <trkpt lat="44.15136" lon="3.23921">
        <ele>823.20001220703</ele>
        <time>2012-10-28T07:32:17Z</time>
      </trkpt>
      <trkpt lat="44.1513" lon="3.2392">
        <ele>822.40002441406</ele>
        <time>2012-10-28T07:32:19Z</time>
      </trkpt>
      <trkpt lat="44.15113" lon="3.23908">
        <ele>820.40002441406</ele>
        <time>2012-10-28T07:32:25Z</time>
      </trkpt>
      <trkpt lat="44.15107" lon="3.23891">
        <ele>818.59997558594</ele>
        <time>2012-10-28T07:32:30Z</time>
      </trkpt>
      <trkpt lat="44.15109" lon="3.23889">
        <ele>818.20001220703</ele>
        <time>2012-10-28T07:32:31Z</time>
      </trkpt>
      <trkpt lat="44.15117" lon="3.23882">
        <ele>816.59997558594</ele>
        <time>2012-10-28T07:32:36Z</time>
      </trkpt>
      <trkpt lat="44.15115" lon="3.23866">
        <ele>815.20001220703</ele>
        <time>2012-10-28T07:32:40Z</time>
      </trkpt>
      <trkpt lat="44.15101" lon="3.23848">
        <ele>812.79998779297</ele>
        <time>2012-10-28T07:32:47Z</time>
      </trkpt>
      <trkpt lat="44.15093" lon="3.23827">
        <ele>810.40002441406</ele>
        <time>2012-10-28T07:32:53Z</time>
      </trkpt>
      <trkpt lat="44.15092" lon="3.23823">
        <ele>810.20001220703</ele>
        <time>2012-10-28T07:32:54Z</time>
      </trkpt>
      <trkpt lat="44.15086" lon="3.23812">
        <ele>808</ele>
        <time>2012-10-28T07:32:59Z</time>
      </trkpt>
      <trkpt lat="44.15081" lon="3.23823">
        <ele>806.20001220703</ele>
        <time>2012-10-28T07:33:04Z</time>
      </trkpt>
      <trkpt lat="44.1508" lon="3.23825">
        <ele>805.79998779297</ele>
        <time>2012-10-28T07:33:05Z</time>
      </trkpt>
      <trkpt lat="44.15079" lon="3.23825">
        <ele>805.40002441406</ele>
        <time>2012-10-28T07:33:06Z</time>
      </trkpt>
      <trkpt lat="44.15073" lon="3.23804">
        <ele>802.40002441406</ele>
        <time>2012-10-28T07:33:16Z</time>
      </trkpt>
      <trkpt lat="44.15059" lon="3.23796">
        <ele>800</ele>
        <time>2012-10-28T07:33:25Z</time>
      </trkpt>
      <trkpt lat="44.15048" lon="3.23808">
        <ele>798.40002441406</ele>
        <time>2012-10-28T07:33:31Z</time>
      </trkpt>
      <trkpt lat="44.15043" lon="3.23812">
        <ele>797.79998779297</ele>
        <time>2012-10-28T07:33:34Z</time>
      </trkpt>
      <trkpt lat="44.15026" lon="3.23822">
        <ele>796</ele>
        <time>2012-10-28T07:33:42Z</time>
      </trkpt>
      <trkpt lat="44.15024" lon="3.23822">
        <ele>795.79998779297</ele>
        <time>2012-10-28T07:33:43Z</time>
      </trkpt>
      <trkpt lat="44.15025" lon="3.23802">
        <ele>794.40002441406</ele>
        <time>2012-10-28T07:33:52Z</time>
      </trkpt>
      <trkpt lat="44.15026" lon="3.23799">
        <ele>794.40002441406</ele>
        <time>2012-10-28T07:33:53Z</time>
      </trkpt>
      <trkpt lat="44.15021" lon="3.23777">
        <ele>793.59997558594</ele>
        <time>2012-10-28T07:34:01Z</time>
      </trkpt>
      <trkpt lat="44.15012" lon="3.23755">
        <ele>793.40002441406</ele>
        <time>2012-10-28T07:34:09Z</time>
      </trkpt>
      <trkpt lat="44.15005" lon="3.23729">
        <ele>793</ele>
        <time>2012-10-28T07:34:18Z</time>
      </trkpt>
      <trkpt lat="44.14999" lon="3.23704">
        <ele>793.20001220703</ele>
        <time>2012-10-28T07:34:28Z</time>
      </trkpt>
      <trkpt lat="44.14995" lon="3.23677">
        <ele>794</ele>
        <time>2012-10-28T07:34:37Z</time>
      </trkpt>
      <trkpt lat="44.14998" lon="3.23651">
        <ele>795.40002441406</ele>
        <time>2012-10-28T07:34:46Z</time>
      </trkpt>
      <trkpt lat="44.14996" lon="3.23624">
        <ele>796.79998779297</ele>
        <time>2012-10-28T07:34:55Z</time>
      </trkpt>
      <trkpt lat="44.14994" lon="3.23606">
        <ele>797.79998779297</ele>
        <time>2012-10-28T07:35:01Z</time>
      </trkpt>
      <trkpt lat="44.14993" lon="3.23596">
        <ele>798.40002441406</ele>
        <time>2012-10-28T07:35:04Z</time>
      </trkpt>
      <trkpt lat="44.14991" lon="3.23586">
        <ele>799</ele>
        <time>2012-10-28T07:35:07Z</time>
      </trkpt>
      <trkpt lat="44.14988" lon="3.23571">
        <ele>799.79998779297</ele>
        <time>2012-10-28T07:35:12Z</time>
      </trkpt>
      <trkpt lat="44.14977" lon="3.23547">
        <ele>800.79998779297</ele>
        <time>2012-10-28T07:35:20Z</time>
      </trkpt>
      <trkpt lat="44.14964" lon="3.23527">
        <ele>801.40002441406</ele>
        <time>2012-10-28T07:35:27Z</time>
      </trkpt>
      <trkpt lat="44.14954" lon="3.23509">
        <ele>802.20001220703</ele>
        <time>2012-10-28T07:35:35Z</time>
      </trkpt>
      <trkpt lat="44.14952" lon="3.23508">
        <ele>802.20001220703</ele>
        <time>2012-10-28T07:35:36Z</time>
      </trkpt>
      <trkpt lat="44.14946" lon="3.23508">
        <ele>802.40002441406</ele>
        <time>2012-10-28T07:35:41Z</time>
      </trkpt>
      <trkpt lat="44.14942" lon="3.2351">
        <ele>802.59997558594</ele>
        <time>2012-10-28T07:35:46Z</time>
      </trkpt>
      <trkpt lat="44.14936" lon="3.23514">
        <ele>802.79998779297</ele>
        <time>2012-10-28T07:35:53Z</time>
      </trkpt>
      <trkpt lat="44.14929" lon="3.23515">
        <ele>803.20001220703</ele>
        <time>2012-10-28T07:35:59Z</time>
      </trkpt>
      <trkpt lat="44.14917" lon="3.23514">
        <ele>804</ele>
        <time>2012-10-28T07:36:11Z</time>
      </trkpt>
      <trkpt lat="44.14899" lon="3.23515">
        <ele>804.59997558594</ele>
        <time>2012-10-28T07:36:20Z</time>
      </trkpt>
      <trkpt lat="44.1488" lon="3.23518">
        <ele>805</ele>
        <time>2012-10-28T07:36:27Z</time>
      </trkpt>
      <trkpt lat="44.14862" lon="3.23514">
        <ele>805.79998779297</ele>
        <time>2012-10-28T07:36:35Z</time>
      </trkpt>
      <trkpt lat="44.14843" lon="3.23511">
        <ele>807.20001220703</ele>
        <time>2012-10-28T07:36:45Z</time>
      </trkpt>
      <trkpt lat="44.14826" lon="3.23521">
        <ele>808.79998779297</ele>
        <time>2012-10-28T07:36:56Z</time>
      </trkpt>
      <trkpt lat="44.14823" lon="3.23522">
        <ele>809.20001220703</ele>
        <time>2012-10-28T07:36:58Z</time>
      </trkpt>
      <trkpt lat="44.14809" lon="3.23514">
        <ele>811.20001220703</ele>
        <time>2012-10-28T07:37:09Z</time>
      </trkpt>
      <trkpt lat="44.14808" lon="3.23513">
        <ele>811.40002441406</ele>
        <time>2012-10-28T07:37:10Z</time>
      </trkpt>
      <trkpt lat="44.148" lon="3.23496">
        <ele>814.40002441406</ele>
        <time>2012-10-28T07:37:22Z</time>
      </trkpt>
      <trkpt lat="44.14798" lon="3.23492">
        <ele>815.20001220703</ele>
        <time>2012-10-28T07:37:25Z</time>
      </trkpt>
      <trkpt lat="44.14782" lon="3.23479">
        <ele>817.59997558594</ele>
        <time>2012-10-28T07:37:34Z</time>
      </trkpt>
      <trkpt lat="44.14779" lon="3.23477">
        <ele>818.20001220703</ele>
        <time>2012-10-28T07:37:36Z</time>
      </trkpt>
      <trkpt lat="44.14764" lon="3.23472">
        <ele>820.40002441406</ele>
        <time>2012-10-28T07:37:44Z</time>
      </trkpt>
      <trkpt lat="44.14751" lon="3.23477">
        <ele>821.79998779297</ele>
        <time>2012-10-28T07:37:51Z</time>
      </trkpt>
      <trkpt lat="44.14745" lon="3.23476">
        <ele>822.40002441406</ele>
        <time>2012-10-28T07:37:54Z</time>
      </trkpt>
      <trkpt lat="44.14727" lon="3.23481">
        <ele>824.59997558594</ele>
        <time>2012-10-28T07:38:04Z</time>
      </trkpt>
      <trkpt lat="44.14709" lon="3.23489">
        <ele>826.59997558594</ele>
        <time>2012-10-28T07:38:14Z</time>
      </trkpt>
      <trkpt lat="44.14705" lon="3.23491">
        <ele>827</ele>
        <time>2012-10-28T07:38:16Z</time>
      </trkpt>
      <trkpt lat="44.14698" lon="3.23498">
        <ele>828</ele>
        <time>2012-10-28T07:38:21Z</time>
      </trkpt>
      <trkpt lat="44.14692" lon="3.23503">
        <ele>828.40002441406</ele>
        <time>2012-10-28T07:38:24Z</time>
      </trkpt>
      <trkpt lat="44.14674" lon="3.23515">
        <ele>829.79998779297</ele>
        <time>2012-10-28T07:38:33Z</time>
      </trkpt>
      <trkpt lat="44.14669" lon="3.23525">
        <ele>830.40002441406</ele>
        <time>2012-10-28T07:38:37Z</time>
      </trkpt>
      <trkpt lat="44.1466" lon="3.23531">
        <ele>831</ele>
        <time>2012-10-28T07:38:42Z</time>
      </trkpt>
      <trkpt lat="44.14655" lon="3.23527">
        <ele>831.40002441406</ele>
        <time>2012-10-28T07:38:44Z</time>
      </trkpt>
      <trkpt lat="44.14647" lon="3.23511">
        <ele>832.20001220703</ele>
        <time>2012-10-28T07:38:49Z</time>
      </trkpt>
      <trkpt lat="44.14645" lon="3.23508">
        <ele>832.40002441406</ele>
        <time>2012-10-28T07:38:50Z</time>
      </trkpt>
      <trkpt lat="44.14631" lon="3.23499">
        <ele>832.59997558594</ele>
        <time>2012-10-28T07:38:55Z</time>
      </trkpt>
      <trkpt lat="44.14629" lon="3.23498">
        <ele>832.59997558594</ele>
        <time>2012-10-28T07:38:56Z</time>
      </trkpt>
      <trkpt lat="44.14609" lon="3.23489">
        <ele>832.59997558594</ele>
        <time>2012-10-28T07:39:03Z</time>
      </trkpt>
      <trkpt lat="44.14605" lon="3.23486">
        <ele>832.59997558594</ele>
        <time>2012-10-28T07:39:05Z</time>
      </trkpt>
      <trkpt lat="44.14597" lon="3.23485">
        <ele>832.40002441406</ele>
        <time>2012-10-28T07:39:08Z</time>
      </trkpt>
      <trkpt lat="44.14593" lon="3.2349">
        <ele>832.40002441406</ele>
        <time>2012-10-28T07:39:10Z</time>
      </trkpt>
      <trkpt lat="44.14585" lon="3.23496">
        <ele>832.20001220703</ele>
        <time>2012-10-28T07:39:13Z</time>
      </trkpt>
      <trkpt lat="44.14576" lon="3.235">
        <ele>832</ele>
        <time>2012-10-28T07:39:16Z</time>
      </trkpt>
      <trkpt lat="44.14558" lon="3.23501">
        <ele>831.40002441406</ele>
        <time>2012-10-28T07:39:22Z</time>
      </trkpt>
      <trkpt lat="44.14537" lon="3.23503">
        <ele>831</ele>
        <time>2012-10-28T07:39:29Z</time>
      </trkpt>
      <trkpt lat="44.14517" lon="3.23511">
        <ele>830.40002441406</ele>
        <time>2012-10-28T07:39:35Z</time>
      </trkpt>
      <trkpt lat="44.14496" lon="3.23516">
        <ele>830</ele>
        <time>2012-10-28T07:39:41Z</time>
      </trkpt>
      <trkpt lat="44.14476" lon="3.2352">
        <ele>829.79998779297</ele>
        <time>2012-10-28T07:39:47Z</time>
      </trkpt>
      <trkpt lat="44.14457" lon="3.23517">
        <ele>829.40002441406</ele>
        <time>2012-10-28T07:39:53Z</time>
      </trkpt>
      <trkpt lat="44.14439" lon="3.23518">
        <ele>829</ele>
        <time>2012-10-28T07:39:59Z</time>
      </trkpt>
      <trkpt lat="44.14418" lon="3.23516">
        <ele>828.59997558594</ele>
        <time>2012-10-28T07:40:05Z</time>
      </trkpt>
      <trkpt lat="44.144" lon="3.23523">
        <ele>828.20001220703</ele>
        <time>2012-10-28T07:40:11Z</time>
      </trkpt>
      <trkpt lat="44.14396" lon="3.23527">
        <ele>828</ele>
        <time>2012-10-28T07:40:13Z</time>
      </trkpt>
      <trkpt lat="44.14383" lon="3.23528">
        <ele>827.59997558594</ele>
        <time>2012-10-28T07:40:17Z</time>
      </trkpt>
      <trkpt lat="44.14365" lon="3.23528">
        <ele>827</ele>
        <time>2012-10-28T07:40:23Z</time>
      </trkpt>
      <trkpt lat="44.14346" lon="3.23527">
        <ele>826.40002441406</ele>
        <time>2012-10-28T07:40:29Z</time>
      </trkpt>
      <trkpt lat="44.14327" lon="3.23522">
        <ele>826</ele>
        <time>2012-10-28T07:40:36Z</time>
      </trkpt>
      <trkpt lat="44.14309" lon="3.23515">
        <ele>825.40002441406</ele>
        <time>2012-10-28T07:40:43Z</time>
      </trkpt>
      <trkpt lat="44.1429" lon="3.23505">
        <ele>825.20001220703</ele>
        <time>2012-10-28T07:40:51Z</time>
      </trkpt>
      <trkpt lat="44.14271" lon="3.235">
        <ele>825.20001220703</ele>
        <time>2012-10-28T07:40:59Z</time>
      </trkpt>
      <trkpt lat="44.14252" lon="3.23496">
        <ele>825.59997558594</ele>
        <time>2012-10-28T07:41:07Z</time>
      </trkpt>
      <trkpt lat="44.14231" lon="3.23494">
        <ele>826.20001220703</ele>
        <time>2012-10-28T07:41:15Z</time>
      </trkpt>
      <trkpt lat="44.14213" lon="3.23499">
        <ele>827</ele>
        <time>2012-10-28T07:41:23Z</time>
      </trkpt>
      <trkpt lat="44.14194" lon="3.23504">
        <ele>828</ele>
        <time>2012-10-28T07:41:30Z</time>
      </trkpt>
      <trkpt lat="44.14177" lon="3.23509">
        <ele>828.79998779297</ele>
        <time>2012-10-28T07:41:37Z</time>
      </trkpt>
      <trkpt lat="44.14167" lon="3.23508">
        <ele>829.20001220703</ele>
        <time>2012-10-28T07:41:41Z</time>
      </trkpt>
      <trkpt lat="44.14159" lon="3.23501">
        <ele>829.79998779297</ele>
        <time>2012-10-28T07:41:45Z</time>
      </trkpt>
      <trkpt lat="44.14141" lon="3.23487">
        <ele>831.20001220703</ele>
        <time>2012-10-28T07:41:53Z</time>
      </trkpt>
      <trkpt lat="44.14122" lon="3.2348">
        <ele>832.79998779297</ele>
        <time>2012-10-28T07:42:01Z</time>
      </trkpt>
      <trkpt lat="44.14105" lon="3.23468">
        <ele>834</ele>
        <time>2012-10-28T07:42:09Z</time>
      </trkpt>
      <trkpt lat="44.14085" lon="3.23467">
        <ele>835.20001220703</ele>
        <time>2012-10-28T07:42:18Z</time>
      </trkpt>
      <trkpt lat="44.14067" lon="3.23465">
        <ele>836</ele>
        <time>2012-10-28T07:42:25Z</time>
      </trkpt>
      <trkpt lat="44.14047" lon="3.23462">
        <ele>837</ele>
        <time>2012-10-28T07:42:33Z</time>
      </trkpt>
      <trkpt lat="44.14029" lon="3.2346">
        <ele>838.40002441406</ele>
        <time>2012-10-28T07:42:41Z</time>
      </trkpt>
      <trkpt lat="44.14009" lon="3.23458">
        <ele>839.79998779297</ele>
        <time>2012-10-28T07:42:48Z</time>
      </trkpt>
      <trkpt lat="44.13989" lon="3.23456">
        <ele>840.79998779297</ele>
        <time>2012-10-28T07:42:55Z</time>
      </trkpt>
      <trkpt lat="44.13971" lon="3.23456">
        <ele>841.20001220703</ele>
        <time>2012-10-28T07:43:01Z</time>
      </trkpt>
      <trkpt lat="44.13952" lon="3.23457">
        <ele>841.20001220703</ele>
        <time>2012-10-28T07:43:07Z</time>
      </trkpt>
      <trkpt lat="44.1394" lon="3.23454">
        <ele>841.20001220703</ele>
        <time>2012-10-28T07:43:11Z</time>
      </trkpt>
      <trkpt lat="44.13937" lon="3.23446">
        <ele>841.20001220703</ele>
        <time>2012-10-28T07:43:13Z</time>
      </trkpt>
      <trkpt lat="44.13936" lon="3.23428">
        <ele>841.20001220703</ele>
        <time>2012-10-28T07:43:17Z</time>
      </trkpt>
      <trkpt lat="44.13937" lon="3.23419">
        <ele>841.20001220703</ele>
        <time>2012-10-28T07:43:19Z</time>
      </trkpt>
      <trkpt lat="44.13939" lon="3.23394">
        <ele>841.59997558594</ele>
        <time>2012-10-28T07:43:25Z</time>
      </trkpt>
      <trkpt lat="44.13935" lon="3.23366">
        <ele>842.40002441406</ele>
        <time>2012-10-28T07:43:32Z</time>
      </trkpt>
      <trkpt lat="44.13918" lon="3.23358">
        <ele>842.20001220703</ele>
        <time>2012-10-28T07:43:38Z</time>
      </trkpt>
      <trkpt lat="44.139" lon="3.23363">
        <ele>842.20001220703</ele>
        <time>2012-10-28T07:43:45Z</time>
      </trkpt>
      <trkpt lat="44.13884" lon="3.23375">
        <ele>841.79998779297</ele>
        <time>2012-10-28T07:43:52Z</time>
      </trkpt>
      <trkpt lat="44.13867" lon="3.23386">
        <ele>841.20001220703</ele>
        <time>2012-10-28T07:43:59Z</time>
      </trkpt>
      <trkpt lat="44.13851" lon="3.23387">
        <ele>840.79998779297</ele>
        <time>2012-10-28T07:44:04Z</time>
      </trkpt>
      <trkpt lat="44.13848" lon="3.23389">
        <ele>840.79998779297</ele>
        <time>2012-10-28T07:44:05Z</time>
      </trkpt>
      <trkpt lat="44.1383" lon="3.23399">
        <ele>840.20001220703</ele>
        <time>2012-10-28T07:44:11Z</time>
      </trkpt>
      <trkpt lat="44.13812" lon="3.23405">
        <ele>839.59997558594</ele>
        <time>2012-10-28T07:44:17Z</time>
      </trkpt>
      <trkpt lat="44.13794" lon="3.23415">
        <ele>839</ele>
        <time>2012-10-28T07:44:23Z</time>
      </trkpt>
      <trkpt lat="44.13784" lon="3.23427">
        <ele>838.40002441406</ele>
        <time>2012-10-28T07:44:28Z</time>
      </trkpt>
      <trkpt lat="44.13779" lon="3.23424">
        <ele>838</ele>
        <time>2012-10-28T07:44:32Z</time>
      </trkpt>
      <trkpt lat="44.13771" lon="3.23416">
        <ele>837.79998779297</ele>
        <time>2012-10-28T07:44:37Z</time>
      </trkpt>
      <trkpt lat="44.13769" lon="3.23412">
        <ele>837.79998779297</ele>
        <time>2012-10-28T07:44:39Z</time>
      </trkpt>
      <trkpt lat="44.13763" lon="3.23411">
        <ele>837.79998779297</ele>
        <time>2012-10-28T07:44:42Z</time>
      </trkpt>
      <trkpt lat="44.13758" lon="3.23401">
        <ele>838</ele>
        <time>2012-10-28T07:44:48Z</time>
      </trkpt>
      <trkpt lat="44.13755" lon="3.23394">
        <ele>838.20001220703</ele>
        <time>2012-10-28T07:44:52Z</time>
      </trkpt>
      <trkpt lat="44.13755" lon="3.23389">
        <ele>838.40002441406</ele>
        <time>2012-10-28T07:44:55Z</time>
      </trkpt>
      <trkpt lat="44.13747" lon="3.23368">
        <ele>839.79998779297</ele>
        <time>2012-10-28T07:45:09Z</time>
      </trkpt>
      <trkpt lat="44.13746" lon="3.23362">
        <ele>840.40002441406</ele>
        <time>2012-10-28T07:45:12Z</time>
      </trkpt>
      <trkpt lat="44.13745" lon="3.23342">
        <ele>842.59997558594</ele>
        <time>2012-10-28T07:45:22Z</time>
      </trkpt>
      <trkpt lat="44.13737" lon="3.2332">
        <ele>846.20001220703</ele>
        <time>2012-10-28T07:45:36Z</time>
      </trkpt>
      <trkpt lat="44.13729" lon="3.23297">
        <ele>849.20001220703</ele>
        <time>2012-10-28T07:45:46Z</time>
      </trkpt>
      <trkpt lat="44.1374" lon="3.23278">
        <ele>851.79998779297</ele>
        <time>2012-10-28T07:45:55Z</time>
      </trkpt>
      <trkpt lat="44.13757" lon="3.23268">
        <ele>853.40002441406</ele>
        <time>2012-10-28T07:46:02Z</time>
      </trkpt>
      <trkpt lat="44.13769" lon="3.23247">
        <ele>855.20001220703</ele>
        <time>2012-10-28T07:46:10Z</time>
      </trkpt>
      <trkpt lat="44.1378" lon="3.23226">
        <ele>856.59997558594</ele>
        <time>2012-10-28T07:46:17Z</time>
      </trkpt>
      <trkpt lat="44.13791" lon="3.23206">
        <ele>857.59997558594</ele>
        <time>2012-10-28T07:46:24Z</time>
      </trkpt>
      <trkpt lat="44.13795" lon="3.23181">
        <ele>857.79998779297</ele>
        <time>2012-10-28T07:46:31Z</time>
      </trkpt>
      <trkpt lat="44.13795" lon="3.23172">
        <ele>857.59997558594</ele>
        <time>2012-10-28T07:46:34Z</time>
      </trkpt>
      <trkpt lat="44.13786" lon="3.23166">
        <ele>857.40002441406</ele>
        <time>2012-10-28T07:46:40Z</time>
      </trkpt>
      <trkpt lat="44.13784" lon="3.23162">
        <ele>857.20001220703</ele>
        <time>2012-10-28T07:46:41Z</time>
      </trkpt>
      <trkpt lat="44.13777" lon="3.2314">
        <ele>856.79998779297</ele>
        <time>2012-10-28T07:46:47Z</time>
      </trkpt>
      <trkpt lat="44.13767" lon="3.23124">
        <ele>856.20001220703</ele>
        <time>2012-10-28T07:46:52Z</time>
      </trkpt>
      <trkpt lat="44.13766" lon="3.2312">
        <ele>856.20001220703</ele>
        <time>2012-10-28T07:46:53Z</time>
      </trkpt>
      <trkpt lat="44.1376" lon="3.23092">
        <ele>855.20001220703</ele>
        <time>2012-10-28T07:46:59Z</time>
      </trkpt>
      <trkpt lat="44.13758" lon="3.23064">
        <ele>854.20001220703</ele>
        <time>2012-10-28T07:47:06Z</time>
      </trkpt>
      <trkpt lat="44.13765" lon="3.2304">
        <ele>853.40002441406</ele>
        <time>2012-10-28T07:47:13Z</time>
      </trkpt>
      <trkpt lat="44.13771" lon="3.23014">
        <ele>852.79998779297</ele>
        <time>2012-10-28T07:47:20Z</time>
      </trkpt>
      <trkpt lat="44.13783" lon="3.23007">
        <ele>852.20001220703</ele>
        <time>2012-10-28T07:47:25Z</time>
      </trkpt>
      <trkpt lat="44.13787" lon="3.23004">
        <ele>852</ele>
        <time>2012-10-28T07:47:27Z</time>
      </trkpt>
      <trkpt lat="44.13806" lon="3.23002">
        <ele>851.59997558594</ele>
        <time>2012-10-28T07:47:35Z</time>
      </trkpt>
      <trkpt lat="44.13822" lon="3.22994">
        <ele>851.20001220703</ele>
        <time>2012-10-28T07:47:43Z</time>
      </trkpt>
      <trkpt lat="44.13836" lon="3.22978">
        <ele>851</ele>
        <time>2012-10-28T07:47:50Z</time>
      </trkpt>
      <trkpt lat="44.13837" lon="3.22975">
        <ele>851</ele>
        <time>2012-10-28T07:47:51Z</time>
      </trkpt>
      <trkpt lat="44.13837" lon="3.2297">
        <ele>850.79998779297</ele>
        <time>2012-10-28T07:47:53Z</time>
      </trkpt>
      <trkpt lat="44.13836" lon="3.22952">
        <ele>850.79998779297</ele>
        <time>2012-10-28T07:48:03Z</time>
      </trkpt>
      <trkpt lat="44.13829" lon="3.22939">
        <ele>850.59997558594</ele>
        <time>2012-10-28T07:48:15Z</time>
      </trkpt>
      <trkpt lat="44.13823" lon="3.2294">
        <ele>850.59997558594</ele>
        <time>2012-10-28T07:48:21Z</time>
      </trkpt>
      <trkpt lat="44.13806" lon="3.22943">
        <ele>850.59997558594</ele>
        <time>2012-10-28T07:48:35Z</time>
      </trkpt>
      <trkpt lat="44.13802" lon="3.22949">
        <ele>852</ele>
        <time>2012-10-28T07:48:47Z</time>
      </trkpt>
      <trkpt lat="44.13799" lon="3.22947">
        <ele>852</ele>
        <time>2012-10-28T07:48:50Z</time>
      </trkpt>
      <trkpt lat="44.13793" lon="3.22946">
        <ele>852</ele>
        <time>2012-10-28T07:48:53Z</time>
      </trkpt>
      <trkpt lat="44.13789" lon="3.22942">
        <ele>852</ele>
        <time>2012-10-28T07:48:56Z</time>
      </trkpt>
      <trkpt lat="44.13777" lon="3.22929">
        <ele>851.20001220703</ele>
        <time>2012-10-28T07:49:05Z</time>
      </trkpt>
      <trkpt lat="44.13778" lon="3.22917">
        <ele>850.79998779297</ele>
        <time>2012-10-28T07:49:11Z</time>
      </trkpt>
      <trkpt lat="44.13779" lon="3.22916">
        <ele>850.59997558594</ele>
        <time>2012-10-28T07:49:12Z</time>
      </trkpt>
      <trkpt lat="44.13785" lon="3.22907">
        <ele>850.40002441406</ele>
        <time>2012-10-28T07:49:17Z</time>
      </trkpt>
      <trkpt lat="44.13786" lon="3.22904">
        <ele>850.20001220703</ele>
        <time>2012-10-28T07:49:18Z</time>
      </trkpt>
      <trkpt lat="44.13787" lon="3.22902">
        <ele>850.20001220703</ele>
        <time>2012-10-28T07:49:19Z</time>
      </trkpt>
      <trkpt lat="44.13775" lon="3.22891">
        <ele>849.79998779297</ele>
        <time>2012-10-28T07:49:24Z</time>
      </trkpt>
      <trkpt lat="44.13768" lon="3.22889">
        <ele>849.59997558594</ele>
        <time>2012-10-28T07:49:26Z</time>
      </trkpt>
      <trkpt lat="44.13756" lon="3.22886">
        <ele>849</ele>
        <time>2012-10-28T07:49:30Z</time>
      </trkpt>
      <trkpt lat="44.13747" lon="3.22874">
        <ele>848.59997558594</ele>
        <time>2012-10-28T07:49:34Z</time>
      </trkpt>
      <trkpt lat="44.13747" lon="3.22864">
        <ele>848</ele>
        <time>2012-10-28T07:49:38Z</time>
      </trkpt>
      <trkpt lat="44.13743" lon="3.22844">
        <ele>846.40002441406</ele>
        <time>2012-10-28T07:49:49Z</time>
      </trkpt>
      <trkpt lat="44.13737" lon="3.22841">
        <ele>846</ele>
        <time>2012-10-28T07:49:52Z</time>
      </trkpt>
      <trkpt lat="44.13736" lon="3.2284">
        <ele>845.79998779297</ele>
        <time>2012-10-28T07:49:53Z</time>
      </trkpt>
      <trkpt lat="44.13728" lon="3.22831">
        <ele>845.40002441406</ele>
        <time>2012-10-28T07:49:57Z</time>
      </trkpt>
      <trkpt lat="44.13726" lon="3.22832">
        <ele>845</ele>
        <time>2012-10-28T07:49:58Z</time>
      </trkpt>
      <trkpt lat="44.1371" lon="3.22825">
        <ele>843.79998779297</ele>
        <time>2012-10-28T07:50:04Z</time>
      </trkpt>
      <trkpt lat="44.13699" lon="3.228">
        <ele>842.59997558594</ele>
        <time>2012-10-28T07:50:10Z</time>
      </trkpt>
      <trkpt lat="44.13688" lon="3.22775">
        <ele>841.59997558594</ele>
        <time>2012-10-28T07:50:16Z</time>
      </trkpt>
      <trkpt lat="44.13684" lon="3.2276">
        <ele>840.79998779297</ele>
        <time>2012-10-28T07:50:20Z</time>
      </trkpt>
      <trkpt lat="44.13689" lon="3.22752">
        <ele>840.20001220703</ele>
        <time>2012-10-28T07:50:23Z</time>
      </trkpt>
      <trkpt lat="44.13699" lon="3.22734">
        <ele>839.20001220703</ele>
        <time>2012-10-28T07:50:28Z</time>
      </trkpt>
      <trkpt lat="44.137" lon="3.22731">
        <ele>839</ele>
        <time>2012-10-28T07:50:29Z</time>
      </trkpt>
      <trkpt lat="44.13707" lon="3.22711">
        <ele>837.79998779297</ele>
        <time>2012-10-28T07:50:34Z</time>
      </trkpt>
      <trkpt lat="44.13708" lon="3.22707">
        <ele>837.79998779297</ele>
        <time>2012-10-28T07:50:35Z</time>
      </trkpt>
      <trkpt lat="44.13707" lon="3.22695">
        <ele>837</ele>
        <time>2012-10-28T07:50:39Z</time>
      </trkpt>
      <trkpt lat="44.13704" lon="3.22683">
        <ele>836.40002441406</ele>
        <time>2012-10-28T07:50:43Z</time>
      </trkpt>
      <trkpt lat="44.13703" lon="3.22674">
        <ele>835.79998779297</ele>
        <time>2012-10-28T07:50:46Z</time>
      </trkpt>
      <trkpt lat="44.13697" lon="3.22657">
        <ele>835</ele>
        <time>2012-10-28T07:50:52Z</time>
      </trkpt>
      <trkpt lat="44.13689" lon="3.22647">
        <ele>834.40002441406</ele>
        <time>2012-10-28T07:50:55Z</time>
      </trkpt>
      <trkpt lat="44.13685" lon="3.22635">
        <ele>833.59997558594</ele>
        <time>2012-10-28T07:50:59Z</time>
      </trkpt>
      <trkpt lat="44.13692" lon="3.22611">
        <ele>832.20001220703</ele>
        <time>2012-10-28T07:51:07Z</time>
      </trkpt>
      <trkpt lat="44.13697" lon="3.22591">
        <ele>831.20001220703</ele>
        <time>2012-10-28T07:51:13Z</time>
      </trkpt>
      <trkpt lat="44.137" lon="3.22583">
        <ele>830.79998779297</ele>
        <time>2012-10-28T07:51:15Z</time>
      </trkpt>
      <trkpt lat="44.13707" lon="3.2256">
        <ele>829.79998779297</ele>
        <time>2012-10-28T07:51:21Z</time>
      </trkpt>
      <trkpt lat="44.13711" lon="3.22534">
        <ele>828.59997558594</ele>
        <time>2012-10-28T07:51:27Z</time>
      </trkpt>
      <trkpt lat="44.13714" lon="3.22507">
        <ele>827.20001220703</ele>
        <time>2012-10-28T07:51:34Z</time>
      </trkpt>
      <trkpt lat="44.13702" lon="3.22489">
        <ele>826.20001220703</ele>
        <time>2012-10-28T07:51:40Z</time>
      </trkpt>
      <trkpt lat="44.13692" lon="3.22483">
        <ele>825.40002441406</ele>
        <time>2012-10-28T07:51:44Z</time>
      </trkpt>
      <trkpt lat="44.13688" lon="3.22482">
        <ele>825</ele>
        <time>2012-10-28T07:51:46Z</time>
      </trkpt>
      <trkpt lat="44.13684" lon="3.22484">
        <ele>824.40002441406</ele>
        <time>2012-10-28T07:51:49Z</time>
      </trkpt>
      <trkpt lat="44.13674" lon="3.22486">
        <ele>822.20001220703</ele>
        <time>2012-10-28T07:52:00Z</time>
      </trkpt>
      <trkpt lat="44.13668" lon="3.22493">
        <ele>821</ele>
        <time>2012-10-28T07:52:07Z</time>
      </trkpt>
      <trkpt lat="44.13659" lon="3.22509">
        <ele>819.40002441406</ele>
        <time>2012-10-28T07:52:21Z</time>
      </trkpt>
      <trkpt lat="44.13657" lon="3.22513">
        <ele>819</ele>
        <time>2012-10-28T07:52:24Z</time>
      </trkpt>
      <trkpt lat="44.13657" lon="3.22514">
        <ele>818.79998779297</ele>
        <time>2012-10-28T07:52:25Z</time>
      </trkpt>
      <trkpt lat="44.13653" lon="3.22516">
        <ele>818.79998779297</ele>
        <time>2012-10-28T07:52:29Z</time>
      </trkpt>
      <trkpt lat="44.13652" lon="3.22517">
        <ele>818.79998779297</ele>
        <time>2012-10-28T07:52:30Z</time>
      </trkpt>
      <trkpt lat="44.1365" lon="3.22518">
        <ele>818.59997558594</ele>
        <time>2012-10-28T07:52:34Z</time>
      </trkpt>
      <trkpt lat="44.13643" lon="3.22527">
        <ele>818.20001220703</ele>
        <time>2012-10-28T07:52:45Z</time>
      </trkpt>
      <trkpt lat="44.13638" lon="3.22534">
        <ele>818.20001220703</ele>
        <time>2012-10-28T07:52:53Z</time>
      </trkpt>
      <trkpt lat="44.13635" lon="3.22537">
        <ele>818.20001220703</ele>
        <time>2012-10-28T07:52:57Z</time>
      </trkpt>
      <trkpt lat="44.13632" lon="3.22545">
        <ele>818.79998779297</ele>
        <time>2012-10-28T07:53:02Z</time>
      </trkpt>
      <trkpt lat="44.13631" lon="3.22546">
        <ele>818.79998779297</ele>
        <time>2012-10-28T07:53:03Z</time>
      </trkpt>
      <trkpt lat="44.13627" lon="3.22546">
        <ele>819.40002441406</ele>
        <time>2012-10-28T07:53:08Z</time>
      </trkpt>
      <trkpt lat="44.13623" lon="3.22553">
        <ele>820.20001220703</ele>
        <time>2012-10-28T07:53:14Z</time>
      </trkpt>
      <trkpt lat="44.1362" lon="3.22562">
        <ele>821.79998779297</ele>
        <time>2012-10-28T07:53:19Z</time>
      </trkpt>
      <trkpt lat="44.1362" lon="3.22563">
        <ele>822</ele>
        <time>2012-10-28T07:53:20Z</time>
      </trkpt>
      <trkpt lat="44.13618" lon="3.22566">
        <ele>823</ele>
        <time>2012-10-28T07:53:23Z</time>
      </trkpt>
      <trkpt lat="44.13616" lon="3.22568">
        <ele>824</ele>
        <time>2012-10-28T07:53:27Z</time>
      </trkpt>
      <trkpt lat="44.13612" lon="3.22571">
        <ele>824.79998779297</ele>
        <time>2012-10-28T07:53:32Z</time>
      </trkpt>
      <trkpt lat="44.13609" lon="3.22581">
        <ele>826.20001220703</ele>
        <time>2012-10-28T07:53:41Z</time>
      </trkpt>
      <trkpt lat="44.13609" lon="3.22595">
        <ele>827.79998779297</ele>
        <time>2012-10-28T07:53:49Z</time>
      </trkpt>
      <trkpt lat="44.13604" lon="3.22604">
        <ele>829.59997558594</ele>
        <time>2012-10-28T07:53:57Z</time>
      </trkpt>
      <trkpt lat="44.13602" lon="3.22604">
        <ele>829.59997558594</ele>
        <time>2012-10-28T07:53:58Z</time>
      </trkpt>
      <trkpt lat="44.13602" lon="3.22604">
        <ele>829.79998779297</ele>
        <time>2012-10-28T07:53:59Z</time>
      </trkpt>
      <trkpt lat="44.13597" lon="3.22615">
        <ele>831.59997558594</ele>
        <time>2012-10-28T07:54:07Z</time>
      </trkpt>
      <trkpt lat="44.13592" lon="3.22622">
        <ele>832.59997558594</ele>
        <time>2012-10-28T07:54:13Z</time>
      </trkpt>
      <trkpt lat="44.13585" lon="3.22635">
        <ele>834.20001220703</ele>
        <time>2012-10-28T07:54:23Z</time>
      </trkpt>
      <trkpt lat="44.1358" lon="3.22639">
        <ele>835</ele>
        <time>2012-10-28T07:54:28Z</time>
      </trkpt>
      <trkpt lat="44.13579" lon="3.2264">
        <ele>835.20001220703</ele>
        <time>2012-10-28T07:54:29Z</time>
      </trkpt>
      <trkpt lat="44.13567" lon="3.22661">
        <ele>837.20001220703</ele>
        <time>2012-10-28T07:54:38Z</time>
      </trkpt>
      <trkpt lat="44.13552" lon="3.22671">
        <ele>840.20001220703</ele>
        <time>2012-10-28T07:54:51Z</time>
      </trkpt>
      <trkpt lat="44.13544" lon="3.22672">
        <ele>841.40002441406</ele>
        <time>2012-10-28T07:54:57Z</time>
      </trkpt>
      <trkpt lat="44.13542" lon="3.22672">
        <ele>841.79998779297</ele>
        <time>2012-10-28T07:54:58Z</time>
      </trkpt>
      <trkpt lat="44.13534" lon="3.22675">
        <ele>842.79998779297</ele>
        <time>2012-10-28T07:55:03Z</time>
      </trkpt>
      <trkpt lat="44.13525" lon="3.22684">
        <ele>844.40002441406</ele>
        <time>2012-10-28T07:55:10Z</time>
      </trkpt>
      <trkpt lat="44.1352" lon="3.22683">
        <ele>844.79998779297</ele>
        <time>2012-10-28T07:55:12Z</time>
      </trkpt>
      <trkpt lat="44.13507" lon="3.2268">
        <ele>846</ele>
        <time>2012-10-28T07:55:18Z</time>
      </trkpt>
      <trkpt lat="44.13501" lon="3.22678">
        <ele>846.59997558594</ele>
        <time>2012-10-28T07:55:21Z</time>
      </trkpt>
      <trkpt lat="44.1349" lon="3.22681">
        <ele>847.40002441406</ele>
        <time>2012-10-28T07:55:27Z</time>
      </trkpt>
      <trkpt lat="44.13482" lon="3.22682">
        <ele>847.79998779297</ele>
        <time>2012-10-28T07:55:30Z</time>
      </trkpt>
      <trkpt lat="44.13475" lon="3.22683">
        <ele>848.20001220703</ele>
        <time>2012-10-28T07:55:33Z</time>
      </trkpt>
      <trkpt lat="44.13464" lon="3.22687">
        <ele>848.79998779297</ele>
        <time>2012-10-28T07:55:38Z</time>
      </trkpt>
      <trkpt lat="44.13446" lon="3.22685">
        <ele>849.40002441406</ele>
        <time>2012-10-28T07:55:45Z</time>
      </trkpt>
      <trkpt lat="44.13443" lon="3.22684">
        <ele>849.40002441406</ele>
        <time>2012-10-28T07:55:46Z</time>
      </trkpt>
      <trkpt lat="44.13426" lon="3.22678">
        <ele>849.59997558594</ele>
        <time>2012-10-28T07:55:52Z</time>
      </trkpt>
      <trkpt lat="44.13407" lon="3.22685">
        <ele>849.79998779297</ele>
        <time>2012-10-28T07:55:59Z</time>
      </trkpt>
      <trkpt lat="44.13391" lon="3.22697">
        <ele>849.79998779297</ele>
        <time>2012-10-28T07:56:05Z</time>
      </trkpt>
      <trkpt lat="44.13374" lon="3.22694">
        <ele>849.79998779297</ele>
        <time>2012-10-28T07:56:11Z</time>
      </trkpt>
      <trkpt lat="44.13355" lon="3.2269">
        <ele>849.59997558594</ele>
        <time>2012-10-28T07:56:17Z</time>
      </trkpt>
      <trkpt lat="44.13335" lon="3.2269">
        <ele>849</ele>
        <time>2012-10-28T07:56:24Z</time>
      </trkpt>
      <trkpt lat="44.13317" lon="3.2269">
        <ele>848.40002441406</ele>
        <time>2012-10-28T07:56:30Z</time>
      </trkpt>
      <trkpt lat="44.13298" lon="3.22693">
        <ele>847.79998779297</ele>
        <time>2012-10-28T07:56:36Z</time>
      </trkpt>
      <trkpt lat="44.13282" lon="3.22703">
        <ele>847</ele>
        <time>2012-10-28T07:56:42Z</time>
      </trkpt>
      <trkpt lat="44.13276" lon="3.22722">
        <ele>846.40002441406</ele>
        <time>2012-10-28T07:56:47Z</time>
      </trkpt>
      <trkpt lat="44.13274" lon="3.22726">
        <ele>846.40002441406</ele>
        <time>2012-10-28T07:56:48Z</time>
      </trkpt>
      <trkpt lat="44.13268" lon="3.22739">
        <ele>846</ele>
        <time>2012-10-28T07:56:52Z</time>
      </trkpt>
      <trkpt lat="44.13264" lon="3.22749">
        <ele>845.79998779297</ele>
        <time>2012-10-28T07:56:55Z</time>
      </trkpt>
      <trkpt lat="44.13263" lon="3.2276">
        <ele>845.59997558594</ele>
        <time>2012-10-28T07:56:59Z</time>
      </trkpt>
      <trkpt lat="44.13265" lon="3.22769">
        <ele>845.20001220703</ele>
        <time>2012-10-28T07:57:05Z</time>
      </trkpt>
      <trkpt lat="44.13268" lon="3.2277">
        <ele>845.20001220703</ele>
        <time>2012-10-28T07:57:09Z</time>
      </trkpt>
      <trkpt lat="44.13269" lon="3.2277">
        <ele>845.20001220703</ele>
        <time>2012-10-28T07:57:10Z</time>
      </trkpt>
      <trkpt lat="44.13272" lon="3.22772">
        <ele>845.20001220703</ele>
        <time>2012-10-28T07:57:13Z</time>
      </trkpt>
      <trkpt lat="44.1328" lon="3.22787">
        <ele>845.40002441406</ele>
        <time>2012-10-28T07:57:20Z</time>
      </trkpt>
      <trkpt lat="44.13282" lon="3.22788">
        <ele>845.40002441406</ele>
        <time>2012-10-28T07:57:21Z</time>
      </trkpt>
      <trkpt lat="44.13285" lon="3.2279">
        <ele>845.59997558594</ele>
        <time>2012-10-28T07:57:23Z</time>
      </trkpt>
      <trkpt lat="44.13281" lon="3.22808">
        <ele>845.59997558594</ele>
        <time>2012-10-28T07:57:29Z</time>
      </trkpt>
      <trkpt lat="44.13284" lon="3.22836">
        <ele>846</ele>
        <time>2012-10-28T07:57:37Z</time>
      </trkpt>
      <trkpt lat="44.13284" lon="3.22839">
        <ele>846</ele>
        <time>2012-10-28T07:57:38Z</time>
      </trkpt>
      <trkpt lat="44.13283" lon="3.2286">
        <ele>846.20001220703</ele>
        <time>2012-10-28T07:57:43Z</time>
      </trkpt>
      <trkpt lat="44.13284" lon="3.22886">
        <ele>846.40002441406</ele>
        <time>2012-10-28T07:57:49Z</time>
      </trkpt>
      <trkpt lat="44.13291" lon="3.22906">
        <ele>846.79998779297</ele>
        <time>2012-10-28T07:57:55Z</time>
      </trkpt>
      <trkpt lat="44.13294" lon="3.22908">
        <ele>846.79998779297</ele>
        <time>2012-10-28T07:57:56Z</time>
      </trkpt>
      <trkpt lat="44.13296" lon="3.22924">
        <ele>846.79998779297</ele>
        <time>2012-10-28T07:58:01Z</time>
      </trkpt>
      <trkpt lat="44.13293" lon="3.2293">
        <ele>846.79998779297</ele>
        <time>2012-10-28T07:58:03Z</time>
      </trkpt>
      <trkpt lat="44.13284" lon="3.22954">
        <ele>846.79998779297</ele>
        <time>2012-10-28T07:58:12Z</time>
      </trkpt>
      <trkpt lat="44.13272" lon="3.22973">
        <ele>846.79998779297</ele>
        <time>2012-10-28T07:58:19Z</time>
      </trkpt>
      <trkpt lat="44.13268" lon="3.22982">
        <ele>846.59997558594</ele>
        <time>2012-10-28T07:58:22Z</time>
      </trkpt>
      <trkpt lat="44.13258" lon="3.22989">
        <ele>846.40002441406</ele>
        <time>2012-10-28T07:58:26Z</time>
      </trkpt>
      <trkpt lat="44.1324" lon="3.23005">
        <ele>846.20001220703</ele>
        <time>2012-10-28T07:58:33Z</time>
      </trkpt>
      <trkpt lat="44.13226" lon="3.23021">
        <ele>845.79998779297</ele>
        <time>2012-10-28T07:58:39Z</time>
      </trkpt>
      <trkpt lat="44.13214" lon="3.2304">
        <ele>845.20001220703</ele>
        <time>2012-10-28T07:58:45Z</time>
      </trkpt>
      <trkpt lat="44.13208" lon="3.23066">
        <ele>844.59997558594</ele>
        <time>2012-10-28T07:58:52Z</time>
      </trkpt>
      <trkpt lat="44.13211" lon="3.23081">
        <ele>844.40002441406</ele>
        <time>2012-10-28T07:58:56Z</time>
      </trkpt>
      <trkpt lat="44.13217" lon="3.23088">
        <ele>844.20001220703</ele>
        <time>2012-10-28T07:58:59Z</time>
      </trkpt>
      <trkpt lat="44.1322" lon="3.23103">
        <ele>843.79998779297</ele>
        <time>2012-10-28T07:59:06Z</time>
      </trkpt>
      <trkpt lat="44.13219" lon="3.23105">
        <ele>843.79998779297</ele>
        <time>2012-10-28T07:59:07Z</time>
      </trkpt>
      <trkpt lat="44.13218" lon="3.23111">
        <ele>843.79998779297</ele>
        <time>2012-10-28T07:59:09Z</time>
      </trkpt>
      <trkpt lat="44.13208" lon="3.23135">
        <ele>843.40002441406</ele>
        <time>2012-10-28T07:59:17Z</time>
      </trkpt>
      <trkpt lat="44.13202" lon="3.23159">
        <ele>843</ele>
        <time>2012-10-28T07:59:24Z</time>
      </trkpt>
      <trkpt lat="44.13189" lon="3.2318">
        <ele>842.40002441406</ele>
        <time>2012-10-28T07:59:32Z</time>
      </trkpt>
      <trkpt lat="44.13187" lon="3.23184">
        <ele>842.20001220703</ele>
        <time>2012-10-28T07:59:34Z</time>
      </trkpt>
      <trkpt lat="44.13178" lon="3.23191">
        <ele>841.79998779297</ele>
        <time>2012-10-28T07:59:38Z</time>
      </trkpt>
      <trkpt lat="44.13173" lon="3.23195">
        <ele>841.59997558594</ele>
        <time>2012-10-28T07:59:40Z</time>
      </trkpt>
      <trkpt lat="44.13163" lon="3.23201">
        <ele>841</ele>
        <time>2012-10-28T07:59:44Z</time>
      </trkpt>
      <trkpt lat="44.13157" lon="3.23211">
        <ele>840.59997558594</ele>
        <time>2012-10-28T07:59:47Z</time>
      </trkpt>
      <trkpt lat="44.13148" lon="3.23232">
        <ele>839.79998779297</ele>
        <time>2012-10-28T07:59:52Z</time>
      </trkpt>
      <trkpt lat="44.13147" lon="3.23236">
        <ele>839.79998779297</ele>
        <time>2012-10-28T07:59:53Z</time>
      </trkpt>
      <trkpt lat="44.1314" lon="3.23261">
        <ele>838.79998779297</ele>
        <time>2012-10-28T07:59:59Z</time>
      </trkpt>
      <trkpt lat="44.13135" lon="3.23277">
        <ele>838</ele>
        <time>2012-10-28T08:00:04Z</time>
      </trkpt>
      <trkpt lat="44.13131" lon="3.23282">
        <ele>837.59997558594</ele>
        <time>2012-10-28T08:00:06Z</time>
      </trkpt>
      <trkpt lat="44.13119" lon="3.23303">
        <ele>836.40002441406</ele>
        <time>2012-10-28T08:00:13Z</time>
      </trkpt>
      <trkpt lat="44.13107" lon="3.23327">
        <ele>835.20001220703</ele>
        <time>2012-10-28T08:00:20Z</time>
      </trkpt>
      <trkpt lat="44.13098" lon="3.2335">
        <ele>834.40002441406</ele>
        <time>2012-10-28T08:00:26Z</time>
      </trkpt>
      <trkpt lat="44.13092" lon="3.23374">
        <ele>833.59997558594</ele>
        <time>2012-10-28T08:00:32Z</time>
      </trkpt>
      <trkpt lat="44.13077" lon="3.23388">
        <ele>832.79998779297</ele>
        <time>2012-10-28T08:00:38Z</time>
      </trkpt>
      <trkpt lat="44.13058" lon="3.23393">
        <ele>832</ele>
        <time>2012-10-28T08:00:44Z</time>
      </trkpt>
      <trkpt lat="44.13046" lon="3.23397">
        <ele>831.59997558594</ele>
        <time>2012-10-28T08:00:48Z</time>
      </trkpt>
      <trkpt lat="44.13037" lon="3.23396">
        <ele>831.20001220703</ele>
        <time>2012-10-28T08:00:51Z</time>
      </trkpt>
      <trkpt lat="44.13018" lon="3.23401">
        <ele>830.20001220703</ele>
        <time>2012-10-28T08:00:58Z</time>
      </trkpt>
      <trkpt lat="44.13012" lon="3.23403">
        <ele>830</ele>
        <time>2012-10-28T08:01:00Z</time>
      </trkpt>
      <trkpt lat="44.13" lon="3.23409">
        <ele>829.40002441406</ele>
        <time>2012-10-28T08:01:05Z</time>
      </trkpt>
      <trkpt lat="44.12986" lon="3.23429">
        <ele>828.40002441406</ele>
        <time>2012-10-28T08:01:12Z</time>
      </trkpt>
      <trkpt lat="44.12973" lon="3.23448">
        <ele>827.59997558594</ele>
        <time>2012-10-28T08:01:18Z</time>
      </trkpt>
      <trkpt lat="44.12959" lon="3.23466">
        <ele>826.79998779297</ele>
        <time>2012-10-28T08:01:24Z</time>
      </trkpt>
      <trkpt lat="44.12943" lon="3.23482">
        <ele>826</ele>
        <time>2012-10-28T08:01:30Z</time>
      </trkpt>
      <trkpt lat="44.12928" lon="3.23498">
        <ele>825.20001220703</ele>
        <time>2012-10-28T08:01:36Z</time>
      </trkpt>
      <trkpt lat="44.12913" lon="3.23512">
        <ele>824.20001220703</ele>
        <time>2012-10-28T08:01:42Z</time>
      </trkpt>
      <trkpt lat="44.12895" lon="3.23519">
        <ele>823.40002441406</ele>
        <time>2012-10-28T08:01:48Z</time>
      </trkpt>
      <trkpt lat="44.12877" lon="3.23522">
        <ele>822.59997558594</ele>
        <time>2012-10-28T08:01:54Z</time>
      </trkpt>
      <trkpt lat="44.12859" lon="3.23528">
        <ele>821.40002441406</ele>
        <time>2012-10-28T08:02:01Z</time>
      </trkpt>
      <trkpt lat="44.12841" lon="3.23543">
        <ele>820.40002441406</ele>
        <time>2012-10-28T08:02:08Z</time>
      </trkpt>
      <trkpt lat="44.12825" lon="3.23557">
        <ele>819.20001220703</ele>
        <time>2012-10-28T08:02:15Z</time>
      </trkpt>
      <trkpt lat="44.12811" lon="3.23574">
        <ele>818</ele>
        <time>2012-10-28T08:02:22Z</time>
      </trkpt>
      <trkpt lat="44.12794" lon="3.2359">
        <ele>817.20001220703</ele>
        <time>2012-10-28T08:02:29Z</time>
      </trkpt>
      <trkpt lat="44.1279" lon="3.23593">
        <ele>816.79998779297</ele>
        <time>2012-10-28T08:02:32Z</time>
      </trkpt>
      <trkpt lat="44.12776" lon="3.23598">
        <ele>815.59997558594</ele>
        <time>2012-10-28T08:02:41Z</time>
      </trkpt>
      <trkpt lat="44.12774" lon="3.23599">
        <ele>815.40002441406</ele>
        <time>2012-10-28T08:02:42Z</time>
      </trkpt>
      <trkpt lat="44.1277" lon="3.23599">
        <ele>815.20001220703</ele>
        <time>2012-10-28T08:02:44Z</time>
      </trkpt>
      <trkpt lat="44.12764" lon="3.23605">
        <ele>814.20001220703</ele>
        <time>2012-10-28T08:02:49Z</time>
      </trkpt>
      <trkpt lat="44.12759" lon="3.23607">
        <ele>813.59997558594</ele>
        <time>2012-10-28T08:02:52Z</time>
      </trkpt>
      <trkpt lat="44.12757" lon="3.23607">
        <ele>813.40002441406</ele>
        <time>2012-10-28T08:02:53Z</time>
      </trkpt>
      <trkpt lat="44.12753" lon="3.23611">
        <ele>812.59997558594</ele>
        <time>2012-10-28T08:02:58Z</time>
      </trkpt>
      <trkpt lat="44.12753" lon="3.23612">
        <ele>812.20001220703</ele>
        <time>2012-10-28T08:03:00Z</time>
      </trkpt>
      <trkpt lat="44.1275" lon="3.23614">
        <ele>812</ele>
        <time>2012-10-28T08:03:02Z</time>
      </trkpt>
      <trkpt lat="44.12746" lon="3.23618">
        <ele>811.20001220703</ele>
        <time>2012-10-28T08:03:06Z</time>
      </trkpt>
      <trkpt lat="44.12744" lon="3.2362">
        <ele>811</ele>
        <time>2012-10-28T08:03:07Z</time>
      </trkpt>
      <trkpt lat="44.12742" lon="3.2362">
        <ele>811</ele>
        <time>2012-10-28T08:03:08Z</time>
      </trkpt>
      <trkpt lat="44.12737" lon="3.23621">
        <ele>810.40002441406</ele>
        <time>2012-10-28T08:03:13Z</time>
      </trkpt>
      <trkpt lat="44.1273" lon="3.23618">
        <ele>809.59997558594</ele>
        <time>2012-10-28T08:03:18Z</time>
      </trkpt>
      <trkpt lat="44.12726" lon="3.23622">
        <ele>809</ele>
        <time>2012-10-28T08:03:21Z</time>
      </trkpt>
      <trkpt lat="44.12708" lon="3.23634">
        <ele>807.40002441406</ele>
        <time>2012-10-28T08:03:30Z</time>
      </trkpt>
      <trkpt lat="44.12706" lon="3.23637">
        <ele>807.20001220703</ele>
        <time>2012-10-28T08:03:31Z</time>
      </trkpt>
      <trkpt lat="44.12697" lon="3.23646">
        <ele>806.40002441406</ele>
        <time>2012-10-28T08:03:35Z</time>
      </trkpt>
      <trkpt lat="44.12692" lon="3.23646">
        <ele>806</ele>
        <time>2012-10-28T08:03:37Z</time>
      </trkpt>
      <trkpt lat="44.12677" lon="3.23652">
        <ele>805</ele>
        <time>2012-10-28T08:03:42Z</time>
      </trkpt>
      <trkpt lat="44.12674" lon="3.23653">
        <ele>804.79998779297</ele>
        <time>2012-10-28T08:03:43Z</time>
      </trkpt>
      <trkpt lat="44.12657" lon="3.23663">
        <ele>803.40002441406</ele>
        <time>2012-10-28T08:03:50Z</time>
      </trkpt>
      <trkpt lat="44.12639" lon="3.23677">
        <ele>801.59997558594</ele>
        <time>2012-10-28T08:03:58Z</time>
      </trkpt>
      <trkpt lat="44.12637" lon="3.23677">
        <ele>801.40002441406</ele>
        <time>2012-10-28T08:03:59Z</time>
      </trkpt>
      <trkpt lat="44.12634" lon="3.23678">
        <ele>800.79998779297</ele>
        <time>2012-10-28T08:04:01Z</time>
      </trkpt>
      <trkpt lat="44.12627" lon="3.23685">
        <ele>799.79998779297</ele>
        <time>2012-10-28T08:04:05Z</time>
      </trkpt>
      <trkpt lat="44.12623" lon="3.23687">
        <ele>799.40002441406</ele>
        <time>2012-10-28T08:04:07Z</time>
      </trkpt>
      <trkpt lat="44.12616" lon="3.23694">
        <ele>797.40002441406</ele>
        <time>2012-10-28T08:04:13Z</time>
      </trkpt>
      <trkpt lat="44.12615" lon="3.23685">
        <ele>796</ele>
        <time>2012-10-28T08:04:17Z</time>
      </trkpt>
      <trkpt lat="44.12616" lon="3.23683">
        <ele>795.59997558594</ele>
        <time>2012-10-28T08:04:18Z</time>
      </trkpt>
      <trkpt lat="44.12616" lon="3.2368">
        <ele>795.20001220703</ele>
        <time>2012-10-28T08:04:19Z</time>
      </trkpt>
      <trkpt lat="44.12612" lon="3.23673">
        <ele>792.79998779297</ele>
        <time>2012-10-28T08:04:26Z</time>
      </trkpt>
      <trkpt lat="44.12604" lon="3.23672">
        <ele>791</ele>
        <time>2012-10-28T08:04:31Z</time>
      </trkpt>
      <trkpt lat="44.12602" lon="3.23672">
        <ele>790.59997558594</ele>
        <time>2012-10-28T08:04:32Z</time>
      </trkpt>
      <trkpt lat="44.12588" lon="3.23685">
        <ele>787</ele>
        <time>2012-10-28T08:04:41Z</time>
      </trkpt>
      <trkpt lat="44.1258" lon="3.23708">
        <ele>783.79998779297</ele>
        <time>2012-10-28T08:04:49Z</time>
      </trkpt>
      <trkpt lat="44.12574" lon="3.23718">
        <ele>781.40002441406</ele>
        <time>2012-10-28T08:04:55Z</time>
      </trkpt>
      <trkpt lat="44.12573" lon="3.23719">
        <ele>781</ele>
        <time>2012-10-28T08:04:56Z</time>
      </trkpt>
      <trkpt lat="44.12569" lon="3.23729">
        <ele>778.79998779297</ele>
        <time>2012-10-28T08:05:02Z</time>
      </trkpt>
      <trkpt lat="44.12569" lon="3.23732">
        <ele>777.79998779297</ele>
        <time>2012-10-28T08:05:04Z</time>
      </trkpt>
      <trkpt lat="44.12568" lon="3.23733">
        <ele>777.40002441406</ele>
        <time>2012-10-28T08:05:05Z</time>
      </trkpt>
      <trkpt lat="44.1256" lon="3.23747">
        <ele>773.79998779297</ele>
        <time>2012-10-28T08:05:14Z</time>
      </trkpt>
      <trkpt lat="44.12558" lon="3.23749">
        <ele>773.40002441406</ele>
        <time>2012-10-28T08:05:15Z</time>
      </trkpt>
      <trkpt lat="44.12557" lon="3.23753">
        <ele>773</ele>
        <time>2012-10-28T08:05:16Z</time>
      </trkpt>
      <trkpt lat="44.12557" lon="3.23766">
        <ele>771.40002441406</ele>
        <time>2012-10-28T08:05:20Z</time>
      </trkpt>
      <trkpt lat="44.12556" lon="3.23768">
        <ele>771</ele>
        <time>2012-10-28T08:05:21Z</time>
      </trkpt>
      <trkpt lat="44.12554" lon="3.23773">
        <ele>769.59997558594</ele>
        <time>2012-10-28T08:05:24Z</time>
      </trkpt>
      <trkpt lat="44.12547" lon="3.23796">
        <ele>765.59997558594</ele>
        <time>2012-10-28T08:05:34Z</time>
      </trkpt>
      <trkpt lat="44.12546" lon="3.23798">
        <ele>765.20001220703</ele>
        <time>2012-10-28T08:05:35Z</time>
      </trkpt>
      <trkpt lat="44.1254" lon="3.23806">
        <ele>763.40002441406</ele>
        <time>2012-10-28T08:05:39Z</time>
      </trkpt>
      <trkpt lat="44.12536" lon="3.23817">
        <ele>761.79998779297</ele>
        <time>2012-10-28T08:05:43Z</time>
      </trkpt>
      <trkpt lat="44.12527" lon="3.2383">
        <ele>759.79998779297</ele>
        <time>2012-10-28T08:05:48Z</time>
      </trkpt>
      <trkpt lat="44.12523" lon="3.23836">
        <ele>758.59997558594</ele>
        <time>2012-10-28T08:05:51Z</time>
      </trkpt>
      <trkpt lat="44.1252" lon="3.23847">
        <ele>757</ele>
        <time>2012-10-28T08:05:55Z</time>
      </trkpt>
      <trkpt lat="44.12517" lon="3.23857">
        <ele>755.79998779297</ele>
        <time>2012-10-28T08:05:58Z</time>
      </trkpt>
      <trkpt lat="44.12516" lon="3.2386">
        <ele>755.40002441406</ele>
        <time>2012-10-28T08:05:59Z</time>
      </trkpt>
      <trkpt lat="44.12506" lon="3.23877">
        <ele>752</ele>
        <time>2012-10-28T08:06:07Z</time>
      </trkpt>
      <trkpt lat="44.12505" lon="3.23881">
        <ele>751.20001220703</ele>
        <time>2012-10-28T08:06:09Z</time>
      </trkpt>
      <trkpt lat="44.12503" lon="3.23888">
        <ele>750.40002441406</ele>
        <time>2012-10-28T08:06:11Z</time>
      </trkpt>
      <trkpt lat="44.12498" lon="3.23905">
        <ele>748.40002441406</ele>
        <time>2012-10-28T08:06:16Z</time>
      </trkpt>
      <trkpt lat="44.12501" lon="3.23931">
        <ele>745.79998779297</ele>
        <time>2012-10-28T08:06:23Z</time>
      </trkpt>
      <trkpt lat="44.12503" lon="3.23933">
        <ele>745.40002441406</ele>
        <time>2012-10-28T08:06:24Z</time>
      </trkpt>
      <trkpt lat="44.12518" lon="3.23941">
        <ele>742</ele>
        <time>2012-10-28T08:06:32Z</time>
      </trkpt>
      <trkpt lat="44.12535" lon="3.23937">
        <ele>738.59997558594</ele>
        <time>2012-10-28T08:06:40Z</time>
      </trkpt>
      <trkpt lat="44.12553" lon="3.23929">
        <ele>735</ele>
        <time>2012-10-28T08:06:49Z</time>
      </trkpt>
      <trkpt lat="44.12564" lon="3.23929">
        <ele>733.59997558594</ele>
        <time>2012-10-28T08:06:53Z</time>
      </trkpt>
      <trkpt lat="44.12572" lon="3.23933">
        <ele>732.40002441406</ele>
        <time>2012-10-28T08:06:56Z</time>
      </trkpt>
      <trkpt lat="44.1259" lon="3.23939">
        <ele>729.59997558594</ele>
        <time>2012-10-28T08:07:04Z</time>
      </trkpt>
      <trkpt lat="44.12599" lon="3.23944">
        <ele>728.20001220703</ele>
        <time>2012-10-28T08:07:08Z</time>
      </trkpt>
      <trkpt lat="44.12609" lon="3.23946">
        <ele>727.20001220703</ele>
        <time>2012-10-28T08:07:11Z</time>
      </trkpt>
      <trkpt lat="44.12627" lon="3.23952">
        <ele>725</ele>
        <time>2012-10-28T08:07:18Z</time>
      </trkpt>
      <trkpt lat="44.12646" lon="3.23951">
        <ele>721.79998779297</ele>
        <time>2012-10-28T08:07:27Z</time>
      </trkpt>
      <trkpt lat="44.12664" lon="3.23958">
        <ele>718.40002441406</ele>
        <time>2012-10-28T08:07:37Z</time>
      </trkpt>
      <trkpt lat="44.1268" lon="3.23969">
        <ele>715.40002441406</ele>
        <time>2012-10-28T08:07:45Z</time>
      </trkpt>
      <trkpt lat="44.12698" lon="3.23977">
        <ele>712.59997558594</ele>
        <time>2012-10-28T08:07:53Z</time>
      </trkpt>
      <trkpt lat="44.12709" lon="3.2399">
        <ele>710</ele>
        <time>2012-10-28T08:08:00Z</time>
      </trkpt>
      <trkpt lat="44.12712" lon="3.23993">
        <ele>709.40002441406</ele>
        <time>2012-10-28T08:08:01Z</time>
      </trkpt>
      <trkpt lat="44.12724" lon="3.2401">
        <ele>706.40002441406</ele>
        <time>2012-10-28T08:08:08Z</time>
      </trkpt>
      <trkpt lat="44.12723" lon="3.24019">
        <ele>705.59997558594</ele>
        <time>2012-10-28T08:08:10Z</time>
      </trkpt>
      <trkpt lat="44.1272" lon="3.24037">
        <ele>704</ele>
        <time>2012-10-28T08:08:14Z</time>
      </trkpt>
      <trkpt lat="44.12715" lon="3.24063">
        <ele>702.20001220703</ele>
        <time>2012-10-28T08:08:19Z</time>
      </trkpt>
      <trkpt lat="44.12711" lon="3.24087">
        <ele>700.40002441406</ele>
        <time>2012-10-28T08:08:24Z</time>
      </trkpt>
      <trkpt lat="44.1271" lon="3.24106">
        <ele>697.59997558594</ele>
        <time>2012-10-28T08:08:31Z</time>
      </trkpt>
      <trkpt lat="44.12712" lon="3.24114">
        <ele>696.59997558594</ele>
        <time>2012-10-28T08:08:34Z</time>
      </trkpt>
      <trkpt lat="44.12717" lon="3.2412">
        <ele>695</ele>
        <time>2012-10-28T08:08:38Z</time>
      </trkpt>
      <trkpt lat="44.12729" lon="3.24128">
        <ele>692.79998779297</ele>
        <time>2012-10-28T08:08:43Z</time>
      </trkpt>
      <trkpt lat="44.12734" lon="3.24134">
        <ele>691.59997558594</ele>
        <time>2012-10-28T08:08:46Z</time>
      </trkpt>
      <trkpt lat="44.12744" lon="3.24139">
        <ele>687</ele>
        <time>2012-10-28T08:08:57Z</time>
      </trkpt>
      <trkpt lat="44.12746" lon="3.24139">
        <ele>686.59997558594</ele>
        <time>2012-10-28T08:08:58Z</time>
      </trkpt>
      <trkpt lat="44.12753" lon="3.24141">
        <ele>683.59997558594</ele>
        <time>2012-10-28T08:09:05Z</time>
      </trkpt>
      <trkpt lat="44.12764" lon="3.24138">
        <ele>681.59997558594</ele>
        <time>2012-10-28T08:09:10Z</time>
      </trkpt>
      <trkpt lat="44.12782" lon="3.24127">
        <ele>678.59997558594</ele>
        <time>2012-10-28T08:09:17Z</time>
      </trkpt>
      <trkpt lat="44.12795" lon="3.24125">
        <ele>675.79998779297</ele>
        <time>2012-10-28T08:09:24Z</time>
      </trkpt>
      <trkpt lat="44.12791" lon="3.24129">
        <ele>674.79998779297</ele>
        <time>2012-10-28T08:09:26Z</time>
      </trkpt>
      <trkpt lat="44.12779" lon="3.24143">
        <ele>672.59997558594</ele>
        <time>2012-10-28T08:09:31Z</time>
      </trkpt>
      <trkpt lat="44.12777" lon="3.24146">
        <ele>672.20001220703</ele>
        <time>2012-10-28T08:09:32Z</time>
      </trkpt>
      <trkpt lat="44.12763" lon="3.24165">
        <ele>669.59997558594</ele>
        <time>2012-10-28T08:09:38Z</time>
      </trkpt>
      <trkpt lat="44.12745" lon="3.24175">
        <ele>666.79998779297</ele>
        <time>2012-10-28T08:09:44Z</time>
      </trkpt>
      <trkpt lat="44.12725" lon="3.24176">
        <ele>664.20001220703</ele>
        <time>2012-10-28T08:09:50Z</time>
      </trkpt>
      <trkpt lat="44.12706" lon="3.24173">
        <ele>661.59997558594</ele>
        <time>2012-10-28T08:09:56Z</time>
      </trkpt>
      <trkpt lat="44.12686" lon="3.24171">
        <ele>659</ele>
        <time>2012-10-28T08:10:02Z</time>
      </trkpt>
      <trkpt lat="44.12667" lon="3.24164">
        <ele>656.59997558594</ele>
        <time>2012-10-28T08:10:08Z</time>
      </trkpt>
      <trkpt lat="44.12649" lon="3.24151">
        <ele>654.20001220703</ele>
        <time>2012-10-28T08:10:14Z</time>
      </trkpt>
      <trkpt lat="44.12645" lon="3.24124">
        <ele>652</ele>
        <time>2012-10-28T08:10:21Z</time>
      </trkpt>
      <trkpt lat="44.12644" lon="3.24096">
        <ele>650</ele>
        <time>2012-10-28T08:10:28Z</time>
      </trkpt>
      <trkpt lat="44.12629" lon="3.24085">
        <ele>648.40002441406</ele>
        <time>2012-10-28T08:10:34Z</time>
      </trkpt>
      <trkpt lat="44.12611" lon="3.24077">
        <ele>646.79998779297</ele>
        <time>2012-10-28T08:10:40Z</time>
      </trkpt>
      <trkpt lat="44.12592" lon="3.24081">
        <ele>644.79998779297</ele>
        <time>2012-10-28T08:10:47Z</time>
      </trkpt>
      <trkpt lat="44.12574" lon="3.24082">
        <ele>643.20001220703</ele>
        <time>2012-10-28T08:10:53Z</time>
      </trkpt>
      <trkpt lat="44.12555" lon="3.24083">
        <ele>641.59997558594</ele>
        <time>2012-10-28T08:10:59Z</time>
      </trkpt>
      <trkpt lat="44.12537" lon="3.24087">
        <ele>640</ele>
        <time>2012-10-28T08:11:05Z</time>
      </trkpt>
      <trkpt lat="44.12518" lon="3.24093">
        <ele>638.40002441406</ele>
        <time>2012-10-28T08:11:11Z</time>
      </trkpt>
      <trkpt lat="44.12498" lon="3.24099">
        <ele>636.59997558594</ele>
        <time>2012-10-28T08:11:18Z</time>
      </trkpt>
      <trkpt lat="44.12481" lon="3.24102">
        <ele>635</ele>
        <time>2012-10-28T08:11:24Z</time>
      </trkpt>
      <trkpt lat="44.12463" lon="3.24101">
        <ele>633.59997558594</ele>
        <time>2012-10-28T08:11:30Z</time>
      </trkpt>
      <trkpt lat="44.12444" lon="3.24101">
        <ele>632.20001220703</ele>
        <time>2012-10-28T08:11:36Z</time>
      </trkpt>
      <trkpt lat="44.12425" lon="3.24103">
        <ele>630.59997558594</ele>
        <time>2012-10-28T08:11:42Z</time>
      </trkpt>
      <trkpt lat="44.12406" lon="3.24103">
        <ele>629.20001220703</ele>
        <time>2012-10-28T08:11:48Z</time>
      </trkpt>
      <trkpt lat="44.12387" lon="3.24094">
        <ele>627.59997558594</ele>
        <time>2012-10-28T08:11:54Z</time>
      </trkpt>
      <trkpt lat="44.12372" lon="3.24077">
        <ele>626.20001220703</ele>
        <time>2012-10-28T08:12:00Z</time>
      </trkpt>
      <trkpt lat="44.12357" lon="3.24062">
        <ele>624.79998779297</ele>
        <time>2012-10-28T08:12:06Z</time>
      </trkpt>
      <trkpt lat="44.12341" lon="3.24047">
        <ele>623.40002441406</ele>
        <time>2012-10-28T08:12:12Z</time>
      </trkpt>
      <trkpt lat="44.12332" lon="3.24024">
        <ele>622.20001220703</ele>
        <time>2012-10-28T08:12:18Z</time>
      </trkpt>
      <trkpt lat="44.12327" lon="3.23997">
        <ele>620.79998779297</ele>
        <time>2012-10-28T08:12:25Z</time>
      </trkpt>
      <trkpt lat="44.12325" lon="3.23971">
        <ele>619.79998779297</ele>
        <time>2012-10-28T08:12:31Z</time>
      </trkpt>
      <trkpt lat="44.12321" lon="3.23943">
        <ele>618.59997558594</ele>
        <time>2012-10-28T08:12:37Z</time>
      </trkpt>
      <trkpt lat="44.12319" lon="3.23916">
        <ele>617.40002441406</ele>
        <time>2012-10-28T08:12:43Z</time>
      </trkpt>
      <trkpt lat="44.12317" lon="3.23891">
        <ele>616.20001220703</ele>
        <time>2012-10-28T08:12:49Z</time>
      </trkpt>
      <trkpt lat="44.12314" lon="3.23865">
        <ele>615</ele>
        <time>2012-10-28T08:12:55Z</time>
      </trkpt>
      <trkpt lat="44.12312" lon="3.23837">
        <ele>613.79998779297</ele>
        <time>2012-10-28T08:13:02Z</time>
      </trkpt>
      <trkpt lat="44.12314" lon="3.23816">
        <ele>613</ele>
        <time>2012-10-28T08:13:07Z</time>
      </trkpt>
      <trkpt lat="44.12314" lon="3.23812">
        <ele>612.79998779297</ele>
        <time>2012-10-28T08:13:08Z</time>
      </trkpt>
      <trkpt lat="44.12317" lon="3.23787">
        <ele>611.59997558594</ele>
        <time>2012-10-28T08:13:14Z</time>
      </trkpt>
      <trkpt lat="44.12314" lon="3.2376">
        <ele>610.40002441406</ele>
        <time>2012-10-28T08:13:20Z</time>
      </trkpt>
      <trkpt lat="44.12305" lon="3.23735">
        <ele>609.20001220703</ele>
        <time>2012-10-28T08:13:27Z</time>
      </trkpt>
      <trkpt lat="44.123" lon="3.23711">
        <ele>607.79998779297</ele>
        <time>2012-10-28T08:13:34Z</time>
      </trkpt>
      <trkpt lat="44.12294" lon="3.23687">
        <ele>606.59997558594</ele>
        <time>2012-10-28T08:13:40Z</time>
      </trkpt>
      <trkpt lat="44.12294" lon="3.23679">
        <ele>606.20001220703</ele>
        <time>2012-10-28T08:13:42Z</time>
      </trkpt>
      <trkpt lat="44.12292" lon="3.23662">
        <ele>605.40002441406</ele>
        <time>2012-10-28T08:13:46Z</time>
      </trkpt>
      <trkpt lat="44.12292" lon="3.23636">
        <ele>604.40002441406</ele>
        <time>2012-10-28T08:13:52Z</time>
      </trkpt>
      <trkpt lat="44.12291" lon="3.2361">
        <ele>603.20001220703</ele>
        <time>2012-10-28T08:13:58Z</time>
      </trkpt>
      <trkpt lat="44.12291" lon="3.23584">
        <ele>602.20001220703</ele>
        <time>2012-10-28T08:14:04Z</time>
      </trkpt>
      <trkpt lat="44.12298" lon="3.2356">
        <ele>601</ele>
        <time>2012-10-28T08:14:11Z</time>
      </trkpt>
      <trkpt lat="44.12302" lon="3.23547">
        <ele>600.40002441406</ele>
        <time>2012-10-28T08:14:15Z</time>
      </trkpt>
      <trkpt lat="44.12305" lon="3.23537">
        <ele>600</ele>
        <time>2012-10-28T08:14:18Z</time>
      </trkpt>
      <trkpt lat="44.1231" lon="3.2351">
        <ele>599</ele>
        <time>2012-10-28T08:14:25Z</time>
      </trkpt>
      <trkpt lat="44.12315" lon="3.23487">
        <ele>597.79998779297</ele>
        <time>2012-10-28T08:14:32Z</time>
      </trkpt>
      <trkpt lat="44.12316" lon="3.23484">
        <ele>597.59997558594</ele>
        <time>2012-10-28T08:14:33Z</time>
      </trkpt>
      <trkpt lat="44.1232" lon="3.23464">
        <ele>596.79998779297</ele>
        <time>2012-10-28T08:14:39Z</time>
      </trkpt>
      <trkpt lat="44.1232" lon="3.2346">
        <ele>596.79998779297</ele>
        <time>2012-10-28T08:14:40Z</time>
      </trkpt>
      <trkpt lat="44.12324" lon="3.23435">
        <ele>595.79998779297</ele>
        <time>2012-10-28T08:14:47Z</time>
      </trkpt>
      <trkpt lat="44.12322" lon="3.23423">
        <ele>595.59997558594</ele>
        <time>2012-10-28T08:14:50Z</time>
      </trkpt>
      <trkpt lat="44.12324" lon="3.23408">
        <ele>595.20001220703</ele>
        <time>2012-10-28T08:14:54Z</time>
      </trkpt>
      <trkpt lat="44.1233" lon="3.23383">
        <ele>594.59997558594</ele>
        <time>2012-10-28T08:15:01Z</time>
      </trkpt>
      <trkpt lat="44.1234" lon="3.23359">
        <ele>594</ele>
        <time>2012-10-28T08:15:08Z</time>
      </trkpt>
      <trkpt lat="44.12353" lon="3.23339">
        <ele>593.20001220703</ele>
        <time>2012-10-28T08:15:15Z</time>
      </trkpt>
      <trkpt lat="44.12365" lon="3.23316">
        <ele>592.20001220703</ele>
        <time>2012-10-28T08:15:22Z</time>
      </trkpt>
      <trkpt lat="44.12368" lon="3.23311">
        <ele>592</ele>
        <time>2012-10-28T08:15:24Z</time>
      </trkpt>
      <trkpt lat="44.12361" lon="3.23295">
        <ele>591.40002441406</ele>
        <time>2012-10-28T08:15:29Z</time>
      </trkpt>
      <trkpt lat="44.12355" lon="3.2328">
        <ele>590.59997558594</ele>
        <time>2012-10-28T08:15:34Z</time>
      </trkpt>
      <trkpt lat="44.12353" lon="3.2327">
        <ele>590.20001220703</ele>
        <time>2012-10-28T08:15:37Z</time>
      </trkpt>
      <trkpt lat="44.12357" lon="3.23247">
        <ele>589.40002441406</ele>
        <time>2012-10-28T08:15:44Z</time>
      </trkpt>
      <trkpt lat="44.1236" lon="3.23247">
        <ele>589</ele>
        <time>2012-10-28T08:15:46Z</time>
      </trkpt>
      <trkpt lat="44.1237" lon="3.23254">
        <ele>588.40002441406</ele>
        <time>2012-10-28T08:15:50Z</time>
      </trkpt>
      <trkpt lat="44.12378" lon="3.23259">
        <ele>587.79998779297</ele>
        <time>2012-10-28T08:15:54Z</time>
      </trkpt>
      <trkpt lat="44.12382" lon="3.23262">
        <ele>587.40002441406</ele>
        <time>2012-10-28T08:15:56Z</time>
      </trkpt>
      <trkpt lat="44.12395" lon="3.23261">
        <ele>586.40002441406</ele>
        <time>2012-10-28T08:16:01Z</time>
      </trkpt>
      <trkpt lat="44.12413" lon="3.23253">
        <ele>585.40002441406</ele>
        <time>2012-10-28T08:16:08Z</time>
      </trkpt>
      <trkpt lat="44.12422" lon="3.23248">
        <ele>584.59997558594</ele>
        <time>2012-10-28T08:16:12Z</time>
      </trkpt>
      <trkpt lat="44.12431" lon="3.23247">
        <ele>584</ele>
        <time>2012-10-28T08:16:16Z</time>
      </trkpt>
      <trkpt lat="44.1245" lon="3.23238">
        <ele>582.20001220703</ele>
        <time>2012-10-28T08:16:25Z</time>
      </trkpt>
      <trkpt lat="44.12455" lon="3.23235">
        <ele>581.79998779297</ele>
        <time>2012-10-28T08:16:27Z</time>
      </trkpt>
      <trkpt lat="44.12468" lon="3.23229">
        <ele>580.59997558594</ele>
        <time>2012-10-28T08:16:32Z</time>
      </trkpt>
      <trkpt lat="44.12482" lon="3.23215">
        <ele>579</ele>
        <time>2012-10-28T08:16:39Z</time>
      </trkpt>
      <trkpt lat="44.12483" lon="3.23212">
        <ele>578.79998779297</ele>
        <time>2012-10-28T08:16:40Z</time>
      </trkpt>
      <trkpt lat="44.12494" lon="3.23189">
        <ele>577.20001220703</ele>
        <time>2012-10-28T08:16:49Z</time>
      </trkpt>
      <trkpt lat="44.12505" lon="3.23168">
        <ele>575.79998779297</ele>
        <time>2012-10-28T08:16:57Z</time>
      </trkpt>
      <trkpt lat="44.12517" lon="3.23146">
        <ele>574.59997558594</ele>
        <time>2012-10-28T08:17:06Z</time>
      </trkpt>
      <trkpt lat="44.12529" lon="3.23125">
        <ele>573.79998779297</ele>
        <time>2012-10-28T08:17:18Z</time>
      </trkpt>
      <trkpt lat="44.1253" lon="3.23123">
        <ele>573.79998779297</ele>
        <time>2012-10-28T08:17:19Z</time>
      </trkpt>
      <trkpt lat="44.12532" lon="3.23116">
        <ele>573.59997558594</ele>
        <time>2012-10-28T08:17:23Z</time>
      </trkpt>
      <trkpt lat="44.12538" lon="3.23107">
        <ele>573.40002441406</ele>
        <time>2012-10-28T08:17:30Z</time>
      </trkpt>
      <trkpt lat="44.12539" lon="3.23105">
        <ele>573.20001220703</ele>
        <time>2012-10-28T08:17:32Z</time>
      </trkpt>
      <trkpt lat="44.12545" lon="3.23098">
        <ele>573</ele>
        <time>2012-10-28T08:17:38Z</time>
      </trkpt>
      <trkpt lat="44.12547" lon="3.23091">
        <ele>573</ele>
        <time>2012-10-28T08:17:41Z</time>
      </trkpt>
      <trkpt lat="44.1255" lon="3.23085">
        <ele>572.79998779297</ele>
        <time>2012-10-28T08:17:45Z</time>
      </trkpt>
      <trkpt lat="44.12554" lon="3.23082">
        <ele>572.79998779297</ele>
        <time>2012-10-28T08:17:48Z</time>
      </trkpt>
      <trkpt lat="44.12565" lon="3.23073">
        <ele>572.59997558594</ele>
        <time>2012-10-28T08:17:57Z</time>
      </trkpt>
      <trkpt lat="44.12576" lon="3.23068">
        <ele>572.59997558594</ele>
        <time>2012-10-28T08:18:02Z</time>
      </trkpt>
      <trkpt lat="44.12583" lon="3.23069">
        <ele>572.59997558594</ele>
        <time>2012-10-28T08:18:06Z</time>
      </trkpt>
      <trkpt lat="44.12599" lon="3.2307">
        <ele>573.79998779297</ele>
        <time>2012-10-28T08:18:13Z</time>
      </trkpt>
      <trkpt lat="44.12602" lon="3.23068">
        <ele>574.20001220703</ele>
        <time>2012-10-28T08:18:14Z</time>
      </trkpt>
      <trkpt lat="44.12609" lon="3.2307">
        <ele>575</ele>
        <time>2012-10-28T08:18:17Z</time>
      </trkpt>
      <trkpt lat="44.1262" lon="3.23074">
        <ele>576.59997558594</ele>
        <time>2012-10-28T08:18:23Z</time>
      </trkpt>
      <trkpt lat="44.12638" lon="3.23075">
        <ele>578.40002441406</ele>
        <time>2012-10-28T08:18:32Z</time>
      </trkpt>
      <trkpt lat="44.12654" lon="3.23062">
        <ele>580.20001220703</ele>
        <time>2012-10-28T08:18:43Z</time>
      </trkpt>
      <trkpt lat="44.12654" lon="3.23059">
        <ele>580.79998779297</ele>
        <time>2012-10-28T08:18:46Z</time>
      </trkpt>
      <trkpt lat="44.12658" lon="3.23046">
        <ele>582</ele>
        <time>2012-10-28T08:18:51Z</time>
      </trkpt>
      <trkpt lat="44.12662" lon="3.23038">
        <ele>582.59997558594</ele>
        <time>2012-10-28T08:18:54Z</time>
      </trkpt>
      <trkpt lat="44.12677" lon="3.23022">
        <ele>583</ele>
        <time>2012-10-28T08:19:03Z</time>
      </trkpt>
      <trkpt lat="44.12684" lon="3.22999">
        <ele>583.79998779297</ele>
        <time>2012-10-28T08:19:13Z</time>
      </trkpt>
      <trkpt lat="44.12685" lon="3.22997">
        <ele>584</ele>
        <time>2012-10-28T08:19:14Z</time>
      </trkpt>
      <trkpt lat="44.12691" lon="3.22976">
        <ele>584.79998779297</ele>
        <time>2012-10-28T08:19:23Z</time>
      </trkpt>
      <trkpt lat="44.12692" lon="3.22971">
        <ele>585</ele>
        <time>2012-10-28T08:19:25Z</time>
      </trkpt>
      <trkpt lat="44.12685" lon="3.22952">
        <ele>585.59997558594</ele>
        <time>2012-10-28T08:19:31Z</time>
      </trkpt>
      <trkpt lat="44.12684" lon="3.22936">
        <ele>586</ele>
        <time>2012-10-28T08:19:35Z</time>
      </trkpt>
      <trkpt lat="44.12686" lon="3.22926">
        <ele>586.20001220703</ele>
        <time>2012-10-28T08:19:38Z</time>
      </trkpt>
      <trkpt lat="44.12693" lon="3.22902">
        <ele>586.79998779297</ele>
        <time>2012-10-28T08:19:45Z</time>
      </trkpt>
      <trkpt lat="44.12699" lon="3.22896">
        <ele>587</ele>
        <time>2012-10-28T08:19:48Z</time>
      </trkpt>
      <trkpt lat="44.12712" lon="3.22899">
        <ele>587.40002441406</ele>
        <time>2012-10-28T08:19:53Z</time>
      </trkpt>
      <trkpt lat="44.12731" lon="3.22909">
        <ele>588.59997558594</ele>
        <time>2012-10-28T08:20:01Z</time>
      </trkpt>
      <trkpt lat="44.12741" lon="3.22916">
        <ele>589.40002441406</ele>
        <time>2012-10-28T08:20:06Z</time>
      </trkpt>
      <trkpt lat="44.12743" lon="3.22921">
        <ele>589.79998779297</ele>
        <time>2012-10-28T08:20:10Z</time>
      </trkpt>
      <trkpt lat="44.12745" lon="3.22925">
        <ele>590.40002441406</ele>
        <time>2012-10-28T08:20:15Z</time>
      </trkpt>
      <trkpt lat="44.12749" lon="3.22926">
        <ele>590.79998779297</ele>
        <time>2012-10-28T08:20:18Z</time>
      </trkpt>
      <trkpt lat="44.12763" lon="3.22924">
        <ele>592.40002441406</ele>
        <time>2012-10-28T08:20:26Z</time>
      </trkpt>
      <trkpt lat="44.12764" lon="3.22925">
        <ele>592.40002441406</ele>
        <time>2012-10-28T08:20:27Z</time>
      </trkpt>
      <trkpt lat="44.12782" lon="3.22933">
        <ele>594.40002441406</ele>
        <time>2012-10-28T08:20:41Z</time>
      </trkpt>
      <trkpt lat="44.1279" lon="3.22932">
        <ele>595.59997558594</ele>
        <time>2012-10-28T08:20:47Z</time>
      </trkpt>
      <trkpt lat="44.12798" lon="3.22934">
        <ele>596.20001220703</ele>
        <time>2012-10-28T08:20:52Z</time>
      </trkpt>
      <trkpt lat="44.12801" lon="3.22934">
        <ele>596.40002441406</ele>
        <time>2012-10-28T08:20:54Z</time>
      </trkpt>
      <trkpt lat="44.12804" lon="3.22935">
        <ele>596.59997558594</ele>
        <time>2012-10-28T08:20:56Z</time>
      </trkpt>
      <trkpt lat="44.12812" lon="3.22924">
        <ele>598</ele>
        <time>2012-10-28T08:21:06Z</time>
      </trkpt>
      <trkpt lat="44.12811" lon="3.2292">
        <ele>598.20001220703</ele>
        <time>2012-10-28T08:21:08Z</time>
      </trkpt>
      <trkpt lat="44.12811" lon="3.22903">
        <ele>599.40002441406</ele>
        <time>2012-10-28T08:21:16Z</time>
      </trkpt>
      <trkpt lat="44.12811" lon="3.22899">
        <ele>599.79998779297</ele>
        <time>2012-10-28T08:21:20Z</time>
      </trkpt>
      <trkpt lat="44.12809" lon="3.22892">
        <ele>600.59997558594</ele>
        <time>2012-10-28T08:21:24Z</time>
      </trkpt>
      <trkpt lat="44.12802" lon="3.2288">
        <ele>602</ele>
        <time>2012-10-28T08:21:31Z</time>
      </trkpt>
      <trkpt lat="44.12801" lon="3.22881">
        <ele>602.20001220703</ele>
        <time>2012-10-28T08:21:32Z</time>
      </trkpt>
      <trkpt lat="44.12787" lon="3.22882">
        <ele>603.40002441406</ele>
        <time>2012-10-28T08:21:41Z</time>
      </trkpt>
      <trkpt lat="44.12788" lon="3.22875">
        <ele>603.20001220703</ele>
        <time>2012-10-28T08:21:43Z</time>
      </trkpt>
      <trkpt lat="44.12787" lon="3.22854">
        <ele>603.20001220703</ele>
        <time>2012-10-28T08:21:50Z</time>
      </trkpt>
      <trkpt lat="44.12791" lon="3.22831">
        <ele>602.79998779297</ele>
        <time>2012-10-28T08:21:58Z</time>
      </trkpt>
      <trkpt lat="44.12808" lon="3.22819">
        <ele>602.59997558594</ele>
        <time>2012-10-28T08:22:07Z</time>
      </trkpt>
      <trkpt lat="44.12819" lon="3.22823">
        <ele>602.59997558594</ele>
        <time>2012-10-28T08:22:12Z</time>
      </trkpt>
      <trkpt lat="44.1282" lon="3.22823">
        <ele>602.59997558594</ele>
        <time>2012-10-28T08:22:13Z</time>
      </trkpt>
      <trkpt lat="44.12825" lon="3.22822">
        <ele>602.79998779297</ele>
        <time>2012-10-28T08:22:17Z</time>
      </trkpt>
      <trkpt lat="44.12828" lon="3.22819">
        <ele>602.79998779297</ele>
        <time>2012-10-28T08:22:19Z</time>
      </trkpt>
      <trkpt lat="44.12828" lon="3.22818">
        <ele>602.79998779297</ele>
        <time>2012-10-28T08:22:20Z</time>
      </trkpt>
      <trkpt lat="44.12837" lon="3.22803">
        <ele>602.79998779297</ele>
        <time>2012-10-28T08:22:26Z</time>
      </trkpt>
      <trkpt lat="44.12843" lon="3.22799">
        <ele>602.59997558594</ele>
        <time>2012-10-28T08:22:30Z</time>
      </trkpt>
      <trkpt lat="44.12852" lon="3.22789">
        <ele>602.59997558594</ele>
        <time>2012-10-28T08:22:35Z</time>
      </trkpt>
      <trkpt lat="44.12862" lon="3.22781">
        <ele>602.59997558594</ele>
        <time>2012-10-28T08:22:45Z</time>
      </trkpt>
      <trkpt lat="44.12863" lon="3.22777">
        <ele>603</ele>
        <time>2012-10-28T08:22:50Z</time>
      </trkpt>
      <trkpt lat="44.1286" lon="3.22775">
        <ele>603.59997558594</ele>
        <time>2012-10-28T08:22:52Z</time>
      </trkpt>
      <trkpt lat="44.12848" lon="3.22753">
        <ele>604.79998779297</ele>
        <time>2012-10-28T08:23:00Z</time>
      </trkpt>
      <trkpt lat="44.12845" lon="3.22734">
        <ele>605.59997558594</ele>
        <time>2012-10-28T08:23:09Z</time>
      </trkpt>
      <trkpt lat="44.12844" lon="3.22729">
        <ele>605.79998779297</ele>
        <time>2012-10-28T08:23:13Z</time>
      </trkpt>
      <trkpt lat="44.12843" lon="3.22728">
        <ele>606.20001220703</ele>
        <time>2012-10-28T08:23:14Z</time>
      </trkpt>
      <trkpt lat="44.12829" lon="3.22709">
        <ele>606.59997558594</ele>
        <time>2012-10-28T08:23:24Z</time>
      </trkpt>
      <trkpt lat="44.12822" lon="3.227">
        <ele>606.59997558594</ele>
        <time>2012-10-28T08:23:29Z</time>
      </trkpt>
      <trkpt lat="44.12819" lon="3.22708">
        <ele>607</ele>
        <time>2012-10-28T08:23:34Z</time>
      </trkpt>
      <trkpt lat="44.12819" lon="3.22722">
        <ele>606.79998779297</ele>
        <time>2012-10-28T08:23:37Z</time>
      </trkpt>
      <trkpt lat="44.12818" lon="3.22733">
        <ele>606.40002441406</ele>
        <time>2012-10-28T08:23:41Z</time>
      </trkpt>
      <trkpt lat="44.12811" lon="3.22726">
        <ele>605.79998779297</ele>
        <time>2012-10-28T08:23:46Z</time>
      </trkpt>
      <trkpt lat="44.12806" lon="3.22716">
        <ele>604.79998779297</ele>
        <time>2012-10-28T08:23:50Z</time>
      </trkpt>
      <trkpt lat="44.12792" lon="3.22699">
        <ele>602.20001220703</ele>
        <time>2012-10-28T08:23:59Z</time>
      </trkpt>
      <trkpt lat="44.12785" lon="3.22696">
        <ele>600.79998779297</ele>
        <time>2012-10-28T08:24:04Z</time>
      </trkpt>
      <trkpt lat="44.12785" lon="3.22707">
        <ele>599.79998779297</ele>
        <time>2012-10-28T08:24:08Z</time>
      </trkpt>
      <trkpt lat="44.12785" lon="3.22711">
        <ele>599.59997558594</ele>
        <time>2012-10-28T08:24:09Z</time>
      </trkpt>
      <trkpt lat="44.12786" lon="3.22736">
        <ele>597.59997558594</ele>
        <time>2012-10-28T08:24:16Z</time>
      </trkpt>
      <trkpt lat="44.12785" lon="3.22752">
        <ele>596.79998779297</ele>
        <time>2012-10-28T08:24:20Z</time>
      </trkpt>
      <trkpt lat="44.12787" lon="3.22764">
        <ele>596.40002441406</ele>
        <time>2012-10-28T08:24:23Z</time>
      </trkpt>
      <trkpt lat="44.12782" lon="3.22777">
        <ele>595.59997558594</ele>
        <time>2012-10-28T08:24:27Z</time>
      </trkpt>
      <trkpt lat="44.12775" lon="3.22785">
        <ele>594.20001220703</ele>
        <time>2012-10-28T08:24:32Z</time>
      </trkpt>
      <trkpt lat="44.12774" lon="3.22784">
        <ele>593</ele>
        <time>2012-10-28T08:24:35Z</time>
      </trkpt>
      <trkpt lat="44.12777" lon="3.2278">
        <ele>591.79998779297</ele>
        <time>2012-10-28T08:24:38Z</time>
      </trkpt>
      <trkpt lat="44.12777" lon="3.22774">
        <ele>590.20001220703</ele>
        <time>2012-10-28T08:24:42Z</time>
      </trkpt>
      <trkpt lat="44.1278" lon="3.22768">
        <ele>589</ele>
        <time>2012-10-28T08:24:45Z</time>
      </trkpt>
      <trkpt lat="44.12776" lon="3.2276">
        <ele>587</ele>
        <time>2012-10-28T08:24:50Z</time>
      </trkpt>
      <trkpt lat="44.12775" lon="3.22759">
        <ele>586.59997558594</ele>
        <time>2012-10-28T08:24:51Z</time>
      </trkpt>
      <trkpt lat="44.1277" lon="3.22753">
        <ele>583.79998779297</ele>
        <time>2012-10-28T08:24:58Z</time>
      </trkpt>
      <trkpt lat="44.1277" lon="3.22755">
        <ele>583.40002441406</ele>
        <time>2012-10-28T08:24:59Z</time>
      </trkpt>
      <trkpt lat="44.12768" lon="3.22755">
        <ele>582.59997558594</ele>
        <time>2012-10-28T08:25:01Z</time>
      </trkpt>
      <trkpt lat="44.12755" lon="3.22742">
        <ele>579.79998779297</ele>
        <time>2012-10-28T08:25:08Z</time>
      </trkpt>
      <trkpt lat="44.12753" lon="3.2274">
        <ele>579.40002441406</ele>
        <time>2012-10-28T08:25:09Z</time>
      </trkpt>
      <trkpt lat="44.1274" lon="3.22724">
        <ele>576.59997558594</ele>
        <time>2012-10-28T08:25:17Z</time>
      </trkpt>
      <trkpt lat="44.1274" lon="3.22722">
        <ele>576.20001220703</ele>
        <time>2012-10-28T08:25:18Z</time>
      </trkpt>
      <trkpt lat="44.12729" lon="3.22707">
        <ele>574</ele>
        <time>2012-10-28T08:25:25Z</time>
      </trkpt>
      <trkpt lat="44.12714" lon="3.2269">
        <ele>572</ele>
        <time>2012-10-28T08:25:32Z</time>
      </trkpt>
      <trkpt lat="44.12708" lon="3.22681">
        <ele>571.20001220703</ele>
        <time>2012-10-28T08:25:35Z</time>
      </trkpt>
      <trkpt lat="44.12704" lon="3.22677">
        <ele>570.20001220703</ele>
        <time>2012-10-28T08:25:39Z</time>
      </trkpt>
      <trkpt lat="44.12699" lon="3.22672">
        <ele>569.59997558594</ele>
        <time>2012-10-28T08:25:41Z</time>
      </trkpt>
      <trkpt lat="44.12682" lon="3.22663">
        <ele>567.79998779297</ele>
        <time>2012-10-28T08:25:49Z</time>
      </trkpt>
      <trkpt lat="44.12666" lon="3.22652">
        <ele>566.20001220703</ele>
        <time>2012-10-28T08:25:56Z</time>
      </trkpt>
      <trkpt lat="44.12665" lon="3.22649">
        <ele>566</ele>
        <time>2012-10-28T08:25:57Z</time>
      </trkpt>
      <trkpt lat="44.12651" lon="3.22637">
        <ele>564.59997558594</ele>
        <time>2012-10-28T08:26:04Z</time>
      </trkpt>
      <trkpt lat="44.12646" lon="3.22633">
        <ele>564.20001220703</ele>
        <time>2012-10-28T08:26:06Z</time>
      </trkpt>
      <trkpt lat="44.12635" lon="3.22625">
        <ele>563.40002441406</ele>
        <time>2012-10-28T08:26:10Z</time>
      </trkpt>
      <trkpt lat="44.12616" lon="3.22616">
        <ele>561.40002441406</ele>
        <time>2012-10-28T08:26:17Z</time>
      </trkpt>
      <trkpt lat="44.12604" lon="3.22615">
        <ele>557.20001220703</ele>
        <time>2012-10-28T08:26:26Z</time>
      </trkpt>
      <trkpt lat="44.126" lon="3.22608">
        <ele>554.79998779297</ele>
        <time>2012-10-28T08:26:30Z</time>
      </trkpt>
      <trkpt lat="44.12606" lon="3.22622">
        <ele>548</ele>
        <time>2012-10-28T08:26:41Z</time>
      </trkpt>
      <trkpt lat="44.12598" lon="3.22627">
        <ele>544.79998779297</ele>
        <time>2012-10-28T08:26:46Z</time>
      </trkpt>
      <trkpt lat="44.12592" lon="3.22624">
        <ele>543.79998779297</ele>
        <time>2012-10-28T08:26:48Z</time>
      </trkpt>
      <trkpt lat="44.12578" lon="3.22606">
        <ele>540</ele>
        <time>2012-10-28T08:26:54Z</time>
      </trkpt>
      <trkpt lat="44.12573" lon="3.22579">
        <ele>536.40002441406</ele>
        <time>2012-10-28T08:27:00Z</time>
      </trkpt>
      <trkpt lat="44.12577" lon="3.22553">
        <ele>532.79998779297</ele>
        <time>2012-10-28T08:27:06Z</time>
      </trkpt>
      <trkpt lat="44.12576" lon="3.22526">
        <ele>529.40002441406</ele>
        <time>2012-10-28T08:27:12Z</time>
      </trkpt>
      <trkpt lat="44.12571" lon="3.225">
        <ele>526</ele>
        <time>2012-10-28T08:27:18Z</time>
      </trkpt>
      <trkpt lat="44.12569" lon="3.22472">
        <ele>523</ele>
        <time>2012-10-28T08:27:24Z</time>
      </trkpt>
      <trkpt lat="44.12567" lon="3.22445">
        <ele>520</ele>
        <time>2012-10-28T08:27:30Z</time>
      </trkpt>
      <trkpt lat="44.12562" lon="3.22417">
        <ele>516.79998779297</ele>
        <time>2012-10-28T08:27:36Z</time>
      </trkpt>
      <trkpt lat="44.12555" lon="3.22393">
        <ele>514.40002441406</ele>
        <time>2012-10-28T08:27:41Z</time>
      </trkpt>
      <trkpt lat="44.12546" lon="3.22369">
        <ele>511.60000610352</ele>
        <time>2012-10-28T08:27:47Z</time>
      </trkpt>
      <trkpt lat="44.12536" lon="3.22354">
        <ele>508.79998779297</ele>
        <time>2012-10-28T08:27:53Z</time>
      </trkpt>
      <trkpt lat="44.12537" lon="3.22361">
        <ele>508</ele>
        <time>2012-10-28T08:27:55Z</time>
      </trkpt>
      <trkpt lat="44.12528" lon="3.22353">
        <ele>504.79998779297</ele>
        <time>2012-10-28T08:28:02Z</time>
      </trkpt>
      <trkpt lat="44.12515" lon="3.22333">
        <ele>501.79998779297</ele>
        <time>2012-10-28T08:28:08Z</time>
      </trkpt>
      <trkpt lat="44.12497" lon="3.22318">
        <ele>498.79998779297</ele>
        <time>2012-10-28T08:28:14Z</time>
      </trkpt>
      <trkpt lat="44.1248" lon="3.22305">
        <ele>495.79998779297</ele>
        <time>2012-10-28T08:28:20Z</time>
      </trkpt>
      <trkpt lat="44.12466" lon="3.22288">
        <ele>493.20001220703</ele>
        <time>2012-10-28T08:28:26Z</time>
      </trkpt>
      <trkpt lat="44.12451" lon="3.2227">
        <ele>489.39999389648</ele>
        <time>2012-10-28T08:28:34Z</time>
      </trkpt>
      <trkpt lat="44.12438" lon="3.22263">
        <ele>487.20001220703</ele>
        <time>2012-10-28T08:28:39Z</time>
      </trkpt>
      <trkpt lat="44.12437" lon="3.22256">
        <ele>486</ele>
        <time>2012-10-28T08:28:41Z</time>
      </trkpt>
      <trkpt lat="44.12443" lon="3.22238">
        <ele>483.20001220703</ele>
        <time>2012-10-28T08:28:46Z</time>
      </trkpt>
      <trkpt lat="44.12445" lon="3.22232">
        <ele>482</ele>
        <time>2012-10-28T08:28:48Z</time>
      </trkpt>
      <trkpt lat="44.12451" lon="3.22213">
        <ele>478.60000610352</ele>
        <time>2012-10-28T08:28:55Z</time>
      </trkpt>
      <trkpt lat="44.12434" lon="3.22219">
        <ele>476</ele>
        <time>2012-10-28T08:29:00Z</time>
      </trkpt>
      <trkpt lat="44.12421" lon="3.22238">
        <ele>473.20001220703</ele>
        <time>2012-10-28T08:29:06Z</time>
      </trkpt>
      <trkpt lat="44.12416" lon="3.22262">
        <ele>470.20001220703</ele>
        <time>2012-10-28T08:29:12Z</time>
      </trkpt>
      <trkpt lat="44.12415" lon="3.22289">
        <ele>467.39999389648</ele>
        <time>2012-10-28T08:29:18Z</time>
      </trkpt>
      <trkpt lat="44.12397" lon="3.22293">
        <ele>464.79998779297</ele>
        <time>2012-10-28T08:29:24Z</time>
      </trkpt>
      <trkpt lat="44.12384" lon="3.22289">
        <ele>462.79998779297</ele>
        <time>2012-10-28T08:29:29Z</time>
      </trkpt>
      <trkpt lat="44.12378" lon="3.22286">
        <ele>462.20001220703</ele>
        <time>2012-10-28T08:29:31Z</time>
      </trkpt>
      <trkpt lat="44.12363" lon="3.22269">
        <ele>460.20001220703</ele>
        <time>2012-10-28T08:29:37Z</time>
      </trkpt>
      <trkpt lat="44.1235" lon="3.2225">
        <ele>458.39999389648</ele>
        <time>2012-10-28T08:29:43Z</time>
      </trkpt>
      <trkpt lat="44.12336" lon="3.22234">
        <ele>456.79998779297</ele>
        <time>2012-10-28T08:29:49Z</time>
      </trkpt>
      <trkpt lat="44.12321" lon="3.22224">
        <ele>456.60000610352</ele>
        <time>2012-10-28T08:29:55Z</time>
      </trkpt>
      <trkpt lat="44.12323" lon="3.22224">
        <ele>456.20001220703</ele>
        <time>2012-10-28T08:29:57Z</time>
      </trkpt>
      <trkpt lat="44.12325" lon="3.22226">
        <ele>456</ele>
        <time>2012-10-28T08:29:59Z</time>
      </trkpt>
      <trkpt lat="44.12326" lon="3.22213">
        <ele>455.39999389648</ele>
        <time>2012-10-28T08:30:03Z</time>
      </trkpt>
      <trkpt lat="44.12326" lon="3.22205">
        <ele>455</ele>
        <time>2012-10-28T08:30:05Z</time>
      </trkpt>
      <trkpt lat="44.12324" lon="3.22177">
        <ele>454.20001220703</ele>
        <time>2012-10-28T08:30:12Z</time>
      </trkpt>
      <trkpt lat="44.12322" lon="3.22173">
        <ele>454</ele>
        <time>2012-10-28T08:30:14Z</time>
      </trkpt>
      <trkpt lat="44.12308" lon="3.22175">
        <ele>453.60000610352</ele>
        <time>2012-10-28T08:30:19Z</time>
      </trkpt>
      <trkpt lat="44.12288" lon="3.22173">
        <ele>453.20001220703</ele>
        <time>2012-10-28T08:30:26Z</time>
      </trkpt>
      <trkpt lat="44.12269" lon="3.2217">
        <ele>453</ele>
        <time>2012-10-28T08:30:33Z</time>
      </trkpt>
      <trkpt lat="44.12251" lon="3.22169">
        <ele>450.60000610352</ele>
        <time>2012-10-28T08:30:49Z</time>
      </trkpt>
      <trkpt lat="44.12241" lon="3.22151">
        <ele>449.60000610352</ele>
        <time>2012-10-28T08:30:55Z</time>
      </trkpt>
      <trkpt lat="44.1224" lon="3.22147">
        <ele>449.39999389648</ele>
        <time>2012-10-28T08:30:56Z</time>
      </trkpt>
      <trkpt lat="44.12238" lon="3.2213">
        <ele>448.79998779297</ele>
        <time>2012-10-28T08:31:02Z</time>
      </trkpt>
      <trkpt lat="44.12236" lon="3.22112">
        <ele>447.79998779297</ele>
        <time>2012-10-28T08:31:14Z</time>
      </trkpt>
      <trkpt lat="44.12235" lon="3.2211">
        <ele>448</ele>
        <time>2012-10-28T08:31:18Z</time>
      </trkpt>
      <trkpt lat="44.12234" lon="3.22127">
        <ele>447.39999389648</ele>
        <time>2012-10-28T08:31:26Z</time>
      </trkpt>
      <trkpt lat="44.12234" lon="3.22132">
        <ele>447.20001220703</ele>
        <time>2012-10-28T08:31:29Z</time>
      </trkpt>
      <trkpt lat="44.12234" lon="3.22136">
        <ele>447</ele>
        <time>2012-10-28T08:31:37Z</time>
      </trkpt>
      <trkpt lat="44.12235" lon="3.22145">
        <ele>447.60000610352</ele>
        <time>2012-10-28T08:31:46Z</time>
      </trkpt>
      <trkpt lat="44.12238" lon="3.22147">
        <ele>448.20001220703</ele>
        <time>2012-10-28T08:31:49Z</time>
      </trkpt>
      <trkpt lat="44.12236" lon="3.22162">
        <ele>448.20001220703</ele>
        <time>2012-10-28T08:31:54Z</time>
      </trkpt>
      <trkpt lat="44.12237" lon="3.22164">
        <ele>448.39999389648</ele>
        <time>2012-10-28T08:31:55Z</time>
      </trkpt>
      <trkpt lat="44.12241" lon="3.22172">
        <ele>448.60000610352</ele>
        <time>2012-10-28T08:31:58Z</time>
      </trkpt>
      <trkpt lat="44.12243" lon="3.22188">
        <ele>448.79998779297</ele>
        <time>2012-10-28T08:32:04Z</time>
      </trkpt>
      <trkpt lat="44.12245" lon="3.22198">
        <ele>449.79998779297</ele>
        <time>2012-10-28T08:32:08Z</time>
      </trkpt>
      <trkpt lat="44.12244" lon="3.22223">
        <ele>449.79998779297</ele>
        <time>2012-10-28T08:32:23Z</time>
      </trkpt>
      <trkpt lat="44.12241" lon="3.22229">
        <ele>449.79998779297</ele>
        <time>2012-10-28T08:32:28Z</time>
      </trkpt>
      <trkpt lat="44.12245" lon="3.22237">
        <ele>449.60000610352</ele>
        <time>2012-10-28T08:32:32Z</time>
      </trkpt>
      <trkpt lat="44.12245" lon="3.2224">
        <ele>449.60000610352</ele>
        <time>2012-10-28T08:32:34Z</time>
      </trkpt>
      <trkpt lat="44.12244" lon="3.22247">
        <ele>449.60000610352</ele>
        <time>2012-10-28T08:32:38Z</time>
      </trkpt>
      <trkpt lat="44.12244" lon="3.22251">
        <ele>449.60000610352</ele>
        <time>2012-10-28T08:32:41Z</time>
      </trkpt>
      <trkpt lat="44.12244" lon="3.22253">
        <ele>449.39999389648</ele>
        <time>2012-10-28T08:32:43Z</time>
      </trkpt>
      <trkpt lat="44.12245" lon="3.2226">
        <ele>449.39999389648</ele>
        <time>2012-10-28T08:32:47Z</time>
      </trkpt>
      <trkpt lat="44.12241" lon="3.22267">
        <ele>449.60000610352</ele>
        <time>2012-10-28T08:32:54Z</time>
      </trkpt>
      <trkpt lat="44.12242" lon="3.22269">
        <ele>450.20001220703</ele>
        <time>2012-10-28T08:32:56Z</time>
      </trkpt>
      <trkpt lat="44.12247" lon="3.22277">
        <ele>451.20001220703</ele>
        <time>2012-10-28T08:33:01Z</time>
      </trkpt>
      <trkpt lat="44.12249" lon="3.22282">
        <ele>453.39999389648</ele>
        <time>2012-10-28T08:33:06Z</time>
      </trkpt>
      <trkpt lat="44.12249" lon="3.22291">
        <ele>454.79998779297</ele>
        <time>2012-10-28T08:33:10Z</time>
      </trkpt>
      <trkpt lat="44.1225" lon="3.22292">
        <ele>456.79998779297</ele>
        <time>2012-10-28T08:33:14Z</time>
      </trkpt>
      <trkpt lat="44.12249" lon="3.22295">
        <ele>457.39999389648</ele>
        <time>2012-10-28T08:33:16Z</time>
      </trkpt>
      <trkpt lat="44.12248" lon="3.223">
        <ele>458.39999389648</ele>
        <time>2012-10-28T08:33:20Z</time>
      </trkpt>
      <trkpt lat="44.12246" lon="3.22314">
        <ele>463.20001220703</ele>
        <time>2012-10-28T08:33:36Z</time>
      </trkpt>
      <trkpt lat="44.1224" lon="3.22309">
        <ele>463.39999389648</ele>
        <time>2012-10-28T08:33:42Z</time>
      </trkpt>
      <trkpt lat="44.12235" lon="3.22307">
        <ele>463</ele>
        <time>2012-10-28T08:33:52Z</time>
      </trkpt>
      <trkpt lat="44.12239" lon="3.22312">
        <ele>463.60000610352</ele>
        <time>2012-10-28T08:33:57Z</time>
      </trkpt>
      <trkpt lat="44.12225" lon="3.22307">
        <ele>469.60000610352</ele>
        <time>2012-10-28T08:34:15Z</time>
      </trkpt>
      <trkpt lat="44.12228" lon="3.22309">
        <ele>471.79998779297</ele>
        <time>2012-10-28T08:34:18Z</time>
      </trkpt>
      <trkpt lat="44.12229" lon="3.22312">
        <ele>472.60000610352</ele>
        <time>2012-10-28T08:34:20Z</time>
      </trkpt>
      <trkpt lat="44.12228" lon="3.22313">
        <ele>473</ele>
        <time>2012-10-28T08:34:21Z</time>
      </trkpt>
      <trkpt lat="44.12228" lon="3.22315">
        <ele>477</ele>
        <time>2012-10-28T08:34:27Z</time>
      </trkpt>
      <trkpt lat="44.12227" lon="3.22323">
        <ele>480.20001220703</ele>
        <time>2012-10-28T08:34:35Z</time>
      </trkpt>
      <trkpt lat="44.12228" lon="3.22324">
        <ele>482.39999389648</ele>
        <time>2012-10-28T08:34:41Z</time>
      </trkpt>
      <trkpt lat="44.1223" lon="3.22326">
        <ele>483.20001220703</ele>
        <time>2012-10-28T08:34:43Z</time>
      </trkpt>
      <trkpt lat="44.12234" lon="3.22331">
        <ele>485.60000610352</ele>
        <time>2012-10-28T08:34:50Z</time>
      </trkpt>
      <trkpt lat="44.12233" lon="3.22344">
        <ele>488</ele>
        <time>2012-10-28T08:34:59Z</time>
      </trkpt>
      <trkpt lat="44.12236" lon="3.22346">
        <ele>489.60000610352</ele>
        <time>2012-10-28T08:35:03Z</time>
      </trkpt>
      <trkpt lat="44.12238" lon="3.22348">
        <ele>490.39999389648</ele>
        <time>2012-10-28T08:35:05Z</time>
      </trkpt>
      <trkpt lat="44.12239" lon="3.22354">
        <ele>491.60000610352</ele>
        <time>2012-10-28T08:35:11Z</time>
      </trkpt>
      <trkpt lat="44.12237" lon="3.22355">
        <ele>492.20001220703</ele>
        <time>2012-10-28T08:35:13Z</time>
      </trkpt>
      <trkpt lat="44.12222" lon="3.22352">
        <ele>497.79998779297</ele>
        <time>2012-10-28T08:35:33Z</time>
      </trkpt>
      <trkpt lat="44.1222" lon="3.22351">
        <ele>498</ele>
        <time>2012-10-28T08:35:34Z</time>
      </trkpt>
      <trkpt lat="44.12219" lon="3.2235">
        <ele>498.39999389648</ele>
        <time>2012-10-28T08:35:35Z</time>
      </trkpt>
      <trkpt lat="44.12212" lon="3.22352">
        <ele>500.20001220703</ele>
        <time>2012-10-28T08:35:44Z</time>
      </trkpt>
      <trkpt lat="44.12213" lon="3.22354">
        <ele>501</ele>
        <time>2012-10-28T08:35:48Z</time>
      </trkpt>
      <trkpt lat="44.12217" lon="3.22356">
        <ele>502.79998779297</ele>
        <time>2012-10-28T08:35:53Z</time>
      </trkpt>
      <trkpt lat="44.1222" lon="3.22357">
        <ele>503.60000610352</ele>
        <time>2012-10-28T08:35:55Z</time>
      </trkpt>
      <trkpt lat="44.12222" lon="3.22357">
        <ele>504.39999389648</ele>
        <time>2012-10-28T08:35:57Z</time>
      </trkpt>
      <trkpt lat="44.12223" lon="3.2236">
        <ele>506.20001220703</ele>
        <time>2012-10-28T08:36:01Z</time>
      </trkpt>
      <trkpt lat="44.12233" lon="3.2237">
        <ele>517.40002441406</ele>
        <time>2012-10-28T08:36:24Z</time>
      </trkpt>
      <trkpt lat="44.12251" lon="3.22375">
        <ele>529</ele>
        <time>2012-10-28T08:36:43Z</time>
      </trkpt>
      <trkpt lat="44.12242" lon="3.22397">
        <ele>528.40002441406</ele>
        <time>2012-10-28T08:36:47Z</time>
      </trkpt>
      <trkpt lat="44.12242" lon="3.22399">
        <ele>528.40002441406</ele>
        <time>2012-10-28T08:36:48Z</time>
      </trkpt>
      <trkpt lat="44.12246" lon="3.22411">
        <ele>528.40002441406</ele>
        <time>2012-10-28T08:36:54Z</time>
      </trkpt>
      <trkpt lat="44.1224" lon="3.22416">
        <ele>528</ele>
        <time>2012-10-28T08:37:00Z</time>
      </trkpt>
      <trkpt lat="44.1224" lon="3.22417">
        <ele>527.79998779297</ele>
        <time>2012-10-28T08:37:01Z</time>
      </trkpt>
      <trkpt lat="44.12245" lon="3.22432">
        <ele>530.79998779297</ele>
        <time>2012-10-28T08:37:21Z</time>
      </trkpt>
      <trkpt lat="44.12247" lon="3.22434">
        <ele>532.40002441406</ele>
        <time>2012-10-28T08:37:25Z</time>
      </trkpt>
      <trkpt lat="44.12247" lon="3.22441">
        <ele>533.40002441406</ele>
        <time>2012-10-28T08:37:31Z</time>
      </trkpt>
      <trkpt lat="44.1225" lon="3.22444">
        <ele>534.79998779297</ele>
        <time>2012-10-28T08:37:35Z</time>
      </trkpt>
      <trkpt lat="44.12252" lon="3.22445">
        <ele>536</ele>
        <time>2012-10-28T08:37:38Z</time>
      </trkpt>
      <trkpt lat="44.12257" lon="3.22455">
        <ele>539.59997558594</ele>
        <time>2012-10-28T08:37:53Z</time>
      </trkpt>
      <trkpt lat="44.1226" lon="3.22457">
        <ele>540.40002441406</ele>
        <time>2012-10-28T08:37:57Z</time>
      </trkpt>
      <trkpt lat="44.1226" lon="3.2246">
        <ele>540.59997558594</ele>
        <time>2012-10-28T08:37:59Z</time>
      </trkpt>
      <trkpt lat="44.12261" lon="3.22467">
        <ele>541.20001220703</ele>
        <time>2012-10-28T08:38:03Z</time>
      </trkpt>
      <trkpt lat="44.12261" lon="3.22475">
        <ele>542.40002441406</ele>
        <time>2012-10-28T08:38:10Z</time>
      </trkpt>
      <trkpt lat="44.12262" lon="3.22483">
        <ele>543.40002441406</ele>
        <time>2012-10-28T08:38:14Z</time>
      </trkpt>
      <trkpt lat="44.12262" lon="3.2249">
        <ele>543.40002441406</ele>
        <time>2012-10-28T08:38:18Z</time>
      </trkpt>
      <trkpt lat="44.12259" lon="3.22506">
        <ele>543.40002441406</ele>
        <time>2012-10-28T08:38:27Z</time>
      </trkpt>
      <trkpt lat="44.1226" lon="3.22509">
        <ele>543.20001220703</ele>
        <time>2012-10-28T08:38:28Z</time>
      </trkpt>
      <trkpt lat="44.1226" lon="3.22518">
        <ele>543.20001220703</ele>
        <time>2012-10-28T08:38:33Z</time>
      </trkpt>
      <trkpt lat="44.12257" lon="3.22527">
        <ele>543.40002441406</ele>
        <time>2012-10-28T08:38:36Z</time>
      </trkpt>
      <trkpt lat="44.12254" lon="3.22533">
        <ele>543.40002441406</ele>
        <time>2012-10-28T08:38:39Z</time>
      </trkpt>
      <trkpt lat="44.12252" lon="3.22535">
        <ele>543.40002441406</ele>
        <time>2012-10-28T08:38:40Z</time>
      </trkpt>
      <trkpt lat="44.12249" lon="3.2254">
        <ele>543.59997558594</ele>
        <time>2012-10-28T08:38:42Z</time>
      </trkpt>
      <trkpt lat="44.12244" lon="3.22551">
        <ele>544</ele>
        <time>2012-10-28T08:38:47Z</time>
      </trkpt>
      <trkpt lat="44.12241" lon="3.2255">
        <ele>545</ele>
        <time>2012-10-28T08:38:51Z</time>
      </trkpt>
      <trkpt lat="44.12239" lon="3.22548">
        <ele>545.40002441406</ele>
        <time>2012-10-28T08:38:54Z</time>
      </trkpt>
      <trkpt lat="44.12234" lon="3.22543">
        <ele>546.59997558594</ele>
        <time>2012-10-28T08:39:01Z</time>
      </trkpt>
      <trkpt lat="44.12234" lon="3.2254">
        <ele>547.20001220703</ele>
        <time>2012-10-28T08:39:04Z</time>
      </trkpt>
      <trkpt lat="44.12228" lon="3.22534">
        <ele>549.79998779297</ele>
        <time>2012-10-28T08:39:13Z</time>
      </trkpt>
      <trkpt lat="44.12213" lon="3.2252">
        <ele>560.59997558594</ele>
        <time>2012-10-28T08:39:42Z</time>
      </trkpt>
      <trkpt lat="44.12206" lon="3.22521">
        <ele>566.20001220703</ele>
        <time>2012-10-28T08:39:58Z</time>
      </trkpt>
      <trkpt lat="44.12197" lon="3.22512">
        <ele>568.40002441406</ele>
        <time>2012-10-28T08:40:11Z</time>
      </trkpt>
      <trkpt lat="44.12181" lon="3.22526">
        <ele>572.40002441406</ele>
        <time>2012-10-28T08:40:35Z</time>
      </trkpt>
      <trkpt lat="44.12164" lon="3.22539">
        <ele>572.59997558594</ele>
        <time>2012-10-28T08:40:48Z</time>
      </trkpt>
      <trkpt lat="44.12159" lon="3.22543">
        <ele>573.20001220703</ele>
        <time>2012-10-28T08:40:52Z</time>
      </trkpt>
      <trkpt lat="44.12156" lon="3.22544">
        <ele>573.59997558594</ele>
        <time>2012-10-28T08:40:54Z</time>
      </trkpt>
      <trkpt lat="44.12146" lon="3.2255">
        <ele>575</ele>
        <time>2012-10-28T08:41:05Z</time>
      </trkpt>
      <trkpt lat="44.12143" lon="3.22553">
        <ele>575.40002441406</ele>
        <time>2012-10-28T08:41:08Z</time>
      </trkpt>
      <trkpt lat="44.1213" lon="3.2256">
        <ele>577.40002441406</ele>
        <time>2012-10-28T08:41:19Z</time>
      </trkpt>
      <trkpt lat="44.12127" lon="3.22562">
        <ele>578.40002441406</ele>
        <time>2012-10-28T08:41:23Z</time>
      </trkpt>
      <trkpt lat="44.12124" lon="3.22564">
        <ele>578.59997558594</ele>
        <time>2012-10-28T08:41:27Z</time>
      </trkpt>
      <trkpt lat="44.12115" lon="3.22572">
        <ele>579.20001220703</ele>
        <time>2012-10-28T08:41:39Z</time>
      </trkpt>
      <trkpt lat="44.12111" lon="3.2258">
        <ele>579.40002441406</ele>
        <time>2012-10-28T08:41:42Z</time>
      </trkpt>
      <trkpt lat="44.12105" lon="3.22591">
        <ele>579.59997558594</ele>
        <time>2012-10-28T08:41:46Z</time>
      </trkpt>
      <trkpt lat="44.12104" lon="3.22594">
        <ele>579.59997558594</ele>
        <time>2012-10-28T08:41:48Z</time>
      </trkpt>
      <trkpt lat="44.12096" lon="3.2262">
        <ele>579.79998779297</ele>
        <time>2012-10-28T08:41:56Z</time>
      </trkpt>
      <trkpt lat="44.12086" lon="3.22641">
        <ele>580</ele>
        <time>2012-10-28T08:42:02Z</time>
      </trkpt>
      <trkpt lat="44.12081" lon="3.22668">
        <ele>579.79998779297</ele>
        <time>2012-10-28T08:42:09Z</time>
      </trkpt>
      <trkpt lat="44.12076" lon="3.22693">
        <ele>579.79998779297</ele>
        <time>2012-10-28T08:42:17Z</time>
      </trkpt>
      <trkpt lat="44.12077" lon="3.22705">
        <ele>579.79998779297</ele>
        <time>2012-10-28T08:42:20Z</time>
      </trkpt>
      <trkpt lat="44.12075" lon="3.22712">
        <ele>579.79998779297</ele>
        <time>2012-10-28T08:42:22Z</time>
      </trkpt>
      <trkpt lat="44.12071" lon="3.22716">
        <ele>579.79998779297</ele>
        <time>2012-10-28T08:42:24Z</time>
      </trkpt>
      <trkpt lat="44.12063" lon="3.22717">
        <ele>580</ele>
        <time>2012-10-28T08:42:28Z</time>
      </trkpt>
      <trkpt lat="44.12059" lon="3.22716">
        <ele>580.40002441406</ele>
        <time>2012-10-28T08:42:30Z</time>
      </trkpt>
      <trkpt lat="44.12053" lon="3.22711">
        <ele>581.40002441406</ele>
        <time>2012-10-28T08:42:38Z</time>
      </trkpt>
      <trkpt lat="44.12046" lon="3.22706">
        <ele>582.40002441406</ele>
        <time>2012-10-28T08:42:44Z</time>
      </trkpt>
      <trkpt lat="44.12037" lon="3.22699">
        <ele>584.79998779297</ele>
        <time>2012-10-28T08:42:53Z</time>
      </trkpt>
      <trkpt lat="44.12022" lon="3.22692">
        <ele>588.59997558594</ele>
        <time>2012-10-28T08:43:08Z</time>
      </trkpt>
      <trkpt lat="44.1202" lon="3.22694">
        <ele>589.20001220703</ele>
        <time>2012-10-28T08:43:11Z</time>
      </trkpt>
      <trkpt lat="44.12017" lon="3.22694">
        <ele>589.79998779297</ele>
        <time>2012-10-28T08:43:13Z</time>
      </trkpt>
      <trkpt lat="44.12002" lon="3.22692">
        <ele>591.59997558594</ele>
        <time>2012-10-28T08:43:25Z</time>
      </trkpt>
      <trkpt lat="44.11984" lon="3.22689">
        <ele>593.59997558594</ele>
        <time>2012-10-28T08:43:41Z</time>
      </trkpt>
      <trkpt lat="44.11983" lon="3.22688">
        <ele>593.59997558594</ele>
        <time>2012-10-28T08:43:42Z</time>
      </trkpt>
      <trkpt lat="44.11977" lon="3.22687">
        <ele>593.79998779297</ele>
        <time>2012-10-28T08:43:47Z</time>
      </trkpt>
      <trkpt lat="44.11965" lon="3.2269">
        <ele>595</ele>
        <time>2012-10-28T08:43:57Z</time>
      </trkpt>
      <trkpt lat="44.1195" lon="3.22692">
        <ele>596.59997558594</ele>
        <time>2012-10-28T08:44:11Z</time>
      </trkpt>
      <trkpt lat="44.11946" lon="3.22694">
        <ele>596.79998779297</ele>
        <time>2012-10-28T08:44:12Z</time>
      </trkpt>
      <trkpt lat="44.11927" lon="3.22699">
        <ele>597.79998779297</ele>
        <time>2012-10-28T08:44:24Z</time>
      </trkpt>
      <trkpt lat="44.11909" lon="3.22709">
        <ele>599.59997558594</ele>
        <time>2012-10-28T08:44:34Z</time>
      </trkpt>
      <trkpt lat="44.11893" lon="3.22721">
        <ele>602</ele>
        <time>2012-10-28T08:44:43Z</time>
      </trkpt>
      <trkpt lat="44.11873" lon="3.22726">
        <ele>603.59997558594</ele>
        <time>2012-10-28T08:44:53Z</time>
      </trkpt>
      <trkpt lat="44.11854" lon="3.22732">
        <ele>605.20001220703</ele>
        <time>2012-10-28T08:45:05Z</time>
      </trkpt>
      <trkpt lat="44.11835" lon="3.2274">
        <ele>608.59997558594</ele>
        <time>2012-10-28T08:45:18Z</time>
      </trkpt>
      <trkpt lat="44.11818" lon="3.22739">
        <ele>611.79998779297</ele>
        <time>2012-10-28T08:45:33Z</time>
      </trkpt>
      <trkpt lat="44.11799" lon="3.22739">
        <ele>614.79998779297</ele>
        <time>2012-10-28T08:45:49Z</time>
      </trkpt>
      <trkpt lat="44.11786" lon="3.22743">
        <ele>616</ele>
        <time>2012-10-28T08:45:56Z</time>
      </trkpt>
      <trkpt lat="44.11781" lon="3.22744">
        <ele>616.59997558594</ele>
        <time>2012-10-28T08:45:59Z</time>
      </trkpt>
      <trkpt lat="44.11769" lon="3.22744">
        <ele>617.59997558594</ele>
        <time>2012-10-28T08:46:05Z</time>
      </trkpt>
      <trkpt lat="44.11762" lon="3.22746">
        <ele>618.20001220703</ele>
        <time>2012-10-28T08:46:08Z</time>
      </trkpt>
      <trkpt lat="44.11742" lon="3.22743">
        <ele>619.40002441406</ele>
        <time>2012-10-28T08:46:18Z</time>
      </trkpt>
      <trkpt lat="44.11726" lon="3.2276">
        <ele>620.40002441406</ele>
        <time>2012-10-28T08:46:26Z</time>
      </trkpt>
      <trkpt lat="44.11712" lon="3.22778">
        <ele>622.20001220703</ele>
        <time>2012-10-28T08:46:33Z</time>
      </trkpt>
      <trkpt lat="44.11698" lon="3.22794">
        <ele>624.40002441406</ele>
        <time>2012-10-28T08:46:41Z</time>
      </trkpt>
      <trkpt lat="44.11679" lon="3.22795">
        <ele>627.20001220703</ele>
        <time>2012-10-28T08:46:55Z</time>
      </trkpt>
      <trkpt lat="44.11662" lon="3.22808">
        <ele>630.79998779297</ele>
        <time>2012-10-28T08:47:10Z</time>
      </trkpt>
      <trkpt lat="44.11652" lon="3.22822">
        <ele>633.20001220703</ele>
        <time>2012-10-28T08:47:18Z</time>
      </trkpt>
      <trkpt lat="44.11649" lon="3.22826">
        <ele>634</ele>
        <time>2012-10-28T08:47:20Z</time>
      </trkpt>
      <trkpt lat="44.11639" lon="3.22848">
        <ele>639</ele>
        <time>2012-10-28T08:47:34Z</time>
      </trkpt>
      <trkpt lat="44.11627" lon="3.22866">
        <ele>643.40002441406</ele>
        <time>2012-10-28T08:47:48Z</time>
      </trkpt>
      <trkpt lat="44.11627" lon="3.22867">
        <ele>643.79998779297</ele>
        <time>2012-10-28T08:47:49Z</time>
      </trkpt>
      <trkpt lat="44.11625" lon="3.22872">
        <ele>645.40002441406</ele>
        <time>2012-10-28T08:47:53Z</time>
      </trkpt>
      <trkpt lat="44.11621" lon="3.22881">
        <ele>649.20001220703</ele>
        <time>2012-10-28T08:48:02Z</time>
      </trkpt>
      <trkpt lat="44.11623" lon="3.22889">
        <ele>652</ele>
        <time>2012-10-28T08:48:09Z</time>
      </trkpt>
      <trkpt lat="44.11624" lon="3.22895">
        <ele>654</ele>
        <time>2012-10-28T08:48:13Z</time>
      </trkpt>
      <trkpt lat="44.11625" lon="3.22897">
        <ele>655.59997558594</ele>
        <time>2012-10-28T08:48:16Z</time>
      </trkpt>
      <trkpt lat="44.1163" lon="3.22903">
        <ele>658.40002441406</ele>
        <time>2012-10-28T08:48:22Z</time>
      </trkpt>
      <trkpt lat="44.11631" lon="3.22904">
        <ele>659</ele>
        <time>2012-10-28T08:48:23Z</time>
      </trkpt>
      <trkpt lat="44.11632" lon="3.22909">
        <ele>660.20001220703</ele>
        <time>2012-10-28T08:48:27Z</time>
      </trkpt>
      <trkpt lat="44.11633" lon="3.22918">
        <ele>662</ele>
        <time>2012-10-28T08:48:33Z</time>
      </trkpt>
      <trkpt lat="44.11632" lon="3.22918">
        <ele>662.20001220703</ele>
        <time>2012-10-28T08:48:34Z</time>
      </trkpt>
      <trkpt lat="44.11626" lon="3.22914">
        <ele>664.20001220703</ele>
        <time>2012-10-28T08:48:41Z</time>
      </trkpt>
      <trkpt lat="44.11625" lon="3.22914">
        <ele>664.40002441406</ele>
        <time>2012-10-28T08:48:42Z</time>
      </trkpt>
      <trkpt lat="44.11621" lon="3.22912">
        <ele>665.59997558594</ele>
        <time>2012-10-28T08:48:46Z</time>
      </trkpt>
      <trkpt lat="44.11619" lon="3.22911">
        <ele>666.20001220703</ele>
        <time>2012-10-28T08:48:48Z</time>
      </trkpt>
      <trkpt lat="44.11615" lon="3.2291">
        <ele>667.20001220703</ele>
        <time>2012-10-28T08:48:52Z</time>
      </trkpt>
      <trkpt lat="44.11614" lon="3.22909">
        <ele>667.40002441406</ele>
        <time>2012-10-28T08:48:53Z</time>
      </trkpt>
      <trkpt lat="44.11604" lon="3.22906">
        <ele>668.59997558594</ele>
        <time>2012-10-28T08:49:01Z</time>
      </trkpt>
      <trkpt lat="44.116" lon="3.22905">
        <ele>669.20001220703</ele>
        <time>2012-10-28T08:49:05Z</time>
      </trkpt>
      <trkpt lat="44.11595" lon="3.22902">
        <ele>669.59997558594</ele>
        <time>2012-10-28T08:49:10Z</time>
      </trkpt>
      <trkpt lat="44.11586" lon="3.22897">
        <ele>670.79998779297</ele>
        <time>2012-10-28T08:49:21Z</time>
      </trkpt>
      <trkpt lat="44.11584" lon="3.22895">
        <ele>671.40002441406</ele>
        <time>2012-10-28T08:49:25Z</time>
      </trkpt>
      <trkpt lat="44.11571" lon="3.22884">
        <ele>675.20001220703</ele>
        <time>2012-10-28T08:49:44Z</time>
      </trkpt>
      <trkpt lat="44.11555" lon="3.22881">
        <ele>681.40002441406</ele>
        <time>2012-10-28T08:50:14Z</time>
      </trkpt>
      <trkpt lat="44.11554" lon="3.2288">
        <ele>681.59997558594</ele>
        <time>2012-10-28T08:50:15Z</time>
      </trkpt>
      <trkpt lat="44.11549" lon="3.22878">
        <ele>684.40002441406</ele>
        <time>2012-10-28T08:50:22Z</time>
      </trkpt>
      <trkpt lat="44.11548" lon="3.22876">
        <ele>685.59997558594</ele>
        <time>2012-10-28T08:50:25Z</time>
      </trkpt>
      <trkpt lat="44.11544" lon="3.22878">
        <ele>687.40002441406</ele>
        <time>2012-10-28T08:50:29Z</time>
      </trkpt>
      <trkpt lat="44.11543" lon="3.22872">
        <ele>690</ele>
        <time>2012-10-28T08:50:35Z</time>
      </trkpt>
      <trkpt lat="44.11539" lon="3.22872">
        <ele>692.40002441406</ele>
        <time>2012-10-28T08:50:41Z</time>
      </trkpt>
      <trkpt lat="44.11524" lon="3.22879">
        <ele>698</ele>
        <time>2012-10-28T08:51:08Z</time>
      </trkpt>
      <trkpt lat="44.11523" lon="3.22878">
        <ele>698.20001220703</ele>
        <time>2012-10-28T08:51:09Z</time>
      </trkpt>
      <trkpt lat="44.11529" lon="3.22869">
        <ele>699</ele>
        <time>2012-10-28T08:51:17Z</time>
      </trkpt>
      <trkpt lat="44.11533" lon="3.22865">
        <ele>699.40002441406</ele>
        <time>2012-10-28T08:51:20Z</time>
      </trkpt>
      <trkpt lat="44.11534" lon="3.22864">
        <ele>699.40002441406</ele>
        <time>2012-10-28T08:51:21Z</time>
      </trkpt>
      <trkpt lat="44.11533" lon="3.22861">
        <ele>699.59997558594</ele>
        <time>2012-10-28T08:51:24Z</time>
      </trkpt>
      <trkpt lat="44.1153" lon="3.22861">
        <ele>700.20001220703</ele>
        <time>2012-10-28T08:51:27Z</time>
      </trkpt>
      <trkpt lat="44.11518" lon="3.22851">
        <ele>705</ele>
        <time>2012-10-28T08:51:51Z</time>
      </trkpt>
      <trkpt lat="44.1151" lon="3.22847">
        <ele>707.40002441406</ele>
        <time>2012-10-28T08:52:00Z</time>
      </trkpt>
      <trkpt lat="44.11509" lon="3.22845">
        <ele>707.79998779297</ele>
        <time>2012-10-28T08:52:02Z</time>
      </trkpt>
      <trkpt lat="44.1151" lon="3.22843">
        <ele>708.59997558594</ele>
        <time>2012-10-28T08:52:05Z</time>
      </trkpt>
      <trkpt lat="44.11506" lon="3.22836">
        <ele>710.20001220703</ele>
        <time>2012-10-28T08:52:12Z</time>
      </trkpt>
      <trkpt lat="44.11505" lon="3.22833">
        <ele>710.79998779297</ele>
        <time>2012-10-28T08:52:15Z</time>
      </trkpt>
      <trkpt lat="44.11507" lon="3.22822">
        <ele>713.59997558594</ele>
        <time>2012-10-28T08:52:25Z</time>
      </trkpt>
      <trkpt lat="44.11507" lon="3.22813">
        <ele>716.40002441406</ele>
        <time>2012-10-28T08:52:33Z</time>
      </trkpt>
      <trkpt lat="44.11507" lon="3.22811">
        <ele>716.79998779297</ele>
        <time>2012-10-28T08:52:34Z</time>
      </trkpt>
      <trkpt lat="44.11507" lon="3.22809">
        <ele>717.59997558594</ele>
        <time>2012-10-28T08:52:36Z</time>
      </trkpt>
      <trkpt lat="44.11511" lon="3.22803">
        <ele>719.79998779297</ele>
        <time>2012-10-28T08:52:42Z</time>
      </trkpt>
      <trkpt lat="44.11507" lon="3.22788">
        <ele>723</ele>
        <time>2012-10-28T08:52:55Z</time>
      </trkpt>
      <trkpt lat="44.11499" lon="3.22784">
        <ele>726.20001220703</ele>
        <time>2012-10-28T08:53:05Z</time>
      </trkpt>
      <trkpt lat="44.11494" lon="3.22778">
        <ele>727.59997558594</ele>
        <time>2012-10-28T08:53:10Z</time>
      </trkpt>
      <trkpt lat="44.11491" lon="3.22775">
        <ele>728.79998779297</ele>
        <time>2012-10-28T08:53:14Z</time>
      </trkpt>
      <trkpt lat="44.11483" lon="3.22763">
        <ele>732.20001220703</ele>
        <time>2012-10-28T08:53:25Z</time>
      </trkpt>
      <trkpt lat="44.11482" lon="3.2276">
        <ele>734</ele>
        <time>2012-10-28T08:53:29Z</time>
      </trkpt>
      <trkpt lat="44.11484" lon="3.22756">
        <ele>735.20001220703</ele>
        <time>2012-10-28T08:53:32Z</time>
      </trkpt>
      <trkpt lat="44.11486" lon="3.22755">
        <ele>736</ele>
        <time>2012-10-28T08:53:34Z</time>
      </trkpt>
      <trkpt lat="44.11498" lon="3.22742">
        <ele>741.59997558594</ele>
        <time>2012-10-28T08:53:47Z</time>
      </trkpt>
      <trkpt lat="44.115" lon="3.2274">
        <ele>742.59997558594</ele>
        <time>2012-10-28T08:53:49Z</time>
      </trkpt>
      <trkpt lat="44.11509" lon="3.22724">
        <ele>744.40002441406</ele>
        <time>2012-10-28T08:54:00Z</time>
      </trkpt>
      <trkpt lat="44.11511" lon="3.22722">
        <ele>744.20001220703</ele>
        <time>2012-10-28T08:54:01Z</time>
      </trkpt>
      <trkpt lat="44.11525" lon="3.22711">
        <ele>745.20001220703</ele>
        <time>2012-10-28T08:54:07Z</time>
      </trkpt>
      <trkpt lat="44.11539" lon="3.22694">
        <ele>746</ele>
        <time>2012-10-28T08:54:14Z</time>
      </trkpt>
      <trkpt lat="44.11539" lon="3.22691">
        <ele>746.20001220703</ele>
        <time>2012-10-28T08:54:15Z</time>
      </trkpt>
      <trkpt lat="44.11529" lon="3.22688">
        <ele>746.40002441406</ele>
        <time>2012-10-28T08:54:21Z</time>
      </trkpt>
      <trkpt lat="44.11524" lon="3.2269">
        <ele>746.40002441406</ele>
        <time>2012-10-28T08:54:23Z</time>
      </trkpt>
      <trkpt lat="44.11504" lon="3.22688">
        <ele>746.20001220703</ele>
        <time>2012-10-28T08:54:32Z</time>
      </trkpt>
      <trkpt lat="44.11486" lon="3.22682">
        <ele>745.79998779297</ele>
        <time>2012-10-28T08:54:43Z</time>
      </trkpt>
      <trkpt lat="44.11468" lon="3.22675">
        <ele>745.79998779297</ele>
        <time>2012-10-28T08:54:57Z</time>
      </trkpt>
      <trkpt lat="44.11449" lon="3.22678">
        <ele>746.20001220703</ele>
        <time>2012-10-28T08:55:11Z</time>
      </trkpt>
      <trkpt lat="44.11431" lon="3.22674">
        <ele>747.20001220703</ele>
        <time>2012-10-28T08:55:26Z</time>
      </trkpt>
      <trkpt lat="44.11414" lon="3.22663">
        <ele>748.79998779297</ele>
        <time>2012-10-28T08:55:41Z</time>
      </trkpt>
      <trkpt lat="44.114" lon="3.22646">
        <ele>751.20001220703</ele>
        <time>2012-10-28T08:55:54Z</time>
      </trkpt>
      <trkpt lat="44.11388" lon="3.22626">
        <ele>753.79998779297</ele>
        <time>2012-10-28T08:56:03Z</time>
      </trkpt>
      <trkpt lat="44.11374" lon="3.22607">
        <ele>756.59997558594</ele>
        <time>2012-10-28T08:56:12Z</time>
      </trkpt>
      <trkpt lat="44.11371" lon="3.22603">
        <ele>757.20001220703</ele>
        <time>2012-10-28T08:56:14Z</time>
      </trkpt>
      <trkpt lat="44.11365" lon="3.22584">
        <ele>759.79998779297</ele>
        <time>2012-10-28T08:56:21Z</time>
      </trkpt>
      <trkpt lat="44.11358" lon="3.22561">
        <ele>763.79998779297</ele>
        <time>2012-10-28T08:56:30Z</time>
      </trkpt>
      <trkpt lat="44.1134" lon="3.22549">
        <ele>766.20001220703</ele>
        <time>2012-10-28T08:56:38Z</time>
      </trkpt>
      <trkpt lat="44.11323" lon="3.22537">
        <ele>767.20001220703</ele>
        <time>2012-10-28T08:56:45Z</time>
      </trkpt>
      <trkpt lat="44.11308" lon="3.2252">
        <ele>767.59997558594</ele>
        <time>2012-10-28T08:56:52Z</time>
      </trkpt>
      <trkpt lat="44.11291" lon="3.22502">
        <ele>767.79998779297</ele>
        <time>2012-10-28T08:56:59Z</time>
      </trkpt>
      <trkpt lat="44.11274" lon="3.22487">
        <ele>767.59997558594</ele>
        <time>2012-10-28T08:57:06Z</time>
      </trkpt>
      <trkpt lat="44.1126" lon="3.22466">
        <ele>767.40002441406</ele>
        <time>2012-10-28T08:57:13Z</time>
      </trkpt>
      <trkpt lat="44.11254" lon="3.2244">
        <ele>767</ele>
        <time>2012-10-28T08:57:20Z</time>
      </trkpt>
      <trkpt lat="44.11241" lon="3.22419">
        <ele>766.79998779297</ele>
        <time>2012-10-28T08:57:27Z</time>
      </trkpt>
      <trkpt lat="44.11234" lon="3.22396">
        <ele>766.40002441406</ele>
        <time>2012-10-28T08:57:33Z</time>
      </trkpt>
      <trkpt lat="44.11246" lon="3.22375">
        <ele>765.79998779297</ele>
        <time>2012-10-28T08:57:40Z</time>
      </trkpt>
      <trkpt lat="44.1126" lon="3.22357">
        <ele>764.40002441406</ele>
        <time>2012-10-28T08:57:47Z</time>
      </trkpt>
      <trkpt lat="44.11272" lon="3.22334">
        <ele>763</ele>
        <time>2012-10-28T08:57:54Z</time>
      </trkpt>
      <trkpt lat="44.11272" lon="3.22309">
        <ele>761.59997558594</ele>
        <time>2012-10-28T08:58:00Z</time>
      </trkpt>
      <trkpt lat="44.11266" lon="3.22285">
        <ele>760.40002441406</ele>
        <time>2012-10-28T08:58:06Z</time>
      </trkpt>
      <trkpt lat="44.11258" lon="3.22262">
        <ele>759.20001220703</ele>
        <time>2012-10-28T08:58:12Z</time>
      </trkpt>
      <trkpt lat="44.11248" lon="3.22238">
        <ele>758.20001220703</ele>
        <time>2012-10-28T08:58:18Z</time>
      </trkpt>
      <trkpt lat="44.11235" lon="3.22219">
        <ele>757.20001220703</ele>
        <time>2012-10-28T08:58:24Z</time>
      </trkpt>
      <trkpt lat="44.11222" lon="3.22198">
        <ele>756.20001220703</ele>
        <time>2012-10-28T08:58:30Z</time>
      </trkpt>
      <trkpt lat="44.11211" lon="3.22177">
        <ele>755</ele>
        <time>2012-10-28T08:58:36Z</time>
      </trkpt>
      <trkpt lat="44.112" lon="3.22157">
        <ele>753.79998779297</ele>
        <time>2012-10-28T08:58:42Z</time>
      </trkpt>
      <trkpt lat="44.11185" lon="3.22139">
        <ele>752.40002441406</ele>
        <time>2012-10-28T08:58:48Z</time>
      </trkpt>
      <trkpt lat="44.1117" lon="3.22125">
        <ele>750.59997558594</ele>
        <time>2012-10-28T08:58:54Z</time>
      </trkpt>
      <trkpt lat="44.11152" lon="3.22117">
        <ele>748.79998779297</ele>
        <time>2012-10-28T08:59:00Z</time>
      </trkpt>
      <trkpt lat="44.11133" lon="3.22111">
        <ele>746.40002441406</ele>
        <time>2012-10-28T08:59:07Z</time>
      </trkpt>
      <trkpt lat="44.11114" lon="3.22108">
        <ele>744.20001220703</ele>
        <time>2012-10-28T08:59:13Z</time>
      </trkpt>
      <trkpt lat="44.11096" lon="3.22107">
        <ele>741.79998779297</ele>
        <time>2012-10-28T08:59:19Z</time>
      </trkpt>
      <trkpt lat="44.11077" lon="3.2211">
        <ele>739.40002441406</ele>
        <time>2012-10-28T08:59:25Z</time>
      </trkpt>
      <trkpt lat="44.11057" lon="3.22116">
        <ele>736.59997558594</ele>
        <time>2012-10-28T08:59:32Z</time>
      </trkpt>
      <trkpt lat="44.11054" lon="3.22116">
        <ele>736.20001220703</ele>
        <time>2012-10-28T08:59:33Z</time>
      </trkpt>
      <trkpt lat="44.11038" lon="3.2211">
        <ele>733.79998779297</ele>
        <time>2012-10-28T08:59:39Z</time>
      </trkpt>
      <trkpt lat="44.11031" lon="3.22096">
        <ele>731.79998779297</ele>
        <time>2012-10-28T08:59:44Z</time>
      </trkpt>
      <trkpt lat="44.1103" lon="3.22088">
        <ele>731.20001220703</ele>
        <time>2012-10-28T08:59:46Z</time>
      </trkpt>
      <trkpt lat="44.11021" lon="3.22063">
        <ele>729</ele>
        <time>2012-10-28T08:59:53Z</time>
      </trkpt>
      <trkpt lat="44.11006" lon="3.22046">
        <ele>727</ele>
        <time>2012-10-28T09:00:00Z</time>
      </trkpt>
      <trkpt lat="44.10989" lon="3.22035">
        <ele>725.40002441406</ele>
        <time>2012-10-28T09:00:06Z</time>
      </trkpt>
      <trkpt lat="44.10974" lon="3.22019">
        <ele>724</ele>
        <time>2012-10-28T09:00:12Z</time>
      </trkpt>
      <trkpt lat="44.10963" lon="3.21998">
        <ele>722.59997558594</ele>
        <time>2012-10-28T09:00:18Z</time>
      </trkpt>
      <trkpt lat="44.10952" lon="3.21977">
        <ele>721.40002441406</ele>
        <time>2012-10-28T09:00:24Z</time>
      </trkpt>
      <trkpt lat="44.10939" lon="3.21959">
        <ele>720.20001220703</ele>
        <time>2012-10-28T09:00:30Z</time>
      </trkpt>
      <trkpt lat="44.10926" lon="3.2194">
        <ele>719</ele>
        <time>2012-10-28T09:00:36Z</time>
      </trkpt>
      <trkpt lat="44.1091" lon="3.21924">
        <ele>717.59997558594</ele>
        <time>2012-10-28T09:00:42Z</time>
      </trkpt>
      <trkpt lat="44.10894" lon="3.21908">
        <ele>716.40002441406</ele>
        <time>2012-10-28T09:00:48Z</time>
      </trkpt>
      <trkpt lat="44.10878" lon="3.21894">
        <ele>715</ele>
        <time>2012-10-28T09:00:54Z</time>
      </trkpt>
      <trkpt lat="44.10862" lon="3.2188">
        <ele>713.79998779297</ele>
        <time>2012-10-28T09:01:00Z</time>
      </trkpt>
      <trkpt lat="44.10846" lon="3.21865">
        <ele>712.40002441406</ele>
        <time>2012-10-28T09:01:07Z</time>
      </trkpt>
      <trkpt lat="44.10833" lon="3.21845">
        <ele>711.40002441406</ele>
        <time>2012-10-28T09:01:15Z</time>
      </trkpt>
      <trkpt lat="44.10822" lon="3.21823">
        <ele>710.59997558594</ele>
        <time>2012-10-28T09:01:24Z</time>
      </trkpt>
      <trkpt lat="44.10809" lon="3.21805">
        <ele>710.20001220703</ele>
        <time>2012-10-28T09:01:33Z</time>
      </trkpt>
      <trkpt lat="44.10799" lon="3.21783">
        <ele>710.20001220703</ele>
        <time>2012-10-28T09:01:42Z</time>
      </trkpt>
      <trkpt lat="44.10795" lon="3.21762">
        <ele>709</ele>
        <time>2012-10-28T09:01:50Z</time>
      </trkpt>
      <trkpt lat="44.10793" lon="3.2176">
        <ele>709</ele>
        <time>2012-10-28T09:01:51Z</time>
      </trkpt>
      <trkpt lat="44.10785" lon="3.21753">
        <ele>708.40002441406</ele>
        <time>2012-10-28T09:01:55Z</time>
      </trkpt>
      <trkpt lat="44.10774" lon="3.21751">
        <ele>707.59997558594</ele>
        <time>2012-10-28T09:01:59Z</time>
      </trkpt>
      <trkpt lat="44.10756" lon="3.21749">
        <ele>706.59997558594</ele>
        <time>2012-10-28T09:02:06Z</time>
      </trkpt>
      <trkpt lat="44.10737" lon="3.21749">
        <ele>705.79998779297</ele>
        <time>2012-10-28T09:02:13Z</time>
      </trkpt>
      <trkpt lat="44.10717" lon="3.21747">
        <ele>705</ele>
        <time>2012-10-28T09:02:20Z</time>
      </trkpt>
      <trkpt lat="44.10699" lon="3.21749">
        <ele>707.79998779297</ele>
        <time>2012-10-28T09:02:26Z</time>
      </trkpt>
      <trkpt lat="44.1068" lon="3.21748">
        <ele>709.40002441406</ele>
        <time>2012-10-28T09:02:34Z</time>
      </trkpt>
      <trkpt lat="44.10678" lon="3.2175">
        <ele>709.40002441406</ele>
        <time>2012-10-28T09:02:35Z</time>
      </trkpt>
      <trkpt lat="44.10674" lon="3.21772">
        <ele>710.40002441406</ele>
        <time>2012-10-28T09:02:42Z</time>
      </trkpt>
      <trkpt lat="44.10675" lon="3.21779">
        <ele>710.59997558594</ele>
        <time>2012-10-28T09:02:52Z</time>
      </trkpt>
      <trkpt lat="44.10673" lon="3.21785">
        <ele>710.40002441406</ele>
        <time>2012-10-28T09:02:58Z</time>
      </trkpt>
      <trkpt lat="44.10672" lon="3.21788">
        <ele>709.79998779297</ele>
        <time>2012-10-28T09:03:06Z</time>
      </trkpt>
      <trkpt lat="44.10674" lon="3.21787">
        <ele>709.79998779297</ele>
        <time>2012-10-28T09:03:11Z</time>
      </trkpt>
      <trkpt lat="44.10675" lon="3.21786">
        <ele>709.59997558594</ele>
        <time>2012-10-28T09:03:13Z</time>
      </trkpt>
      <trkpt lat="44.10674" lon="3.21784">
        <ele>709.59997558594</ele>
        <time>2012-10-28T09:03:16Z</time>
      </trkpt>
      <trkpt lat="44.10667" lon="3.21797">
        <ele>710.59997558594</ele>
        <time>2012-10-28T09:03:28Z</time>
      </trkpt>
      <trkpt lat="44.1067" lon="3.218">
        <ele>710.40002441406</ele>
        <time>2012-10-28T09:03:38Z</time>
      </trkpt>
      <trkpt lat="44.1067" lon="3.21798">
        <ele>709.59997558594</ele>
        <time>2012-10-28T09:03:44Z</time>
      </trkpt>
      <trkpt lat="44.10662" lon="3.21798">
        <ele>709</ele>
        <time>2012-10-28T09:03:51Z</time>
      </trkpt>
      <trkpt lat="44.10666" lon="3.21798">
        <ele>708.59997558594</ele>
        <time>2012-10-28T09:03:56Z</time>
      </trkpt>
      <trkpt lat="44.10667" lon="3.21793">
        <ele>708.59997558594</ele>
        <time>2012-10-28T09:04:05Z</time>
      </trkpt>
      <trkpt lat="44.10671" lon="3.21791">
        <ele>708.20001220703</ele>
        <time>2012-10-28T09:04:10Z</time>
      </trkpt>
      <trkpt lat="44.10673" lon="3.21783">
        <ele>709.20001220703</ele>
        <time>2012-10-28T09:04:20Z</time>
      </trkpt>
      <trkpt lat="44.10672" lon="3.21786">
        <ele>710</ele>
        <time>2012-10-28T09:04:24Z</time>
      </trkpt>
      <trkpt lat="44.10678" lon="3.21789">
        <ele>710.59997558594</ele>
        <time>2012-10-28T09:04:28Z</time>
      </trkpt>
      <trkpt lat="44.10677" lon="3.21786">
        <ele>711</ele>
        <time>2012-10-28T09:04:32Z</time>
      </trkpt>
      <trkpt lat="44.10672" lon="3.21787">
        <ele>711.40002441406</ele>
        <time>2012-10-28T09:04:34Z</time>
      </trkpt>
      <trkpt lat="44.10667" lon="3.21792">
        <ele>711.40002441406</ele>
        <time>2012-10-28T09:04:37Z</time>
      </trkpt>
      <trkpt lat="44.10668" lon="3.2179">
        <ele>711</ele>
        <time>2012-10-28T09:04:43Z</time>
      </trkpt>
      <trkpt lat="44.10667" lon="3.21786">
        <ele>710.79998779297</ele>
        <time>2012-10-28T09:04:46Z</time>
      </trkpt>
      <trkpt lat="44.10666" lon="3.2178">
        <ele>710.40002441406</ele>
        <time>2012-10-28T09:04:50Z</time>
      </trkpt>
      <trkpt lat="44.10664" lon="3.21772">
        <ele>710</ele>
        <time>2012-10-28T09:04:55Z</time>
      </trkpt>
      <trkpt lat="44.10665" lon="3.2177">
        <ele>709.79998779297</ele>
        <time>2012-10-28T09:04:57Z</time>
      </trkpt>
      <trkpt lat="44.10665" lon="3.2177">
        <ele>709</ele>
        <time>2012-10-28T09:05:17Z</time>
      </trkpt>
      <trkpt lat="44.10664" lon="3.21766">
        <ele>706</ele>
        <time>2012-10-28T09:06:00Z</time>
      </trkpt>
      <trkpt lat="44.10665" lon="3.21759">
        <ele>705.79998779297</ele>
        <time>2012-10-28T09:06:04Z</time>
      </trkpt>
      <trkpt lat="44.10665" lon="3.21757">
        <ele>705.79998779297</ele>
        <time>2012-10-28T09:06:05Z</time>
      </trkpt>
      <trkpt lat="44.10666" lon="3.2175">
        <ele>705.59997558594</ele>
        <time>2012-10-28T09:06:08Z</time>
      </trkpt>
      <trkpt lat="44.10671" lon="3.21742">
        <ele>705.40002441406</ele>
        <time>2012-10-28T09:06:12Z</time>
      </trkpt>
      <trkpt lat="44.10677" lon="3.2174">
        <ele>705</ele>
        <time>2012-10-28T09:06:16Z</time>
      </trkpt>
      <trkpt lat="44.10696" lon="3.21739">
        <ele>704</ele>
        <time>2012-10-28T09:06:27Z</time>
      </trkpt>
      <trkpt lat="44.10711" lon="3.21729">
        <ele>700.59997558594</ele>
        <time>2012-10-28T09:07:09Z</time>
      </trkpt>
      <trkpt lat="44.10729" lon="3.21718">
        <ele>700</ele>
        <time>2012-10-28T09:07:18Z</time>
      </trkpt>
      <trkpt lat="44.1073" lon="3.21715">
        <ele>699.79998779297</ele>
        <time>2012-10-28T09:07:19Z</time>
      </trkpt>
      <trkpt lat="44.10728" lon="3.21695">
        <ele>699.40002441406</ele>
        <time>2012-10-28T09:07:25Z</time>
      </trkpt>
      <trkpt lat="44.10715" lon="3.21673">
        <ele>699</ele>
        <time>2012-10-28T09:07:32Z</time>
      </trkpt>
      <trkpt lat="44.10702" lon="3.21652">
        <ele>698.40002441406</ele>
        <time>2012-10-28T09:07:39Z</time>
      </trkpt>
      <trkpt lat="44.1069" lon="3.21633">
        <ele>698.20001220703</ele>
        <time>2012-10-28T09:07:45Z</time>
      </trkpt>
      <trkpt lat="44.10679" lon="3.2161">
        <ele>697.79998779297</ele>
        <time>2012-10-28T09:07:52Z</time>
      </trkpt>
      <trkpt lat="44.10666" lon="3.21586">
        <ele>697.59997558594</ele>
        <time>2012-10-28T09:07:59Z</time>
      </trkpt>
      <trkpt lat="44.10654" lon="3.21563">
        <ele>697.40002441406</ele>
        <time>2012-10-28T09:08:06Z</time>
      </trkpt>
      <trkpt lat="44.10646" lon="3.2154">
        <ele>697.40002441406</ele>
        <time>2012-10-28T09:08:13Z</time>
      </trkpt>
      <trkpt lat="44.1064" lon="3.21516">
        <ele>697.20001220703</ele>
        <time>2012-10-28T09:08:20Z</time>
      </trkpt>
      <trkpt lat="44.10644" lon="3.2149">
        <ele>697.40002441406</ele>
        <time>2012-10-28T09:08:27Z</time>
      </trkpt>
      <trkpt lat="44.10649" lon="3.21487">
        <ele>697.20001220703</ele>
        <time>2012-10-28T09:08:29Z</time>
      </trkpt>
      <trkpt lat="44.10663" lon="3.21487">
        <ele>697</ele>
        <time>2012-10-28T09:08:34Z</time>
      </trkpt>
      <trkpt lat="44.10684" lon="3.21491">
        <ele>696.79998779297</ele>
        <time>2012-10-28T09:08:41Z</time>
      </trkpt>
      <trkpt lat="44.10704" lon="3.2149">
        <ele>696.40002441406</ele>
        <time>2012-10-28T09:08:48Z</time>
      </trkpt>
      <trkpt lat="44.10722" lon="3.2149">
        <ele>696</ele>
        <time>2012-10-28T09:08:54Z</time>
      </trkpt>
      <trkpt lat="44.10741" lon="3.21492">
        <ele>695.40002441406</ele>
        <time>2012-10-28T09:09:00Z</time>
      </trkpt>
      <trkpt lat="44.10761" lon="3.21495">
        <ele>694.59997558594</ele>
        <time>2012-10-28T09:09:07Z</time>
      </trkpt>
      <trkpt lat="44.10781" lon="3.21493">
        <ele>693.79998779297</ele>
        <time>2012-10-28T09:09:14Z</time>
      </trkpt>
      <trkpt lat="44.108" lon="3.21488">
        <ele>693</ele>
        <time>2012-10-28T09:09:21Z</time>
      </trkpt>
      <trkpt lat="44.10816" lon="3.21476">
        <ele>692.20001220703</ele>
        <time>2012-10-28T09:09:27Z</time>
      </trkpt>
      <trkpt lat="44.1083" lon="3.21458">
        <ele>691.20001220703</ele>
        <time>2012-10-28T09:09:34Z</time>
      </trkpt>
      <trkpt lat="44.10845" lon="3.2144">
        <ele>690.20001220703</ele>
        <time>2012-10-28T09:09:41Z</time>
      </trkpt>
      <trkpt lat="44.10859" lon="3.21421">
        <ele>689.20001220703</ele>
        <time>2012-10-28T09:09:48Z</time>
      </trkpt>
      <trkpt lat="44.10874" lon="3.21405">
        <ele>688</ele>
        <time>2012-10-28T09:09:55Z</time>
      </trkpt>
      <trkpt lat="44.10888" lon="3.21384">
        <ele>687</ele>
        <time>2012-10-28T09:10:02Z</time>
      </trkpt>
      <trkpt lat="44.10899" lon="3.21361">
        <ele>686.59997558594</ele>
        <time>2012-10-28T09:10:08Z</time>
      </trkpt>
      <trkpt lat="44.10909" lon="3.21339">
        <ele>686.20001220703</ele>
        <time>2012-10-28T09:10:14Z</time>
      </trkpt>
      <trkpt lat="44.10912" lon="3.21313">
        <ele>685.79998779297</ele>
        <time>2012-10-28T09:10:20Z</time>
      </trkpt>
      <trkpt lat="44.1091" lon="3.21288">
        <ele>685.79998779297</ele>
        <time>2012-10-28T09:10:26Z</time>
      </trkpt>
      <trkpt lat="44.10905" lon="3.21263">
        <ele>685.59997558594</ele>
        <time>2012-10-28T09:10:33Z</time>
      </trkpt>
      <trkpt lat="44.10903" lon="3.2124">
        <ele>685.20001220703</ele>
        <time>2012-10-28T09:10:39Z</time>
      </trkpt>
      <trkpt lat="44.10902" lon="3.21237">
        <ele>685.20001220703</ele>
        <time>2012-10-28T09:10:40Z</time>
      </trkpt>
      <trkpt lat="44.10899" lon="3.21212">
        <ele>684.79998779297</ele>
        <time>2012-10-28T09:10:46Z</time>
      </trkpt>
      <trkpt lat="44.10899" lon="3.21187">
        <ele>684.20001220703</ele>
        <time>2012-10-28T09:10:53Z</time>
      </trkpt>
      <trkpt lat="44.10896" lon="3.21161">
        <ele>683.20001220703</ele>
        <time>2012-10-28T09:11:00Z</time>
      </trkpt>
      <trkpt lat="44.10894" lon="3.21132">
        <ele>682.20001220703</ele>
        <time>2012-10-28T09:11:07Z</time>
      </trkpt>
      <trkpt lat="44.10897" lon="3.21104">
        <ele>681.59997558594</ele>
        <time>2012-10-28T09:11:13Z</time>
      </trkpt>
      <trkpt lat="44.10906" lon="3.2108">
        <ele>680.59997558594</ele>
        <time>2012-10-28T09:11:20Z</time>
      </trkpt>
      <trkpt lat="44.10909" lon="3.21055">
        <ele>680</ele>
        <time>2012-10-28T09:11:26Z</time>
      </trkpt>
      <trkpt lat="44.10901" lon="3.21031">
        <ele>679.20001220703</ele>
        <time>2012-10-28T09:11:33Z</time>
      </trkpt>
      <trkpt lat="44.10893" lon="3.21005">
        <ele>678.40002441406</ele>
        <time>2012-10-28T09:11:40Z</time>
      </trkpt>
      <trkpt lat="44.10884" lon="3.20984">
        <ele>677.59997558594</ele>
        <time>2012-10-28T09:11:46Z</time>
      </trkpt>
      <trkpt lat="44.10879" lon="3.20957">
        <ele>676.79998779297</ele>
        <time>2012-10-28T09:11:52Z</time>
      </trkpt>
      <trkpt lat="44.10873" lon="3.20933">
        <ele>675.79998779297</ele>
        <time>2012-10-28T09:11:58Z</time>
      </trkpt>
      <trkpt lat="44.10865" lon="3.2091">
        <ele>674.79998779297</ele>
        <time>2012-10-28T09:12:05Z</time>
      </trkpt>
      <trkpt lat="44.10851" lon="3.2089">
        <ele>673.59997558594</ele>
        <time>2012-10-28T09:12:13Z</time>
      </trkpt>
      <trkpt lat="44.10835" lon="3.20876">
        <ele>672.40002441406</ele>
        <time>2012-10-28T09:12:20Z</time>
      </trkpt>
      <trkpt lat="44.10826" lon="3.20865">
        <ele>671.79998779297</ele>
        <time>2012-10-28T09:12:24Z</time>
      </trkpt>
      <trkpt lat="44.10826" lon="3.20856">
        <ele>671.40002441406</ele>
        <time>2012-10-28T09:12:26Z</time>
      </trkpt>
      <trkpt lat="44.10841" lon="3.20847">
        <ele>670</ele>
        <time>2012-10-28T09:12:33Z</time>
      </trkpt>
      <trkpt lat="44.10852" lon="3.20847">
        <ele>669</ele>
        <time>2012-10-28T09:12:38Z</time>
      </trkpt>
      <trkpt lat="44.10858" lon="3.20842">
        <ele>668.40002441406</ele>
        <time>2012-10-28T09:12:41Z</time>
      </trkpt>
      <trkpt lat="44.10872" lon="3.20827">
        <ele>667</ele>
        <time>2012-10-28T09:12:48Z</time>
      </trkpt>
      <trkpt lat="44.10888" lon="3.2081">
        <ele>665.40002441406</ele>
        <time>2012-10-28T09:12:55Z</time>
      </trkpt>
      <trkpt lat="44.10902" lon="3.20792">
        <ele>663.40002441406</ele>
        <time>2012-10-28T09:13:03Z</time>
      </trkpt>
      <trkpt lat="44.10915" lon="3.20772">
        <ele>661.79998779297</ele>
        <time>2012-10-28T09:13:10Z</time>
      </trkpt>
      <trkpt lat="44.10929" lon="3.2075">
        <ele>659.59997558594</ele>
        <time>2012-10-28T09:13:18Z</time>
      </trkpt>
      <trkpt lat="44.10935" lon="3.20736">
        <ele>658.59997558594</ele>
        <time>2012-10-28T09:13:22Z</time>
      </trkpt>
      <trkpt lat="44.10937" lon="3.20724">
        <ele>658</ele>
        <time>2012-10-28T09:13:25Z</time>
      </trkpt>
      <trkpt lat="44.10944" lon="3.20699">
        <ele>656.20001220703</ele>
        <time>2012-10-28T09:13:32Z</time>
      </trkpt>
      <trkpt lat="44.10952" lon="3.20675">
        <ele>654.79998779297</ele>
        <time>2012-10-28T09:13:39Z</time>
      </trkpt>
      <trkpt lat="44.10963" lon="3.20652">
        <ele>653.20001220703</ele>
        <time>2012-10-28T09:13:46Z</time>
      </trkpt>
      <trkpt lat="44.10977" lon="3.20634">
        <ele>652</ele>
        <time>2012-10-28T09:13:53Z</time>
      </trkpt>
      <trkpt lat="44.10993" lon="3.20615">
        <ele>651</ele>
        <time>2012-10-28T09:14:00Z</time>
      </trkpt>
      <trkpt lat="44.11004" lon="3.20591">
        <ele>650.20001220703</ele>
        <time>2012-10-28T09:14:08Z</time>
      </trkpt>
      <trkpt lat="44.11021" lon="3.20578">
        <ele>649.40002441406</ele>
        <time>2012-10-28T09:14:16Z</time>
      </trkpt>
      <trkpt lat="44.11037" lon="3.20561">
        <ele>649.20001220703</ele>
        <time>2012-10-28T09:14:24Z</time>
      </trkpt>
      <trkpt lat="44.11051" lon="3.20543">
        <ele>649</ele>
        <time>2012-10-28T09:14:32Z</time>
      </trkpt>
      <trkpt lat="44.11065" lon="3.20528">
        <ele>648.59997558594</ele>
        <time>2012-10-28T09:14:39Z</time>
      </trkpt>
      <trkpt lat="44.11077" lon="3.20504">
        <ele>648.40002441406</ele>
        <time>2012-10-28T09:14:46Z</time>
      </trkpt>
      <trkpt lat="44.11088" lon="3.20481">
        <ele>648.20001220703</ele>
        <time>2012-10-28T09:14:53Z</time>
      </trkpt>
      <trkpt lat="44.11096" lon="3.20459">
        <ele>648.40002441406</ele>
        <time>2012-10-28T09:14:59Z</time>
      </trkpt>
      <trkpt lat="44.11102" lon="3.20433">
        <ele>648.79998779297</ele>
        <time>2012-10-28T09:15:06Z</time>
      </trkpt>
      <trkpt lat="44.11104" lon="3.20411">
        <ele>649</ele>
        <time>2012-10-28T09:15:13Z</time>
      </trkpt>
      <trkpt lat="44.11104" lon="3.20405">
        <ele>649</ele>
        <time>2012-10-28T09:15:15Z</time>
      </trkpt>
      <trkpt lat="44.11112" lon="3.20387">
        <ele>649</ele>
        <time>2012-10-28T09:15:21Z</time>
      </trkpt>
      <trkpt lat="44.11113" lon="3.20384">
        <ele>649</ele>
        <time>2012-10-28T09:15:22Z</time>
      </trkpt>
      <trkpt lat="44.11123" lon="3.20362">
        <ele>648.79998779297</ele>
        <time>2012-10-28T09:15:28Z</time>
      </trkpt>
      <trkpt lat="44.11128" lon="3.20334">
        <ele>649.59997558594</ele>
        <time>2012-10-28T09:15:34Z</time>
      </trkpt>
      <trkpt lat="44.11127" lon="3.20308">
        <ele>650.79998779297</ele>
        <time>2012-10-28T09:15:40Z</time>
      </trkpt>
      <trkpt lat="44.1112" lon="3.2028">
        <ele>651.59997558594</ele>
        <time>2012-10-28T09:15:48Z</time>
      </trkpt>
      <trkpt lat="44.11114" lon="3.20254">
        <ele>651</ele>
        <time>2012-10-28T09:15:56Z</time>
      </trkpt>
      <trkpt lat="44.11111" lon="3.20238">
        <ele>650.59997558594</ele>
        <time>2012-10-28T09:16:01Z</time>
      </trkpt>
      <trkpt lat="44.11108" lon="3.20228">
        <ele>650.40002441406</ele>
        <time>2012-10-28T09:16:04Z</time>
      </trkpt>
      <trkpt lat="44.11111" lon="3.20203">
        <ele>650.40002441406</ele>
        <time>2012-10-28T09:16:11Z</time>
      </trkpt>
      <trkpt lat="44.11113" lon="3.20198">
        <ele>650.40002441406</ele>
        <time>2012-10-28T09:16:13Z</time>
      </trkpt>
      <trkpt lat="44.11117" lon="3.20178">
        <ele>651</ele>
        <time>2012-10-28T09:16:19Z</time>
      </trkpt>
      <trkpt lat="44.11127" lon="3.20158">
        <ele>653</ele>
        <time>2012-10-28T09:16:28Z</time>
      </trkpt>
      <trkpt lat="44.11137" lon="3.20153">
        <ele>654</ele>
        <time>2012-10-28T09:16:33Z</time>
      </trkpt>
      <trkpt lat="44.11145" lon="3.20148">
        <ele>654.40002441406</ele>
        <time>2012-10-28T09:16:37Z</time>
      </trkpt>
      <trkpt lat="44.11149" lon="3.2014">
        <ele>655</ele>
        <time>2012-10-28T09:16:41Z</time>
      </trkpt>
      <trkpt lat="44.11154" lon="3.20134">
        <ele>655.59997558594</ele>
        <time>2012-10-28T09:16:44Z</time>
      </trkpt>
      <trkpt lat="44.11158" lon="3.20128">
        <ele>656.59997558594</ele>
        <time>2012-10-28T09:16:47Z</time>
      </trkpt>
      <trkpt lat="44.11163" lon="3.20122">
        <ele>658.20001220703</ele>
        <time>2012-10-28T09:16:52Z</time>
      </trkpt>
      <trkpt lat="44.1117" lon="3.20121">
        <ele>659.20001220703</ele>
        <time>2012-10-28T09:16:58Z</time>
      </trkpt>
      <trkpt lat="44.11174" lon="3.20122">
        <ele>660</ele>
        <time>2012-10-28T09:17:02Z</time>
      </trkpt>
      <trkpt lat="44.1119" lon="3.20127">
        <ele>662.20001220703</ele>
        <time>2012-10-28T09:17:15Z</time>
      </trkpt>
      <trkpt lat="44.11192" lon="3.20128">
        <ele>662.40002441406</ele>
        <time>2012-10-28T09:17:17Z</time>
      </trkpt>
      <trkpt lat="44.11206" lon="3.20129">
        <ele>663.79998779297</ele>
        <time>2012-10-28T09:17:28Z</time>
      </trkpt>
      <trkpt lat="44.1121" lon="3.20132">
        <ele>663.79998779297</ele>
        <time>2012-10-28T09:17:30Z</time>
      </trkpt>
      <trkpt lat="44.11211" lon="3.20133">
        <ele>663.79998779297</ele>
        <time>2012-10-28T09:17:31Z</time>
      </trkpt>
      <trkpt lat="44.11222" lon="3.2014">
        <ele>665.79998779297</ele>
        <time>2012-10-28T09:17:45Z</time>
      </trkpt>
      <trkpt lat="44.1122" lon="3.20145">
        <ele>667</ele>
        <time>2012-10-28T09:17:49Z</time>
      </trkpt>
      <trkpt lat="44.11219" lon="3.20149">
        <ele>668.40002441406</ele>
        <time>2012-10-28T09:17:53Z</time>
      </trkpt>
      <trkpt lat="44.11223" lon="3.2016">
        <ele>671.79998779297</ele>
        <time>2012-10-28T09:18:02Z</time>
      </trkpt>
      <trkpt lat="44.11227" lon="3.20163">
        <ele>673.59997558594</ele>
        <time>2012-10-28T09:18:07Z</time>
      </trkpt>
      <trkpt lat="44.11243" lon="3.20171">
        <ele>677.40002441406</ele>
        <time>2012-10-28T09:18:22Z</time>
      </trkpt>
      <trkpt lat="44.11245" lon="3.20172">
        <ele>677.79998779297</ele>
        <time>2012-10-28T09:18:24Z</time>
      </trkpt>
      <trkpt lat="44.11248" lon="3.20172">
        <ele>678.20001220703</ele>
        <time>2012-10-28T09:18:26Z</time>
      </trkpt>
      <trkpt lat="44.11262" lon="3.20177">
        <ele>680.40002441406</ele>
        <time>2012-10-28T09:18:38Z</time>
      </trkpt>
      <trkpt lat="44.11263" lon="3.20179">
        <ele>680.59997558594</ele>
        <time>2012-10-28T09:18:39Z</time>
      </trkpt>
      <trkpt lat="44.11276" lon="3.20185">
        <ele>682.79998779297</ele>
        <time>2012-10-28T09:18:51Z</time>
      </trkpt>
      <trkpt lat="44.11279" lon="3.20181">
        <ele>683.59997558594</ele>
        <time>2012-10-28T09:18:54Z</time>
      </trkpt>
      <trkpt lat="44.11289" lon="3.20174">
        <ele>686</ele>
        <time>2012-10-28T09:19:02Z</time>
      </trkpt>
      <trkpt lat="44.11295" lon="3.20167">
        <ele>687.59997558594</ele>
        <time>2012-10-28T09:19:07Z</time>
      </trkpt>
      <trkpt lat="44.11303" lon="3.20158">
        <ele>689.20001220703</ele>
        <time>2012-10-28T09:19:12Z</time>
      </trkpt>
      <trkpt lat="44.11308" lon="3.20148">
        <ele>690.40002441406</ele>
        <time>2012-10-28T09:19:16Z</time>
      </trkpt>
      <trkpt lat="44.11321" lon="3.20129">
        <ele>692.40002441406</ele>
        <time>2012-10-28T09:19:27Z</time>
      </trkpt>
      <trkpt lat="44.11333" lon="3.20109">
        <ele>693.59997558594</ele>
        <time>2012-10-28T09:19:39Z</time>
      </trkpt>
      <trkpt lat="44.11343" lon="3.20097">
        <ele>694</ele>
        <time>2012-10-28T09:19:49Z</time>
      </trkpt>
      <trkpt lat="44.11347" lon="3.20091">
        <ele>694.40002441406</ele>
        <time>2012-10-28T09:19:53Z</time>
      </trkpt>
      <trkpt lat="44.1136" lon="3.20073">
        <ele>695.20001220703</ele>
        <time>2012-10-28T09:20:03Z</time>
      </trkpt>
      <trkpt lat="44.11366" lon="3.20061">
        <ele>695.59997558594</ele>
        <time>2012-10-28T09:20:09Z</time>
      </trkpt>
      <trkpt lat="44.11372" lon="3.20052">
        <ele>696</ele>
        <time>2012-10-28T09:20:14Z</time>
      </trkpt>
      <trkpt lat="44.11385" lon="3.20033">
        <ele>697.40002441406</ele>
        <time>2012-10-28T09:20:24Z</time>
      </trkpt>
      <trkpt lat="44.114" lon="3.20015">
        <ele>699.40002441406</ele>
        <time>2012-10-28T09:20:33Z</time>
      </trkpt>
      <trkpt lat="44.11406" lon="3.20007">
        <ele>700.20001220703</ele>
        <time>2012-10-28T09:20:37Z</time>
      </trkpt>
      <trkpt lat="44.11414" lon="3.20005">
        <ele>701.20001220703</ele>
        <time>2012-10-28T09:20:41Z</time>
      </trkpt>
      <trkpt lat="44.11415" lon="3.20004">
        <ele>701.40002441406</ele>
        <time>2012-10-28T09:20:42Z</time>
      </trkpt>
      <trkpt lat="44.1142" lon="3.19999">
        <ele>702.20001220703</ele>
        <time>2012-10-28T09:20:45Z</time>
      </trkpt>
      <trkpt lat="44.11432" lon="3.19991">
        <ele>703.79998779297</ele>
        <time>2012-10-28T09:20:51Z</time>
      </trkpt>
      <trkpt lat="44.11433" lon="3.19988">
        <ele>704.20001220703</ele>
        <time>2012-10-28T09:20:52Z</time>
      </trkpt>
      <trkpt lat="44.11433" lon="3.19985">
        <ele>704.59997558594</ele>
        <time>2012-10-28T09:20:53Z</time>
      </trkpt>
      <trkpt lat="44.11429" lon="3.19974">
        <ele>706.40002441406</ele>
        <time>2012-10-28T09:20:57Z</time>
      </trkpt>
      <trkpt lat="44.11425" lon="3.19971">
        <ele>707</ele>
        <time>2012-10-28T09:20:59Z</time>
      </trkpt>
      <trkpt lat="44.11422" lon="3.19967">
        <ele>707.59997558594</ele>
        <time>2012-10-28T09:21:01Z</time>
      </trkpt>
      <trkpt lat="44.1142" lon="3.19947">
        <ele>710.20001220703</ele>
        <time>2012-10-28T09:21:07Z</time>
      </trkpt>
      <trkpt lat="44.1142" lon="3.19944">
        <ele>710.59997558594</ele>
        <time>2012-10-28T09:21:08Z</time>
      </trkpt>
      <trkpt lat="44.1141" lon="3.19924">
        <ele>713.79998779297</ele>
        <time>2012-10-28T09:21:15Z</time>
      </trkpt>
      <trkpt lat="44.11395" lon="3.19906">
        <ele>716.79998779297</ele>
        <time>2012-10-28T09:21:22Z</time>
      </trkpt>
      <trkpt lat="44.11378" lon="3.19899">
        <ele>719.40002441406</ele>
        <time>2012-10-28T09:21:29Z</time>
      </trkpt>
      <trkpt lat="44.11361" lon="3.19887">
        <ele>721.40002441406</ele>
        <time>2012-10-28T09:21:36Z</time>
      </trkpt>
      <trkpt lat="44.11344" lon="3.19873">
        <ele>723</ele>
        <time>2012-10-28T09:21:43Z</time>
      </trkpt>
      <trkpt lat="44.11331" lon="3.19855">
        <ele>724.40002441406</ele>
        <time>2012-10-28T09:21:50Z</time>
      </trkpt>
      <trkpt lat="44.11326" lon="3.19831">
        <ele>726.20001220703</ele>
        <time>2012-10-28T09:21:57Z</time>
      </trkpt>
      <trkpt lat="44.11331" lon="3.19807">
        <ele>727.79998779297</ele>
        <time>2012-10-28T09:22:06Z</time>
      </trkpt>
      <trkpt lat="44.11332" lon="3.19801">
        <ele>728.20001220703</ele>
        <time>2012-10-28T09:22:08Z</time>
      </trkpt>
      <trkpt lat="44.11335" lon="3.1978">
        <ele>729</ele>
        <time>2012-10-28T09:22:16Z</time>
      </trkpt>
      <trkpt lat="44.11335" lon="3.19765">
        <ele>729.59997558594</ele>
        <time>2012-10-28T09:22:21Z</time>
      </trkpt>
      <trkpt lat="44.11337" lon="3.19756">
        <ele>730</ele>
        <time>2012-10-28T09:22:24Z</time>
      </trkpt>
      <trkpt lat="44.11343" lon="3.19731">
        <ele>731.20001220703</ele>
        <time>2012-10-28T09:22:32Z</time>
      </trkpt>
      <trkpt lat="44.11343" lon="3.19728">
        <ele>731.40002441406</ele>
        <time>2012-10-28T09:22:33Z</time>
      </trkpt>
      <trkpt lat="44.11346" lon="3.19704">
        <ele>731.79998779297</ele>
        <time>2012-10-28T09:22:40Z</time>
      </trkpt>
      <trkpt lat="44.11348" lon="3.19677">
        <ele>732.20001220703</ele>
        <time>2012-10-28T09:22:48Z</time>
      </trkpt>
      <trkpt lat="44.1135" lon="3.19652">
        <ele>732.79998779297</ele>
        <time>2012-10-28T09:22:55Z</time>
      </trkpt>
      <trkpt lat="44.11354" lon="3.19627">
        <ele>734</ele>
        <time>2012-10-28T09:23:02Z</time>
      </trkpt>
      <trkpt lat="44.11359" lon="3.19602">
        <ele>734.79998779297</ele>
        <time>2012-10-28T09:23:09Z</time>
      </trkpt>
      <trkpt lat="44.11365" lon="3.19578">
        <ele>735.40002441406</ele>
        <time>2012-10-28T09:23:16Z</time>
      </trkpt>
      <trkpt lat="44.11369" lon="3.19551">
        <ele>735.79998779297</ele>
        <time>2012-10-28T09:23:23Z</time>
      </trkpt>
      <trkpt lat="44.11375" lon="3.19523">
        <ele>735.59997558594</ele>
        <time>2012-10-28T09:23:30Z</time>
      </trkpt>
      <trkpt lat="44.11382" lon="3.19499">
        <ele>735.20001220703</ele>
        <time>2012-10-28T09:23:37Z</time>
      </trkpt>
      <trkpt lat="44.11388" lon="3.19474">
        <ele>735</ele>
        <time>2012-10-28T09:23:44Z</time>
      </trkpt>
      <trkpt lat="44.11386" lon="3.1945">
        <ele>735</ele>
        <time>2012-10-28T09:23:53Z</time>
      </trkpt>
      <trkpt lat="44.1138" lon="3.19439">
        <ele>735</ele>
        <time>2012-10-28T09:24:00Z</time>
      </trkpt>
      <trkpt lat="44.11375" lon="3.19429">
        <ele>734.59997558594</ele>
        <time>2012-10-28T09:24:06Z</time>
      </trkpt>
      <trkpt lat="44.11374" lon="3.19428">
        <ele>734.59997558594</ele>
        <time>2012-10-28T09:24:07Z</time>
      </trkpt>
      <trkpt lat="44.11371" lon="3.19418">
        <ele>734.20001220703</ele>
        <time>2012-10-28T09:24:13Z</time>
      </trkpt>
      <trkpt lat="44.11368" lon="3.19413">
        <ele>733.79998779297</ele>
        <time>2012-10-28T09:24:17Z</time>
      </trkpt>
      <trkpt lat="44.11366" lon="3.19407">
        <ele>733.59997558594</ele>
        <time>2012-10-28T09:24:21Z</time>
      </trkpt>
      <trkpt lat="44.11356" lon="3.19386">
        <ele>733.20001220703</ele>
        <time>2012-10-28T09:24:34Z</time>
      </trkpt>
      <trkpt lat="44.11343" lon="3.19366">
        <ele>732.79998779297</ele>
        <time>2012-10-28T09:24:47Z</time>
      </trkpt>
      <trkpt lat="44.11341" lon="3.19363">
        <ele>732.79998779297</ele>
        <time>2012-10-28T09:24:50Z</time>
      </trkpt>
      <trkpt lat="44.11333" lon="3.19352">
        <ele>733</ele>
        <time>2012-10-28T09:25:00Z</time>
      </trkpt>
      <trkpt lat="44.1133" lon="3.19348">
        <ele>733.40002441406</ele>
        <time>2012-10-28T09:25:03Z</time>
      </trkpt>
      <trkpt lat="44.11325" lon="3.19341">
        <ele>733.59997558594</ele>
        <time>2012-10-28T09:25:08Z</time>
      </trkpt>
      <trkpt lat="44.11321" lon="3.1933">
        <ele>734.59997558594</ele>
        <time>2012-10-28T09:25:15Z</time>
      </trkpt>
      <trkpt lat="44.11319" lon="3.19327">
        <ele>734.79998779297</ele>
        <time>2012-10-28T09:25:17Z</time>
      </trkpt>
      <trkpt lat="44.11307" lon="3.19308">
        <ele>737.59997558594</ele>
        <time>2012-10-28T09:25:30Z</time>
      </trkpt>
      <trkpt lat="44.11302" lon="3.19304">
        <ele>738.40002441406</ele>
        <time>2012-10-28T09:25:34Z</time>
      </trkpt>
      <trkpt lat="44.11303" lon="3.19295">
        <ele>739.59997558594</ele>
        <time>2012-10-28T09:25:41Z</time>
      </trkpt>
      <trkpt lat="44.11304" lon="3.19293">
        <ele>740</ele>
        <time>2012-10-28T09:25:43Z</time>
      </trkpt>
      <trkpt lat="44.11305" lon="3.19288">
        <ele>740.79998779297</ele>
        <time>2012-10-28T09:25:47Z</time>
      </trkpt>
      <trkpt lat="44.11306" lon="3.19287">
        <ele>741</ele>
        <time>2012-10-28T09:25:48Z</time>
      </trkpt>
      <trkpt lat="44.11306" lon="3.19286">
        <ele>741.20001220703</ele>
        <time>2012-10-28T09:25:49Z</time>
      </trkpt>
      <trkpt lat="44.11304" lon="3.19281">
        <ele>742.40002441406</ele>
        <time>2012-10-28T09:25:53Z</time>
      </trkpt>
      <trkpt lat="44.11304" lon="3.1928">
        <ele>742.79998779297</ele>
        <time>2012-10-28T09:25:54Z</time>
      </trkpt>
      <trkpt lat="44.11304" lon="3.19275">
        <ele>744.59997558594</ele>
        <time>2012-10-28T09:25:58Z</time>
      </trkpt>
      <trkpt lat="44.11304" lon="3.19262">
        <ele>749.59997558594</ele>
        <time>2012-10-28T09:26:10Z</time>
      </trkpt>
      <trkpt lat="44.11304" lon="3.19251">
        <ele>755.59997558594</ele>
        <time>2012-10-28T09:26:26Z</time>
      </trkpt>
      <trkpt lat="44.11305" lon="3.19238">
        <ele>763</ele>
        <time>2012-10-28T09:26:44Z</time>
      </trkpt>
      <trkpt lat="44.11305" lon="3.19237">
        <ele>763.59997558594</ele>
        <time>2012-10-28T09:26:45Z</time>
      </trkpt>
      <trkpt lat="44.1131" lon="3.1922">
        <ele>770.79998779297</ele>
        <time>2012-10-28T09:27:09Z</time>
      </trkpt>
      <trkpt lat="44.11311" lon="3.19215">
        <ele>772.40002441406</ele>
        <time>2012-10-28T09:27:17Z</time>
      </trkpt>
      <trkpt lat="44.11317" lon="3.1921">
        <ele>775.20001220703</ele>
        <time>2012-10-28T09:27:30Z</time>
      </trkpt>
      <trkpt lat="44.11328" lon="3.19209">
        <ele>775.79998779297</ele>
        <time>2012-10-28T09:27:37Z</time>
      </trkpt>
      <trkpt lat="44.11337" lon="3.19202">
        <ele>776.20001220703</ele>
        <time>2012-10-28T09:27:44Z</time>
      </trkpt>
      <trkpt lat="44.11338" lon="3.19199">
        <ele>776.20001220703</ele>
        <time>2012-10-28T09:27:46Z</time>
      </trkpt>
      <trkpt lat="44.11339" lon="3.19193">
        <ele>776.79998779297</ele>
        <time>2012-10-28T09:27:53Z</time>
      </trkpt>
      <trkpt lat="44.1134" lon="3.19192">
        <ele>777</ele>
        <time>2012-10-28T09:27:54Z</time>
      </trkpt>
      <trkpt lat="44.11341" lon="3.19191">
        <ele>777.20001220703</ele>
        <time>2012-10-28T09:27:55Z</time>
      </trkpt>
      <trkpt lat="44.11347" lon="3.1919">
        <ele>777.59997558594</ele>
        <time>2012-10-28T09:27:59Z</time>
      </trkpt>
      <trkpt lat="44.11353" lon="3.19178">
        <ele>778</ele>
        <time>2012-10-28T09:28:07Z</time>
      </trkpt>
      <trkpt lat="44.11369" lon="3.19161">
        <ele>778.59997558594</ele>
        <time>2012-10-28T09:28:16Z</time>
      </trkpt>
      <trkpt lat="44.11371" lon="3.19158">
        <ele>778.59997558594</ele>
        <time>2012-10-28T09:28:17Z</time>
      </trkpt>
      <trkpt lat="44.11374" lon="3.19156">
        <ele>778.40002441406</ele>
        <time>2012-10-28T09:28:18Z</time>
      </trkpt>
      <trkpt lat="44.11386" lon="3.19152">
        <ele>779</ele>
        <time>2012-10-28T09:28:25Z</time>
      </trkpt>
      <trkpt lat="44.11393" lon="3.19149">
        <ele>779.20001220703</ele>
        <time>2012-10-28T09:28:28Z</time>
      </trkpt>
      <trkpt lat="44.11404" lon="3.19149">
        <ele>779.79998779297</ele>
        <time>2012-10-28T09:28:34Z</time>
      </trkpt>
      <trkpt lat="44.11417" lon="3.19152">
        <ele>780</ele>
        <time>2012-10-28T09:28:41Z</time>
      </trkpt>
      <trkpt lat="44.11421" lon="3.19149">
        <ele>780.20001220703</ele>
        <time>2012-10-28T09:28:43Z</time>
      </trkpt>
      <trkpt lat="44.11424" lon="3.19142">
        <ele>780.40002441406</ele>
        <time>2012-10-28T09:28:46Z</time>
      </trkpt>
      <trkpt lat="44.11425" lon="3.19134">
        <ele>780.79998779297</ele>
        <time>2012-10-28T09:28:49Z</time>
      </trkpt>
      <trkpt lat="44.11422" lon="3.19128">
        <ele>781</ele>
        <time>2012-10-28T09:28:52Z</time>
      </trkpt>
      <trkpt lat="44.11412" lon="3.19105">
        <ele>781.79998779297</ele>
        <time>2012-10-28T09:29:01Z</time>
      </trkpt>
      <trkpt lat="44.11417" lon="3.1909">
        <ele>781.59997558594</ele>
        <time>2012-10-28T09:29:08Z</time>
      </trkpt>
      <trkpt lat="44.11422" lon="3.19088">
        <ele>781.59997558594</ele>
        <time>2012-10-28T09:29:11Z</time>
      </trkpt>
      <trkpt lat="44.11442" lon="3.19082">
        <ele>781.59997558594</ele>
        <time>2012-10-28T09:29:19Z</time>
      </trkpt>
      <trkpt lat="44.11444" lon="3.1908">
        <ele>781.59997558594</ele>
        <time>2012-10-28T09:29:20Z</time>
      </trkpt>
      <trkpt lat="44.11458" lon="3.19066">
        <ele>781.59997558594</ele>
        <time>2012-10-28T09:29:26Z</time>
      </trkpt>
      <trkpt lat="44.11463" lon="3.19061">
        <ele>781.79998779297</ele>
        <time>2012-10-28T09:29:30Z</time>
      </trkpt>
      <trkpt lat="44.11476" lon="3.19055">
        <ele>782</ele>
        <time>2012-10-28T09:29:38Z</time>
      </trkpt>
      <trkpt lat="44.11493" lon="3.19044">
        <ele>783</ele>
        <time>2012-10-28T09:29:46Z</time>
      </trkpt>
      <trkpt lat="44.11498" lon="3.19026">
        <ele>783.40002441406</ele>
        <time>2012-10-28T09:29:52Z</time>
      </trkpt>
      <trkpt lat="44.115" lon="3.1902">
        <ele>783.40002441406</ele>
        <time>2012-10-28T09:29:55Z</time>
      </trkpt>
      <trkpt lat="44.11492" lon="3.19008">
        <ele>783.59997558594</ele>
        <time>2012-10-28T09:30:01Z</time>
      </trkpt>
      <trkpt lat="44.11488" lon="3.19001">
        <ele>783.59997558594</ele>
        <time>2012-10-28T09:30:05Z</time>
      </trkpt>
      <trkpt lat="44.11487" lon="3.18999">
        <ele>783.79998779297</ele>
        <time>2012-10-28T09:30:06Z</time>
      </trkpt>
      <trkpt lat="44.11488" lon="3.18985">
        <ele>783.79998779297</ele>
        <time>2012-10-28T09:30:10Z</time>
      </trkpt>
      <trkpt lat="44.11488" lon="3.18975">
        <ele>783.79998779297</ele>
        <time>2012-10-28T09:30:13Z</time>
      </trkpt>
      <trkpt lat="44.11488" lon="3.18973">
        <ele>783.79998779297</ele>
        <time>2012-10-28T09:30:14Z</time>
      </trkpt>
      <trkpt lat="44.11481" lon="3.18964">
        <ele>784</ele>
        <time>2012-10-28T09:30:18Z</time>
      </trkpt>
      <trkpt lat="44.11475" lon="3.1896">
        <ele>784.20001220703</ele>
        <time>2012-10-28T09:30:21Z</time>
      </trkpt>
      <trkpt lat="44.11463" lon="3.18945">
        <ele>784.59997558594</ele>
        <time>2012-10-28T09:30:28Z</time>
      </trkpt>
      <trkpt lat="44.11462" lon="3.18943">
        <ele>784.59997558594</ele>
        <time>2012-10-28T09:30:29Z</time>
      </trkpt>
      <trkpt lat="44.11452" lon="3.18938">
        <ele>784.79998779297</ele>
        <time>2012-10-28T09:30:34Z</time>
      </trkpt>
      <trkpt lat="44.11445" lon="3.1893">
        <ele>784.79998779297</ele>
        <time>2012-10-28T09:30:38Z</time>
      </trkpt>
      <trkpt lat="44.1144" lon="3.18923">
        <ele>785.20001220703</ele>
        <time>2012-10-28T09:30:42Z</time>
      </trkpt>
      <trkpt lat="44.1144" lon="3.18907">
        <ele>787</ele>
        <time>2012-10-28T09:30:49Z</time>
      </trkpt>
      <trkpt lat="44.11445" lon="3.18891">
        <ele>789.20001220703</ele>
        <time>2012-10-28T09:30:55Z</time>
      </trkpt>
      <trkpt lat="44.11447" lon="3.18882">
        <ele>790.40002441406</ele>
        <time>2012-10-28T09:30:59Z</time>
      </trkpt>
      <trkpt lat="44.11449" lon="3.18879">
        <ele>790.79998779297</ele>
        <time>2012-10-28T09:31:01Z</time>
      </trkpt>
      <trkpt lat="44.11451" lon="3.18872">
        <ele>791.59997558594</ele>
        <time>2012-10-28T09:31:07Z</time>
      </trkpt>
      <trkpt lat="44.11455" lon="3.18867">
        <ele>791.79998779297</ele>
        <time>2012-10-28T09:31:13Z</time>
      </trkpt>
      <trkpt lat="44.11459" lon="3.18862">
        <ele>791.40002441406</ele>
        <time>2012-10-28T09:31:18Z</time>
      </trkpt>
      <trkpt lat="44.11471" lon="3.18849">
        <ele>791.20001220703</ele>
        <time>2012-10-28T09:31:26Z</time>
      </trkpt>
      <trkpt lat="44.11472" lon="3.18847">
        <ele>791.20001220703</ele>
        <time>2012-10-28T09:31:27Z</time>
      </trkpt>
      <trkpt lat="44.11483" lon="3.18824">
        <ele>791.20001220703</ele>
        <time>2012-10-28T09:31:37Z</time>
      </trkpt>
      <trkpt lat="44.11488" lon="3.18816">
        <ele>791</ele>
        <time>2012-10-28T09:31:40Z</time>
      </trkpt>
      <trkpt lat="44.11497" lon="3.18814">
        <ele>791</ele>
        <time>2012-10-28T09:31:44Z</time>
      </trkpt>
      <trkpt lat="44.115" lon="3.18814">
        <ele>791</ele>
        <time>2012-10-28T09:31:45Z</time>
      </trkpt>
      <trkpt lat="44.11517" lon="3.18804">
        <ele>791.20001220703</ele>
        <time>2012-10-28T09:31:54Z</time>
      </trkpt>
      <trkpt lat="44.11524" lon="3.18782">
        <ele>792</ele>
        <time>2012-10-28T09:32:02Z</time>
      </trkpt>
      <trkpt lat="44.11525" lon="3.1877">
        <ele>792</ele>
        <time>2012-10-28T09:32:06Z</time>
      </trkpt>
      <trkpt lat="44.11531" lon="3.1876">
        <ele>792.20001220703</ele>
        <time>2012-10-28T09:32:10Z</time>
      </trkpt>
      <trkpt lat="44.11528" lon="3.18751">
        <ele>792.40002441406</ele>
        <time>2012-10-28T09:32:13Z</time>
      </trkpt>
      <trkpt lat="44.1152" lon="3.1874">
        <ele>792.59997558594</ele>
        <time>2012-10-28T09:32:18Z</time>
      </trkpt>
      <trkpt lat="44.11501" lon="3.18745">
        <ele>793.20001220703</ele>
        <time>2012-10-28T09:32:26Z</time>
      </trkpt>
      <trkpt lat="44.11485" lon="3.18753">
        <ele>793.20001220703</ele>
        <time>2012-10-28T09:32:33Z</time>
      </trkpt>
      <trkpt lat="44.11483" lon="3.18753">
        <ele>793.40002441406</ele>
        <time>2012-10-28T09:32:34Z</time>
      </trkpt>
      <trkpt lat="44.11465" lon="3.18748">
        <ele>793.20001220703</ele>
        <time>2012-10-28T09:32:43Z</time>
      </trkpt>
      <trkpt lat="44.11461" lon="3.18724">
        <ele>792.59997558594</ele>
        <time>2012-10-28T09:32:56Z</time>
      </trkpt>
      <trkpt lat="44.11461" lon="3.18722">
        <ele>792.40002441406</ele>
        <time>2012-10-28T09:32:57Z</time>
      </trkpt>
      <trkpt lat="44.11464" lon="3.18699">
        <ele>792.20001220703</ele>
        <time>2012-10-28T09:33:05Z</time>
      </trkpt>
      <trkpt lat="44.11462" lon="3.18683">
        <ele>792.20001220703</ele>
        <time>2012-10-28T09:33:13Z</time>
      </trkpt>
      <trkpt lat="44.11459" lon="3.18682">
        <ele>792</ele>
        <time>2012-10-28T09:33:15Z</time>
      </trkpt>
      <trkpt lat="44.11457" lon="3.18681">
        <ele>792</ele>
        <time>2012-10-28T09:33:16Z</time>
      </trkpt>
      <trkpt lat="44.1144" lon="3.18675">
        <ele>792</ele>
        <time>2012-10-28T09:33:23Z</time>
      </trkpt>
      <trkpt lat="44.11438" lon="3.18674">
        <ele>792</ele>
        <time>2012-10-28T09:33:24Z</time>
      </trkpt>
      <trkpt lat="44.11434" lon="3.18671">
        <ele>792</ele>
        <time>2012-10-28T09:33:26Z</time>
      </trkpt>
      <trkpt lat="44.11422" lon="3.18661">
        <ele>791.79998779297</ele>
        <time>2012-10-28T09:33:31Z</time>
      </trkpt>
      <trkpt lat="44.11405" lon="3.18647">
        <ele>791.79998779297</ele>
        <time>2012-10-28T09:33:39Z</time>
      </trkpt>
      <trkpt lat="44.11391" lon="3.18652">
        <ele>791.79998779297</ele>
        <time>2012-10-28T09:33:46Z</time>
      </trkpt>
      <trkpt lat="44.11387" lon="3.18655">
        <ele>791.79998779297</ele>
        <time>2012-10-28T09:33:49Z</time>
      </trkpt>
      <trkpt lat="44.11386" lon="3.18669">
        <ele>791.59997558594</ele>
        <time>2012-10-28T09:33:53Z</time>
      </trkpt>
      <trkpt lat="44.11386" lon="3.18677">
        <ele>791.59997558594</ele>
        <time>2012-10-28T09:33:55Z</time>
      </trkpt>
      <trkpt lat="44.11384" lon="3.1868">
        <ele>791.40002441406</ele>
        <time>2012-10-28T09:33:56Z</time>
      </trkpt>
      <trkpt lat="44.11381" lon="3.18685">
        <ele>791.40002441406</ele>
        <time>2012-10-28T09:33:58Z</time>
      </trkpt>
      <trkpt lat="44.11368" lon="3.18689">
        <ele>791.20001220703</ele>
        <time>2012-10-28T09:34:04Z</time>
      </trkpt>
      <trkpt lat="44.11356" lon="3.18681">
        <ele>790.79998779297</ele>
        <time>2012-10-28T09:34:09Z</time>
      </trkpt>
      <trkpt lat="44.11351" lon="3.18677">
        <ele>790.59997558594</ele>
        <time>2012-10-28T09:34:11Z</time>
      </trkpt>
      <trkpt lat="44.11336" lon="3.18663">
        <ele>790.40002441406</ele>
        <time>2012-10-28T09:34:18Z</time>
      </trkpt>
      <trkpt lat="44.1133" lon="3.18651">
        <ele>790</ele>
        <time>2012-10-28T09:34:23Z</time>
      </trkpt>
      <trkpt lat="44.11324" lon="3.18644">
        <ele>789.79998779297</ele>
        <time>2012-10-28T09:34:26Z</time>
      </trkpt>
      <trkpt lat="44.1132" lon="3.18635">
        <ele>789.59997558594</ele>
        <time>2012-10-28T09:34:29Z</time>
      </trkpt>
      <trkpt lat="44.11319" lon="3.18628">
        <ele>789.59997558594</ele>
        <time>2012-10-28T09:34:31Z</time>
      </trkpt>
      <trkpt lat="44.1132" lon="3.18619">
        <ele>789.59997558594</ele>
        <time>2012-10-28T09:34:33Z</time>
      </trkpt>
      <trkpt lat="44.11324" lon="3.18608">
        <ele>789.40002441406</ele>
        <time>2012-10-28T09:34:36Z</time>
      </trkpt>
      <trkpt lat="44.1133" lon="3.18594">
        <ele>789.20001220703</ele>
        <time>2012-10-28T09:34:43Z</time>
      </trkpt>
      <trkpt lat="44.11331" lon="3.18592">
        <ele>789.20001220703</ele>
        <time>2012-10-28T09:34:44Z</time>
      </trkpt>
      <trkpt lat="44.11318" lon="3.18577">
        <ele>789.20001220703</ele>
        <time>2012-10-28T09:34:51Z</time>
      </trkpt>
      <trkpt lat="44.11303" lon="3.1857">
        <ele>789.79998779297</ele>
        <time>2012-10-28T09:34:58Z</time>
      </trkpt>
      <trkpt lat="44.11299" lon="3.18569">
        <ele>789.79998779297</ele>
        <time>2012-10-28T09:35:00Z</time>
      </trkpt>
      <trkpt lat="44.1129" lon="3.1857">
        <ele>789.79998779297</ele>
        <time>2012-10-28T09:35:03Z</time>
      </trkpt>
      <trkpt lat="44.11279" lon="3.1857">
        <ele>789.79998779297</ele>
        <time>2012-10-28T09:35:07Z</time>
      </trkpt>
      <trkpt lat="44.1126" lon="3.18566">
        <ele>789.59997558594</ele>
        <time>2012-10-28T09:35:14Z</time>
      </trkpt>
      <trkpt lat="44.11256" lon="3.18569">
        <ele>789.59997558594</ele>
        <time>2012-10-28T09:35:16Z</time>
      </trkpt>
      <trkpt lat="44.11242" lon="3.18576">
        <ele>789.20001220703</ele>
        <time>2012-10-28T09:35:22Z</time>
      </trkpt>
      <trkpt lat="44.11222" lon="3.18579">
        <ele>788.79998779297</ele>
        <time>2012-10-28T09:35:29Z</time>
      </trkpt>
      <trkpt lat="44.11205" lon="3.18592">
        <ele>788</ele>
        <time>2012-10-28T09:35:36Z</time>
      </trkpt>
      <trkpt lat="44.11201" lon="3.18591">
        <ele>787.79998779297</ele>
        <time>2012-10-28T09:35:38Z</time>
      </trkpt>
      <trkpt lat="44.11191" lon="3.18576">
        <ele>787.20001220703</ele>
        <time>2012-10-28T09:35:43Z</time>
      </trkpt>
      <trkpt lat="44.1118" lon="3.18571">
        <ele>786.79998779297</ele>
        <time>2012-10-28T09:35:48Z</time>
      </trkpt>
      <trkpt lat="44.11172" lon="3.18563">
        <ele>786.79998779297</ele>
        <time>2012-10-28T09:35:52Z</time>
      </trkpt>
      <trkpt lat="44.11155" lon="3.18551">
        <ele>786.40002441406</ele>
        <time>2012-10-28T09:35:59Z</time>
      </trkpt>
      <trkpt lat="44.11136" lon="3.18555">
        <ele>785.79998779297</ele>
        <time>2012-10-28T09:36:07Z</time>
      </trkpt>
      <trkpt lat="44.11131" lon="3.18565">
        <ele>785.20001220703</ele>
        <time>2012-10-28T09:36:11Z</time>
      </trkpt>
      <trkpt lat="44.11124" lon="3.18572">
        <ele>785</ele>
        <time>2012-10-28T09:36:14Z</time>
      </trkpt>
      <trkpt lat="44.11104" lon="3.18566">
        <ele>784.20001220703</ele>
        <time>2012-10-28T09:36:21Z</time>
      </trkpt>
      <trkpt lat="44.11092" lon="3.18558">
        <ele>783.59997558594</ele>
        <time>2012-10-28T09:36:27Z</time>
      </trkpt>
      <trkpt lat="44.11087" lon="3.18557">
        <ele>783.40002441406</ele>
        <time>2012-10-28T09:36:29Z</time>
      </trkpt>
      <trkpt lat="44.11075" lon="3.18541">
        <ele>782.79998779297</ele>
        <time>2012-10-28T09:36:36Z</time>
      </trkpt>
      <trkpt lat="44.11073" lon="3.18538">
        <ele>782.79998779297</ele>
        <time>2012-10-28T09:36:37Z</time>
      </trkpt>
      <trkpt lat="44.1106" lon="3.18523">
        <ele>782.40002441406</ele>
        <time>2012-10-28T09:36:43Z</time>
      </trkpt>
      <trkpt lat="44.11057" lon="3.18522">
        <ele>782.40002441406</ele>
        <time>2012-10-28T09:36:44Z</time>
      </trkpt>
      <trkpt lat="44.11044" lon="3.185">
        <ele>781.79998779297</ele>
        <time>2012-10-28T09:36:52Z</time>
      </trkpt>
      <trkpt lat="44.11032" lon="3.18478">
        <ele>781.40002441406</ele>
        <time>2012-10-28T09:36:59Z</time>
      </trkpt>
      <trkpt lat="44.11028" lon="3.18453">
        <ele>781</ele>
        <time>2012-10-28T09:37:08Z</time>
      </trkpt>
      <trkpt lat="44.11023" lon="3.18444">
        <ele>780.79998779297</ele>
        <time>2012-10-28T09:37:11Z</time>
      </trkpt>
      <trkpt lat="44.11013" lon="3.18436">
        <ele>780.59997558594</ele>
        <time>2012-10-28T09:37:16Z</time>
      </trkpt>
      <trkpt lat="44.11017" lon="3.18415">
        <ele>780.40002441406</ele>
        <time>2012-10-28T09:37:23Z</time>
      </trkpt>
      <trkpt lat="44.11019" lon="3.18413">
        <ele>780.20001220703</ele>
        <time>2012-10-28T09:37:24Z</time>
      </trkpt>
      <trkpt lat="44.11016" lon="3.18389">
        <ele>779.79998779297</ele>
        <time>2012-10-28T09:37:33Z</time>
      </trkpt>
      <trkpt lat="44.11003" lon="3.1837">
        <ele>779.40002441406</ele>
        <time>2012-10-28T09:37:41Z</time>
      </trkpt>
      <trkpt lat="44.10985" lon="3.18363">
        <ele>779.20001220703</ele>
        <time>2012-10-28T09:37:50Z</time>
      </trkpt>
      <trkpt lat="44.10966" lon="3.18361">
        <ele>779.20001220703</ele>
        <time>2012-10-28T09:37:58Z</time>
      </trkpt>
      <trkpt lat="44.10946" lon="3.1836">
        <ele>779.20001220703</ele>
        <time>2012-10-28T09:38:07Z</time>
      </trkpt>
      <trkpt lat="44.10938" lon="3.18359">
        <ele>779.40002441406</ele>
        <time>2012-10-28T09:38:10Z</time>
      </trkpt>
      <trkpt lat="44.10931" lon="3.1836">
        <ele>779.59997558594</ele>
        <time>2012-10-28T09:38:13Z</time>
      </trkpt>
      <trkpt lat="44.10927" lon="3.18362">
        <ele>779.79998779297</ele>
        <time>2012-10-28T09:38:15Z</time>
      </trkpt>
      <trkpt lat="44.10921" lon="3.18361">
        <ele>779.79998779297</ele>
        <time>2012-10-28T09:38:17Z</time>
      </trkpt>
      <trkpt lat="44.10908" lon="3.18363">
        <ele>780</ele>
        <time>2012-10-28T09:38:22Z</time>
      </trkpt>
      <trkpt lat="44.10889" lon="3.18359">
        <ele>780</ele>
        <time>2012-10-28T09:38:29Z</time>
      </trkpt>
      <trkpt lat="44.10871" lon="3.18367">
        <ele>780.79998779297</ele>
        <time>2012-10-28T09:38:37Z</time>
      </trkpt>
      <trkpt lat="44.10852" lon="3.18376">
        <ele>781</ele>
        <time>2012-10-28T09:38:44Z</time>
      </trkpt>
      <trkpt lat="44.10831" lon="3.18377">
        <ele>780.79998779297</ele>
        <time>2012-10-28T09:38:51Z</time>
      </trkpt>
      <trkpt lat="44.10811" lon="3.18382">
        <ele>780.59997558594</ele>
        <time>2012-10-28T09:38:58Z</time>
      </trkpt>
      <trkpt lat="44.10793" lon="3.18384">
        <ele>780.20001220703</ele>
        <time>2012-10-28T09:39:04Z</time>
      </trkpt>
      <trkpt lat="44.10773" lon="3.18385">
        <ele>779.79998779297</ele>
        <time>2012-10-28T09:39:11Z</time>
      </trkpt>
      <trkpt lat="44.10758" lon="3.1837">
        <ele>779.40002441406</ele>
        <time>2012-10-28T09:39:17Z</time>
      </trkpt>
      <trkpt lat="44.1074" lon="3.18363">
        <ele>778.79998779297</ele>
        <time>2012-10-28T09:39:24Z</time>
      </trkpt>
      <trkpt lat="44.10721" lon="3.18372">
        <ele>778.40002441406</ele>
        <time>2012-10-28T09:39:32Z</time>
      </trkpt>
      <trkpt lat="44.1071" lon="3.18381">
        <ele>778.20001220703</ele>
        <time>2012-10-28T09:39:37Z</time>
      </trkpt>
      <trkpt lat="44.10705" lon="3.18379">
        <ele>778</ele>
        <time>2012-10-28T09:39:39Z</time>
      </trkpt>
      <trkpt lat="44.10707" lon="3.18361">
        <ele>777.59997558594</ele>
        <time>2012-10-28T09:39:44Z</time>
      </trkpt>
      <trkpt lat="44.10708" lon="3.18357">
        <ele>777.59997558594</ele>
        <time>2012-10-28T09:39:45Z</time>
      </trkpt>
      <trkpt lat="44.10717" lon="3.18333">
        <ele>777</ele>
        <time>2012-10-28T09:39:51Z</time>
      </trkpt>
      <trkpt lat="44.10717" lon="3.1833">
        <ele>777</ele>
        <time>2012-10-28T09:39:52Z</time>
      </trkpt>
      <trkpt lat="44.10707" lon="3.18313">
        <ele>776.40002441406</ele>
        <time>2012-10-28T09:40:00Z</time>
      </trkpt>
      <trkpt lat="44.10705" lon="3.1831">
        <ele>776.20001220703</ele>
        <time>2012-10-28T09:40:01Z</time>
      </trkpt>
      <trkpt lat="44.10698" lon="3.18292">
        <ele>775.59997558594</ele>
        <time>2012-10-28T09:40:07Z</time>
      </trkpt>
      <trkpt lat="44.10698" lon="3.18285">
        <ele>775.40002441406</ele>
        <time>2012-10-28T09:40:09Z</time>
      </trkpt>
      <trkpt lat="44.10707" lon="3.18275">
        <ele>774.40002441406</ele>
        <time>2012-10-28T09:40:15Z</time>
      </trkpt>
      <trkpt lat="44.1071" lon="3.18275">
        <ele>774.20001220703</ele>
        <time>2012-10-28T09:40:16Z</time>
      </trkpt>
      <trkpt lat="44.10725" lon="3.18278">
        <ele>773</ele>
        <time>2012-10-28T09:40:21Z</time>
      </trkpt>
      <trkpt lat="44.10727" lon="3.1828">
        <ele>772.79998779297</ele>
        <time>2012-10-28T09:40:22Z</time>
      </trkpt>
      <trkpt lat="44.10741" lon="3.18282">
        <ele>771.20001220703</ele>
        <time>2012-10-28T09:40:29Z</time>
      </trkpt>
      <trkpt lat="44.10744" lon="3.18281">
        <ele>771</ele>
        <time>2012-10-28T09:40:30Z</time>
      </trkpt>
      <trkpt lat="44.10759" lon="3.18274">
        <ele>769.59997558594</ele>
        <time>2012-10-28T09:40:36Z</time>
      </trkpt>
      <trkpt lat="44.10761" lon="3.18273">
        <ele>769.40002441406</ele>
        <time>2012-10-28T09:40:37Z</time>
      </trkpt>
      <trkpt lat="44.10763" lon="3.18265">
        <ele>768.59997558594</ele>
        <time>2012-10-28T09:40:40Z</time>
      </trkpt>
      <trkpt lat="44.10763" lon="3.18251">
        <ele>767.40002441406</ele>
        <time>2012-10-28T09:40:45Z</time>
      </trkpt>
      <trkpt lat="44.10762" lon="3.18249">
        <ele>767</ele>
        <time>2012-10-28T09:40:46Z</time>
      </trkpt>
      <trkpt lat="44.10748" lon="3.18231">
        <ele>764.20001220703</ele>
        <time>2012-10-28T09:40:55Z</time>
      </trkpt>
      <trkpt lat="44.10741" lon="3.18221">
        <ele>762.79998779297</ele>
        <time>2012-10-28T09:40:59Z</time>
      </trkpt>
      <trkpt lat="44.10738" lon="3.1821">
        <ele>761.40002441406</ele>
        <time>2012-10-28T09:41:03Z</time>
      </trkpt>
      <trkpt lat="44.10738" lon="3.18208">
        <ele>761.20001220703</ele>
        <time>2012-10-28T09:41:04Z</time>
      </trkpt>
      <trkpt lat="44.1074" lon="3.18204">
        <ele>760.40002441406</ele>
        <time>2012-10-28T09:41:06Z</time>
      </trkpt>
      <trkpt lat="44.10742" lon="3.18201">
        <ele>759.40002441406</ele>
        <time>2012-10-28T09:41:09Z</time>
      </trkpt>
      <trkpt lat="44.10745" lon="3.18193">
        <ele>758</ele>
        <time>2012-10-28T09:41:13Z</time>
      </trkpt>
      <trkpt lat="44.10746" lon="3.18191">
        <ele>757.59997558594</ele>
        <time>2012-10-28T09:41:14Z</time>
      </trkpt>
      <trkpt lat="44.10744" lon="3.18171">
        <ele>755</ele>
        <time>2012-10-28T09:41:21Z</time>
      </trkpt>
      <trkpt lat="44.10742" lon="3.18168">
        <ele>754.59997558594</ele>
        <time>2012-10-28T09:41:22Z</time>
      </trkpt>
      <trkpt lat="44.10733" lon="3.18155">
        <ele>752.79998779297</ele>
        <time>2012-10-28T09:41:27Z</time>
      </trkpt>
      <trkpt lat="44.1073" lon="3.18149">
        <ele>751.20001220703</ele>
        <time>2012-10-28T09:41:31Z</time>
      </trkpt>
      <trkpt lat="44.10726" lon="3.18143">
        <ele>750.20001220703</ele>
        <time>2012-10-28T09:41:34Z</time>
      </trkpt>
      <trkpt lat="44.10723" lon="3.1814">
        <ele>749.20001220703</ele>
        <time>2012-10-28T09:41:37Z</time>
      </trkpt>
      <trkpt lat="44.10715" lon="3.18136">
        <ele>747.59997558594</ele>
        <time>2012-10-28T09:41:42Z</time>
      </trkpt>
      <trkpt lat="44.10712" lon="3.18134">
        <ele>746.40002441406</ele>
        <time>2012-10-28T09:41:45Z</time>
      </trkpt>
      <trkpt lat="44.10712" lon="3.18134">
        <ele>746</ele>
        <time>2012-10-28T09:41:46Z</time>
      </trkpt>
      <trkpt lat="44.10711" lon="3.18128">
        <ele>744.20001220703</ele>
        <time>2012-10-28T09:41:51Z</time>
      </trkpt>
      <trkpt lat="44.10707" lon="3.1812">
        <ele>742.40002441406</ele>
        <time>2012-10-28T09:41:56Z</time>
      </trkpt>
      <trkpt lat="44.10693" lon="3.18108">
        <ele>737.20001220703</ele>
        <time>2012-10-28T09:42:09Z</time>
      </trkpt>
      <trkpt lat="44.10678" lon="3.18091">
        <ele>734.20001220703</ele>
        <time>2012-10-28T09:42:18Z</time>
      </trkpt>
      <trkpt lat="44.10677" lon="3.1809">
        <ele>733.79998779297</ele>
        <time>2012-10-28T09:42:19Z</time>
      </trkpt>
      <trkpt lat="44.10669" lon="3.18085">
        <ele>731.79998779297</ele>
        <time>2012-10-28T09:42:24Z</time>
      </trkpt>
      <trkpt lat="44.10661" lon="3.18079">
        <ele>730</ele>
        <time>2012-10-28T09:42:29Z</time>
      </trkpt>
      <trkpt lat="44.10651" lon="3.18069">
        <ele>727</ele>
        <time>2012-10-28T09:42:38Z</time>
      </trkpt>
      <trkpt lat="44.10648" lon="3.18069">
        <ele>726.79998779297</ele>
        <time>2012-10-28T09:42:39Z</time>
      </trkpt>
      <trkpt lat="44.10644" lon="3.18069">
        <ele>726</ele>
        <time>2012-10-28T09:42:41Z</time>
      </trkpt>
      <trkpt lat="44.10641" lon="3.18064">
        <ele>725</ele>
        <time>2012-10-28T09:42:44Z</time>
      </trkpt>
      <trkpt lat="44.10642" lon="3.18057">
        <ele>721.79998779297</ele>
        <time>2012-10-28T09:42:52Z</time>
      </trkpt>
      <trkpt lat="44.1064" lon="3.1806">
        <ele>720.79998779297</ele>
        <time>2012-10-28T09:42:54Z</time>
      </trkpt>
      <trkpt lat="44.10638" lon="3.1806">
        <ele>720.40002441406</ele>
        <time>2012-10-28T09:42:55Z</time>
      </trkpt>
      <trkpt lat="44.10626" lon="3.18053">
        <ele>716.40002441406</ele>
        <time>2012-10-28T09:43:04Z</time>
      </trkpt>
      <trkpt lat="44.10619" lon="3.1804">
        <ele>714.20001220703</ele>
        <time>2012-10-28T09:43:09Z</time>
      </trkpt>
      <trkpt lat="44.10615" lon="3.1804">
        <ele>713.20001220703</ele>
        <time>2012-10-28T09:43:11Z</time>
      </trkpt>
      <trkpt lat="44.10612" lon="3.18041">
        <ele>712.79998779297</ele>
        <time>2012-10-28T09:43:12Z</time>
      </trkpt>
      <trkpt lat="44.10604" lon="3.18036">
        <ele>710</ele>
        <time>2012-10-28T09:43:19Z</time>
      </trkpt>
      <trkpt lat="44.10604" lon="3.18034">
        <ele>709.59997558594</ele>
        <time>2012-10-28T09:43:20Z</time>
      </trkpt>
      <trkpt lat="44.10602" lon="3.18026">
        <ele>708.79998779297</ele>
        <time>2012-10-28T09:43:22Z</time>
      </trkpt>
      <trkpt lat="44.10603" lon="3.18021">
        <ele>708</ele>
        <time>2012-10-28T09:43:24Z</time>
      </trkpt>
      <trkpt lat="44.10601" lon="3.18006">
        <ele>705</ele>
        <time>2012-10-28T09:43:31Z</time>
      </trkpt>
      <trkpt lat="44.10601" lon="3.18004">
        <ele>704.40002441406</ele>
        <time>2012-10-28T09:43:32Z</time>
      </trkpt>
      <trkpt lat="44.106" lon="3.18003">
        <ele>704</ele>
        <time>2012-10-28T09:43:33Z</time>
      </trkpt>
      <trkpt lat="44.10582" lon="3.17993">
        <ele>697.40002441406</ele>
        <time>2012-10-28T09:43:47Z</time>
      </trkpt>
      <trkpt lat="44.1057" lon="3.17991">
        <ele>695.79998779297</ele>
        <time>2012-10-28T09:43:51Z</time>
      </trkpt>
      <trkpt lat="44.10564" lon="3.17987">
        <ele>695.20001220703</ele>
        <time>2012-10-28T09:43:53Z</time>
      </trkpt>
      <trkpt lat="44.10555" lon="3.17979">
        <ele>694</ele>
        <time>2012-10-28T09:43:57Z</time>
      </trkpt>
      <trkpt lat="44.10551" lon="3.17967">
        <ele>692</ele>
        <time>2012-10-28T09:44:02Z</time>
      </trkpt>
      <trkpt lat="44.1055" lon="3.17958">
        <ele>690.40002441406</ele>
        <time>2012-10-28T09:44:06Z</time>
      </trkpt>
      <trkpt lat="44.10546" lon="3.17942">
        <ele>687.40002441406</ele>
        <time>2012-10-28T09:44:13Z</time>
      </trkpt>
      <trkpt lat="44.10543" lon="3.17939">
        <ele>686.40002441406</ele>
        <time>2012-10-28T09:44:15Z</time>
      </trkpt>
      <trkpt lat="44.10542" lon="3.17928">
        <ele>683.59997558594</ele>
        <time>2012-10-28T09:44:21Z</time>
      </trkpt>
      <trkpt lat="44.10542" lon="3.17928">
        <ele>683.20001220703</ele>
        <time>2012-10-28T09:44:22Z</time>
      </trkpt>
      <trkpt lat="44.10545" lon="3.17921">
        <ele>682</ele>
        <time>2012-10-28T09:44:25Z</time>
      </trkpt>
      <trkpt lat="44.10546" lon="3.17917">
        <ele>680.59997558594</ele>
        <time>2012-10-28T09:44:28Z</time>
      </trkpt>
      <trkpt lat="44.10549" lon="3.17905">
        <ele>671</ele>
        <time>2012-10-28T09:44:55Z</time>
      </trkpt>
      <trkpt lat="44.10548" lon="3.17903">
        <ele>670.79998779297</ele>
        <time>2012-10-28T09:44:56Z</time>
      </trkpt>
      <trkpt lat="44.10546" lon="3.17878">
        <ele>668.20001220703</ele>
        <time>2012-10-28T09:45:05Z</time>
      </trkpt>
      <trkpt lat="44.10546" lon="3.17876">
        <ele>668</ele>
        <time>2012-10-28T09:45:06Z</time>
      </trkpt>
      <trkpt lat="44.10543" lon="3.17868">
        <ele>666.79998779297</ele>
        <time>2012-10-28T09:45:10Z</time>
      </trkpt>
      <trkpt lat="44.10537" lon="3.17862">
        <ele>665</ele>
        <time>2012-10-28T09:45:16Z</time>
      </trkpt>
      <trkpt lat="44.10536" lon="3.17863">
        <ele>664.59997558594</ele>
        <time>2012-10-28T09:45:17Z</time>
      </trkpt>
      <trkpt lat="44.10534" lon="3.17863">
        <ele>664</ele>
        <time>2012-10-28T09:45:19Z</time>
      </trkpt>
      <trkpt lat="44.10532" lon="3.17864">
        <ele>662.79998779297</ele>
        <time>2012-10-28T09:45:22Z</time>
      </trkpt>
      <trkpt lat="44.1053" lon="3.17865">
        <ele>662.20001220703</ele>
        <time>2012-10-28T09:45:24Z</time>
      </trkpt>
      <trkpt lat="44.10519" lon="3.17862">
        <ele>659.79998779297</ele>
        <time>2012-10-28T09:45:30Z</time>
      </trkpt>
      <trkpt lat="44.10515" lon="3.1786">
        <ele>659</ele>
        <time>2012-10-28T09:45:32Z</time>
      </trkpt>
      <trkpt lat="44.1051" lon="3.17859">
        <ele>657.59997558594</ele>
        <time>2012-10-28T09:45:35Z</time>
      </trkpt>
      <trkpt lat="44.1051" lon="3.17861">
        <ele>656.79998779297</ele>
        <time>2012-10-28T09:45:37Z</time>
      </trkpt>
      <trkpt lat="44.10513" lon="3.1787">
        <ele>655</ele>
        <time>2012-10-28T09:45:41Z</time>
      </trkpt>
      <trkpt lat="44.10506" lon="3.1787">
        <ele>653.59997558594</ele>
        <time>2012-10-28T09:45:44Z</time>
      </trkpt>
      <trkpt lat="44.10499" lon="3.17865">
        <ele>652.40002441406</ele>
        <time>2012-10-28T09:45:47Z</time>
      </trkpt>
      <trkpt lat="44.10494" lon="3.17862">
        <ele>651.20001220703</ele>
        <time>2012-10-28T09:45:50Z</time>
      </trkpt>
      <trkpt lat="44.10489" lon="3.1786">
        <ele>650.20001220703</ele>
        <time>2012-10-28T09:45:52Z</time>
      </trkpt>
      <trkpt lat="44.10471" lon="3.1786">
        <ele>648</ele>
        <time>2012-10-28T09:45:58Z</time>
      </trkpt>
      <trkpt lat="44.10456" lon="3.17842">
        <ele>645.79998779297</ele>
        <time>2012-10-28T09:46:04Z</time>
      </trkpt>
      <trkpt lat="44.10443" lon="3.17825">
        <ele>643.59997558594</ele>
        <time>2012-10-28T09:46:10Z</time>
      </trkpt>
      <trkpt lat="44.10427" lon="3.17806">
        <ele>640.20001220703</ele>
        <time>2012-10-28T09:46:18Z</time>
      </trkpt>
      <trkpt lat="44.10416" lon="3.17785">
        <ele>637.20001220703</ele>
        <time>2012-10-28T09:46:25Z</time>
      </trkpt>
      <trkpt lat="44.10413" lon="3.17773">
        <ele>635.20001220703</ele>
        <time>2012-10-28T09:46:29Z</time>
      </trkpt>
      <trkpt lat="44.10417" lon="3.17764">
        <ele>632.79998779297</ele>
        <time>2012-10-28T09:46:33Z</time>
      </trkpt>
      <trkpt lat="44.10425" lon="3.17751">
        <ele>629.79998779297</ele>
        <time>2012-10-28T09:46:38Z</time>
      </trkpt>
      <trkpt lat="44.10428" lon="3.17742">
        <ele>628</ele>
        <time>2012-10-28T09:46:41Z</time>
      </trkpt>
      <trkpt lat="44.10432" lon="3.17715">
        <ele>622.79998779297</ele>
        <time>2012-10-28T09:46:49Z</time>
      </trkpt>
      <trkpt lat="44.10435" lon="3.17686">
        <ele>619.79998779297</ele>
        <time>2012-10-28T09:46:55Z</time>
      </trkpt>
      <trkpt lat="44.10437" lon="3.17658">
        <ele>617.20001220703</ele>
        <time>2012-10-28T09:47:01Z</time>
      </trkpt>
      <trkpt lat="44.10437" lon="3.17633">
        <ele>615.20001220703</ele>
        <time>2012-10-28T09:47:07Z</time>
      </trkpt>
      <trkpt lat="44.10429" lon="3.17608">
        <ele>613</ele>
        <time>2012-10-28T09:47:14Z</time>
      </trkpt>
      <trkpt lat="44.10416" lon="3.17588">
        <ele>610.79998779297</ele>
        <time>2012-10-28T09:47:21Z</time>
      </trkpt>
      <trkpt lat="44.10402" lon="3.17569">
        <ele>608.20001220703</ele>
        <time>2012-10-28T09:47:28Z</time>
      </trkpt>
      <trkpt lat="44.1039" lon="3.17547">
        <ele>605.79998779297</ele>
        <time>2012-10-28T09:47:35Z</time>
      </trkpt>
      <trkpt lat="44.1038" lon="3.17525">
        <ele>603.40002441406</ele>
        <time>2012-10-28T09:47:42Z</time>
      </trkpt>
      <trkpt lat="44.10374" lon="3.17501">
        <ele>601</ele>
        <time>2012-10-28T09:47:49Z</time>
      </trkpt>
      <trkpt lat="44.10373" lon="3.17475">
        <ele>599.59997558594</ele>
        <time>2012-10-28T09:47:55Z</time>
      </trkpt>
      <trkpt lat="44.10378" lon="3.17457">
        <ele>598.79998779297</ele>
        <time>2012-10-28T09:48:00Z</time>
      </trkpt>
      <trkpt lat="44.10382" lon="3.17451">
        <ele>598.40002441406</ele>
        <time>2012-10-28T09:48:02Z</time>
      </trkpt>
      <trkpt lat="44.10384" lon="3.17445">
        <ele>598</ele>
        <time>2012-10-28T09:48:04Z</time>
      </trkpt>
      <trkpt lat="44.10386" lon="3.17427">
        <ele>597.20001220703</ele>
        <time>2012-10-28T09:48:09Z</time>
      </trkpt>
      <trkpt lat="44.10388" lon="3.17417">
        <ele>596.59997558594</ele>
        <time>2012-10-28T09:48:12Z</time>
      </trkpt>
      <trkpt lat="44.10393" lon="3.17403">
        <ele>595.79998779297</ele>
        <time>2012-10-28T09:48:16Z</time>
      </trkpt>
      <trkpt lat="44.10394" lon="3.17378">
        <ele>594.59997558594</ele>
        <time>2012-10-28T09:48:23Z</time>
      </trkpt>
      <trkpt lat="44.10404" lon="3.17358">
        <ele>593.59997558594</ele>
        <time>2012-10-28T09:48:29Z</time>
      </trkpt>
      <trkpt lat="44.10406" lon="3.17331">
        <ele>592.20001220703</ele>
        <time>2012-10-28T09:48:36Z</time>
      </trkpt>
      <trkpt lat="44.10411" lon="3.17308">
        <ele>590.59997558594</ele>
        <time>2012-10-28T09:48:42Z</time>
      </trkpt>
      <trkpt lat="44.10408" lon="3.17281">
        <ele>588.79998779297</ele>
        <time>2012-10-28T09:48:49Z</time>
      </trkpt>
      <trkpt lat="44.10398" lon="3.17264">
        <ele>587.40002441406</ele>
        <time>2012-10-28T09:48:55Z</time>
      </trkpt>
      <trkpt lat="44.10397" lon="3.1726">
        <ele>587.20001220703</ele>
        <time>2012-10-28T09:48:56Z</time>
      </trkpt>
      <trkpt lat="44.10401" lon="3.17235">
        <ele>585.59997558594</ele>
        <time>2012-10-28T09:49:03Z</time>
      </trkpt>
      <trkpt lat="44.10407" lon="3.17209">
        <ele>583.59997558594</ele>
        <time>2012-10-28T09:49:10Z</time>
      </trkpt>
      <trkpt lat="44.10401" lon="3.17186">
        <ele>582</ele>
        <time>2012-10-28T09:49:16Z</time>
      </trkpt>
      <trkpt lat="44.1041" lon="3.17162">
        <ele>580</ele>
        <time>2012-10-28T09:49:24Z</time>
      </trkpt>
      <trkpt lat="44.10416" lon="3.17149">
        <ele>579</ele>
        <time>2012-10-28T09:49:28Z</time>
      </trkpt>
      <trkpt lat="44.10419" lon="3.17137">
        <ele>578.20001220703</ele>
        <time>2012-10-28T09:49:31Z</time>
      </trkpt>
      <trkpt lat="44.10423" lon="3.1713">
        <ele>577.59997558594</ele>
        <time>2012-10-28T09:49:33Z</time>
      </trkpt>
      <trkpt lat="44.10429" lon="3.17111">
        <ele>576.20001220703</ele>
        <time>2012-10-28T09:49:38Z</time>
      </trkpt>
      <trkpt lat="44.10446" lon="3.17101">
        <ele>575</ele>
        <time>2012-10-28T09:49:44Z</time>
      </trkpt>
      <trkpt lat="44.1044" lon="3.17127">
        <ele>573.59997558594</ele>
        <time>2012-10-28T09:49:50Z</time>
      </trkpt>
      <trkpt lat="44.10437" lon="3.1714">
        <ele>572.79998779297</ele>
        <time>2012-10-28T09:49:53Z</time>
      </trkpt>
      <trkpt lat="44.10435" lon="3.17152">
        <ele>572.20001220703</ele>
        <time>2012-10-28T09:49:56Z</time>
      </trkpt>
      <trkpt lat="44.10428" lon="3.17175">
        <ele>570.40002441406</ele>
        <time>2012-10-28T09:50:02Z</time>
      </trkpt>
      <trkpt lat="44.10423" lon="3.172">
        <ele>568.59997558594</ele>
        <time>2012-10-28T09:50:08Z</time>
      </trkpt>
      <trkpt lat="44.10427" lon="3.17225">
        <ele>566.59997558594</ele>
        <time>2012-10-28T09:50:14Z</time>
      </trkpt>
      <trkpt lat="44.10429" lon="3.1725">
        <ele>564.79998779297</ele>
        <time>2012-10-28T09:50:20Z</time>
      </trkpt>
      <trkpt lat="44.10433" lon="3.17279">
        <ele>562</ele>
        <time>2012-10-28T09:50:28Z</time>
      </trkpt>
      <trkpt lat="44.10435" lon="3.17294">
        <ele>560.59997558594</ele>
        <time>2012-10-28T09:50:32Z</time>
      </trkpt>
      <trkpt lat="44.10439" lon="3.17307">
        <ele>560</ele>
        <time>2012-10-28T09:50:35Z</time>
      </trkpt>
      <trkpt lat="44.1044" lon="3.17312">
        <ele>559.79998779297</ele>
        <time>2012-10-28T09:50:36Z</time>
      </trkpt>
      <trkpt lat="44.10441" lon="3.17337">
        <ele>558</ele>
        <time>2012-10-28T09:50:42Z</time>
      </trkpt>
      <trkpt lat="44.10439" lon="3.17365">
        <ele>556.20001220703</ele>
        <time>2012-10-28T09:50:49Z</time>
      </trkpt>
      <trkpt lat="44.10432" lon="3.17393">
        <ele>554.59997558594</ele>
        <time>2012-10-28T09:50:57Z</time>
      </trkpt>
      <trkpt lat="44.10434" lon="3.17404">
        <ele>553.59997558594</ele>
        <time>2012-10-28T09:51:01Z</time>
      </trkpt>
      <trkpt lat="44.10435" lon="3.17402">
        <ele>553</ele>
        <time>2012-10-28T09:51:03Z</time>
      </trkpt>
      <trkpt lat="44.10439" lon="3.17393">
        <ele>552.40002441406</ele>
        <time>2012-10-28T09:51:05Z</time>
      </trkpt>
      <trkpt lat="44.10444" lon="3.17381">
        <ele>551.59997558594</ele>
        <time>2012-10-28T09:51:08Z</time>
      </trkpt>
      <trkpt lat="44.10452" lon="3.17372">
        <ele>550.79998779297</ele>
        <time>2012-10-28T09:51:11Z</time>
      </trkpt>
      <trkpt lat="44.10464" lon="3.17353">
        <ele>549.20001220703</ele>
        <time>2012-10-28T09:51:17Z</time>
      </trkpt>
      <trkpt lat="44.10477" lon="3.1734">
        <ele>547.79998779297</ele>
        <time>2012-10-28T09:51:22Z</time>
      </trkpt>
      <trkpt lat="44.10478" lon="3.17333">
        <ele>547</ele>
        <time>2012-10-28T09:51:24Z</time>
      </trkpt>
      <trkpt lat="44.10477" lon="3.17305">
        <ele>545</ele>
        <time>2012-10-28T09:51:31Z</time>
      </trkpt>
      <trkpt lat="44.10474" lon="3.17277">
        <ele>542.20001220703</ele>
        <time>2012-10-28T09:51:39Z</time>
      </trkpt>
      <trkpt lat="44.10475" lon="3.1725">
        <ele>539.79998779297</ele>
        <time>2012-10-28T09:51:46Z</time>
      </trkpt>
      <trkpt lat="44.10485" lon="3.1723">
        <ele>537.79998779297</ele>
        <time>2012-10-28T09:51:52Z</time>
      </trkpt>
      <trkpt lat="44.1049" lon="3.17213">
        <ele>536</ele>
        <time>2012-10-28T09:51:57Z</time>
      </trkpt>
      <trkpt lat="44.10491" lon="3.17205">
        <ele>535.40002441406</ele>
        <time>2012-10-28T09:51:59Z</time>
      </trkpt>
      <trkpt lat="44.105" lon="3.17182">
        <ele>533.20001220703</ele>
        <time>2012-10-28T09:52:05Z</time>
      </trkpt>
      <trkpt lat="44.10513" lon="3.17163">
        <ele>530.20001220703</ele>
        <time>2012-10-28T09:52:12Z</time>
      </trkpt>
      <trkpt lat="44.1053" lon="3.17153">
        <ele>527.20001220703</ele>
        <time>2012-10-28T09:52:18Z</time>
      </trkpt>
      <trkpt lat="44.1055" lon="3.17139">
        <ele>524.40002441406</ele>
        <time>2012-10-28T09:52:24Z</time>
      </trkpt>
      <trkpt lat="44.10566" lon="3.17123">
        <ele>521.40002441406</ele>
        <time>2012-10-28T09:52:30Z</time>
      </trkpt>
      <trkpt lat="44.10581" lon="3.17103">
        <ele>518</ele>
        <time>2012-10-28T09:52:37Z</time>
      </trkpt>
      <trkpt lat="44.10591" lon="3.17081">
        <ele>515</ele>
        <time>2012-10-28T09:52:43Z</time>
      </trkpt>
      <trkpt lat="44.106" lon="3.17055">
        <ele>511.79998779297</ele>
        <time>2012-10-28T09:52:49Z</time>
      </trkpt>
      <trkpt lat="44.10608" lon="3.17032">
        <ele>508.60000610352</ele>
        <time>2012-10-28T09:52:55Z</time>
      </trkpt>
      <trkpt lat="44.10624" lon="3.17018">
        <ele>504.79998779297</ele>
        <time>2012-10-28T09:53:02Z</time>
      </trkpt>
      <trkpt lat="44.10644" lon="3.17015">
        <ele>501.20001220703</ele>
        <time>2012-10-28T09:53:09Z</time>
      </trkpt>
      <trkpt lat="44.10661" lon="3.17009">
        <ele>498.20001220703</ele>
        <time>2012-10-28T09:53:15Z</time>
      </trkpt>
      <trkpt lat="44.10682" lon="3.16999">
        <ele>494.39999389648</ele>
        <time>2012-10-28T09:53:23Z</time>
      </trkpt>
      <trkpt lat="44.10699" lon="3.16988">
        <ele>491.39999389648</ele>
        <time>2012-10-28T09:53:29Z</time>
      </trkpt>
      <trkpt lat="44.10716" lon="3.16991">
        <ele>488.79998779297</ele>
        <time>2012-10-28T09:53:34Z</time>
      </trkpt>
      <trkpt lat="44.10735" lon="3.16995">
        <ele>486.79998779297</ele>
        <time>2012-10-28T09:53:38Z</time>
      </trkpt>
      <trkpt lat="44.10757" lon="3.16988">
        <ele>483.60000610352</ele>
        <time>2012-10-28T09:53:45Z</time>
      </trkpt>
      <trkpt lat="44.10775" lon="3.16981">
        <ele>481.39999389648</ele>
        <time>2012-10-28T09:53:50Z</time>
      </trkpt>
      <trkpt lat="44.10791" lon="3.16969">
        <ele>479.20001220703</ele>
        <time>2012-10-28T09:53:56Z</time>
      </trkpt>
      <trkpt lat="44.10807" lon="3.16949">
        <ele>476.39999389648</ele>
        <time>2012-10-28T09:54:04Z</time>
      </trkpt>
      <trkpt lat="44.10819" lon="3.16931">
        <ele>474.20001220703</ele>
        <time>2012-10-28T09:54:10Z</time>
      </trkpt>
      <trkpt lat="44.10822" lon="3.16905">
        <ele>472.20001220703</ele>
        <time>2012-10-28T09:54:16Z</time>
      </trkpt>
      <trkpt lat="44.10822" lon="3.16877">
        <ele>469.60000610352</ele>
        <time>2012-10-28T09:54:23Z</time>
      </trkpt>
      <trkpt lat="44.1082" lon="3.16848">
        <ele>467.60000610352</ele>
        <time>2012-10-28T09:54:29Z</time>
      </trkpt>
      <trkpt lat="44.10812" lon="3.16823">
        <ele>466.79998779297</ele>
        <time>2012-10-28T09:54:33Z</time>
      </trkpt>
      <trkpt lat="44.1081" lon="3.16819">
        <ele>466.39999389648</ele>
        <time>2012-10-28T09:54:34Z</time>
      </trkpt>
      <trkpt lat="44.10801" lon="3.16802">
        <ele>464.79998779297</ele>
        <time>2012-10-28T09:54:39Z</time>
      </trkpt>
      <trkpt lat="44.10791" lon="3.16781">
        <ele>462.79998779297</ele>
        <time>2012-10-28T09:54:46Z</time>
      </trkpt>
      <trkpt lat="44.10792" lon="3.16777">
        <ele>462.39999389648</ele>
        <time>2012-10-28T09:54:47Z</time>
      </trkpt>
      <trkpt lat="44.10795" lon="3.16751">
        <ele>461.39999389648</ele>
        <time>2012-10-28T09:54:52Z</time>
      </trkpt>
      <trkpt lat="44.10809" lon="3.16743">
        <ele>460.60000610352</ele>
        <time>2012-10-28T09:54:56Z</time>
      </trkpt>
      <trkpt lat="44.10814" lon="3.16739">
        <ele>460.20001220703</ele>
        <time>2012-10-28T09:54:58Z</time>
      </trkpt>
      <trkpt lat="44.10833" lon="3.16732">
        <ele>458</ele>
        <time>2012-10-28T09:55:05Z</time>
      </trkpt>
      <trkpt lat="44.10849" lon="3.16718">
        <ele>455.60000610352</ele>
        <time>2012-10-28T09:55:12Z</time>
      </trkpt>
      <trkpt lat="44.1086" lon="3.16698">
        <ele>453</ele>
        <time>2012-10-28T09:55:19Z</time>
      </trkpt>
      <trkpt lat="44.1087" lon="3.16673">
        <ele>450.20001220703</ele>
        <time>2012-10-28T09:55:26Z</time>
      </trkpt>
      <trkpt lat="44.10866" lon="3.16669">
        <ele>449.79998779297</ele>
        <time>2012-10-28T09:55:27Z</time>
      </trkpt>
      <trkpt lat="44.10854" lon="3.16653">
        <ele>448.60000610352</ele>
        <time>2012-10-28T09:55:31Z</time>
      </trkpt>
      <trkpt lat="44.10843" lon="3.16631">
        <ele>446.20001220703</ele>
        <time>2012-10-28T09:55:37Z</time>
      </trkpt>
      <trkpt lat="44.10841" lon="3.16618">
        <ele>445</ele>
        <time>2012-10-28T09:55:40Z</time>
      </trkpt>
      <trkpt lat="44.10844" lon="3.16605">
        <ele>444</ele>
        <time>2012-10-28T09:55:43Z</time>
      </trkpt>
      <trkpt lat="44.10854" lon="3.1659">
        <ele>442.60000610352</ele>
        <time>2012-10-28T09:55:47Z</time>
      </trkpt>
      <trkpt lat="44.10859" lon="3.16586">
        <ele>441.79998779297</ele>
        <time>2012-10-28T09:55:49Z</time>
      </trkpt>
      <trkpt lat="44.10879" lon="3.16579">
        <ele>439.20001220703</ele>
        <time>2012-10-28T09:55:56Z</time>
      </trkpt>
      <trkpt lat="44.10885" lon="3.16572">
        <ele>437.79998779297</ele>
        <time>2012-10-28T09:56:00Z</time>
      </trkpt>
      <trkpt lat="44.10884" lon="3.16556">
        <ele>436.79998779297</ele>
        <time>2012-10-28T09:56:03Z</time>
      </trkpt>
      <trkpt lat="44.10886" lon="3.16543">
        <ele>436</ele>
        <time>2012-10-28T09:56:06Z</time>
      </trkpt>
      <trkpt lat="44.10889" lon="3.16541">
        <ele>435.60000610352</ele>
        <time>2012-10-28T09:56:07Z</time>
      </trkpt>
      <trkpt lat="44.10897" lon="3.16539">
        <ele>435</ele>
        <time>2012-10-28T09:56:09Z</time>
      </trkpt>
      <trkpt lat="44.10902" lon="3.1654">
        <ele>434.39999389648</ele>
        <time>2012-10-28T09:56:11Z</time>
      </trkpt>
      <trkpt lat="44.10917" lon="3.16547">
        <ele>433.20001220703</ele>
        <time>2012-10-28T09:56:15Z</time>
      </trkpt>
      <trkpt lat="44.10935" lon="3.16553">
        <ele>430.39999389648</ele>
        <time>2012-10-28T09:56:23Z</time>
      </trkpt>
      <trkpt lat="44.10953" lon="3.16546">
        <ele>428</ele>
        <time>2012-10-28T09:56:30Z</time>
      </trkpt>
      <trkpt lat="44.10949" lon="3.16525">
        <ele>425.79998779297</ele>
        <time>2012-10-28T09:56:37Z</time>
      </trkpt>
      <trkpt lat="44.10931" lon="3.16512">
        <ele>423.39999389648</ele>
        <time>2012-10-28T09:56:45Z</time>
      </trkpt>
      <trkpt lat="44.10923" lon="3.16486">
        <ele>421.60000610352</ele>
        <time>2012-10-28T09:56:52Z</time>
      </trkpt>
      <trkpt lat="44.10925" lon="3.16461">
        <ele>420.39999389648</ele>
        <time>2012-10-28T09:56:59Z</time>
      </trkpt>
      <trkpt lat="44.10927" lon="3.16435">
        <ele>418.79998779297</ele>
        <time>2012-10-28T09:57:07Z</time>
      </trkpt>
      <trkpt lat="44.10918" lon="3.1641">
        <ele>417.39999389648</ele>
        <time>2012-10-28T09:57:15Z</time>
      </trkpt>
      <trkpt lat="44.10905" lon="3.1639">
        <ele>416</ele>
        <time>2012-10-28T09:57:22Z</time>
      </trkpt>
      <trkpt lat="44.10895" lon="3.16367">
        <ele>414.79998779297</ele>
        <time>2012-10-28T09:57:30Z</time>
      </trkpt>
      <trkpt lat="44.10885" lon="3.16344">
        <ele>414.20001220703</ele>
        <time>2012-10-28T09:57:36Z</time>
      </trkpt>
      <trkpt lat="44.10873" lon="3.16323">
        <ele>412.79998779297</ele>
        <time>2012-10-28T09:57:45Z</time>
      </trkpt>
      <trkpt lat="44.10862" lon="3.16305">
        <ele>411.20001220703</ele>
        <time>2012-10-28T09:57:53Z</time>
      </trkpt>
      <trkpt lat="44.10848" lon="3.16286">
        <ele>409.79998779297</ele>
        <time>2012-10-28T09:58:00Z</time>
      </trkpt>
      <trkpt lat="44.10841" lon="3.16278">
        <ele>408.79998779297</ele>
        <time>2012-10-28T09:58:04Z</time>
      </trkpt>
      <trkpt lat="44.10837" lon="3.16266">
        <ele>408.39999389648</ele>
        <time>2012-10-28T09:58:07Z</time>
      </trkpt>
      <trkpt lat="44.10825" lon="3.16244">
        <ele>406.39999389648</ele>
        <time>2012-10-28T09:58:17Z</time>
      </trkpt>
      <trkpt lat="44.10814" lon="3.16224">
        <ele>406</ele>
        <time>2012-10-28T09:58:22Z</time>
      </trkpt>
      <trkpt lat="44.10805" lon="3.16198">
        <ele>405.79998779297</ele>
        <time>2012-10-28T09:58:28Z</time>
      </trkpt>
      <trkpt lat="44.10793" lon="3.16175">
        <ele>405.60000610352</ele>
        <time>2012-10-28T09:58:36Z</time>
      </trkpt>
      <trkpt lat="44.10777" lon="3.1616">
        <ele>405.20001220703</ele>
        <time>2012-10-28T09:58:42Z</time>
      </trkpt>
      <trkpt lat="44.1077" lon="3.16147">
        <ele>404.79998779297</ele>
        <time>2012-10-28T09:58:47Z</time>
      </trkpt>
      <trkpt lat="44.10765" lon="3.1614">
        <ele>404.39999389648</ele>
        <time>2012-10-28T09:58:52Z</time>
      </trkpt>
      <trkpt lat="44.10761" lon="3.16134">
        <ele>404.60000610352</ele>
        <time>2012-10-28T09:58:54Z</time>
      </trkpt>
      <trkpt lat="44.10755" lon="3.16118">
        <ele>404.39999389648</ele>
        <time>2012-10-28T09:59:02Z</time>
      </trkpt>
      <trkpt lat="44.10744" lon="3.16097">
        <ele>404.39999389648</ele>
        <time>2012-10-28T09:59:13Z</time>
      </trkpt>
      <trkpt lat="44.10742" lon="3.16095">
        <ele>404.39999389648</ele>
        <time>2012-10-28T09:59:14Z</time>
      </trkpt>
      <trkpt lat="44.1074" lon="3.16091">
        <ele>404.39999389648</ele>
        <time>2012-10-28T09:59:16Z</time>
      </trkpt>
      <trkpt lat="44.10736" lon="3.16087">
        <ele>404.39999389648</ele>
        <time>2012-10-28T09:59:18Z</time>
      </trkpt>
      <trkpt lat="44.10731" lon="3.16078">
        <ele>404.60000610352</ele>
        <time>2012-10-28T09:59:22Z</time>
      </trkpt>
      <trkpt lat="44.10721" lon="3.16059">
        <ele>405.60000610352</ele>
        <time>2012-10-28T09:59:29Z</time>
      </trkpt>
      <trkpt lat="44.1072" lon="3.16056">
        <ele>405.79998779297</ele>
        <time>2012-10-28T09:59:30Z</time>
      </trkpt>
      <trkpt lat="44.10717" lon="3.16049">
        <ele>406.20001220703</ele>
        <time>2012-10-28T09:59:33Z</time>
      </trkpt>
      <trkpt lat="44.10712" lon="3.16039">
        <ele>406.39999389648</ele>
        <time>2012-10-28T09:59:37Z</time>
      </trkpt>
      <trkpt lat="44.1071" lon="3.16033">
        <ele>407</ele>
        <time>2012-10-28T09:59:39Z</time>
      </trkpt>
      <trkpt lat="44.10701" lon="3.16016">
        <ele>409</ele>
        <time>2012-10-28T09:59:46Z</time>
      </trkpt>
      <trkpt lat="44.107" lon="3.16012">
        <ele>409.39999389648</ele>
        <time>2012-10-28T09:59:47Z</time>
      </trkpt>
      <trkpt lat="44.10697" lon="3.16002">
        <ele>410.20001220703</ele>
        <time>2012-10-28T09:59:50Z</time>
      </trkpt>
      <trkpt lat="44.10691" lon="3.15988">
        <ele>410.60000610352</ele>
        <time>2012-10-28T09:59:55Z</time>
      </trkpt>
      <trkpt lat="44.1068" lon="3.15966">
        <ele>411.20001220703</ele>
        <time>2012-10-28T10:00:03Z</time>
      </trkpt>
      <trkpt lat="44.10666" lon="3.15947">
        <ele>410.79998779297</ele>
        <time>2012-10-28T10:00:12Z</time>
      </trkpt>
      <trkpt lat="44.10664" lon="3.15946">
        <ele>410.60000610352</ele>
        <time>2012-10-28T10:00:13Z</time>
      </trkpt>
      <trkpt lat="44.10648" lon="3.15945">
        <ele>410</ele>
        <time>2012-10-28T10:00:21Z</time>
      </trkpt>
      <trkpt lat="44.10629" lon="3.15942">
        <ele>409.39999389648</ele>
        <time>2012-10-28T10:00:30Z</time>
      </trkpt>
      <trkpt lat="44.10627" lon="3.15942">
        <ele>409.20001220703</ele>
        <time>2012-10-28T10:00:31Z</time>
      </trkpt>
      <trkpt lat="44.10611" lon="3.15937">
        <ele>408.79998779297</ele>
        <time>2012-10-28T10:00:38Z</time>
      </trkpt>
      <trkpt lat="44.10592" lon="3.15937">
        <ele>408.39999389648</ele>
        <time>2012-10-28T10:00:47Z</time>
      </trkpt>
      <trkpt lat="44.10575" lon="3.15937">
        <ele>408.60000610352</ele>
        <time>2012-10-28T10:00:54Z</time>
      </trkpt>
      <trkpt lat="44.10554" lon="3.15934">
        <ele>408.20001220703</ele>
        <time>2012-10-28T10:01:02Z</time>
      </trkpt>
      <trkpt lat="44.10546" lon="3.15931">
        <ele>408</ele>
        <time>2012-10-28T10:01:05Z</time>
      </trkpt>
      <trkpt lat="44.10535" lon="3.15926">
        <ele>407.60000610352</ele>
        <time>2012-10-28T10:01:09Z</time>
      </trkpt>
      <trkpt lat="44.10521" lon="3.15908">
        <ele>407</ele>
        <time>2012-10-28T10:01:16Z</time>
      </trkpt>
      <trkpt lat="44.10519" lon="3.15886">
        <ele>406</ele>
        <time>2012-10-28T10:01:22Z</time>
      </trkpt>
      <trkpt lat="44.10521" lon="3.15884">
        <ele>405.79998779297</ele>
        <time>2012-10-28T10:01:23Z</time>
      </trkpt>
      <trkpt lat="44.10529" lon="3.15882">
        <ele>405</ele>
        <time>2012-10-28T10:01:26Z</time>
      </trkpt>
      <trkpt lat="44.10542" lon="3.15882">
        <ele>404</ele>
        <time>2012-10-28T10:01:31Z</time>
      </trkpt>
      <trkpt lat="44.10561" lon="3.15875">
        <ele>402.39999389648</ele>
        <time>2012-10-28T10:01:38Z</time>
      </trkpt>
      <trkpt lat="44.10578" lon="3.1586">
        <ele>399.39999389648</ele>
        <time>2012-10-28T10:01:48Z</time>
      </trkpt>
      <trkpt lat="44.10582" lon="3.15859">
        <ele>398.79998779297</ele>
        <time>2012-10-28T10:01:50Z</time>
      </trkpt>
      <trkpt lat="44.10589" lon="3.15845">
        <ele>398</ele>
        <time>2012-10-28T10:01:56Z</time>
      </trkpt>
      <trkpt lat="44.10597" lon="3.15842">
        <ele>397.60000610352</ele>
        <time>2012-10-28T10:01:59Z</time>
      </trkpt>
      <trkpt lat="44.106" lon="3.15842">
        <ele>397.60000610352</ele>
        <time>2012-10-28T10:02:00Z</time>
      </trkpt>
      <trkpt lat="44.10616" lon="3.15841">
        <ele>397.60000610352</ele>
        <time>2012-10-28T10:02:04Z</time>
      </trkpt>
      <trkpt lat="44.10625" lon="3.1584">
        <ele>397.60000610352</ele>
        <time>2012-10-28T10:02:06Z</time>
      </trkpt>
      <trkpt lat="44.10634" lon="3.15839">
        <ele>398</ele>
        <time>2012-10-28T10:02:10Z</time>
      </trkpt>
      <trkpt lat="44.10651" lon="3.15833">
        <ele>398</ele>
        <time>2012-10-28T10:02:17Z</time>
      </trkpt>
      <trkpt lat="44.10653" lon="3.15831">
        <ele>398</ele>
        <time>2012-10-28T10:02:18Z</time>
      </trkpt>
      <trkpt lat="44.10654" lon="3.1583">
        <ele>398</ele>
        <time>2012-10-28T10:02:19Z</time>
      </trkpt>
      <trkpt lat="44.10664" lon="3.15825">
        <ele>398</ele>
        <time>2012-10-28T10:02:23Z</time>
      </trkpt>
      <trkpt lat="44.10669" lon="3.15821">
        <ele>398</ele>
        <time>2012-10-28T10:02:25Z</time>
      </trkpt>
      <trkpt lat="44.10681" lon="3.15802">
        <ele>397.60000610352</ele>
        <time>2012-10-28T10:02:33Z</time>
      </trkpt>
      <trkpt lat="44.10681" lon="3.15797">
        <ele>397.60000610352</ele>
        <time>2012-10-28T10:02:35Z</time>
      </trkpt>
      <trkpt lat="44.10685" lon="3.15776">
        <ele>397.60000610352</ele>
        <time>2012-10-28T10:02:41Z</time>
      </trkpt>
      <trkpt lat="44.10686" lon="3.15773">
        <ele>397.60000610352</ele>
        <time>2012-10-28T10:02:42Z</time>
      </trkpt>
      <trkpt lat="44.1069" lon="3.15751">
        <ele>398</ele>
        <time>2012-10-28T10:02:47Z</time>
      </trkpt>
      <trkpt lat="44.10697" lon="3.15726">
        <ele>398.60000610352</ele>
        <time>2012-10-28T10:02:53Z</time>
      </trkpt>
      <trkpt lat="44.10697" lon="3.15723">
        <ele>398.60000610352</ele>
        <time>2012-10-28T10:02:54Z</time>
      </trkpt>
      <trkpt lat="44.10697" lon="3.15701">
        <ele>398.39999389648</ele>
        <time>2012-10-28T10:03:01Z</time>
      </trkpt>
      <trkpt lat="44.10701" lon="3.1568">
        <ele>398.39999389648</ele>
        <time>2012-10-28T10:03:07Z</time>
      </trkpt>
      <trkpt lat="44.107" lon="3.15674">
        <ele>398.39999389648</ele>
        <time>2012-10-28T10:03:09Z</time>
      </trkpt>
      <trkpt lat="44.10701" lon="3.15666">
        <ele>398.39999389648</ele>
        <time>2012-10-28T10:03:12Z</time>
      </trkpt>
      <trkpt lat="44.10704" lon="3.15651">
        <ele>398.20001220703</ele>
        <time>2012-10-28T10:03:17Z</time>
      </trkpt>
      <trkpt lat="44.10703" lon="3.15626">
        <ele>397.60000610352</ele>
        <time>2012-10-28T10:03:25Z</time>
      </trkpt>
      <trkpt lat="44.10702" lon="3.15601">
        <ele>397.39999389648</ele>
        <time>2012-10-28T10:03:32Z</time>
      </trkpt>
      <trkpt lat="44.10696" lon="3.15575">
        <ele>397.39999389648</ele>
        <time>2012-10-28T10:03:41Z</time>
      </trkpt>
      <trkpt lat="44.10694" lon="3.15567">
        <ele>397.39999389648</ele>
        <time>2012-10-28T10:03:44Z</time>
      </trkpt>
      <trkpt lat="44.10688" lon="3.15553">
        <ele>397.20001220703</ele>
        <time>2012-10-28T10:03:50Z</time>
      </trkpt>
      <trkpt lat="44.10677" lon="3.15534">
        <ele>397.20001220703</ele>
        <time>2012-10-28T10:03:56Z</time>
      </trkpt>
      <trkpt lat="44.10673" lon="3.15524">
        <ele>397</ele>
        <time>2012-10-28T10:04:00Z</time>
      </trkpt>
      <trkpt lat="44.10669" lon="3.15515">
        <ele>396.79998779297</ele>
        <time>2012-10-28T10:04:04Z</time>
      </trkpt>
      <trkpt lat="44.10666" lon="3.1551">
        <ele>396.79998779297</ele>
        <time>2012-10-28T10:04:06Z</time>
      </trkpt>
      <trkpt lat="44.10656" lon="3.15487">
        <ele>396.60000610352</ele>
        <time>2012-10-28T10:04:14Z</time>
      </trkpt>
      <trkpt lat="44.10655" lon="3.15484">
        <ele>396.60000610352</ele>
        <time>2012-10-28T10:04:15Z</time>
      </trkpt>
      <trkpt lat="44.10652" lon="3.15462">
        <ele>396.60000610352</ele>
        <time>2012-10-28T10:04:22Z</time>
      </trkpt>
      <trkpt lat="44.10647" lon="3.15441">
        <ele>397.20001220703</ele>
        <time>2012-10-28T10:04:30Z</time>
      </trkpt>
      <trkpt lat="44.10646" lon="3.15437">
        <ele>397.20001220703</ele>
        <time>2012-10-28T10:04:31Z</time>
      </trkpt>
      <trkpt lat="44.10634" lon="3.15418">
        <ele>397.20001220703</ele>
        <time>2012-10-28T10:04:38Z</time>
      </trkpt>
      <trkpt lat="44.10632" lon="3.15412">
        <ele>397.39999389648</ele>
        <time>2012-10-28T10:04:40Z</time>
      </trkpt>
      <trkpt lat="44.10629" lon="3.15403">
        <ele>397.20001220703</ele>
        <time>2012-10-28T10:04:45Z</time>
      </trkpt>
      <trkpt lat="44.10624" lon="3.1539">
        <ele>397.20001220703</ele>
        <time>2012-10-28T10:04:48Z</time>
      </trkpt>
      <trkpt lat="44.10621" lon="3.15383">
        <ele>397.39999389648</ele>
        <time>2012-10-28T10:04:50Z</time>
      </trkpt>
      <trkpt lat="44.10618" lon="3.15372">
        <ele>397.20001220703</ele>
        <time>2012-10-28T10:04:54Z</time>
      </trkpt>
      <trkpt lat="44.10617" lon="3.15368">
        <ele>397.20001220703</ele>
        <time>2012-10-28T10:04:55Z</time>
      </trkpt>
      <trkpt lat="44.10607" lon="3.15343">
        <ele>397.20001220703</ele>
        <time>2012-10-28T10:05:03Z</time>
      </trkpt>
      <trkpt lat="44.10601" lon="3.15326">
        <ele>397</ele>
        <time>2012-10-28T10:05:09Z</time>
      </trkpt>
      <trkpt lat="44.106" lon="3.1532">
        <ele>397</ele>
        <time>2012-10-28T10:05:11Z</time>
      </trkpt>
      <trkpt lat="44.10588" lon="3.15299">
        <ele>396.79998779297</ele>
        <time>2012-10-28T10:05:20Z</time>
      </trkpt>
      <trkpt lat="44.10587" lon="3.15297">
        <ele>396.79998779297</ele>
        <time>2012-10-28T10:05:21Z</time>
      </trkpt>
      <trkpt lat="44.1058" lon="3.15286">
        <ele>396.79998779297</ele>
        <time>2012-10-28T10:05:25Z</time>
      </trkpt>
      <trkpt lat="44.10579" lon="3.15279">
        <ele>396.79998779297</ele>
        <time>2012-10-28T10:05:27Z</time>
      </trkpt>
      <trkpt lat="44.10572" lon="3.15257">
        <ele>396.79998779297</ele>
        <time>2012-10-28T10:05:36Z</time>
      </trkpt>
      <trkpt lat="44.10571" lon="3.15254">
        <ele>396.79998779297</ele>
        <time>2012-10-28T10:05:37Z</time>
      </trkpt>
      <trkpt lat="44.10562" lon="3.15229">
        <ele>396.79998779297</ele>
        <time>2012-10-28T10:05:46Z</time>
      </trkpt>
      <trkpt lat="44.10553" lon="3.15207">
        <ele>397</ele>
        <time>2012-10-28T10:05:53Z</time>
      </trkpt>
      <trkpt lat="44.1055" lon="3.15196">
        <ele>397.20001220703</ele>
        <time>2012-10-28T10:05:57Z</time>
      </trkpt>
      <trkpt lat="44.10547" lon="3.15181">
        <ele>397.20001220703</ele>
        <time>2012-10-28T10:06:02Z</time>
      </trkpt>
      <trkpt lat="44.10535" lon="3.15161">
        <ele>397</ele>
        <time>2012-10-28T10:06:10Z</time>
      </trkpt>
      <trkpt lat="44.10532" lon="3.15136">
        <ele>396.60000610352</ele>
        <time>2012-10-28T10:06:20Z</time>
      </trkpt>
      <trkpt lat="44.10527" lon="3.15128">
        <ele>396.39999389648</ele>
        <time>2012-10-28T10:06:23Z</time>
      </trkpt>
      <trkpt lat="44.10522" lon="3.15121">
        <ele>396.20001220703</ele>
        <time>2012-10-28T10:06:26Z</time>
      </trkpt>
      <trkpt lat="44.10523" lon="3.15114">
        <ele>396.20001220703</ele>
        <time>2012-10-28T10:06:28Z</time>
      </trkpt>
      <trkpt lat="44.10521" lon="3.15108">
        <ele>396.20001220703</ele>
        <time>2012-10-28T10:06:30Z</time>
      </trkpt>
      <trkpt lat="44.1052" lon="3.15105">
        <ele>396</ele>
        <time>2012-10-28T10:06:31Z</time>
      </trkpt>
      <trkpt lat="44.10515" lon="3.15092">
        <ele>395.79998779297</ele>
        <time>2012-10-28T10:06:35Z</time>
      </trkpt>
      <trkpt lat="44.1051" lon="3.15067">
        <ele>395.39999389648</ele>
        <time>2012-10-28T10:06:43Z</time>
      </trkpt>
      <trkpt lat="44.10506" lon="3.15042">
        <ele>395</ele>
        <time>2012-10-28T10:06:51Z</time>
      </trkpt>
      <trkpt lat="44.10506" lon="3.15024">
        <ele>394.79998779297</ele>
        <time>2012-10-28T10:06:57Z</time>
      </trkpt>
      <trkpt lat="44.10508" lon="3.15015">
        <ele>394.79998779297</ele>
        <time>2012-10-28T10:07:00Z</time>
      </trkpt>
      <trkpt lat="44.10505" lon="3.14989">
        <ele>394.60000610352</ele>
        <time>2012-10-28T10:07:08Z</time>
      </trkpt>
      <trkpt lat="44.10504" lon="3.14979">
        <ele>394.39999389648</ele>
        <time>2012-10-28T10:07:11Z</time>
      </trkpt>
      <trkpt lat="44.10502" lon="3.14963">
        <ele>394.20001220703</ele>
        <time>2012-10-28T10:07:16Z</time>
      </trkpt>
      <trkpt lat="44.105" lon="3.14951">
        <ele>394.20001220703</ele>
        <time>2012-10-28T10:07:21Z</time>
      </trkpt>
      <trkpt lat="44.105" lon="3.14946">
        <ele>394</ele>
        <time>2012-10-28T10:07:23Z</time>
      </trkpt>
      <trkpt lat="44.105" lon="3.14936">
        <ele>394.20001220703</ele>
        <time>2012-10-28T10:07:26Z</time>
      </trkpt>
      <trkpt lat="44.10503" lon="3.14913">
        <ele>394.20001220703</ele>
        <time>2012-10-28T10:07:34Z</time>
      </trkpt>
      <trkpt lat="44.10503" lon="3.1491">
        <ele>394</ele>
        <time>2012-10-28T10:07:35Z</time>
      </trkpt>
      <trkpt lat="44.10502" lon="3.14902">
        <ele>394</ele>
        <time>2012-10-28T10:07:38Z</time>
      </trkpt>
      <trkpt lat="44.10501" lon="3.14887">
        <ele>394</ele>
        <time>2012-10-28T10:07:44Z</time>
      </trkpt>
      <trkpt lat="44.105" lon="3.14885">
        <ele>394</ele>
        <time>2012-10-28T10:07:45Z</time>
      </trkpt>
      <trkpt lat="44.10498" lon="3.14878">
        <ele>394.60000610352</ele>
        <time>2012-10-28T10:07:48Z</time>
      </trkpt>
      <trkpt lat="44.10492" lon="3.14865">
        <ele>398.39999389648</ele>
        <time>2012-10-28T10:08:06Z</time>
      </trkpt>
      <trkpt lat="44.10492" lon="3.14863">
        <ele>398.60000610352</ele>
        <time>2012-10-28T10:08:07Z</time>
      </trkpt>
      <trkpt lat="44.10496" lon="3.14856">
        <ele>399.20001220703</ele>
        <time>2012-10-28T10:08:12Z</time>
      </trkpt>
      <trkpt lat="44.10499" lon="3.14848">
        <ele>399.60000610352</ele>
        <time>2012-10-28T10:08:19Z</time>
      </trkpt>
      <trkpt lat="44.105" lon="3.14845">
        <ele>399.79998779297</ele>
        <time>2012-10-28T10:08:21Z</time>
      </trkpt>
      <trkpt lat="44.10503" lon="3.1484">
        <ele>400.20001220703</ele>
        <time>2012-10-28T10:08:24Z</time>
      </trkpt>
      <trkpt lat="44.10503" lon="3.14839">
        <ele>400.20001220703</ele>
        <time>2012-10-28T10:08:25Z</time>
      </trkpt>
      <trkpt lat="44.10507" lon="3.1482">
        <ele>400.20001220703</ele>
        <time>2012-10-28T10:08:36Z</time>
      </trkpt>
      <trkpt lat="44.10508" lon="3.14817">
        <ele>400</ele>
        <time>2012-10-28T10:08:37Z</time>
      </trkpt>
      <trkpt lat="44.10509" lon="3.14809">
        <ele>400</ele>
        <time>2012-10-28T10:08:40Z</time>
      </trkpt>
      <trkpt lat="44.10508" lon="3.14805">
        <ele>400.20001220703</ele>
        <time>2012-10-28T10:08:41Z</time>
      </trkpt>
      <trkpt lat="44.10508" lon="3.14791">
        <ele>400.60000610352</ele>
        <time>2012-10-28T10:08:45Z</time>
      </trkpt>
      <trkpt lat="44.10513" lon="3.14768">
        <ele>401.39999389648</ele>
        <time>2012-10-28T10:08:52Z</time>
      </trkpt>
      <trkpt lat="44.10512" lon="3.14757">
        <ele>401.79998779297</ele>
        <time>2012-10-28T10:08:55Z</time>
      </trkpt>
      <trkpt lat="44.10515" lon="3.14745">
        <ele>402.39999389648</ele>
        <time>2012-10-28T10:08:59Z</time>
      </trkpt>
      <trkpt lat="44.10516" lon="3.14744">
        <ele>402.60000610352</ele>
        <time>2012-10-28T10:09:00Z</time>
      </trkpt>
      <trkpt lat="44.10522" lon="3.1472">
        <ele>403.79998779297</ele>
        <time>2012-10-28T10:09:08Z</time>
      </trkpt>
      <trkpt lat="44.10526" lon="3.14696">
        <ele>405</ele>
        <time>2012-10-28T10:09:18Z</time>
      </trkpt>
      <trkpt lat="44.10534" lon="3.14676">
        <ele>406</ele>
        <time>2012-10-28T10:09:25Z</time>
      </trkpt>
      <trkpt lat="44.10535" lon="3.14671">
        <ele>406.20001220703</ele>
        <time>2012-10-28T10:09:27Z</time>
      </trkpt>
      <trkpt lat="44.10541" lon="3.14645">
        <ele>407.20001220703</ele>
        <time>2012-10-28T10:09:35Z</time>
      </trkpt>
      <trkpt lat="44.10543" lon="3.14632">
        <ele>407.60000610352</ele>
        <time>2012-10-28T10:09:39Z</time>
      </trkpt>
      <trkpt lat="44.10545" lon="3.14619">
        <ele>407.79998779297</ele>
        <time>2012-10-28T10:09:43Z</time>
      </trkpt>
      <trkpt lat="44.10545" lon="3.14613">
        <ele>408</ele>
        <time>2012-10-28T10:09:45Z</time>
      </trkpt>
      <trkpt lat="44.10551" lon="3.14594">
        <ele>408</ele>
        <time>2012-10-28T10:09:52Z</time>
      </trkpt>
      <trkpt lat="44.10559" lon="3.14579">
        <ele>407.60000610352</ele>
        <time>2012-10-28T10:10:00Z</time>
      </trkpt>
      <trkpt lat="44.10559" lon="3.14575">
        <ele>407.60000610352</ele>
        <time>2012-10-28T10:10:03Z</time>
      </trkpt>
      <trkpt lat="44.10559" lon="3.14573">
        <ele>407.39999389648</ele>
        <time>2012-10-28T10:10:04Z</time>
      </trkpt>
      <trkpt lat="44.10562" lon="3.14561">
        <ele>407.39999389648</ele>
        <time>2012-10-28T10:10:09Z</time>
      </trkpt>
      <trkpt lat="44.10563" lon="3.14557">
        <ele>407.20001220703</ele>
        <time>2012-10-28T10:10:11Z</time>
      </trkpt>
      <trkpt lat="44.10566" lon="3.14551">
        <ele>407</ele>
        <time>2012-10-28T10:10:14Z</time>
      </trkpt>
      <trkpt lat="44.10569" lon="3.14539">
        <ele>406.79998779297</ele>
        <time>2012-10-28T10:10:19Z</time>
      </trkpt>
      <trkpt lat="44.10566" lon="3.14527">
        <ele>406.60000610352</ele>
        <time>2012-10-28T10:10:24Z</time>
      </trkpt>
      <trkpt lat="44.10556" lon="3.14504">
        <ele>406.20001220703</ele>
        <time>2012-10-28T10:10:32Z</time>
      </trkpt>
      <trkpt lat="44.10553" lon="3.14489">
        <ele>406.20001220703</ele>
        <time>2012-10-28T10:10:36Z</time>
      </trkpt>
      <trkpt lat="44.10556" lon="3.14478">
        <ele>406.39999389648</ele>
        <time>2012-10-28T10:10:39Z</time>
      </trkpt>
      <trkpt lat="44.10571" lon="3.14467">
        <ele>407.39999389648</ele>
        <time>2012-10-28T10:10:46Z</time>
      </trkpt>
      <trkpt lat="44.10574" lon="3.14465">
        <ele>407.79998779297</ele>
        <time>2012-10-28T10:10:47Z</time>
      </trkpt>
      <trkpt lat="44.1059" lon="3.14462">
        <ele>408.20001220703</ele>
        <time>2012-10-28T10:10:53Z</time>
      </trkpt>
      <trkpt lat="44.10609" lon="3.14458">
        <ele>409.39999389648</ele>
        <time>2012-10-28T10:10:58Z</time>
      </trkpt>
      <trkpt lat="44.10627" lon="3.14449">
        <ele>411.60000610352</ele>
        <time>2012-10-28T10:11:06Z</time>
      </trkpt>
      <trkpt lat="44.10633" lon="3.14438">
        <ele>412.20001220703</ele>
        <time>2012-10-28T10:11:10Z</time>
      </trkpt>
      <trkpt lat="44.10633" lon="3.14425">
        <ele>413.39999389648</ele>
        <time>2012-10-28T10:11:14Z</time>
      </trkpt>
      <trkpt lat="44.1064" lon="3.14403">
        <ele>415.39999389648</ele>
        <time>2012-10-28T10:11:21Z</time>
      </trkpt>
      <trkpt lat="44.10653" lon="3.14381">
        <ele>417.60000610352</ele>
        <time>2012-10-28T10:11:29Z</time>
      </trkpt>
      <trkpt lat="44.10667" lon="3.14365">
        <ele>418.79998779297</ele>
        <time>2012-10-28T10:11:35Z</time>
      </trkpt>
      <trkpt lat="44.10677" lon="3.1434">
        <ele>420.79998779297</ele>
        <time>2012-10-28T10:11:43Z</time>
      </trkpt>
      <trkpt lat="44.1069" lon="3.14323">
        <ele>422.20001220703</ele>
        <time>2012-10-28T10:11:48Z</time>
      </trkpt>
      <trkpt lat="44.10696" lon="3.14309">
        <ele>422.20001220703</ele>
        <time>2012-10-28T10:11:52Z</time>
      </trkpt>
      <trkpt lat="44.10701" lon="3.14302">
        <ele>422.39999389648</ele>
        <time>2012-10-28T10:11:55Z</time>
      </trkpt>
      <trkpt lat="44.10703" lon="3.14298">
        <ele>422.60000610352</ele>
        <time>2012-10-28T10:11:56Z</time>
      </trkpt>
      <trkpt lat="44.1071" lon="3.14281">
        <ele>422.20001220703</ele>
        <time>2012-10-28T10:12:02Z</time>
      </trkpt>
      <trkpt lat="44.1071" lon="3.14277">
        <ele>422</ele>
        <time>2012-10-28T10:12:03Z</time>
      </trkpt>
      <trkpt lat="44.10709" lon="3.14256">
        <ele>421.20001220703</ele>
        <time>2012-10-28T10:12:10Z</time>
      </trkpt>
      <trkpt lat="44.10708" lon="3.14245">
        <ele>420.39999389648</ele>
        <time>2012-10-28T10:12:14Z</time>
      </trkpt>
      <trkpt lat="44.10708" lon="3.1422">
        <ele>418.39999389648</ele>
        <time>2012-10-28T10:12:23Z</time>
      </trkpt>
      <trkpt lat="44.10707" lon="3.1421">
        <ele>417.79998779297</ele>
        <time>2012-10-28T10:12:26Z</time>
      </trkpt>
      <trkpt lat="44.10706" lon="3.14208">
        <ele>417.60000610352</ele>
        <time>2012-10-28T10:12:27Z</time>
      </trkpt>
      <trkpt lat="44.10695" lon="3.14201">
        <ele>415.39999389648</ele>
        <time>2012-10-28T10:12:37Z</time>
      </trkpt>
      <trkpt lat="44.10687" lon="3.14189">
        <ele>413.79998779297</ele>
        <time>2012-10-28T10:12:49Z</time>
      </trkpt>
      <trkpt lat="44.10684" lon="3.1418">
        <ele>413.39999389648</ele>
        <time>2012-10-28T10:12:54Z</time>
      </trkpt>
      <trkpt lat="44.10682" lon="3.14173">
        <ele>413</ele>
        <time>2012-10-28T10:12:59Z</time>
      </trkpt>
      <trkpt lat="44.10683" lon="3.14169">
        <ele>412.60000610352</ele>
        <time>2012-10-28T10:13:02Z</time>
      </trkpt>
      <trkpt lat="44.10685" lon="3.14161">
        <ele>412.20001220703</ele>
        <time>2012-10-28T10:13:07Z</time>
      </trkpt>
      <trkpt lat="44.10685" lon="3.14158">
        <ele>411.79998779297</ele>
        <time>2012-10-28T10:13:10Z</time>
      </trkpt>
      <trkpt lat="44.10684" lon="3.14156">
        <ele>411.79998779297</ele>
        <time>2012-10-28T10:13:12Z</time>
      </trkpt>
      <trkpt lat="44.10685" lon="3.14154">
        <ele>411.60000610352</ele>
        <time>2012-10-28T10:13:14Z</time>
      </trkpt>
      <trkpt lat="44.10685" lon="3.14154">
        <ele>411.39999389648</ele>
        <time>2012-10-28T10:13:15Z</time>
      </trkpt>
      <trkpt lat="44.10684" lon="3.14151">
        <ele>411.39999389648</ele>
        <time>2012-10-28T10:13:18Z</time>
      </trkpt>
      <trkpt lat="44.10689" lon="3.14146">
        <ele>411.39999389648</ele>
        <time>2012-10-28T10:13:24Z</time>
      </trkpt>
      <trkpt lat="44.10695" lon="3.14146">
        <ele>412.20001220703</ele>
        <time>2012-10-28T10:13:28Z</time>
      </trkpt>
      <trkpt lat="44.10698" lon="3.14144">
        <ele>413.39999389648</ele>
        <time>2012-10-28T10:13:33Z</time>
      </trkpt>
      <trkpt lat="44.10698" lon="3.14142">
        <ele>414</ele>
        <time>2012-10-28T10:13:36Z</time>
      </trkpt>
      <trkpt lat="44.10688" lon="3.14141">
        <ele>418</ele>
        <time>2012-10-28T10:13:51Z</time>
      </trkpt>
      <trkpt lat="44.10685" lon="3.14143">
        <ele>419</ele>
        <time>2012-10-28T10:13:55Z</time>
      </trkpt>
      <trkpt lat="44.10674" lon="3.1415">
        <ele>425</ele>
        <time>2012-10-28T10:14:13Z</time>
      </trkpt>
      <trkpt lat="44.10672" lon="3.14153">
        <ele>425.79998779297</ele>
        <time>2012-10-28T10:14:15Z</time>
      </trkpt>
      <trkpt lat="44.10656" lon="3.1416">
        <ele>430.79998779297</ele>
        <time>2012-10-28T10:14:31Z</time>
      </trkpt>
      <trkpt lat="44.10654" lon="3.14159">
        <ele>431.20001220703</ele>
        <time>2012-10-28T10:14:33Z</time>
      </trkpt>
      <trkpt lat="44.10649" lon="3.1416">
        <ele>432.79998779297</ele>
        <time>2012-10-28T10:14:38Z</time>
      </trkpt>
      <trkpt lat="44.10636" lon="3.14168">
        <ele>435.20001220703</ele>
        <time>2012-10-28T10:14:53Z</time>
      </trkpt>
      <trkpt lat="44.10633" lon="3.14177">
        <ele>437.20001220703</ele>
        <time>2012-10-28T10:15:02Z</time>
      </trkpt>
      <trkpt lat="44.10632" lon="3.14179">
        <ele>438.20001220703</ele>
        <time>2012-10-28T10:15:06Z</time>
      </trkpt>
      <trkpt lat="44.10628" lon="3.14183">
        <ele>440</ele>
        <time>2012-10-28T10:15:11Z</time>
      </trkpt>
      <trkpt lat="44.10624" lon="3.14185">
        <ele>442.20001220703</ele>
        <time>2012-10-28T10:15:17Z</time>
      </trkpt>
      <trkpt lat="44.1062" lon="3.14188">
        <ele>443.39999389648</ele>
        <time>2012-10-28T10:15:21Z</time>
      </trkpt>
      <trkpt lat="44.1062" lon="3.1419">
        <ele>444</ele>
        <time>2012-10-28T10:15:23Z</time>
      </trkpt>
      <trkpt lat="44.10618" lon="3.14193">
        <ele>445.20001220703</ele>
        <time>2012-10-28T10:15:27Z</time>
      </trkpt>
      <trkpt lat="44.10616" lon="3.14196">
        <ele>446.20001220703</ele>
        <time>2012-10-28T10:15:31Z</time>
      </trkpt>
      <trkpt lat="44.10615" lon="3.14197">
        <ele>446.60000610352</ele>
        <time>2012-10-28T10:15:32Z</time>
      </trkpt>
      <trkpt lat="44.10608" lon="3.14202">
        <ele>448.60000610352</ele>
        <time>2012-10-28T10:15:38Z</time>
      </trkpt>
      <trkpt lat="44.10604" lon="3.14205">
        <ele>450.20001220703</ele>
        <time>2012-10-28T10:15:44Z</time>
      </trkpt>
      <trkpt lat="44.10601" lon="3.1421">
        <ele>451.60000610352</ele>
        <time>2012-10-28T10:15:48Z</time>
      </trkpt>
      <trkpt lat="44.10599" lon="3.14213">
        <ele>452.20001220703</ele>
        <time>2012-10-28T10:15:50Z</time>
      </trkpt>
      <trkpt lat="44.10596" lon="3.1422">
        <ele>453.20001220703</ele>
        <time>2012-10-28T10:15:55Z</time>
      </trkpt>
      <trkpt lat="44.10595" lon="3.14221">
        <ele>453.39999389648</ele>
        <time>2012-10-28T10:15:56Z</time>
      </trkpt>
      <trkpt lat="44.1059" lon="3.14232">
        <ele>456</ele>
        <time>2012-10-28T10:16:05Z</time>
      </trkpt>
      <trkpt lat="44.10585" lon="3.14237">
        <ele>457.60000610352</ele>
        <time>2012-10-28T10:16:10Z</time>
      </trkpt>
      <trkpt lat="44.10582" lon="3.1424">
        <ele>458.60000610352</ele>
        <time>2012-10-28T10:16:13Z</time>
      </trkpt>
      <trkpt lat="44.10579" lon="3.14244">
        <ele>459.39999389648</ele>
        <time>2012-10-28T10:16:16Z</time>
      </trkpt>
      <trkpt lat="44.10576" lon="3.14249">
        <ele>462.20001220703</ele>
        <time>2012-10-28T10:16:24Z</time>
      </trkpt>
      <trkpt lat="44.10568" lon="3.14258">
        <ele>464.60000610352</ele>
        <time>2012-10-28T10:16:34Z</time>
      </trkpt>
      <trkpt lat="44.10567" lon="3.14259">
        <ele>464.60000610352</ele>
        <time>2012-10-28T10:16:35Z</time>
      </trkpt>
      <trkpt lat="44.10561" lon="3.14269">
        <ele>467.20001220703</ele>
        <time>2012-10-28T10:16:45Z</time>
      </trkpt>
      <trkpt lat="44.10556" lon="3.14279">
        <ele>468.79998779297</ele>
        <time>2012-10-28T10:16:53Z</time>
      </trkpt>
      <trkpt lat="44.10555" lon="3.1428">
        <ele>469</ele>
        <time>2012-10-28T10:16:54Z</time>
      </trkpt>
      <trkpt lat="44.1054" lon="3.14295">
        <ele>472.39999389648</ele>
        <time>2012-10-28T10:17:09Z</time>
      </trkpt>
      <trkpt lat="44.10538" lon="3.14297">
        <ele>473.20001220703</ele>
        <time>2012-10-28T10:17:12Z</time>
      </trkpt>
      <trkpt lat="44.10526" lon="3.14315">
        <ele>477.20001220703</ele>
        <time>2012-10-28T10:17:28Z</time>
      </trkpt>
      <trkpt lat="44.10508" lon="3.14326">
        <ele>481.39999389648</ele>
        <time>2012-10-28T10:17:42Z</time>
      </trkpt>
      <trkpt lat="44.10507" lon="3.14324">
        <ele>481.39999389648</ele>
        <time>2012-10-28T10:17:43Z</time>
      </trkpt>
      <trkpt lat="44.10509" lon="3.14316">
        <ele>482</ele>
        <time>2012-10-28T10:17:47Z</time>
      </trkpt>
      <trkpt lat="44.10508" lon="3.14314">
        <ele>482</ele>
        <time>2012-10-28T10:17:48Z</time>
      </trkpt>
      <trkpt lat="44.10508" lon="3.14313">
        <ele>482.39999389648</ele>
        <time>2012-10-28T10:17:50Z</time>
      </trkpt>
      <trkpt lat="44.10499" lon="3.1431">
        <ele>485.39999389648</ele>
        <time>2012-10-28T10:18:02Z</time>
      </trkpt>
      <trkpt lat="44.10498" lon="3.1431">
        <ele>485.79998779297</ele>
        <time>2012-10-28T10:18:03Z</time>
      </trkpt>
      <trkpt lat="44.1049" lon="3.1431">
        <ele>489.20001220703</ele>
        <time>2012-10-28T10:18:11Z</time>
      </trkpt>
      <trkpt lat="44.10488" lon="3.14309">
        <ele>490.20001220703</ele>
        <time>2012-10-28T10:18:13Z</time>
      </trkpt>
      <trkpt lat="44.10487" lon="3.14297">
        <ele>492</ele>
        <time>2012-10-28T10:18:19Z</time>
      </trkpt>
      <trkpt lat="44.10488" lon="3.14291">
        <ele>493.20001220703</ele>
        <time>2012-10-28T10:18:23Z</time>
      </trkpt>
      <trkpt lat="44.1049" lon="3.14285">
        <ele>493.79998779297</ele>
        <time>2012-10-28T10:18:27Z</time>
      </trkpt>
      <trkpt lat="44.10492" lon="3.14274">
        <ele>495.60000610352</ele>
        <time>2012-10-28T10:18:36Z</time>
      </trkpt>
      <trkpt lat="44.1049" lon="3.1427">
        <ele>496</ele>
        <time>2012-10-28T10:18:38Z</time>
      </trkpt>
      <trkpt lat="44.10489" lon="3.14263">
        <ele>496.39999389648</ele>
        <time>2012-10-28T10:18:43Z</time>
      </trkpt>
      <trkpt lat="44.10491" lon="3.14253">
        <ele>498.79998779297</ele>
        <time>2012-10-28T10:18:52Z</time>
      </trkpt>
      <trkpt lat="44.10491" lon="3.14243">
        <ele>501.60000610352</ele>
        <time>2012-10-28T10:19:00Z</time>
      </trkpt>
      <trkpt lat="44.10491" lon="3.14242">
        <ele>501.79998779297</ele>
        <time>2012-10-28T10:19:01Z</time>
      </trkpt>
      <trkpt lat="44.10489" lon="3.14234">
        <ele>503.79998779297</ele>
        <time>2012-10-28T10:19:07Z</time>
      </trkpt>
      <trkpt lat="44.10488" lon="3.14232">
        <ele>504.20001220703</ele>
        <time>2012-10-28T10:19:09Z</time>
      </trkpt>
      <trkpt lat="44.10486" lon="3.14228">
        <ele>504.60000610352</ele>
        <time>2012-10-28T10:19:13Z</time>
      </trkpt>
      <trkpt lat="44.10484" lon="3.14222">
        <ele>505.20001220703</ele>
        <time>2012-10-28T10:19:18Z</time>
      </trkpt>
      <trkpt lat="44.10483" lon="3.14217">
        <ele>505.20001220703</ele>
        <time>2012-10-28T10:19:22Z</time>
      </trkpt>
      <trkpt lat="44.10477" lon="3.14207">
        <ele>505.39999389648</ele>
        <time>2012-10-28T10:19:30Z</time>
      </trkpt>
      <trkpt lat="44.10476" lon="3.14205">
        <ele>505.39999389648</ele>
        <time>2012-10-28T10:19:32Z</time>
      </trkpt>
      <trkpt lat="44.10474" lon="3.14197">
        <ele>505.60000610352</ele>
        <time>2012-10-28T10:19:38Z</time>
      </trkpt>
      <trkpt lat="44.10474" lon="3.14194">
        <ele>505.79998779297</ele>
        <time>2012-10-28T10:19:41Z</time>
      </trkpt>
      <trkpt lat="44.10474" lon="3.1419">
        <ele>506</ele>
        <time>2012-10-28T10:19:44Z</time>
      </trkpt>
      <trkpt lat="44.10474" lon="3.14188">
        <ele>506.39999389648</ele>
        <time>2012-10-28T10:19:46Z</time>
      </trkpt>
      <trkpt lat="44.10471" lon="3.14168">
        <ele>509.39999389648</ele>
        <time>2012-10-28T10:20:03Z</time>
      </trkpt>
      <trkpt lat="44.10471" lon="3.14167">
        <ele>509.39999389648</ele>
        <time>2012-10-28T10:20:04Z</time>
      </trkpt>
      <trkpt lat="44.10469" lon="3.14158">
        <ele>510.20001220703</ele>
        <time>2012-10-28T10:20:12Z</time>
      </trkpt>
      <trkpt lat="44.10469" lon="3.14153">
        <ele>510.60000610352</ele>
        <time>2012-10-28T10:20:16Z</time>
      </trkpt>
      <trkpt lat="44.10467" lon="3.14149">
        <ele>510.79998779297</ele>
        <time>2012-10-28T10:20:19Z</time>
      </trkpt>
      <trkpt lat="44.10466" lon="3.14144">
        <ele>511</ele>
        <time>2012-10-28T10:20:22Z</time>
      </trkpt>
      <trkpt lat="44.10466" lon="3.1414">
        <ele>511.20001220703</ele>
        <time>2012-10-28T10:20:24Z</time>
      </trkpt>
      <trkpt lat="44.10467" lon="3.14138">
        <ele>511.39999389648</ele>
        <time>2012-10-28T10:20:26Z</time>
      </trkpt>
      <trkpt lat="44.10465" lon="3.14134">
        <ele>512</ele>
        <time>2012-10-28T10:20:29Z</time>
      </trkpt>
      <trkpt lat="44.10463" lon="3.14127">
        <ele>512.59997558594</ele>
        <time>2012-10-28T10:20:34Z</time>
      </trkpt>
      <trkpt lat="44.10463" lon="3.14118">
        <ele>513.59997558594</ele>
        <time>2012-10-28T10:20:40Z</time>
      </trkpt>
      <trkpt lat="44.10463" lon="3.14113">
        <ele>514.20001220703</ele>
        <time>2012-10-28T10:20:43Z</time>
      </trkpt>
      <trkpt lat="44.10461" lon="3.14108">
        <ele>514.59997558594</ele>
        <time>2012-10-28T10:20:46Z</time>
      </trkpt>
      <trkpt lat="44.10458" lon="3.14098">
        <ele>515.40002441406</ele>
        <time>2012-10-28T10:20:52Z</time>
      </trkpt>
      <trkpt lat="44.1046" lon="3.14089">
        <ele>516.79998779297</ele>
        <time>2012-10-28T10:20:58Z</time>
      </trkpt>
      <trkpt lat="44.1046" lon="3.14088">
        <ele>517</ele>
        <time>2012-10-28T10:20:59Z</time>
      </trkpt>
      <trkpt lat="44.1046" lon="3.14083">
        <ele>518.40002441406</ele>
        <time>2012-10-28T10:21:03Z</time>
      </trkpt>
      <trkpt lat="44.10458" lon="3.14075">
        <ele>519.79998779297</ele>
        <time>2012-10-28T10:21:09Z</time>
      </trkpt>
      <trkpt lat="44.10464" lon="3.14059">
        <ele>525.79998779297</ele>
        <time>2012-10-28T10:21:27Z</time>
      </trkpt>
      <trkpt lat="44.10472" lon="3.14043">
        <ele>532.20001220703</ele>
        <time>2012-10-28T10:21:43Z</time>
      </trkpt>
      <trkpt lat="44.10476" lon="3.14041">
        <ele>533.20001220703</ele>
        <time>2012-10-28T10:21:45Z</time>
      </trkpt>
      <trkpt lat="44.10481" lon="3.14038">
        <ele>534.59997558594</ele>
        <time>2012-10-28T10:21:48Z</time>
      </trkpt>
      <trkpt lat="44.10487" lon="3.14026">
        <ele>544</ele>
        <time>2012-10-28T10:22:09Z</time>
      </trkpt>
      <trkpt lat="44.10476" lon="3.14011">
        <ele>560.40002441406</ele>
        <time>2012-10-28T10:22:44Z</time>
      </trkpt>
      <trkpt lat="44.10472" lon="3.13994">
        <ele>566</ele>
        <time>2012-10-28T10:23:02Z</time>
      </trkpt>
      <trkpt lat="44.10473" lon="3.13985">
        <ele>567.59997558594</ele>
        <time>2012-10-28T10:23:08Z</time>
      </trkpt>
      <trkpt lat="44.10474" lon="3.13983">
        <ele>568</ele>
        <time>2012-10-28T10:23:09Z</time>
      </trkpt>
      <trkpt lat="44.1048" lon="3.13969">
        <ele>569.79998779297</ele>
        <time>2012-10-28T10:23:16Z</time>
      </trkpt>
      <trkpt lat="44.10483" lon="3.13966">
        <ele>570.59997558594</ele>
        <time>2012-10-28T10:23:18Z</time>
      </trkpt>
      <trkpt lat="44.10485" lon="3.13955">
        <ele>571.79998779297</ele>
        <time>2012-10-28T10:23:23Z</time>
      </trkpt>
      <trkpt lat="44.10483" lon="3.13944">
        <ele>573.20001220703</ele>
        <time>2012-10-28T10:23:28Z</time>
      </trkpt>
      <trkpt lat="44.10482" lon="3.13939">
        <ele>573.79998779297</ele>
        <time>2012-10-28T10:23:31Z</time>
      </trkpt>
      <trkpt lat="44.10484" lon="3.13932">
        <ele>574.59997558594</ele>
        <time>2012-10-28T10:23:35Z</time>
      </trkpt>
      <trkpt lat="44.10482" lon="3.13928">
        <ele>575</ele>
        <time>2012-10-28T10:23:38Z</time>
      </trkpt>
      <trkpt lat="44.10479" lon="3.13915">
        <ele>576.20001220703</ele>
        <time>2012-10-28T10:23:46Z</time>
      </trkpt>
      <trkpt lat="44.10477" lon="3.13913">
        <ele>576</ele>
        <time>2012-10-28T10:23:48Z</time>
      </trkpt>
      <trkpt lat="44.10486" lon="3.13895">
        <ele>576.40002441406</ele>
        <time>2012-10-28T10:23:56Z</time>
      </trkpt>
      <trkpt lat="44.1049" lon="3.1387">
        <ele>577</ele>
        <time>2012-10-28T10:24:05Z</time>
      </trkpt>
      <trkpt lat="44.10492" lon="3.13861">
        <ele>576.79998779297</ele>
        <time>2012-10-28T10:24:09Z</time>
      </trkpt>
      <trkpt lat="44.10488" lon="3.13848">
        <ele>576.79998779297</ele>
        <time>2012-10-28T10:24:18Z</time>
      </trkpt>
      <trkpt lat="44.10487" lon="3.13847">
        <ele>576.79998779297</ele>
        <time>2012-10-28T10:24:19Z</time>
      </trkpt>
      <trkpt lat="44.1049" lon="3.13843">
        <ele>576.79998779297</ele>
        <time>2012-10-28T10:24:23Z</time>
      </trkpt>
      <trkpt lat="44.10497" lon="3.13835">
        <ele>577.40002441406</ele>
        <time>2012-10-28T10:24:31Z</time>
      </trkpt>
      <trkpt lat="44.10502" lon="3.13829">
        <ele>578.20001220703</ele>
        <time>2012-10-28T10:24:35Z</time>
      </trkpt>
      <trkpt lat="44.10502" lon="3.13827">
        <ele>578.20001220703</ele>
        <time>2012-10-28T10:24:36Z</time>
      </trkpt>
      <trkpt lat="44.10508" lon="3.13817">
        <ele>579.79998779297</ele>
        <time>2012-10-28T10:24:42Z</time>
      </trkpt>
      <trkpt lat="44.10514" lon="3.13812">
        <ele>580.79998779297</ele>
        <time>2012-10-28T10:24:45Z</time>
      </trkpt>
      <trkpt lat="44.10521" lon="3.13806">
        <ele>582.20001220703</ele>
        <time>2012-10-28T10:24:50Z</time>
      </trkpt>
      <trkpt lat="44.1053" lon="3.13799">
        <ele>583.20001220703</ele>
        <time>2012-10-28T10:24:55Z</time>
      </trkpt>
      <trkpt lat="44.10547" lon="3.13791">
        <ele>585</ele>
        <time>2012-10-28T10:25:04Z</time>
      </trkpt>
      <trkpt lat="44.10558" lon="3.13788">
        <ele>585.59997558594</ele>
        <time>2012-10-28T10:25:10Z</time>
      </trkpt>
      <trkpt lat="44.10564" lon="3.13786">
        <ele>586</ele>
        <time>2012-10-28T10:25:15Z</time>
      </trkpt>
      <trkpt lat="44.10565" lon="3.13785">
        <ele>586</ele>
        <time>2012-10-28T10:25:16Z</time>
      </trkpt>
      <trkpt lat="44.10572" lon="3.13767">
        <ele>585.79998779297</ele>
        <time>2012-10-28T10:25:23Z</time>
      </trkpt>
      <trkpt lat="44.10571" lon="3.13763">
        <ele>585.79998779297</ele>
        <time>2012-10-28T10:25:24Z</time>
      </trkpt>
      <trkpt lat="44.1057" lon="3.13734">
        <ele>584.20001220703</ele>
        <time>2012-10-28T10:25:36Z</time>
      </trkpt>
      <trkpt lat="44.10567" lon="3.13724">
        <ele>583.79998779297</ele>
        <time>2012-10-28T10:25:39Z</time>
      </trkpt>
      <trkpt lat="44.10561" lon="3.13711">
        <ele>583.20001220703</ele>
        <time>2012-10-28T10:25:44Z</time>
      </trkpt>
      <trkpt lat="44.10553" lon="3.13701">
        <ele>582.40002441406</ele>
        <time>2012-10-28T10:25:49Z</time>
      </trkpt>
      <trkpt lat="44.10552" lon="3.13699">
        <ele>582.40002441406</ele>
        <time>2012-10-28T10:25:50Z</time>
      </trkpt>
      <trkpt lat="44.10549" lon="3.13694">
        <ele>582</ele>
        <time>2012-10-28T10:25:52Z</time>
      </trkpt>
      <trkpt lat="44.10552" lon="3.13668">
        <ele>580.79998779297</ele>
        <time>2012-10-28T10:26:01Z</time>
      </trkpt>
      <trkpt lat="44.1055" lon="3.13654">
        <ele>580</ele>
        <time>2012-10-28T10:26:06Z</time>
      </trkpt>
      <trkpt lat="44.1055" lon="3.13651">
        <ele>579.79998779297</ele>
        <time>2012-10-28T10:26:07Z</time>
      </trkpt>
      <trkpt lat="44.10551" lon="3.13645">
        <ele>579.59997558594</ele>
        <time>2012-10-28T10:26:09Z</time>
      </trkpt>
      <trkpt lat="44.10559" lon="3.13625">
        <ele>578.59997558594</ele>
        <time>2012-10-28T10:26:16Z</time>
      </trkpt>
      <trkpt lat="44.10561" lon="3.13622">
        <ele>578.40002441406</ele>
        <time>2012-10-28T10:26:17Z</time>
      </trkpt>
      <trkpt lat="44.10579" lon="3.13609">
        <ele>577.40002441406</ele>
        <time>2012-10-28T10:26:27Z</time>
      </trkpt>
      <trkpt lat="44.1058" lon="3.13608">
        <ele>577.20001220703</ele>
        <time>2012-10-28T10:26:28Z</time>
      </trkpt>
      <trkpt lat="44.10587" lon="3.13588">
        <ele>575.79998779297</ele>
        <time>2012-10-28T10:26:38Z</time>
      </trkpt>
      <trkpt lat="44.1059" lon="3.13581">
        <ele>575.20001220703</ele>
        <time>2012-10-28T10:26:42Z</time>
      </trkpt>
      <trkpt lat="44.10591" lon="3.13579">
        <ele>575.20001220703</ele>
        <time>2012-10-28T10:26:43Z</time>
      </trkpt>
      <trkpt lat="44.10599" lon="3.13569">
        <ele>574.40002441406</ele>
        <time>2012-10-28T10:26:48Z</time>
      </trkpt>
      <trkpt lat="44.106" lon="3.13562">
        <ele>573.79998779297</ele>
        <time>2012-10-28T10:26:51Z</time>
      </trkpt>
      <trkpt lat="44.10595" lon="3.13543">
        <ele>572.20001220703</ele>
        <time>2012-10-28T10:26:59Z</time>
      </trkpt>
      <trkpt lat="44.10589" lon="3.13525">
        <ele>570.59997558594</ele>
        <time>2012-10-28T10:27:05Z</time>
      </trkpt>
      <trkpt lat="44.10586" lon="3.13517">
        <ele>570.20001220703</ele>
        <time>2012-10-28T10:27:07Z</time>
      </trkpt>
      <trkpt lat="44.10582" lon="3.13506">
        <ele>569.40002441406</ele>
        <time>2012-10-28T10:27:10Z</time>
      </trkpt>
      <trkpt lat="44.10577" lon="3.13493">
        <ele>568.40002441406</ele>
        <time>2012-10-28T10:27:14Z</time>
      </trkpt>
      <trkpt lat="44.10565" lon="3.13473">
        <ele>566.40002441406</ele>
        <time>2012-10-28T10:27:23Z</time>
      </trkpt>
      <trkpt lat="44.10563" lon="3.13469">
        <ele>566.20001220703</ele>
        <time>2012-10-28T10:27:25Z</time>
      </trkpt>
      <trkpt lat="44.10554" lon="3.13454">
        <ele>565.20001220703</ele>
        <time>2012-10-28T10:27:31Z</time>
      </trkpt>
      <trkpt lat="44.10546" lon="3.13443">
        <ele>564.20001220703</ele>
        <time>2012-10-28T10:27:38Z</time>
      </trkpt>
      <trkpt lat="44.10541" lon="3.13435">
        <ele>563.59997558594</ele>
        <time>2012-10-28T10:27:43Z</time>
      </trkpt>
      <trkpt lat="44.1054" lon="3.13434">
        <ele>563.40002441406</ele>
        <time>2012-10-28T10:27:44Z</time>
      </trkpt>
      <trkpt lat="44.10524" lon="3.1342">
        <ele>562.40002441406</ele>
        <time>2012-10-28T10:27:55Z</time>
      </trkpt>
      <trkpt lat="44.10522" lon="3.13416">
        <ele>562.20001220703</ele>
        <time>2012-10-28T10:27:58Z</time>
      </trkpt>
      <trkpt lat="44.10516" lon="3.13408">
        <ele>561.79998779297</ele>
        <time>2012-10-28T10:28:03Z</time>
      </trkpt>
      <trkpt lat="44.10509" lon="3.13407">
        <ele>561.20001220703</ele>
        <time>2012-10-28T10:28:11Z</time>
      </trkpt>
      <trkpt lat="44.10498" lon="3.13402">
        <ele>560.59997558594</ele>
        <time>2012-10-28T10:28:17Z</time>
      </trkpt>
      <trkpt lat="44.10492" lon="3.13397">
        <ele>560.40002441406</ele>
        <time>2012-10-28T10:28:21Z</time>
      </trkpt>
      <trkpt lat="44.10483" lon="3.13389">
        <ele>560.40002441406</ele>
        <time>2012-10-28T10:28:25Z</time>
      </trkpt>
      <trkpt lat="44.10478" lon="3.13386">
        <ele>560.20001220703</ele>
        <time>2012-10-28T10:28:28Z</time>
      </trkpt>
      <trkpt lat="44.10476" lon="3.13384">
        <ele>560.20001220703</ele>
        <time>2012-10-28T10:28:29Z</time>
      </trkpt>
      <trkpt lat="44.10471" lon="3.13381">
        <ele>560</ele>
        <time>2012-10-28T10:28:33Z</time>
      </trkpt>
      <trkpt lat="44.10466" lon="3.13379">
        <ele>559.79998779297</ele>
        <time>2012-10-28T10:28:37Z</time>
      </trkpt>
      <trkpt lat="44.10458" lon="3.13375">
        <ele>559.79998779297</ele>
        <time>2012-10-28T10:28:42Z</time>
      </trkpt>
      <trkpt lat="44.1044" lon="3.13372">
        <ele>559.59997558594</ele>
        <time>2012-10-28T10:28:51Z</time>
      </trkpt>
      <trkpt lat="44.10436" lon="3.13367">
        <ele>559.40002441406</ele>
        <time>2012-10-28T10:28:54Z</time>
      </trkpt>
      <trkpt lat="44.10427" lon="3.13355">
        <ele>559.59997558594</ele>
        <time>2012-10-28T10:29:00Z</time>
      </trkpt>
      <trkpt lat="44.10413" lon="3.13352">
        <ele>559.40002441406</ele>
        <time>2012-10-28T10:29:08Z</time>
      </trkpt>
      <trkpt lat="44.1041" lon="3.13354">
        <ele>559.40002441406</ele>
        <time>2012-10-28T10:29:10Z</time>
      </trkpt>
      <trkpt lat="44.10395" lon="3.13356">
        <ele>559</ele>
        <time>2012-10-28T10:29:19Z</time>
      </trkpt>
      <trkpt lat="44.10394" lon="3.1336">
        <ele>558.79998779297</ele>
        <time>2012-10-28T10:29:20Z</time>
      </trkpt>
      <trkpt lat="44.10389" lon="3.13363">
        <ele>558.79998779297</ele>
        <time>2012-10-28T10:29:24Z</time>
      </trkpt>
      <trkpt lat="44.10381" lon="3.13364">
        <ele>558.40002441406</ele>
        <time>2012-10-28T10:29:29Z</time>
      </trkpt>
      <trkpt lat="44.10374" lon="3.13368">
        <ele>558</ele>
        <time>2012-10-28T10:29:33Z</time>
      </trkpt>
      <trkpt lat="44.10372" lon="3.13368">
        <ele>557.79998779297</ele>
        <time>2012-10-28T10:29:34Z</time>
      </trkpt>
      <trkpt lat="44.10358" lon="3.13361">
        <ele>557.20001220703</ele>
        <time>2012-10-28T10:29:42Z</time>
      </trkpt>
      <trkpt lat="44.10355" lon="3.1336">
        <ele>557</ele>
        <time>2012-10-28T10:29:43Z</time>
      </trkpt>
      <trkpt lat="44.10346" lon="3.13356">
        <ele>557</ele>
        <time>2012-10-28T10:29:46Z</time>
      </trkpt>
      <trkpt lat="44.10339" lon="3.13355">
        <ele>556.79998779297</ele>
        <time>2012-10-28T10:29:49Z</time>
      </trkpt>
      <trkpt lat="44.10321" lon="3.13359">
        <ele>556.59997558594</ele>
        <time>2012-10-28T10:29:58Z</time>
      </trkpt>
      <trkpt lat="44.1032" lon="3.13361">
        <ele>556.79998779297</ele>
        <time>2012-10-28T10:29:59Z</time>
      </trkpt>
      <trkpt lat="44.10307" lon="3.13376">
        <ele>559.79998779297</ele>
        <time>2012-10-28T10:30:08Z</time>
      </trkpt>
      <trkpt lat="44.10302" lon="3.1338">
        <ele>560.59997558594</ele>
        <time>2012-10-28T10:30:11Z</time>
      </trkpt>
      <trkpt lat="44.10297" lon="3.13397">
        <ele>561.20001220703</ele>
        <time>2012-10-28T10:30:16Z</time>
      </trkpt>
      <trkpt lat="44.10295" lon="3.134">
        <ele>561.40002441406</ele>
        <time>2012-10-28T10:30:17Z</time>
      </trkpt>
      <trkpt lat="44.10286" lon="3.13417">
        <ele>561.40002441406</ele>
        <time>2012-10-28T10:30:24Z</time>
      </trkpt>
      <trkpt lat="44.10284" lon="3.13419">
        <ele>561.40002441406</ele>
        <time>2012-10-28T10:30:25Z</time>
      </trkpt>
      <trkpt lat="44.10269" lon="3.13423">
        <ele>561.20001220703</ele>
        <time>2012-10-28T10:30:32Z</time>
      </trkpt>
      <trkpt lat="44.10266" lon="3.13424">
        <ele>561.40002441406</ele>
        <time>2012-10-28T10:30:33Z</time>
      </trkpt>
      <trkpt lat="44.10259" lon="3.13421">
        <ele>562.20001220703</ele>
        <time>2012-10-28T10:30:36Z</time>
      </trkpt>
      <trkpt lat="44.10251" lon="3.13424">
        <ele>562.79998779297</ele>
        <time>2012-10-28T10:30:41Z</time>
      </trkpt>
      <trkpt lat="44.10248" lon="3.13428">
        <ele>562.79998779297</ele>
        <time>2012-10-28T10:30:43Z</time>
      </trkpt>
      <trkpt lat="44.10232" lon="3.13437">
        <ele>562.79998779297</ele>
        <time>2012-10-28T10:30:52Z</time>
      </trkpt>
      <trkpt lat="44.10223" lon="3.13448">
        <ele>562.40002441406</ele>
        <time>2012-10-28T10:30:58Z</time>
      </trkpt>
      <trkpt lat="44.10217" lon="3.13457">
        <ele>562.20001220703</ele>
        <time>2012-10-28T10:31:02Z</time>
      </trkpt>
      <trkpt lat="44.10212" lon="3.13465">
        <ele>562</ele>
        <time>2012-10-28T10:31:05Z</time>
      </trkpt>
      <trkpt lat="44.10199" lon="3.13471">
        <ele>561.59997558594</ele>
        <time>2012-10-28T10:31:10Z</time>
      </trkpt>
      <trkpt lat="44.10195" lon="3.13473">
        <ele>561.40002441406</ele>
        <time>2012-10-28T10:31:13Z</time>
      </trkpt>
      <trkpt lat="44.10183" lon="3.13477">
        <ele>561</ele>
        <time>2012-10-28T10:31:18Z</time>
      </trkpt>
      <trkpt lat="44.10172" lon="3.13479">
        <ele>560.79998779297</ele>
        <time>2012-10-28T10:31:22Z</time>
      </trkpt>
      <trkpt lat="44.10163" lon="3.13477">
        <ele>560.79998779297</ele>
        <time>2012-10-28T10:31:25Z</time>
      </trkpt>
      <trkpt lat="44.10148" lon="3.13472">
        <ele>560.59997558594</ele>
        <time>2012-10-28T10:31:32Z</time>
      </trkpt>
      <trkpt lat="44.10144" lon="3.13472">
        <ele>560.59997558594</ele>
        <time>2012-10-28T10:31:34Z</time>
      </trkpt>
      <trkpt lat="44.10127" lon="3.13468">
        <ele>560.40002441406</ele>
        <time>2012-10-28T10:31:40Z</time>
      </trkpt>
      <trkpt lat="44.10121" lon="3.13466">
        <ele>560.40002441406</ele>
        <time>2012-10-28T10:31:43Z</time>
      </trkpt>
      <trkpt lat="44.10117" lon="3.13464">
        <ele>560.40002441406</ele>
        <time>2012-10-28T10:31:45Z</time>
      </trkpt>
      <trkpt lat="44.10116" lon="3.13451">
        <ele>560.20001220703</ele>
        <time>2012-10-28T10:31:50Z</time>
      </trkpt>
      <trkpt lat="44.10116" lon="3.13451">
        <ele>560</ele>
        <time>2012-10-28T10:31:51Z</time>
      </trkpt>
      <trkpt lat="44.10118" lon="3.13449">
        <ele>559.79998779297</ele>
        <time>2012-10-28T10:31:53Z</time>
      </trkpt>
      <trkpt lat="44.10131" lon="3.13441">
        <ele>558.59997558594</ele>
        <time>2012-10-28T10:32:00Z</time>
      </trkpt>
      <trkpt lat="44.10132" lon="3.13438">
        <ele>558.40002441406</ele>
        <time>2012-10-28T10:32:01Z</time>
      </trkpt>
      <trkpt lat="44.10139" lon="3.13433">
        <ele>556.59997558594</ele>
        <time>2012-10-28T10:32:07Z</time>
      </trkpt>
      <trkpt lat="44.10143" lon="3.13425">
        <ele>555.20001220703</ele>
        <time>2012-10-28T10:32:11Z</time>
      </trkpt>
      <trkpt lat="44.10143" lon="3.13423">
        <ele>554.79998779297</ele>
        <time>2012-10-28T10:32:12Z</time>
      </trkpt>
      <trkpt lat="44.10145" lon="3.13421">
        <ele>554.40002441406</ele>
        <time>2012-10-28T10:32:13Z</time>
      </trkpt>
      <trkpt lat="44.10158" lon="3.13412">
        <ele>551.20001220703</ele>
        <time>2012-10-28T10:32:21Z</time>
      </trkpt>
      <trkpt lat="44.10159" lon="3.13411">
        <ele>550.79998779297</ele>
        <time>2012-10-28T10:32:22Z</time>
      </trkpt>
      <trkpt lat="44.10159" lon="3.13409">
        <ele>550</ele>
        <time>2012-10-28T10:32:24Z</time>
      </trkpt>
      <trkpt lat="44.10158" lon="3.13408">
        <ele>549.59997558594</ele>
        <time>2012-10-28T10:32:25Z</time>
      </trkpt>
      <trkpt lat="44.10155" lon="3.13399">
        <ele>548</ele>
        <time>2012-10-28T10:32:29Z</time>
      </trkpt>
      <trkpt lat="44.10152" lon="3.13393">
        <ele>547.59997558594</ele>
        <time>2012-10-28T10:32:30Z</time>
      </trkpt>
      <trkpt lat="44.1015" lon="3.13386">
        <ele>546.40002441406</ele>
        <time>2012-10-28T10:32:33Z</time>
      </trkpt>
      <trkpt lat="44.10149" lon="3.13383">
        <ele>546</ele>
        <time>2012-10-28T10:32:34Z</time>
      </trkpt>
      <trkpt lat="44.10156" lon="3.13372">
        <ele>541</ele>
        <time>2012-10-28T10:32:45Z</time>
      </trkpt>
      <trkpt lat="44.10157" lon="3.1337">
        <ele>540.59997558594</ele>
        <time>2012-10-28T10:32:46Z</time>
      </trkpt>
      <trkpt lat="44.10157" lon="3.13368">
        <ele>540.20001220703</ele>
        <time>2012-10-28T10:32:47Z</time>
      </trkpt>
      <trkpt lat="44.10156" lon="3.13354">
        <ele>537.40002441406</ele>
        <time>2012-10-28T10:32:53Z</time>
      </trkpt>
      <trkpt lat="44.10157" lon="3.13342">
        <ele>535.40002441406</ele>
        <time>2012-10-28T10:32:58Z</time>
      </trkpt>
      <trkpt lat="44.10158" lon="3.13326">
        <ele>532.59997558594</ele>
        <time>2012-10-28T10:33:04Z</time>
      </trkpt>
      <trkpt lat="44.10156" lon="3.13318">
        <ele>531.40002441406</ele>
        <time>2012-10-28T10:33:07Z</time>
      </trkpt>
      <trkpt lat="44.10155" lon="3.13312">
        <ele>530.40002441406</ele>
        <time>2012-10-28T10:33:09Z</time>
      </trkpt>
      <trkpt lat="44.10158" lon="3.13307">
        <ele>529</ele>
        <time>2012-10-28T10:33:12Z</time>
      </trkpt>
      <trkpt lat="44.10164" lon="3.13316">
        <ele>526</ele>
        <time>2012-10-28T10:33:18Z</time>
      </trkpt>
      <trkpt lat="44.10172" lon="3.13325">
        <ele>524</ele>
        <time>2012-10-28T10:33:22Z</time>
      </trkpt>
      <trkpt lat="44.10178" lon="3.13334">
        <ele>521.79998779297</ele>
        <time>2012-10-28T10:33:26Z</time>
      </trkpt>
      <trkpt lat="44.1018" lon="3.13337">
        <ele>521.20001220703</ele>
        <time>2012-10-28T10:33:27Z</time>
      </trkpt>
      <trkpt lat="44.10187" lon="3.13344">
        <ele>519</ele>
        <time>2012-10-28T10:33:31Z</time>
      </trkpt>
      <trkpt lat="44.10192" lon="3.13344">
        <ele>517.20001220703</ele>
        <time>2012-10-28T10:33:34Z</time>
      </trkpt>
      <trkpt lat="44.10194" lon="3.13341">
        <ele>516.59997558594</ele>
        <time>2012-10-28T10:33:35Z</time>
      </trkpt>
      <trkpt lat="44.10199" lon="3.13334">
        <ele>515</ele>
        <time>2012-10-28T10:33:38Z</time>
      </trkpt>
      <trkpt lat="44.10205" lon="3.13319">
        <ele>512.40002441406</ele>
        <time>2012-10-28T10:33:43Z</time>
      </trkpt>
      <trkpt lat="44.10209" lon="3.13302">
        <ele>509.39999389648</ele>
        <time>2012-10-28T10:33:49Z</time>
      </trkpt>
      <trkpt lat="44.10211" lon="3.133">
        <ele>507.79998779297</ele>
        <time>2012-10-28T10:33:52Z</time>
      </trkpt>
      <trkpt lat="44.10212" lon="3.13298">
        <ele>507.20001220703</ele>
        <time>2012-10-28T10:33:53Z</time>
      </trkpt>
      <trkpt lat="44.10217" lon="3.13295">
        <ele>505</ele>
        <time>2012-10-28T10:33:57Z</time>
      </trkpt>
      <trkpt lat="44.10218" lon="3.13294">
        <ele>504.60000610352</ele>
        <time>2012-10-28T10:33:58Z</time>
      </trkpt>
      <trkpt lat="44.10226" lon="3.13281">
        <ele>500.79998779297</ele>
        <time>2012-10-28T10:34:05Z</time>
      </trkpt>
      <trkpt lat="44.10225" lon="3.13276">
        <ele>499.20001220703</ele>
        <time>2012-10-28T10:34:08Z</time>
      </trkpt>
      <trkpt lat="44.10223" lon="3.13276">
        <ele>498.20001220703</ele>
        <time>2012-10-28T10:34:10Z</time>
      </trkpt>
      <trkpt lat="44.10221" lon="3.13277">
        <ele>495.60000610352</ele>
        <time>2012-10-28T10:34:15Z</time>
      </trkpt>
      <trkpt lat="44.10213" lon="3.13268">
        <ele>491.39999389648</ele>
        <time>2012-10-28T10:34:23Z</time>
      </trkpt>
      <trkpt lat="44.10213" lon="3.13265">
        <ele>490.39999389648</ele>
        <time>2012-10-28T10:34:25Z</time>
      </trkpt>
      <trkpt lat="44.10219" lon="3.13253">
        <ele>487</ele>
        <time>2012-10-28T10:34:31Z</time>
      </trkpt>
      <trkpt lat="44.10221" lon="3.1325">
        <ele>486</ele>
        <time>2012-10-28T10:34:33Z</time>
      </trkpt>
      <trkpt lat="44.10228" lon="3.13238">
        <ele>482.79998779297</ele>
        <time>2012-10-28T10:34:39Z</time>
      </trkpt>
      <trkpt lat="44.10231" lon="3.1323">
        <ele>480.60000610352</ele>
        <time>2012-10-28T10:34:43Z</time>
      </trkpt>
      <trkpt lat="44.10238" lon="3.13222">
        <ele>477.79998779297</ele>
        <time>2012-10-28T10:34:48Z</time>
      </trkpt>
      <trkpt lat="44.10242" lon="3.13213">
        <ele>475</ele>
        <time>2012-10-28T10:34:53Z</time>
      </trkpt>
      <trkpt lat="44.10243" lon="3.13208">
        <ele>473.79998779297</ele>
        <time>2012-10-28T10:34:55Z</time>
      </trkpt>
      <trkpt lat="44.10249" lon="3.13199">
        <ele>470.20001220703</ele>
        <time>2012-10-28T10:35:01Z</time>
      </trkpt>
      <trkpt lat="44.10248" lon="3.13195">
        <ele>467.60000610352</ele>
        <time>2012-10-28T10:35:05Z</time>
      </trkpt>
      <trkpt lat="44.10244" lon="3.1319">
        <ele>465.79998779297</ele>
        <time>2012-10-28T10:35:08Z</time>
      </trkpt>
      <trkpt lat="44.10247" lon="3.13184">
        <ele>464</ele>
        <time>2012-10-28T10:35:11Z</time>
      </trkpt>
      <trkpt lat="44.10258" lon="3.13173">
        <ele>459.60000610352</ele>
        <time>2012-10-28T10:35:18Z</time>
      </trkpt>
      <trkpt lat="44.10261" lon="3.13169">
        <ele>458.39999389648</ele>
        <time>2012-10-28T10:35:20Z</time>
      </trkpt>
      <trkpt lat="44.10265" lon="3.13161">
        <ele>456</ele>
        <time>2012-10-28T10:35:24Z</time>
      </trkpt>
      <trkpt lat="44.1027" lon="3.13154">
        <ele>453.60000610352</ele>
        <time>2012-10-28T10:35:28Z</time>
      </trkpt>
      <trkpt lat="44.1027" lon="3.13152">
        <ele>452.39999389648</ele>
        <time>2012-10-28T10:35:30Z</time>
      </trkpt>
      <trkpt lat="44.10262" lon="3.13142">
        <ele>449</ele>
        <time>2012-10-28T10:35:36Z</time>
      </trkpt>
      <trkpt lat="44.10261" lon="3.1314">
        <ele>448.39999389648</ele>
        <time>2012-10-28T10:35:37Z</time>
      </trkpt>
      <trkpt lat="44.10255" lon="3.13132">
        <ele>444.39999389648</ele>
        <time>2012-10-28T10:35:44Z</time>
      </trkpt>
      <trkpt lat="44.10255" lon="3.13119">
        <ele>441.60000610352</ele>
        <time>2012-10-28T10:35:49Z</time>
      </trkpt>
      <trkpt lat="44.10257" lon="3.13108">
        <ele>439</ele>
        <time>2012-10-28T10:35:53Z</time>
      </trkpt>
      <trkpt lat="44.10254" lon="3.13094">
        <ele>436.20001220703</ele>
        <time>2012-10-28T10:35:58Z</time>
      </trkpt>
      <trkpt lat="44.10255" lon="3.13084">
        <ele>433.79998779297</ele>
        <time>2012-10-28T10:36:02Z</time>
      </trkpt>
      <trkpt lat="44.10254" lon="3.13071">
        <ele>431.39999389648</ele>
        <time>2012-10-28T10:36:06Z</time>
      </trkpt>
      <trkpt lat="44.10253" lon="3.13068">
        <ele>430.79998779297</ele>
        <time>2012-10-28T10:36:07Z</time>
      </trkpt>
      <trkpt lat="44.10254" lon="3.13067">
        <ele>429.60000610352</ele>
        <time>2012-10-28T10:36:09Z</time>
      </trkpt>
      <trkpt lat="44.10264" lon="3.13073">
        <ele>425.60000610352</ele>
        <time>2012-10-28T10:36:16Z</time>
      </trkpt>
      <trkpt lat="44.10265" lon="3.13073">
        <ele>424.39999389648</ele>
        <time>2012-10-28T10:36:18Z</time>
      </trkpt>
      <trkpt lat="44.10268" lon="3.13071">
        <ele>421.39999389648</ele>
        <time>2012-10-28T10:36:23Z</time>
      </trkpt>
      <trkpt lat="44.10268" lon="3.13069">
        <ele>420.79998779297</ele>
        <time>2012-10-28T10:36:24Z</time>
      </trkpt>
      <trkpt lat="44.10268" lon="3.13063">
        <ele>418.39999389648</ele>
        <time>2012-10-28T10:36:28Z</time>
      </trkpt>
      <trkpt lat="44.10265" lon="3.13059">
        <ele>417.39999389648</ele>
        <time>2012-10-28T10:36:30Z</time>
      </trkpt>
      <trkpt lat="44.10254" lon="3.13055">
        <ele>414</ele>
        <time>2012-10-28T10:36:36Z</time>
      </trkpt>
      <trkpt lat="44.10242" lon="3.1305">
        <ele>411.20001220703</ele>
        <time>2012-10-28T10:36:42Z</time>
      </trkpt>
      <trkpt lat="44.10235" lon="3.13047">
        <ele>409.39999389648</ele>
        <time>2012-10-28T10:36:46Z</time>
      </trkpt>
      <trkpt lat="44.10225" lon="3.13043">
        <ele>407</ele>
        <time>2012-10-28T10:36:52Z</time>
      </trkpt>
      <trkpt lat="44.1022" lon="3.13038">
        <ele>405.60000610352</ele>
        <time>2012-10-28T10:36:56Z</time>
      </trkpt>
      <trkpt lat="44.10203" lon="3.13016">
        <ele>403</ele>
        <time>2012-10-28T10:37:04Z</time>
      </trkpt>
      <trkpt lat="44.10191" lon="3.12997">
        <ele>401</ele>
        <time>2012-10-28T10:37:11Z</time>
      </trkpt>
      <trkpt lat="44.10176" lon="3.12979">
        <ele>398.79998779297</ele>
        <time>2012-10-28T10:37:18Z</time>
      </trkpt>
      <trkpt lat="44.10168" lon="3.12965">
        <ele>397</ele>
        <time>2012-10-28T10:37:24Z</time>
      </trkpt>
      <trkpt lat="44.1017" lon="3.12958">
        <ele>396.39999389648</ele>
        <time>2012-10-28T10:37:26Z</time>
      </trkpt>
      <trkpt lat="44.10173" lon="3.12952">
        <ele>396</ele>
        <time>2012-10-28T10:37:28Z</time>
      </trkpt>
      <trkpt lat="44.10185" lon="3.1294">
        <ele>394.39999389648</ele>
        <time>2012-10-28T10:37:34Z</time>
      </trkpt>
      <trkpt lat="44.102" lon="3.12926">
        <ele>392.60000610352</ele>
        <time>2012-10-28T10:37:41Z</time>
      </trkpt>
      <trkpt lat="44.10209" lon="3.12922">
        <ele>392</ele>
        <time>2012-10-28T10:37:44Z</time>
      </trkpt>
      <trkpt lat="44.10218" lon="3.12922">
        <ele>390.79998779297</ele>
        <time>2012-10-28T10:37:49Z</time>
      </trkpt>
      <trkpt lat="44.10223" lon="3.12919">
        <ele>389.79998779297</ele>
        <time>2012-10-28T10:37:52Z</time>
      </trkpt>
      <trkpt lat="44.10223" lon="3.12906">
        <ele>389</ele>
        <time>2012-10-28T10:37:56Z</time>
      </trkpt>
      <trkpt lat="44.10221" lon="3.12903">
        <ele>388.79998779297</ele>
        <time>2012-10-28T10:37:57Z</time>
      </trkpt>
      <trkpt lat="44.1022" lon="3.12901">
        <ele>388.60000610352</ele>
        <time>2012-10-28T10:37:58Z</time>
      </trkpt>
      <trkpt lat="44.10212" lon="3.12875">
        <ele>387</ele>
        <time>2012-10-28T10:38:06Z</time>
      </trkpt>
      <trkpt lat="44.10204" lon="3.12851">
        <ele>385.60000610352</ele>
        <time>2012-10-28T10:38:13Z</time>
      </trkpt>
      <trkpt lat="44.10197" lon="3.12828">
        <ele>384.20001220703</ele>
        <time>2012-10-28T10:38:20Z</time>
      </trkpt>
      <trkpt lat="44.10191" lon="3.12802">
        <ele>382.39999389648</ele>
        <time>2012-10-28T10:38:28Z</time>
      </trkpt>
      <trkpt lat="44.1019" lon="3.12784">
        <ele>381.39999389648</ele>
        <time>2012-10-28T10:38:33Z</time>
      </trkpt>
      <trkpt lat="44.10189" lon="3.12773">
        <ele>380.79998779297</ele>
        <time>2012-10-28T10:38:36Z</time>
      </trkpt>
      <trkpt lat="44.1019" lon="3.12745">
        <ele>380.60000610352</ele>
        <time>2012-10-28T10:38:43Z</time>
      </trkpt>
      <trkpt lat="44.10189" lon="3.12717">
        <ele>380.39999389648</ele>
        <time>2012-10-28T10:38:51Z</time>
      </trkpt>
      <trkpt lat="44.10198" lon="3.12716">
        <ele>380.20001220703</ele>
        <time>2012-10-28T10:38:56Z</time>
      </trkpt>
      <trkpt lat="44.10205" lon="3.1272">
        <ele>380</ele>
        <time>2012-10-28T10:39:03Z</time>
      </trkpt>
      <trkpt lat="44.10223" lon="3.12729">
        <ele>379.60000610352</ele>
        <time>2012-10-28T10:39:19Z</time>
      </trkpt>
      <trkpt lat="44.10234" lon="3.12732">
        <ele>379.79998779297</ele>
        <time>2012-10-28T10:39:30Z</time>
      </trkpt>
      <trkpt lat="44.1024" lon="3.12736">
        <ele>380</ele>
        <time>2012-10-28T10:39:36Z</time>
      </trkpt>
      <trkpt lat="44.10258" lon="3.12732">
        <ele>381.60000610352</ele>
        <time>2012-10-28T10:39:50Z</time>
      </trkpt>
      <trkpt lat="44.10263" lon="3.12728">
        <ele>382.60000610352</ele>
        <time>2012-10-28T10:39:56Z</time>
      </trkpt>
      <trkpt lat="44.10272" lon="3.12715">
        <ele>384.20001220703</ele>
        <time>2012-10-28T10:40:03Z</time>
      </trkpt>
      <trkpt lat="44.10276" lon="3.12694">
        <ele>387.60000610352</ele>
        <time>2012-10-28T10:40:13Z</time>
      </trkpt>
      <trkpt lat="44.10276" lon="3.12688">
        <ele>388.60000610352</ele>
        <time>2012-10-28T10:40:15Z</time>
      </trkpt>
      <trkpt lat="44.1028" lon="3.12684">
        <ele>390.39999389648</ele>
        <time>2012-10-28T10:40:19Z</time>
      </trkpt>
      <trkpt lat="44.10293" lon="3.12685">
        <ele>394</ele>
        <time>2012-10-28T10:40:28Z</time>
      </trkpt>
      <trkpt lat="44.10295" lon="3.12683">
        <ele>395.20001220703</ele>
        <time>2012-10-28T10:40:31Z</time>
      </trkpt>
      <trkpt lat="44.10303" lon="3.12678">
        <ele>398.39999389648</ele>
        <time>2012-10-28T10:40:39Z</time>
      </trkpt>
      <trkpt lat="44.10306" lon="3.12676">
        <ele>400</ele>
        <time>2012-10-28T10:40:43Z</time>
      </trkpt>
      <trkpt lat="44.10307" lon="3.1267">
        <ele>401.60000610352</ele>
        <time>2012-10-28T10:40:46Z</time>
      </trkpt>
      <trkpt lat="44.10308" lon="3.12669">
        <ele>402.20001220703</ele>
        <time>2012-10-28T10:40:47Z</time>
      </trkpt>
      <trkpt lat="44.10317" lon="3.12668">
        <ele>406.60000610352</ele>
        <time>2012-10-28T10:40:56Z</time>
      </trkpt>
      <trkpt lat="44.10322" lon="3.12679">
        <ele>413</ele>
        <time>2012-10-28T10:41:09Z</time>
      </trkpt>
      <trkpt lat="44.10326" lon="3.12689">
        <ele>418.20001220703</ele>
        <time>2012-10-28T10:41:19Z</time>
      </trkpt>
      <trkpt lat="44.10328" lon="3.12689">
        <ele>419</ele>
        <time>2012-10-28T10:41:21Z</time>
      </trkpt>
      <trkpt lat="44.10331" lon="3.12686">
        <ele>420</ele>
        <time>2012-10-28T10:41:24Z</time>
      </trkpt>
      <trkpt lat="44.10332" lon="3.12678">
        <ele>421.39999389648</ele>
        <time>2012-10-28T10:41:28Z</time>
      </trkpt>
      <trkpt lat="44.10344" lon="3.12659">
        <ele>425.79998779297</ele>
        <time>2012-10-28T10:41:44Z</time>
      </trkpt>
      <trkpt lat="44.10345" lon="3.12654">
        <ele>426.60000610352</ele>
        <time>2012-10-28T10:41:48Z</time>
      </trkpt>
      <trkpt lat="44.10348" lon="3.12639">
        <ele>429</ele>
        <time>2012-10-28T10:41:56Z</time>
      </trkpt>
      <trkpt lat="44.10352" lon="3.12643">
        <ele>429.39999389648</ele>
        <time>2012-10-28T10:41:58Z</time>
      </trkpt>
      <trkpt lat="44.10355" lon="3.12652">
        <ele>431</ele>
        <time>2012-10-28T10:42:03Z</time>
      </trkpt>
      <trkpt lat="44.10358" lon="3.12666">
        <ele>432.79998779297</ele>
        <time>2012-10-28T10:42:10Z</time>
      </trkpt>
      <trkpt lat="44.1036" lon="3.12667">
        <ele>433</ele>
        <time>2012-10-28T10:42:11Z</time>
      </trkpt>
      <trkpt lat="44.10365" lon="3.12661">
        <ele>433.60000610352</ele>
        <time>2012-10-28T10:42:18Z</time>
      </trkpt>
      <trkpt lat="44.10366" lon="3.12651">
        <ele>434</ele>
        <time>2012-10-28T10:42:25Z</time>
      </trkpt>
      <trkpt lat="44.10367" lon="3.12648">
        <ele>434.20001220703</ele>
        <time>2012-10-28T10:42:27Z</time>
      </trkpt>
      <trkpt lat="44.10373" lon="3.1263">
        <ele>435</ele>
        <time>2012-10-28T10:42:39Z</time>
      </trkpt>
      <trkpt lat="44.10376" lon="3.12625">
        <ele>435.60000610352</ele>
        <time>2012-10-28T10:42:43Z</time>
      </trkpt>
      <trkpt lat="44.10392" lon="3.12629">
        <ele>439.39999389648</ele>
        <time>2012-10-28T10:43:03Z</time>
      </trkpt>
      <trkpt lat="44.10394" lon="3.12631">
        <ele>440.20001220703</ele>
        <time>2012-10-28T10:43:05Z</time>
      </trkpt>
      <trkpt lat="44.10396" lon="3.12632">
        <ele>441.20001220703</ele>
        <time>2012-10-28T10:43:08Z</time>
      </trkpt>
      <trkpt lat="44.10399" lon="3.12635">
        <ele>442.39999389648</ele>
        <time>2012-10-28T10:43:11Z</time>
      </trkpt>
      <trkpt lat="44.10405" lon="3.12642">
        <ele>445.60000610352</ele>
        <time>2012-10-28T10:43:19Z</time>
      </trkpt>
      <trkpt lat="44.10408" lon="3.12647">
        <ele>447.79998779297</ele>
        <time>2012-10-28T10:43:24Z</time>
      </trkpt>
      <trkpt lat="44.10411" lon="3.1265">
        <ele>450</ele>
        <time>2012-10-28T10:43:29Z</time>
      </trkpt>
      <trkpt lat="44.10425" lon="3.12658">
        <ele>455.60000610352</ele>
        <time>2012-10-28T10:43:45Z</time>
      </trkpt>
      <trkpt lat="44.10441" lon="3.12672">
        <ele>462.20001220703</ele>
        <time>2012-10-28T10:44:05Z</time>
      </trkpt>
      <trkpt lat="44.10447" lon="3.12674">
        <ele>464.60000610352</ele>
        <time>2012-10-28T10:44:12Z</time>
      </trkpt>
      <trkpt lat="44.10458" lon="3.12674">
        <ele>468.39999389648</ele>
        <time>2012-10-28T10:44:33Z</time>
      </trkpt>
      <trkpt lat="44.1046" lon="3.12675">
        <ele>468.39999389648</ele>
        <time>2012-10-28T10:44:34Z</time>
      </trkpt>
      <trkpt lat="44.10461" lon="3.12651">
        <ele>472</ele>
        <time>2012-10-28T10:44:55Z</time>
      </trkpt>
      <trkpt lat="44.10461" lon="3.12649">
        <ele>472</ele>
        <time>2012-10-28T10:44:56Z</time>
      </trkpt>
      <trkpt lat="44.10462" lon="3.12634">
        <ele>474</ele>
        <time>2012-10-28T10:45:07Z</time>
      </trkpt>
      <trkpt lat="44.10463" lon="3.12624">
        <ele>475</ele>
        <time>2012-10-28T10:45:14Z</time>
      </trkpt>
      <trkpt lat="44.10468" lon="3.126">
        <ele>478.39999389648</ele>
        <time>2012-10-28T10:45:30Z</time>
      </trkpt>
      <trkpt lat="44.1047" lon="3.12579">
        <ele>481.60000610352</ele>
        <time>2012-10-28T10:45:43Z</time>
      </trkpt>
      <trkpt lat="44.10472" lon="3.12574">
        <ele>483.39999389648</ele>
        <time>2012-10-28T10:45:49Z</time>
      </trkpt>
      <trkpt lat="44.10487" lon="3.12561">
        <ele>489.39999389648</ele>
        <time>2012-10-28T10:46:15Z</time>
      </trkpt>
      <trkpt lat="44.10489" lon="3.12562">
        <ele>489.39999389648</ele>
        <time>2012-10-28T10:46:16Z</time>
      </trkpt>
      <trkpt lat="44.10495" lon="3.12566">
        <ele>490</ele>
        <time>2012-10-28T10:46:23Z</time>
      </trkpt>
      <trkpt lat="44.10497" lon="3.12563">
        <ele>490.39999389648</ele>
        <time>2012-10-28T10:46:27Z</time>
      </trkpt>
      <trkpt lat="44.10499" lon="3.12561">
        <ele>490.79998779297</ele>
        <time>2012-10-28T10:46:32Z</time>
      </trkpt>
      <trkpt lat="44.10503" lon="3.1256">
        <ele>491.39999389648</ele>
        <time>2012-10-28T10:46:36Z</time>
      </trkpt>
      <trkpt lat="44.10504" lon="3.12554">
        <ele>492</ele>
        <time>2012-10-28T10:46:41Z</time>
      </trkpt>
      <trkpt lat="44.10505" lon="3.12552">
        <ele>492.20001220703</ele>
        <time>2012-10-28T10:46:43Z</time>
      </trkpt>
      <trkpt lat="44.10506" lon="3.12543">
        <ele>492.79998779297</ele>
        <time>2012-10-28T10:46:49Z</time>
      </trkpt>
      <trkpt lat="44.10506" lon="3.12539">
        <ele>493.20001220703</ele>
        <time>2012-10-28T10:46:52Z</time>
      </trkpt>
      <trkpt lat="44.10507" lon="3.12533">
        <ele>494.39999389648</ele>
        <time>2012-10-28T10:46:56Z</time>
      </trkpt>
      <trkpt lat="44.10505" lon="3.12511">
        <ele>498.79998779297</ele>
        <time>2012-10-28T10:47:08Z</time>
      </trkpt>
      <trkpt lat="44.10504" lon="3.12509">
        <ele>499.20001220703</ele>
        <time>2012-10-28T10:47:09Z</time>
      </trkpt>
      <trkpt lat="44.10504" lon="3.12504">
        <ele>500.39999389648</ele>
        <time>2012-10-28T10:47:12Z</time>
      </trkpt>
      <trkpt lat="44.10505" lon="3.12502">
        <ele>501.39999389648</ele>
        <time>2012-10-28T10:47:14Z</time>
      </trkpt>
      <trkpt lat="44.10505" lon="3.12498">
        <ele>502.79998779297</ele>
        <time>2012-10-28T10:47:18Z</time>
      </trkpt>
      <trkpt lat="44.10514" lon="3.12481">
        <ele>510.60000610352</ele>
        <time>2012-10-28T10:47:41Z</time>
      </trkpt>
      <trkpt lat="44.10515" lon="3.12473">
        <ele>512.59997558594</ele>
        <time>2012-10-28T10:47:47Z</time>
      </trkpt>
      <trkpt lat="44.10517" lon="3.12458">
        <ele>514.79998779297</ele>
        <time>2012-10-28T10:47:57Z</time>
      </trkpt>
      <trkpt lat="44.10517" lon="3.12457">
        <ele>515</ele>
        <time>2012-10-28T10:47:58Z</time>
      </trkpt>
      <trkpt lat="44.10517" lon="3.12454">
        <ele>515.59997558594</ele>
        <time>2012-10-28T10:48:00Z</time>
      </trkpt>
      <trkpt lat="44.10517" lon="3.1245">
        <ele>516.20001220703</ele>
        <time>2012-10-28T10:48:03Z</time>
      </trkpt>
      <trkpt lat="44.10515" lon="3.12429">
        <ele>518</ele>
        <time>2012-10-28T10:48:10Z</time>
      </trkpt>
      <trkpt lat="44.10517" lon="3.12403">
        <ele>521.59997558594</ele>
        <time>2012-10-28T10:48:25Z</time>
      </trkpt>
      <trkpt lat="44.10517" lon="3.12388">
        <ele>523</ele>
        <time>2012-10-28T10:48:35Z</time>
      </trkpt>
      <trkpt lat="44.10518" lon="3.12375">
        <ele>523.40002441406</ele>
        <time>2012-10-28T10:48:44Z</time>
      </trkpt>
      <trkpt lat="44.1052" lon="3.12374">
        <ele>523.59997558594</ele>
        <time>2012-10-28T10:48:47Z</time>
      </trkpt>
      <trkpt lat="44.10522" lon="3.12376">
        <ele>523.79998779297</ele>
        <time>2012-10-28T10:48:51Z</time>
      </trkpt>
      <trkpt lat="44.10525" lon="3.1238">
        <ele>523.79998779297</ele>
        <time>2012-10-28T10:48:55Z</time>
      </trkpt>
      <trkpt lat="44.10529" lon="3.12391">
        <ele>523.79998779297</ele>
        <time>2012-10-28T10:49:02Z</time>
      </trkpt>
      <trkpt lat="44.10531" lon="3.12393">
        <ele>523.79998779297</ele>
        <time>2012-10-28T10:49:03Z</time>
      </trkpt>
      <trkpt lat="44.10537" lon="3.124">
        <ele>523.79998779297</ele>
        <time>2012-10-28T10:49:06Z</time>
      </trkpt>
      <trkpt lat="44.10544" lon="3.12404">
        <ele>524.40002441406</ele>
        <time>2012-10-28T10:49:13Z</time>
      </trkpt>
      <trkpt lat="44.10545" lon="3.12405">
        <ele>524.59997558594</ele>
        <time>2012-10-28T10:49:15Z</time>
      </trkpt>
      <trkpt lat="44.10547" lon="3.12405">
        <ele>524.79998779297</ele>
        <time>2012-10-28T10:49:18Z</time>
      </trkpt>
      <trkpt lat="44.10548" lon="3.12405">
        <ele>525</ele>
        <time>2012-10-28T10:49:19Z</time>
      </trkpt>
      <trkpt lat="44.10553" lon="3.1241">
        <ele>525.40002441406</ele>
        <time>2012-10-28T10:49:27Z</time>
      </trkpt>
      <trkpt lat="44.10562" lon="3.12419">
        <ele>526.59997558594</ele>
        <time>2012-10-28T10:49:40Z</time>
      </trkpt>
      <trkpt lat="44.10566" lon="3.12423">
        <ele>527.59997558594</ele>
        <time>2012-10-28T10:49:46Z</time>
      </trkpt>
      <trkpt lat="44.10572" lon="3.12428">
        <ele>529.20001220703</ele>
        <time>2012-10-28T10:49:53Z</time>
      </trkpt>
      <trkpt lat="44.10574" lon="3.12431">
        <ele>530.20001220703</ele>
        <time>2012-10-28T10:49:57Z</time>
      </trkpt>
      <trkpt lat="44.10578" lon="3.12433">
        <ele>531.59997558594</ele>
        <time>2012-10-28T10:50:02Z</time>
      </trkpt>
      <trkpt lat="44.10583" lon="3.12448">
        <ele>537.59997558594</ele>
        <time>2012-10-28T10:50:20Z</time>
      </trkpt>
      <trkpt lat="44.10588" lon="3.12453">
        <ele>539.40002441406</ele>
        <time>2012-10-28T10:50:26Z</time>
      </trkpt>
      <trkpt lat="44.10595" lon="3.12458">
        <ele>544.59997558594</ele>
        <time>2012-10-28T10:50:40Z</time>
      </trkpt>
      <trkpt lat="44.10605" lon="3.12466">
        <ele>553.20001220703</ele>
        <time>2012-10-28T10:50:56Z</time>
      </trkpt>
      <trkpt lat="44.10609" lon="3.12473">
        <ele>555.59997558594</ele>
        <time>2012-10-28T10:51:01Z</time>
      </trkpt>
      <trkpt lat="44.10615" lon="3.12481">
        <ele>557.79998779297</ele>
        <time>2012-10-28T10:51:07Z</time>
      </trkpt>
      <trkpt lat="44.10616" lon="3.12482">
        <ele>558</ele>
        <time>2012-10-28T10:51:08Z</time>
      </trkpt>
      <trkpt lat="44.10618" lon="3.12485">
        <ele>559</ele>
        <time>2012-10-28T10:51:11Z</time>
      </trkpt>
      <trkpt lat="44.1062" lon="3.12489">
        <ele>563.20001220703</ele>
        <time>2012-10-28T10:51:22Z</time>
      </trkpt>
      <trkpt lat="44.10627" lon="3.12496">
        <ele>567.59997558594</ele>
        <time>2012-10-28T10:51:33Z</time>
      </trkpt>
      <trkpt lat="44.10632" lon="3.12499">
        <ele>569.40002441406</ele>
        <time>2012-10-28T10:51:39Z</time>
      </trkpt>
      <trkpt lat="44.10634" lon="3.12503">
        <ele>570.20001220703</ele>
        <time>2012-10-28T10:51:42Z</time>
      </trkpt>
      <trkpt lat="44.10646" lon="3.12515">
        <ele>575</ele>
        <time>2012-10-28T10:52:19Z</time>
      </trkpt>
      <trkpt lat="44.10648" lon="3.12515">
        <ele>575</ele>
        <time>2012-10-28T10:52:34Z</time>
      </trkpt>
      <trkpt lat="44.10659" lon="3.12523">
        <ele>574.40002441406</ele>
        <time>2012-10-28T10:52:54Z</time>
      </trkpt>
      <trkpt lat="44.10662" lon="3.12526">
        <ele>574.20001220703</ele>
        <time>2012-10-28T10:52:59Z</time>
      </trkpt>
      <trkpt lat="44.10676" lon="3.12528">
        <ele>574.40002441406</ele>
        <time>2012-10-28T10:53:29Z</time>
      </trkpt>
      <trkpt lat="44.10682" lon="3.1253">
        <ele>575.40002441406</ele>
        <time>2012-10-28T10:53:43Z</time>
      </trkpt>
      <trkpt lat="44.10696" lon="3.12533">
        <ele>580.20001220703</ele>
        <time>2012-10-28T10:54:06Z</time>
      </trkpt>
      <trkpt lat="44.107" lon="3.12529">
        <ele>581.59997558594</ele>
        <time>2012-10-28T10:54:14Z</time>
      </trkpt>
      <trkpt lat="44.10711" lon="3.12521">
        <ele>590</ele>
        <time>2012-10-28T10:54:53Z</time>
      </trkpt>
      <trkpt lat="44.10726" lon="3.12524">
        <ele>593.79998779297</ele>
        <time>2012-10-28T10:55:23Z</time>
      </trkpt>
      <trkpt lat="44.1073" lon="3.12526">
        <ele>594</ele>
        <time>2012-10-28T10:55:27Z</time>
      </trkpt>
      <trkpt lat="44.1073" lon="3.12526">
        <ele>594</ele>
        <time>2012-10-28T10:55:28Z</time>
      </trkpt>
      <trkpt lat="44.10732" lon="3.12527">
        <ele>594</ele>
        <time>2012-10-28T10:55:30Z</time>
      </trkpt>
      <trkpt lat="44.10745" lon="3.12529">
        <ele>596.40002441406</ele>
        <time>2012-10-28T10:55:47Z</time>
      </trkpt>
      <trkpt lat="44.10746" lon="3.12523">
        <ele>598.59997558594</ele>
        <time>2012-10-28T10:55:57Z</time>
      </trkpt>
      <trkpt lat="44.10738" lon="3.12512">
        <ele>602</ele>
        <time>2012-10-28T10:56:11Z</time>
      </trkpt>
      <trkpt lat="44.10737" lon="3.1251">
        <ele>602.40002441406</ele>
        <time>2012-10-28T10:56:13Z</time>
      </trkpt>
      <trkpt lat="44.10736" lon="3.12503">
        <ele>604.59997558594</ele>
        <time>2012-10-28T10:56:22Z</time>
      </trkpt>
      <trkpt lat="44.10742" lon="3.12485">
        <ele>611.20001220703</ele>
        <time>2012-10-28T10:56:56Z</time>
      </trkpt>
      <trkpt lat="44.1074" lon="3.12479">
        <ele>612.59997558594</ele>
        <time>2012-10-28T10:57:02Z</time>
      </trkpt>
      <trkpt lat="44.10741" lon="3.12475">
        <ele>613.59997558594</ele>
        <time>2012-10-28T10:57:06Z</time>
      </trkpt>
      <trkpt lat="44.10748" lon="3.12466">
        <ele>617.79998779297</ele>
        <time>2012-10-28T10:57:25Z</time>
      </trkpt>
      <trkpt lat="44.10747" lon="3.12461">
        <ele>618.59997558594</ele>
        <time>2012-10-28T10:57:28Z</time>
      </trkpt>
      <trkpt lat="44.10749" lon="3.12441">
        <ele>624</ele>
        <time>2012-10-28T10:57:46Z</time>
      </trkpt>
      <trkpt lat="44.10748" lon="3.1244">
        <ele>624.59997558594</ele>
        <time>2012-10-28T10:57:48Z</time>
      </trkpt>
      <trkpt lat="44.1074" lon="3.12433">
        <ele>626.79998779297</ele>
        <time>2012-10-28T10:57:56Z</time>
      </trkpt>
      <trkpt lat="44.10739" lon="3.1243">
        <ele>627.40002441406</ele>
        <time>2012-10-28T10:57:58Z</time>
      </trkpt>
      <trkpt lat="44.10733" lon="3.12425">
        <ele>628.20001220703</ele>
        <time>2012-10-28T10:58:01Z</time>
      </trkpt>
      <trkpt lat="44.1072" lon="3.12406">
        <ele>630.20001220703</ele>
        <time>2012-10-28T10:58:10Z</time>
      </trkpt>
      <trkpt lat="44.10711" lon="3.12384">
        <ele>633.20001220703</ele>
        <time>2012-10-28T10:58:21Z</time>
      </trkpt>
      <trkpt lat="44.10703" lon="3.12364">
        <ele>637</ele>
        <time>2012-10-28T10:58:37Z</time>
      </trkpt>
      <trkpt lat="44.10702" lon="3.12363">
        <ele>637.20001220703</ele>
        <time>2012-10-28T10:58:38Z</time>
      </trkpt>
      <trkpt lat="44.10698" lon="3.12338">
        <ele>640</ele>
        <time>2012-10-28T10:58:54Z</time>
      </trkpt>
      <trkpt lat="44.10699" lon="3.12311">
        <ele>641</ele>
        <time>2012-10-28T10:59:04Z</time>
      </trkpt>
      <trkpt lat="44.10698" lon="3.12283">
        <ele>641.79998779297</ele>
        <time>2012-10-28T10:59:13Z</time>
      </trkpt>
      <trkpt lat="44.10692" lon="3.12257">
        <ele>642.59997558594</ele>
        <time>2012-10-28T10:59:22Z</time>
      </trkpt>
      <trkpt lat="44.1068" lon="3.12235">
        <ele>644</ele>
        <time>2012-10-28T10:59:32Z</time>
      </trkpt>
      <trkpt lat="44.10679" lon="3.12224">
        <ele>644.40002441406</ele>
        <time>2012-10-28T10:59:36Z</time>
      </trkpt>
      <trkpt lat="44.10685" lon="3.12212">
        <ele>645.20001220703</ele>
        <time>2012-10-28T10:59:42Z</time>
      </trkpt>
      <trkpt lat="44.10686" lon="3.12209">
        <ele>645.40002441406</ele>
        <time>2012-10-28T10:59:43Z</time>
      </trkpt>
      <trkpt lat="44.10696" lon="3.12198">
        <ele>645.79998779297</ele>
        <time>2012-10-28T10:59:52Z</time>
      </trkpt>
      <trkpt lat="44.107" lon="3.12195">
        <ele>645.79998779297</ele>
        <time>2012-10-28T10:59:56Z</time>
      </trkpt>
      <trkpt lat="44.10717" lon="3.12186">
        <ele>649.20001220703</ele>
        <time>2012-10-28T11:00:22Z</time>
      </trkpt>
      <trkpt lat="44.10734" lon="3.1219">
        <ele>655.40002441406</ele>
        <time>2012-10-28T11:00:55Z</time>
      </trkpt>
      <trkpt lat="44.10751" lon="3.12184">
        <ele>662.79998779297</ele>
        <time>2012-10-28T11:01:26Z</time>
      </trkpt>
      <trkpt lat="44.10752" lon="3.12183">
        <ele>663</ele>
        <time>2012-10-28T11:01:27Z</time>
      </trkpt>
      <trkpt lat="44.10753" lon="3.12181">
        <ele>663.79998779297</ele>
        <time>2012-10-28T11:01:30Z</time>
      </trkpt>
      <trkpt lat="44.10754" lon="3.12179">
        <ele>664.20001220703</ele>
        <time>2012-10-28T11:01:32Z</time>
      </trkpt>
      <trkpt lat="44.10756" lon="3.12176">
        <ele>665</ele>
        <time>2012-10-28T11:01:35Z</time>
      </trkpt>
      <trkpt lat="44.1076" lon="3.12159">
        <ele>670</ele>
        <time>2012-10-28T11:01:55Z</time>
      </trkpt>
      <trkpt lat="44.10761" lon="3.12155">
        <ele>671.40002441406</ele>
        <time>2012-10-28T11:02:01Z</time>
      </trkpt>
      <trkpt lat="44.10762" lon="3.12153">
        <ele>672</ele>
        <time>2012-10-28T11:02:03Z</time>
      </trkpt>
      <trkpt lat="44.10764" lon="3.1215">
        <ele>672.59997558594</ele>
        <time>2012-10-28T11:02:06Z</time>
      </trkpt>
      <trkpt lat="44.10765" lon="3.12141">
        <ele>673.59997558594</ele>
        <time>2012-10-28T11:02:15Z</time>
      </trkpt>
      <trkpt lat="44.10767" lon="3.12134">
        <ele>674.40002441406</ele>
        <time>2012-10-28T11:02:22Z</time>
      </trkpt>
      <trkpt lat="44.10767" lon="3.12132">
        <ele>674.59997558594</ele>
        <time>2012-10-28T11:02:24Z</time>
      </trkpt>
      <trkpt lat="44.10771" lon="3.12109">
        <ele>678.59997558594</ele>
        <time>2012-10-28T11:02:48Z</time>
      </trkpt>
      <trkpt lat="44.10782" lon="3.1209">
        <ele>684.40002441406</ele>
        <time>2012-10-28T11:03:19Z</time>
      </trkpt>
      <trkpt lat="44.10795" lon="3.12073">
        <ele>693.20001220703</ele>
        <time>2012-10-28T11:04:03Z</time>
      </trkpt>
      <trkpt lat="44.10802" lon="3.12089">
        <ele>699.79998779297</ele>
        <time>2012-10-28T11:04:25Z</time>
      </trkpt>
      <trkpt lat="44.10806" lon="3.1209">
        <ele>701.79998779297</ele>
        <time>2012-10-28T11:04:33Z</time>
      </trkpt>
      <trkpt lat="44.10818" lon="3.12073">
        <ele>711.40002441406</ele>
        <time>2012-10-28T11:05:12Z</time>
      </trkpt>
      <trkpt lat="44.10835" lon="3.12072">
        <ele>715.20001220703</ele>
        <time>2012-10-28T11:05:41Z</time>
      </trkpt>
      <trkpt lat="44.10847" lon="3.12059">
        <ele>724.20001220703</ele>
        <time>2012-10-28T11:06:18Z</time>
      </trkpt>
      <trkpt lat="44.10863" lon="3.12053">
        <ele>728.59997558594</ele>
        <time>2012-10-28T11:06:48Z</time>
      </trkpt>
      <trkpt lat="44.10878" lon="3.12048">
        <ele>732.40002441406</ele>
        <time>2012-10-28T11:07:13Z</time>
      </trkpt>
      <trkpt lat="44.10885" lon="3.12044">
        <ele>734</ele>
        <time>2012-10-28T11:07:23Z</time>
      </trkpt>
      <trkpt lat="44.10887" lon="3.12046">
        <ele>734.79998779297</ele>
        <time>2012-10-28T11:07:27Z</time>
      </trkpt>
      <trkpt lat="44.1089" lon="3.12048">
        <ele>735.59997558594</ele>
        <time>2012-10-28T11:07:32Z</time>
      </trkpt>
      <trkpt lat="44.10895" lon="3.12048">
        <ele>736.40002441406</ele>
        <time>2012-10-28T11:07:39Z</time>
      </trkpt>
      <trkpt lat="44.10907" lon="3.12031">
        <ele>740.59997558594</ele>
        <time>2012-10-28T11:08:10Z</time>
      </trkpt>
      <trkpt lat="44.10912" lon="3.12025">
        <ele>742.79998779297</ele>
        <time>2012-10-28T11:08:19Z</time>
      </trkpt>
      <trkpt lat="44.10914" lon="3.12025">
        <ele>743.40002441406</ele>
        <time>2012-10-28T11:08:21Z</time>
      </trkpt>
      <trkpt lat="44.10915" lon="3.12026">
        <ele>744</ele>
        <time>2012-10-28T11:08:23Z</time>
      </trkpt>
      <trkpt lat="44.10923" lon="3.12025">
        <ele>747.20001220703</ele>
        <time>2012-10-28T11:08:35Z</time>
      </trkpt>
      <trkpt lat="44.10936" lon="3.12014">
        <ele>753.20001220703</ele>
        <time>2012-10-28T11:09:05Z</time>
      </trkpt>
      <trkpt lat="44.1095" lon="3.12012">
        <ele>756.40002441406</ele>
        <time>2012-10-28T11:09:29Z</time>
      </trkpt>
      <trkpt lat="44.10952" lon="3.1201">
        <ele>756.59997558594</ele>
        <time>2012-10-28T11:09:32Z</time>
      </trkpt>
      <trkpt lat="44.10967" lon="3.11996">
        <ele>759</ele>
        <time>2012-10-28T11:10:01Z</time>
      </trkpt>
      <trkpt lat="44.10983" lon="3.11987">
        <ele>762</ele>
        <time>2012-10-28T11:10:29Z</time>
      </trkpt>
      <trkpt lat="44.10997" lon="3.11973">
        <ele>766.40002441406</ele>
        <time>2012-10-28T11:10:53Z</time>
      </trkpt>
      <trkpt lat="44.1101" lon="3.11956">
        <ele>773.20001220703</ele>
        <time>2012-10-28T11:11:21Z</time>
      </trkpt>
      <trkpt lat="44.11024" lon="3.11939">
        <ele>779</ele>
        <time>2012-10-28T11:11:48Z</time>
      </trkpt>
      <trkpt lat="44.11036" lon="3.11954">
        <ele>779.59997558594</ele>
        <time>2012-10-28T11:12:03Z</time>
      </trkpt>
      <trkpt lat="44.11039" lon="3.11957">
        <ele>779.40002441406</ele>
        <time>2012-10-28T11:12:05Z</time>
      </trkpt>
      <trkpt lat="44.11046" lon="3.11966">
        <ele>779.40002441406</ele>
        <time>2012-10-28T11:12:10Z</time>
      </trkpt>
      <trkpt lat="44.11054" lon="3.11974">
        <ele>779.40002441406</ele>
        <time>2012-10-28T11:12:14Z</time>
      </trkpt>
      <trkpt lat="44.11068" lon="3.11989">
        <ele>779.59997558594</ele>
        <time>2012-10-28T11:12:22Z</time>
      </trkpt>
      <trkpt lat="44.11085" lon="3.12003">
        <ele>780</ele>
        <time>2012-10-28T11:12:30Z</time>
      </trkpt>
      <trkpt lat="44.11102" lon="3.12015">
        <ele>780</ele>
        <time>2012-10-28T11:12:38Z</time>
      </trkpt>
      <trkpt lat="44.11117" lon="3.12027">
        <ele>780.20001220703</ele>
        <time>2012-10-28T11:12:46Z</time>
      </trkpt>
      <trkpt lat="44.11135" lon="3.12034">
        <ele>780.59997558594</ele>
        <time>2012-10-28T11:12:55Z</time>
      </trkpt>
      <trkpt lat="44.11155" lon="3.12041">
        <ele>780.79998779297</ele>
        <time>2012-10-28T11:13:05Z</time>
      </trkpt>
      <trkpt lat="44.11169" lon="3.12059">
        <ele>780.59997558594</ele>
        <time>2012-10-28T11:13:13Z</time>
      </trkpt>
      <trkpt lat="44.11185" lon="3.1207">
        <ele>780.40002441406</ele>
        <time>2012-10-28T11:13:22Z</time>
      </trkpt>
      <trkpt lat="44.11203" lon="3.12073">
        <ele>780.20001220703</ele>
        <time>2012-10-28T11:13:31Z</time>
      </trkpt>
      <trkpt lat="44.11221" lon="3.12072">
        <ele>780</ele>
        <time>2012-10-28T11:13:39Z</time>
      </trkpt>
      <trkpt lat="44.11223" lon="3.12072">
        <ele>780</ele>
        <time>2012-10-28T11:13:40Z</time>
      </trkpt>
      <trkpt lat="44.1124" lon="3.12078">
        <ele>779.79998779297</ele>
        <time>2012-10-28T11:13:51Z</time>
      </trkpt>
      <trkpt lat="44.11256" lon="3.12073">
        <ele>781.20001220703</ele>
        <time>2012-10-28T11:14:11Z</time>
      </trkpt>
      <trkpt lat="44.11258" lon="3.12072">
        <ele>781.40002441406</ele>
        <time>2012-10-28T11:14:13Z</time>
      </trkpt>
      <trkpt lat="44.11267" lon="3.12073">
        <ele>781.40002441406</ele>
        <time>2012-10-28T11:14:21Z</time>
      </trkpt>
      <trkpt lat="44.11269" lon="3.12072">
        <ele>781.40002441406</ele>
        <time>2012-10-28T11:14:22Z</time>
      </trkpt>
      <trkpt lat="44.11272" lon="3.12073">
        <ele>782.40002441406</ele>
        <time>2012-10-28T11:14:24Z</time>
      </trkpt>
      <trkpt lat="44.11276" lon="3.12074">
        <ele>783.20001220703</ele>
        <time>2012-10-28T11:14:30Z</time>
      </trkpt>
      <trkpt lat="44.11276" lon="3.12073">
        <ele>783.40002441406</ele>
        <time>2012-10-28T11:14:31Z</time>
      </trkpt>
      <trkpt lat="44.11275" lon="3.12071">
        <ele>784.40002441406</ele>
        <time>2012-10-28T11:14:34Z</time>
      </trkpt>
      <trkpt lat="44.11291" lon="3.12078">
        <ele>793.20001220703</ele>
        <time>2012-10-28T11:15:04Z</time>
      </trkpt>
      <trkpt lat="44.11298" lon="3.12086">
        <ele>793.79998779297</ele>
        <time>2012-10-28T11:15:15Z</time>
      </trkpt>
      <trkpt lat="44.11303" lon="3.1209">
        <ele>795</ele>
        <time>2012-10-28T11:15:26Z</time>
      </trkpt>
      <trkpt lat="44.11304" lon="3.12091">
        <ele>795.20001220703</ele>
        <time>2012-10-28T11:15:27Z</time>
      </trkpt>
      <trkpt lat="44.1131" lon="3.12094">
        <ele>796.79998779297</ele>
        <time>2012-10-28T11:15:38Z</time>
      </trkpt>
      <trkpt lat="44.11322" lon="3.12096">
        <ele>798</ele>
        <time>2012-10-28T11:15:53Z</time>
      </trkpt>
      <trkpt lat="44.11323" lon="3.12097">
        <ele>797.79998779297</ele>
        <time>2012-10-28T11:15:54Z</time>
      </trkpt>
      <trkpt lat="44.11327" lon="3.12097">
        <ele>798.20001220703</ele>
        <time>2012-10-28T11:15:59Z</time>
      </trkpt>
      <trkpt lat="44.11329" lon="3.12097">
        <ele>798.59997558594</ele>
        <time>2012-10-28T11:16:02Z</time>
      </trkpt>
      <trkpt lat="44.11343" lon="3.12102">
        <ele>800</ele>
        <time>2012-10-28T11:16:13Z</time>
      </trkpt>
      <trkpt lat="44.11353" lon="3.12105">
        <ele>801.40002441406</ele>
        <time>2012-10-28T11:16:20Z</time>
      </trkpt>
      <trkpt lat="44.11356" lon="3.12107">
        <ele>801.79998779297</ele>
        <time>2012-10-28T11:16:22Z</time>
      </trkpt>
      <trkpt lat="44.11361" lon="3.12107">
        <ele>802.40002441406</ele>
        <time>2012-10-28T11:16:25Z</time>
      </trkpt>
      <trkpt lat="44.11372" lon="3.12103">
        <ele>803.79998779297</ele>
        <time>2012-10-28T11:16:32Z</time>
      </trkpt>
      <trkpt lat="44.11375" lon="3.12103">
        <ele>804.79998779297</ele>
        <time>2012-10-28T11:16:35Z</time>
      </trkpt>
      <trkpt lat="44.1138" lon="3.12103">
        <ele>806</ele>
        <time>2012-10-28T11:16:39Z</time>
      </trkpt>
      <trkpt lat="44.11385" lon="3.12105">
        <ele>806.20001220703</ele>
        <time>2012-10-28T11:16:42Z</time>
      </trkpt>
      <trkpt lat="44.11385" lon="3.12105">
        <ele>806.20001220703</ele>
        <time>2012-10-28T11:16:43Z</time>
      </trkpt>
      <trkpt lat="44.11389" lon="3.12105">
        <ele>806.40002441406</ele>
        <time>2012-10-28T11:16:46Z</time>
      </trkpt>
      <trkpt lat="44.11401" lon="3.12106">
        <ele>807.40002441406</ele>
        <time>2012-10-28T11:16:52Z</time>
      </trkpt>
      <trkpt lat="44.11403" lon="3.12105">
        <ele>807.59997558594</ele>
        <time>2012-10-28T11:16:53Z</time>
      </trkpt>
      <trkpt lat="44.1142" lon="3.12102">
        <ele>808.79998779297</ele>
        <time>2012-10-28T11:17:03Z</time>
      </trkpt>
      <trkpt lat="44.1143" lon="3.12097">
        <ele>810.59997558594</ele>
        <time>2012-10-28T11:17:09Z</time>
      </trkpt>
      <trkpt lat="44.11437" lon="3.12094">
        <ele>811.40002441406</ele>
        <time>2012-10-28T11:17:15Z</time>
      </trkpt>
      <trkpt lat="44.11442" lon="3.12094">
        <ele>811.79998779297</ele>
        <time>2012-10-28T11:17:18Z</time>
      </trkpt>
      <trkpt lat="44.11447" lon="3.12089">
        <ele>812.59997558594</ele>
        <time>2012-10-28T11:17:23Z</time>
      </trkpt>
      <trkpt lat="44.11453" lon="3.12087">
        <ele>814.40002441406</ele>
        <time>2012-10-28T11:17:29Z</time>
      </trkpt>
      <trkpt lat="44.11455" lon="3.12086">
        <ele>815</ele>
        <time>2012-10-28T11:17:31Z</time>
      </trkpt>
      <trkpt lat="44.11459" lon="3.12083">
        <ele>816.40002441406</ele>
        <time>2012-10-28T11:17:35Z</time>
      </trkpt>
      <trkpt lat="44.1146" lon="3.12082">
        <ele>816.79998779297</ele>
        <time>2012-10-28T11:17:36Z</time>
      </trkpt>
      <trkpt lat="44.11467" lon="3.12079">
        <ele>819</ele>
        <time>2012-10-28T11:17:44Z</time>
      </trkpt>
      <trkpt lat="44.11472" lon="3.12075">
        <ele>820.59997558594</ele>
        <time>2012-10-28T11:17:49Z</time>
      </trkpt>
      <trkpt lat="44.11472" lon="3.12074">
        <ele>820.79998779297</ele>
        <time>2012-10-28T11:17:50Z</time>
      </trkpt>
      <trkpt lat="44.11475" lon="3.12072">
        <ele>821.20001220703</ele>
        <time>2012-10-28T11:17:52Z</time>
      </trkpt>
      <trkpt lat="44.11479" lon="3.12068">
        <ele>822.59997558594</ele>
        <time>2012-10-28T11:17:56Z</time>
      </trkpt>
      <trkpt lat="44.11488" lon="3.12065">
        <ele>824.40002441406</ele>
        <time>2012-10-28T11:18:02Z</time>
      </trkpt>
      <trkpt lat="44.11489" lon="3.12063">
        <ele>824.59997558594</ele>
        <time>2012-10-28T11:18:03Z</time>
      </trkpt>
      <trkpt lat="44.11497" lon="3.12058">
        <ele>825.79998779297</ele>
        <time>2012-10-28T11:18:09Z</time>
      </trkpt>
      <trkpt lat="44.11506" lon="3.12054">
        <ele>826.79998779297</ele>
        <time>2012-10-28T11:18:14Z</time>
      </trkpt>
      <trkpt lat="44.11516" lon="3.12047">
        <ele>828.20001220703</ele>
        <time>2012-10-28T11:18:21Z</time>
      </trkpt>
      <trkpt lat="44.11517" lon="3.12046">
        <ele>828.40002441406</ele>
        <time>2012-10-28T11:18:22Z</time>
      </trkpt>
      <trkpt lat="44.11523" lon="3.12045">
        <ele>829.79998779297</ele>
        <time>2012-10-28T11:18:26Z</time>
      </trkpt>
      <trkpt lat="44.11526" lon="3.12044">
        <ele>830.40002441406</ele>
        <time>2012-10-28T11:18:29Z</time>
      </trkpt>
      <trkpt lat="44.11538" lon="3.12031">
        <ele>830.59997558594</ele>
        <time>2012-10-28T11:18:37Z</time>
      </trkpt>
      <trkpt lat="44.11541" lon="3.12028">
        <ele>830.79998779297</ele>
        <time>2012-10-28T11:18:39Z</time>
      </trkpt>
      <trkpt lat="44.11556" lon="3.1202">
        <ele>832.20001220703</ele>
        <time>2012-10-28T11:18:46Z</time>
      </trkpt>
      <trkpt lat="44.11573" lon="3.12005">
        <ele>832.59997558594</ele>
        <time>2012-10-28T11:18:55Z</time>
      </trkpt>
      <trkpt lat="44.11575" lon="3.12004">
        <ele>832.79998779297</ele>
        <time>2012-10-28T11:18:56Z</time>
      </trkpt>
      <trkpt lat="44.11593" lon="3.12003">
        <ele>833.40002441406</ele>
        <time>2012-10-28T11:19:06Z</time>
      </trkpt>
      <trkpt lat="44.11605" lon="3.12011">
        <ele>833.40002441406</ele>
        <time>2012-10-28T11:19:11Z</time>
      </trkpt>
      <trkpt lat="44.1161" lon="3.12014">
        <ele>833.40002441406</ele>
        <time>2012-10-28T11:19:14Z</time>
      </trkpt>
      <trkpt lat="44.11617" lon="3.12015">
        <ele>833.59997558594</ele>
        <time>2012-10-28T11:19:17Z</time>
      </trkpt>
      <trkpt lat="44.1163" lon="3.12016">
        <ele>833.40002441406</ele>
        <time>2012-10-28T11:19:21Z</time>
      </trkpt>
      <trkpt lat="44.11648" lon="3.12024">
        <ele>833.20001220703</ele>
        <time>2012-10-28T11:19:28Z</time>
      </trkpt>
      <trkpt lat="44.11658" lon="3.12029">
        <ele>833</ele>
        <time>2012-10-28T11:19:33Z</time>
      </trkpt>
      <trkpt lat="44.11666" lon="3.12024">
        <ele>833.20001220703</ele>
        <time>2012-10-28T11:19:36Z</time>
      </trkpt>
      <trkpt lat="44.11672" lon="3.12026">
        <ele>833</ele>
        <time>2012-10-28T11:19:39Z</time>
      </trkpt>
      <trkpt lat="44.11678" lon="3.12033">
        <ele>833</ele>
        <time>2012-10-28T11:19:43Z</time>
      </trkpt>
      <trkpt lat="44.11679" lon="3.12034">
        <ele>832.79998779297</ele>
        <time>2012-10-28T11:19:44Z</time>
      </trkpt>
      <trkpt lat="44.11682" lon="3.12036">
        <ele>832.79998779297</ele>
        <time>2012-10-28T11:19:46Z</time>
      </trkpt>
      <trkpt lat="44.11693" lon="3.12047">
        <ele>832.20001220703</ele>
        <time>2012-10-28T11:19:52Z</time>
      </trkpt>
      <trkpt lat="44.11699" lon="3.12049">
        <ele>832</ele>
        <time>2012-10-28T11:19:55Z</time>
      </trkpt>
      <trkpt lat="44.11711" lon="3.12054">
        <ele>831.59997558594</ele>
        <time>2012-10-28T11:20:02Z</time>
      </trkpt>
      <trkpt lat="44.11713" lon="3.12055">
        <ele>831.59997558594</ele>
        <time>2012-10-28T11:20:03Z</time>
      </trkpt>
      <trkpt lat="44.11719" lon="3.12058">
        <ele>831.59997558594</ele>
        <time>2012-10-28T11:20:07Z</time>
      </trkpt>
      <trkpt lat="44.11721" lon="3.12058">
        <ele>831.59997558594</ele>
        <time>2012-10-28T11:20:09Z</time>
      </trkpt>
      <trkpt lat="44.11736" lon="3.12055">
        <ele>831.20001220703</ele>
        <time>2012-10-28T11:20:21Z</time>
      </trkpt>
      <trkpt lat="44.11738" lon="3.12054">
        <ele>831.20001220703</ele>
        <time>2012-10-28T11:20:23Z</time>
      </trkpt>
      <trkpt lat="44.11744" lon="3.12053">
        <ele>831.40002441406</ele>
        <time>2012-10-28T11:20:28Z</time>
      </trkpt>
      <trkpt lat="44.11746" lon="3.12053">
        <ele>831.40002441406</ele>
        <time>2012-10-28T11:20:29Z</time>
      </trkpt>
      <trkpt lat="44.11757" lon="3.12055">
        <ele>831.79998779297</ele>
        <time>2012-10-28T11:20:37Z</time>
      </trkpt>
      <trkpt lat="44.11761" lon="3.12054">
        <ele>831.79998779297</ele>
        <time>2012-10-28T11:20:41Z</time>
      </trkpt>
      <trkpt lat="44.11775" lon="3.12054">
        <ele>832.59997558594</ele>
        <time>2012-10-28T11:20:51Z</time>
      </trkpt>
      <trkpt lat="44.11778" lon="3.12052">
        <ele>833</ele>
        <time>2012-10-28T11:20:54Z</time>
      </trkpt>
      <trkpt lat="44.11786" lon="3.12047">
        <ele>833.79998779297</ele>
        <time>2012-10-28T11:20:58Z</time>
      </trkpt>
      <trkpt lat="44.11791" lon="3.12043">
        <ele>834</ele>
        <time>2012-10-28T11:21:01Z</time>
      </trkpt>
      <trkpt lat="44.11803" lon="3.12028">
        <ele>834.79998779297</ele>
        <time>2012-10-28T11:21:08Z</time>
      </trkpt>
      <trkpt lat="44.11805" lon="3.12026">
        <ele>835</ele>
        <time>2012-10-28T11:21:09Z</time>
      </trkpt>
      <trkpt lat="44.11821" lon="3.12014">
        <ele>835.59997558594</ele>
        <time>2012-10-28T11:21:17Z</time>
      </trkpt>
      <trkpt lat="44.11838" lon="3.11998">
        <ele>836.59997558594</ele>
        <time>2012-10-28T11:21:25Z</time>
      </trkpt>
      <trkpt lat="44.11856" lon="3.11985">
        <ele>837.59997558594</ele>
        <time>2012-10-28T11:21:35Z</time>
      </trkpt>
      <trkpt lat="44.11863" lon="3.1198">
        <ele>838</ele>
        <time>2012-10-28T11:21:39Z</time>
      </trkpt>
      <trkpt lat="44.11872" lon="3.11971">
        <ele>838.79998779297</ele>
        <time>2012-10-28T11:21:44Z</time>
      </trkpt>
      <trkpt lat="44.1189" lon="3.11964">
        <ele>839.20001220703</ele>
        <time>2012-10-28T11:21:52Z</time>
      </trkpt>
      <trkpt lat="44.119" lon="3.11972">
        <ele>839</ele>
        <time>2012-10-28T11:21:57Z</time>
      </trkpt>
      <trkpt lat="44.11908" lon="3.11978">
        <ele>838.79998779297</ele>
        <time>2012-10-28T11:22:02Z</time>
      </trkpt>
      <trkpt lat="44.11911" lon="3.11979">
        <ele>838.79998779297</ele>
        <time>2012-10-28T11:22:03Z</time>
      </trkpt>
      <trkpt lat="44.11927" lon="3.11972">
        <ele>838.79998779297</ele>
        <time>2012-10-28T11:22:09Z</time>
      </trkpt>
      <trkpt lat="44.11943" lon="3.1196">
        <ele>838.79998779297</ele>
        <time>2012-10-28T11:22:15Z</time>
      </trkpt>
      <trkpt lat="44.11949" lon="3.1194">
        <ele>838.79998779297</ele>
        <time>2012-10-28T11:22:22Z</time>
      </trkpt>
      <trkpt lat="44.11951" lon="3.11937">
        <ele>838.79998779297</ele>
        <time>2012-10-28T11:22:23Z</time>
      </trkpt>
      <trkpt lat="44.11958" lon="3.11934">
        <ele>838.59997558594</ele>
        <time>2012-10-28T11:22:26Z</time>
      </trkpt>
      <trkpt lat="44.11967" lon="3.11925">
        <ele>838.40002441406</ele>
        <time>2012-10-28T11:22:32Z</time>
      </trkpt>
      <trkpt lat="44.11987" lon="3.11921">
        <ele>838</ele>
        <time>2012-10-28T11:22:41Z</time>
      </trkpt>
      <trkpt lat="44.12006" lon="3.11918">
        <ele>837.20001220703</ele>
        <time>2012-10-28T11:22:49Z</time>
      </trkpt>
      <trkpt lat="44.12025" lon="3.1191">
        <ele>836.59997558594</ele>
        <time>2012-10-28T11:22:57Z</time>
      </trkpt>
      <trkpt lat="44.12043" lon="3.11898">
        <ele>836</ele>
        <time>2012-10-28T11:23:06Z</time>
      </trkpt>
      <trkpt lat="44.12045" lon="3.11896">
        <ele>836</ele>
        <time>2012-10-28T11:23:07Z</time>
      </trkpt>
      <trkpt lat="44.12053" lon="3.11876">
        <ele>835.79998779297</ele>
        <time>2012-10-28T11:23:15Z</time>
      </trkpt>
      <trkpt lat="44.12062" lon="3.11874">
        <ele>835.79998779297</ele>
        <time>2012-10-28T11:23:20Z</time>
      </trkpt>
      <trkpt lat="44.12069" lon="3.11878">
        <ele>835.59997558594</ele>
        <time>2012-10-28T11:23:25Z</time>
      </trkpt>
      <trkpt lat="44.12071" lon="3.11878">
        <ele>835.79998779297</ele>
        <time>2012-10-28T11:23:26Z</time>
      </trkpt>
      <trkpt lat="44.1208" lon="3.11879">
        <ele>835.59997558594</ele>
        <time>2012-10-28T11:23:33Z</time>
      </trkpt>
      <trkpt lat="44.12089" lon="3.11879">
        <ele>835.40002441406</ele>
        <time>2012-10-28T11:23:39Z</time>
      </trkpt>
      <trkpt lat="44.1209" lon="3.11879">
        <ele>835.20001220703</ele>
        <time>2012-10-28T11:23:40Z</time>
      </trkpt>
      <trkpt lat="44.12098" lon="3.11873">
        <ele>835.40002441406</ele>
        <time>2012-10-28T11:23:55Z</time>
      </trkpt>
      <trkpt lat="44.12098" lon="3.11869">
        <ele>835.40002441406</ele>
        <time>2012-10-28T11:24:01Z</time>
      </trkpt>
      <trkpt lat="44.12099" lon="3.11869">
        <ele>836.40002441406</ele>
        <time>2012-10-28T11:24:09Z</time>
      </trkpt>
      <trkpt lat="44.12105" lon="3.11875">
        <ele>836.79998779297</ele>
        <time>2012-10-28T11:24:26Z</time>
      </trkpt>
      <trkpt lat="44.12105" lon="3.11875">
        <ele>836.79998779297</ele>
        <time>2012-10-28T11:24:29Z</time>
      </trkpt>
      <trkpt lat="44.12106" lon="3.11875">
        <ele>836.59997558594</ele>
        <time>2012-10-28T11:24:35Z</time>
      </trkpt>
      <trkpt lat="44.12106" lon="3.11872">
        <ele>838</ele>
        <time>2012-10-28T11:24:41Z</time>
      </trkpt>
      <trkpt lat="44.12107" lon="3.11871">
        <ele>837.79998779297</ele>
        <time>2012-10-28T11:24:45Z</time>
      </trkpt>
      <trkpt lat="44.12104" lon="3.11868">
        <ele>838</ele>
        <time>2012-10-28T11:24:48Z</time>
      </trkpt>
      <trkpt lat="44.12103" lon="3.1187">
        <ele>838.79998779297</ele>
        <time>2012-10-28T11:24:55Z</time>
      </trkpt>
      <trkpt lat="44.12101" lon="3.11869">
        <ele>838.79998779297</ele>
        <time>2012-10-28T11:24:58Z</time>
      </trkpt>
      <trkpt lat="44.121" lon="3.11866">
        <ele>838.79998779297</ele>
        <time>2012-10-28T11:25:00Z</time>
      </trkpt>
      <trkpt lat="44.12098" lon="3.11865">
        <ele>841</ele>
        <time>2012-10-28T11:25:06Z</time>
      </trkpt>
      <trkpt lat="44.12098" lon="3.11866">
        <ele>842.59997558594</ele>
        <time>2012-10-28T11:25:11Z</time>
      </trkpt>
      <trkpt lat="44.121" lon="3.11869">
        <ele>843.20001220703</ele>
        <time>2012-10-28T11:25:13Z</time>
      </trkpt>
      <trkpt lat="44.12104" lon="3.1187">
        <ele>844.59997558594</ele>
        <time>2012-10-28T11:25:19Z</time>
      </trkpt>
      <trkpt lat="44.12103" lon="3.1187">
        <ele>844.79998779297</ele>
        <time>2012-10-28T11:25:20Z</time>
      </trkpt>
      <trkpt lat="44.12103" lon="3.11866">
        <ele>845</ele>
        <time>2012-10-28T11:25:22Z</time>
      </trkpt>
      <trkpt lat="44.12103" lon="3.11865">
        <ele>845</ele>
        <time>2012-10-28T11:25:23Z</time>
      </trkpt>
      <trkpt lat="44.12101" lon="3.11862">
        <ele>844.79998779297</ele>
        <time>2012-10-28T11:25:28Z</time>
      </trkpt>
      <trkpt lat="44.12099" lon="3.11866">
        <ele>843.59997558594</ele>
        <time>2012-10-28T11:25:46Z</time>
      </trkpt>
      <trkpt lat="44.12103" lon="3.11865">
        <ele>843</ele>
        <time>2012-10-28T11:25:58Z</time>
      </trkpt>
      <trkpt lat="44.12104" lon="3.11869">
        <ele>843</ele>
        <time>2012-10-28T11:26:01Z</time>
      </trkpt>
      <trkpt lat="44.12103" lon="3.11868">
        <ele>843.20001220703</ele>
        <time>2012-10-28T11:26:02Z</time>
      </trkpt>
      <trkpt lat="44.12106" lon="3.11874">
        <ele>843</ele>
        <time>2012-10-28T11:26:08Z</time>
      </trkpt>
      <trkpt lat="44.12107" lon="3.11871">
        <ele>843.40002441406</ele>
        <time>2012-10-28T11:26:16Z</time>
      </trkpt>
      <trkpt lat="44.12107" lon="3.11867">
        <ele>843.79998779297</ele>
        <time>2012-10-28T11:26:21Z</time>
      </trkpt>
      <trkpt lat="44.12101" lon="3.11863">
        <ele>843.79998779297</ele>
        <time>2012-10-28T11:26:26Z</time>
      </trkpt>
      <trkpt lat="44.12102" lon="3.11864">
        <ele>844.59997558594</ele>
        <time>2012-10-28T11:26:34Z</time>
      </trkpt>
      <trkpt lat="44.12101" lon="3.11867">
        <ele>845</ele>
        <time>2012-10-28T11:26:39Z</time>
      </trkpt>
      <trkpt lat="44.12103" lon="3.11866">
        <ele>844.79998779297</ele>
        <time>2012-10-28T11:26:46Z</time>
      </trkpt>
      <trkpt lat="44.12107" lon="3.11872">
        <ele>843.79998779297</ele>
        <time>2012-10-28T11:27:02Z</time>
      </trkpt>
      <trkpt lat="44.12106" lon="3.11875">
        <ele>844</ele>
        <time>2012-10-28T11:27:13Z</time>
      </trkpt>
      <trkpt lat="44.12102" lon="3.11873">
        <ele>843.79998779297</ele>
        <time>2012-10-28T11:27:21Z</time>
      </trkpt>
      <trkpt lat="44.12105" lon="3.11874">
        <ele>842.79998779297</ele>
        <time>2012-10-28T11:27:29Z</time>
      </trkpt>
      <trkpt lat="44.12104" lon="3.11872">
        <ele>842.59997558594</ele>
        <time>2012-10-28T11:27:31Z</time>
      </trkpt>
      <trkpt lat="44.12106" lon="3.1187">
        <ele>842.40002441406</ele>
        <time>2012-10-28T11:27:35Z</time>
      </trkpt>
      <trkpt lat="44.12107" lon="3.11871">
        <ele>841.20001220703</ele>
        <time>2012-10-28T11:27:52Z</time>
      </trkpt>
      <trkpt lat="44.12105" lon="3.11871">
        <ele>841.40002441406</ele>
        <time>2012-10-28T11:27:55Z</time>
      </trkpt>
      <trkpt lat="44.12106" lon="3.1187">
        <ele>841.40002441406</ele>
        <time>2012-10-28T11:27:57Z</time>
      </trkpt>
      <trkpt lat="44.12109" lon="3.11877">
        <ele>841.40002441406</ele>
        <time>2012-10-28T11:28:03Z</time>
      </trkpt>
      <trkpt lat="44.12107" lon="3.11876">
        <ele>842.20001220703</ele>
        <time>2012-10-28T11:28:13Z</time>
      </trkpt>
      <trkpt lat="44.12106" lon="3.11873">
        <ele>842.20001220703</ele>
        <time>2012-10-28T11:28:15Z</time>
      </trkpt>
      <trkpt lat="44.12101" lon="3.11872">
        <ele>844</ele>
        <time>2012-10-28T11:28:20Z</time>
      </trkpt>
      <trkpt lat="44.12099" lon="3.11872">
        <ele>844.59997558594</ele>
        <time>2012-10-28T11:28:22Z</time>
      </trkpt>
      <trkpt lat="44.12098" lon="3.11871">
        <ele>845.40002441406</ele>
        <time>2012-10-28T11:28:24Z</time>
      </trkpt>
      <trkpt lat="44.12083" lon="3.11864">
        <ele>847.59997558594</ele>
        <time>2012-10-28T11:28:36Z</time>
      </trkpt>
      <trkpt lat="44.12076" lon="3.11863">
        <ele>848.20001220703</ele>
        <time>2012-10-28T11:28:42Z</time>
      </trkpt>
      <trkpt lat="44.12066" lon="3.11858">
        <ele>848.79998779297</ele>
        <time>2012-10-28T11:28:50Z</time>
      </trkpt>
      <trkpt lat="44.12053" lon="3.1184">
        <ele>849.40002441406</ele>
        <time>2012-10-28T11:29:03Z</time>
      </trkpt>
      <trkpt lat="44.12038" lon="3.11823">
        <ele>850.79998779297</ele>
        <time>2012-10-28T11:29:14Z</time>
      </trkpt>
      <trkpt lat="44.12023" lon="3.11807">
        <ele>852.79998779297</ele>
        <time>2012-10-28T11:29:24Z</time>
      </trkpt>
      <trkpt lat="44.12006" lon="3.11801">
        <ele>853.59997558594</ele>
        <time>2012-10-28T11:29:33Z</time>
      </trkpt>
      <trkpt lat="44.11986" lon="3.11796">
        <ele>853.59997558594</ele>
        <time>2012-10-28T11:29:43Z</time>
      </trkpt>
      <trkpt lat="44.11967" lon="3.11794">
        <ele>852.59997558594</ele>
        <time>2012-10-28T11:29:52Z</time>
      </trkpt>
      <trkpt lat="44.1195" lon="3.11801">
        <ele>851.40002441406</ele>
        <time>2012-10-28T11:30:00Z</time>
      </trkpt>
      <trkpt lat="44.11948" lon="3.11803">
        <ele>851.40002441406</ele>
        <time>2012-10-28T11:30:01Z</time>
      </trkpt>
      <trkpt lat="44.11936" lon="3.1181">
        <ele>850.79998779297</ele>
        <time>2012-10-28T11:30:07Z</time>
      </trkpt>
      <trkpt lat="44.1193" lon="3.11814">
        <ele>850.59997558594</ele>
        <time>2012-10-28T11:30:10Z</time>
      </trkpt>
      <trkpt lat="44.11911" lon="3.11822">
        <ele>849.40002441406</ele>
        <time>2012-10-28T11:30:20Z</time>
      </trkpt>
      <trkpt lat="44.11893" lon="3.11825">
        <ele>847.40002441406</ele>
        <time>2012-10-28T11:30:30Z</time>
      </trkpt>
      <trkpt lat="44.11889" lon="3.11828">
        <ele>847.20001220703</ele>
        <time>2012-10-28T11:30:32Z</time>
      </trkpt>
      <trkpt lat="44.11878" lon="3.11828">
        <ele>845.59997558594</ele>
        <time>2012-10-28T11:30:38Z</time>
      </trkpt>
      <trkpt lat="44.11874" lon="3.1183">
        <ele>845</ele>
        <time>2012-10-28T11:30:40Z</time>
      </trkpt>
      <trkpt lat="44.1186" lon="3.11833">
        <ele>842.59997558594</ele>
        <time>2012-10-28T11:30:49Z</time>
      </trkpt>
      <trkpt lat="44.11853" lon="3.11839">
        <ele>842.40002441406</ele>
        <time>2012-10-28T11:30:54Z</time>
      </trkpt>
      <trkpt lat="44.11852" lon="3.11839">
        <ele>842.40002441406</ele>
        <time>2012-10-28T11:30:55Z</time>
      </trkpt>
      <trkpt lat="44.11835" lon="3.11828">
        <ele>842</ele>
        <time>2012-10-28T11:31:06Z</time>
      </trkpt>
      <trkpt lat="44.11823" lon="3.11807">
        <ele>845</ele>
        <time>2012-10-28T11:31:18Z</time>
      </trkpt>
      <trkpt lat="44.11808" lon="3.11791">
        <ele>847.79998779297</ele>
        <time>2012-10-28T11:31:29Z</time>
      </trkpt>
      <trkpt lat="44.11798" lon="3.11783">
        <ele>849.20001220703</ele>
        <time>2012-10-28T11:31:37Z</time>
      </trkpt>
      <trkpt lat="44.11797" lon="3.11782">
        <ele>849.79998779297</ele>
        <time>2012-10-28T11:31:39Z</time>
      </trkpt>
      <trkpt lat="44.11792" lon="3.11778">
        <ele>850.40002441406</ele>
        <time>2012-10-28T11:31:43Z</time>
      </trkpt>
      <trkpt lat="44.11777" lon="3.11762">
        <ele>852</ele>
        <time>2012-10-28T11:31:53Z</time>
      </trkpt>
      <trkpt lat="44.11761" lon="3.1175">
        <ele>853.79998779297</ele>
        <time>2012-10-28T11:32:01Z</time>
      </trkpt>
      <trkpt lat="44.1176" lon="3.11749">
        <ele>854</ele>
        <time>2012-10-28T11:32:02Z</time>
      </trkpt>
      <trkpt lat="44.11744" lon="3.11739">
        <ele>855.79998779297</ele>
        <time>2012-10-28T11:32:10Z</time>
      </trkpt>
      <trkpt lat="44.11727" lon="3.1173">
        <ele>858.40002441406</ele>
        <time>2012-10-28T11:32:19Z</time>
      </trkpt>
      <trkpt lat="44.11717" lon="3.11727">
        <ele>859.20001220703</ele>
        <time>2012-10-28T11:32:24Z</time>
      </trkpt>
      <trkpt lat="44.11708" lon="3.11722">
        <ele>859.79998779297</ele>
        <time>2012-10-28T11:32:28Z</time>
      </trkpt>
      <trkpt lat="44.11706" lon="3.11721">
        <ele>860</ele>
        <time>2012-10-28T11:32:29Z</time>
      </trkpt>
      <trkpt lat="44.11689" lon="3.11714">
        <ele>861</ele>
        <time>2012-10-28T11:32:37Z</time>
      </trkpt>
      <trkpt lat="44.11672" lon="3.11708">
        <ele>861.79998779297</ele>
        <time>2012-10-28T11:32:45Z</time>
      </trkpt>
      <trkpt lat="44.11654" lon="3.11706">
        <ele>862.20001220703</ele>
        <time>2012-10-28T11:32:53Z</time>
      </trkpt>
      <trkpt lat="44.11635" lon="3.11703">
        <ele>862.20001220703</ele>
        <time>2012-10-28T11:33:01Z</time>
      </trkpt>
      <trkpt lat="44.11615" lon="3.11708">
        <ele>862.59997558594</ele>
        <time>2012-10-28T11:33:09Z</time>
      </trkpt>
      <trkpt lat="44.11597" lon="3.11711">
        <ele>862.59997558594</ele>
        <time>2012-10-28T11:33:17Z</time>
      </trkpt>
      <trkpt lat="44.11579" lon="3.11707">
        <ele>862</ele>
        <time>2012-10-28T11:33:25Z</time>
      </trkpt>
      <trkpt lat="44.11558" lon="3.11704">
        <ele>861.40002441406</ele>
        <time>2012-10-28T11:33:33Z</time>
      </trkpt>
      <trkpt lat="44.1154" lon="3.11694">
        <ele>860.20001220703</ele>
        <time>2012-10-28T11:33:41Z</time>
      </trkpt>
      <trkpt lat="44.11522" lon="3.11684">
        <ele>859.20001220703</ele>
        <time>2012-10-28T11:33:48Z</time>
      </trkpt>
      <trkpt lat="44.11502" lon="3.11675">
        <ele>857.79998779297</ele>
        <time>2012-10-28T11:33:56Z</time>
      </trkpt>
      <trkpt lat="44.11483" lon="3.11671">
        <ele>856.79998779297</ele>
        <time>2012-10-28T11:34:04Z</time>
      </trkpt>
      <trkpt lat="44.11473" lon="3.11672">
        <ele>856.59997558594</ele>
        <time>2012-10-28T11:34:08Z</time>
      </trkpt>
      <trkpt lat="44.11463" lon="3.1167">
        <ele>856.40002441406</ele>
        <time>2012-10-28T11:34:12Z</time>
      </trkpt>
      <trkpt lat="44.11444" lon="3.1166">
        <ele>856</ele>
        <time>2012-10-28T11:34:20Z</time>
      </trkpt>
      <trkpt lat="44.11427" lon="3.11652">
        <ele>856</ele>
        <time>2012-10-28T11:34:28Z</time>
      </trkpt>
      <trkpt lat="44.11407" lon="3.11644">
        <ele>855.79998779297</ele>
        <time>2012-10-28T11:34:36Z</time>
      </trkpt>
      <trkpt lat="44.11389" lon="3.11639">
        <ele>855.20001220703</ele>
        <time>2012-10-28T11:34:44Z</time>
      </trkpt>
      <trkpt lat="44.11386" lon="3.11639">
        <ele>855</ele>
        <time>2012-10-28T11:34:45Z</time>
      </trkpt>
      <trkpt lat="44.11372" lon="3.11632">
        <ele>854.40002441406</ele>
        <time>2012-10-28T11:34:51Z</time>
      </trkpt>
      <trkpt lat="44.11353" lon="3.11626">
        <ele>853.40002441406</ele>
        <time>2012-10-28T11:34:58Z</time>
      </trkpt>
      <trkpt lat="44.11336" lon="3.11619">
        <ele>852.59997558594</ele>
        <time>2012-10-28T11:35:05Z</time>
      </trkpt>
      <trkpt lat="44.11317" lon="3.11612">
        <ele>851.59997558594</ele>
        <time>2012-10-28T11:35:13Z</time>
      </trkpt>
      <trkpt lat="44.11306" lon="3.11608">
        <ele>851.20001220703</ele>
        <time>2012-10-28T11:35:17Z</time>
      </trkpt>
      <trkpt lat="44.11298" lon="3.11607">
        <ele>850.79998779297</ele>
        <time>2012-10-28T11:35:20Z</time>
      </trkpt>
      <trkpt lat="44.11279" lon="3.11604">
        <ele>849.59997558594</ele>
        <time>2012-10-28T11:35:27Z</time>
      </trkpt>
      <trkpt lat="44.11259" lon="3.11608">
        <ele>848.59997558594</ele>
        <time>2012-10-28T11:35:34Z</time>
      </trkpt>
      <trkpt lat="44.11246" lon="3.11611">
        <ele>847.59997558594</ele>
        <time>2012-10-28T11:35:39Z</time>
      </trkpt>
      <trkpt lat="44.11241" lon="3.11612">
        <ele>847.40002441406</ele>
        <time>2012-10-28T11:35:41Z</time>
      </trkpt>
      <trkpt lat="44.1122" lon="3.11619">
        <ele>846.20001220703</ele>
        <time>2012-10-28T11:35:49Z</time>
      </trkpt>
      <trkpt lat="44.112" lon="3.11616">
        <ele>844.59997558594</ele>
        <time>2012-10-28T11:35:57Z</time>
      </trkpt>
      <trkpt lat="44.11181" lon="3.11613">
        <ele>843</ele>
        <time>2012-10-28T11:36:05Z</time>
      </trkpt>
      <trkpt lat="44.11161" lon="3.11606">
        <ele>841.59997558594</ele>
        <time>2012-10-28T11:36:13Z</time>
      </trkpt>
      <trkpt lat="44.11141" lon="3.11601">
        <ele>840.20001220703</ele>
        <time>2012-10-28T11:36:21Z</time>
      </trkpt>
      <trkpt lat="44.11123" lon="3.11597">
        <ele>839</ele>
        <time>2012-10-28T11:36:28Z</time>
      </trkpt>
      <trkpt lat="44.11103" lon="3.11596">
        <ele>837.59997558594</ele>
        <time>2012-10-28T11:36:36Z</time>
      </trkpt>
      <trkpt lat="44.11091" lon="3.11589">
        <ele>836.40002441406</ele>
        <time>2012-10-28T11:36:42Z</time>
      </trkpt>
      <trkpt lat="44.11092" lon="3.11583">
        <ele>836</ele>
        <time>2012-10-28T11:36:44Z</time>
      </trkpt>
      <trkpt lat="44.11099" lon="3.11571">
        <ele>835.20001220703</ele>
        <time>2012-10-28T11:36:49Z</time>
      </trkpt>
      <trkpt lat="44.11103" lon="3.11565">
        <ele>834.59997558594</ele>
        <time>2012-10-28T11:36:52Z</time>
      </trkpt>
      <trkpt lat="44.11105" lon="3.11562">
        <ele>834.40002441406</ele>
        <time>2012-10-28T11:36:53Z</time>
      </trkpt>
      <trkpt lat="44.11109" lon="3.11555">
        <ele>834</ele>
        <time>2012-10-28T11:36:56Z</time>
      </trkpt>
      <trkpt lat="44.11118" lon="3.11542">
        <ele>833</ele>
        <time>2012-10-28T11:37:02Z</time>
      </trkpt>
      <trkpt lat="44.11131" lon="3.11526">
        <ele>832</ele>
        <time>2012-10-28T11:37:10Z</time>
      </trkpt>
      <trkpt lat="44.11145" lon="3.11505">
        <ele>830.79998779297</ele>
        <time>2012-10-28T11:37:20Z</time>
      </trkpt>
      <trkpt lat="44.11157" lon="3.11487">
        <ele>830</ele>
        <time>2012-10-28T11:37:29Z</time>
      </trkpt>
      <trkpt lat="44.11161" lon="3.1148">
        <ele>829.79998779297</ele>
        <time>2012-10-28T11:37:32Z</time>
      </trkpt>
      <trkpt lat="44.11167" lon="3.11472">
        <ele>829.59997558594</ele>
        <time>2012-10-28T11:37:36Z</time>
      </trkpt>
      <trkpt lat="44.11171" lon="3.1147">
        <ele>829.40002441406</ele>
        <time>2012-10-28T11:37:38Z</time>
      </trkpt>
      <trkpt lat="44.11189" lon="3.11462">
        <ele>828.79998779297</ele>
        <time>2012-10-28T11:37:47Z</time>
      </trkpt>
      <trkpt lat="44.11207" lon="3.11454">
        <ele>828.40002441406</ele>
        <time>2012-10-28T11:37:56Z</time>
      </trkpt>
      <trkpt lat="44.11226" lon="3.11449">
        <ele>828</ele>
        <time>2012-10-28T11:38:05Z</time>
      </trkpt>
      <trkpt lat="44.11244" lon="3.11444">
        <ele>827.59997558594</ele>
        <time>2012-10-28T11:38:14Z</time>
      </trkpt>
      <trkpt lat="44.11264" lon="3.11445">
        <ele>827.40002441406</ele>
        <time>2012-10-28T11:38:23Z</time>
      </trkpt>
      <trkpt lat="44.11282" lon="3.11446">
        <ele>827.20001220703</ele>
        <time>2012-10-28T11:38:31Z</time>
      </trkpt>
      <trkpt lat="44.11302" lon="3.11445">
        <ele>827</ele>
        <time>2012-10-28T11:38:39Z</time>
      </trkpt>
      <trkpt lat="44.11321" lon="3.11443">
        <ele>826.79998779297</ele>
        <time>2012-10-28T11:38:47Z</time>
      </trkpt>
      <trkpt lat="44.1134" lon="3.11438">
        <ele>826.59997558594</ele>
        <time>2012-10-28T11:38:54Z</time>
      </trkpt>
      <trkpt lat="44.11355" lon="3.11423">
        <ele>826.40002441406</ele>
        <time>2012-10-28T11:39:01Z</time>
      </trkpt>
      <trkpt lat="44.1137" lon="3.11406">
        <ele>826</ele>
        <time>2012-10-28T11:39:09Z</time>
      </trkpt>
      <trkpt lat="44.11388" lon="3.11391">
        <ele>825.20001220703</ele>
        <time>2012-10-28T11:39:17Z</time>
      </trkpt>
      <trkpt lat="44.11405" lon="3.11376">
        <ele>824</ele>
        <time>2012-10-28T11:39:25Z</time>
      </trkpt>
      <trkpt lat="44.11423" lon="3.11365">
        <ele>822.79998779297</ele>
        <time>2012-10-28T11:39:32Z</time>
      </trkpt>
      <trkpt lat="44.11441" lon="3.11355">
        <ele>821.79998779297</ele>
        <time>2012-10-28T11:39:39Z</time>
      </trkpt>
      <trkpt lat="44.11459" lon="3.11342">
        <ele>820.79998779297</ele>
        <time>2012-10-28T11:39:47Z</time>
      </trkpt>
      <trkpt lat="44.11477" lon="3.1133">
        <ele>820</ele>
        <time>2012-10-28T11:39:55Z</time>
      </trkpt>
      <trkpt lat="44.11494" lon="3.11316">
        <ele>819.59997558594</ele>
        <time>2012-10-28T11:40:02Z</time>
      </trkpt>
      <trkpt lat="44.11509" lon="3.11302">
        <ele>819.20001220703</ele>
        <time>2012-10-28T11:40:09Z</time>
      </trkpt>
      <trkpt lat="44.1152" lon="3.11282">
        <ele>818.40002441406</ele>
        <time>2012-10-28T11:40:17Z</time>
      </trkpt>
      <trkpt lat="44.11521" lon="3.11278">
        <ele>818.20001220703</ele>
        <time>2012-10-28T11:40:19Z</time>
      </trkpt>
      <trkpt lat="44.11512" lon="3.11266">
        <ele>817.79998779297</ele>
        <time>2012-10-28T11:40:23Z</time>
      </trkpt>
      <trkpt lat="44.1151" lon="3.11263">
        <ele>817.59997558594</ele>
        <time>2012-10-28T11:40:24Z</time>
      </trkpt>
      <trkpt lat="44.11496" lon="3.11246">
        <ele>816.40002441406</ele>
        <time>2012-10-28T11:40:32Z</time>
      </trkpt>
      <trkpt lat="44.11482" lon="3.11229">
        <ele>814.40002441406</ele>
        <time>2012-10-28T11:40:41Z</time>
      </trkpt>
      <trkpt lat="44.11477" lon="3.11223">
        <ele>813.79998779297</ele>
        <time>2012-10-28T11:40:44Z</time>
      </trkpt>
      <trkpt lat="44.11469" lon="3.11211">
        <ele>812.20001220703</ele>
        <time>2012-10-28T11:40:50Z</time>
      </trkpt>
      <trkpt lat="44.11469" lon="3.11209">
        <ele>812</ele>
        <time>2012-10-28T11:40:51Z</time>
      </trkpt>
      <trkpt lat="44.11466" lon="3.11206">
        <ele>811.59997558594</ele>
        <time>2012-10-28T11:40:53Z</time>
      </trkpt>
      <trkpt lat="44.11457" lon="3.11208">
        <ele>810.40002441406</ele>
        <time>2012-10-28T11:40:58Z</time>
      </trkpt>
      <trkpt lat="44.11452" lon="3.11207">
        <ele>810</ele>
        <time>2012-10-28T11:41:00Z</time>
      </trkpt>
      <trkpt lat="44.1145" lon="3.11206">
        <ele>809.79998779297</ele>
        <time>2012-10-28T11:41:01Z</time>
      </trkpt>
      <trkpt lat="44.11443" lon="3.11205">
        <ele>808.79998779297</ele>
        <time>2012-10-28T11:41:04Z</time>
      </trkpt>
      <trkpt lat="44.11435" lon="3.112">
        <ele>807.79998779297</ele>
        <time>2012-10-28T11:41:08Z</time>
      </trkpt>
      <trkpt lat="44.11431" lon="3.112">
        <ele>807.20001220703</ele>
        <time>2012-10-28T11:41:10Z</time>
      </trkpt>
      <trkpt lat="44.11415" lon="3.11208">
        <ele>805.20001220703</ele>
        <time>2012-10-28T11:41:17Z</time>
      </trkpt>
      <trkpt lat="44.11413" lon="3.1121">
        <ele>804.79998779297</ele>
        <time>2012-10-28T11:41:18Z</time>
      </trkpt>
      <trkpt lat="44.11396" lon="3.11221">
        <ele>803</ele>
        <time>2012-10-28T11:41:25Z</time>
      </trkpt>
      <trkpt lat="44.11379" lon="3.1123">
        <ele>801.20001220703</ele>
        <time>2012-10-28T11:41:32Z</time>
      </trkpt>
      <trkpt lat="44.11361" lon="3.11233">
        <ele>799.20001220703</ele>
        <time>2012-10-28T11:41:39Z</time>
      </trkpt>
      <trkpt lat="44.1134" lon="3.11232">
        <ele>796.59997558594</ele>
        <time>2012-10-28T11:41:47Z</time>
      </trkpt>
      <trkpt lat="44.1132" lon="3.11234">
        <ele>794</ele>
        <time>2012-10-28T11:41:55Z</time>
      </trkpt>
      <trkpt lat="44.11308" lon="3.11234">
        <ele>792.20001220703</ele>
        <time>2012-10-28T11:42:00Z</time>
      </trkpt>
      <trkpt lat="44.11301" lon="3.11235">
        <ele>791</ele>
        <time>2012-10-28T11:42:03Z</time>
      </trkpt>
      <trkpt lat="44.11283" lon="3.11234">
        <ele>787.79998779297</ele>
        <time>2012-10-28T11:42:11Z</time>
      </trkpt>
      <trkpt lat="44.11266" lon="3.11229">
        <ele>784.59997558594</ele>
        <time>2012-10-28T11:42:19Z</time>
      </trkpt>
      <trkpt lat="44.11245" lon="3.11227">
        <ele>781.40002441406</ele>
        <time>2012-10-28T11:42:27Z</time>
      </trkpt>
      <trkpt lat="44.11234" lon="3.11222">
        <ele>779.59997558594</ele>
        <time>2012-10-28T11:42:32Z</time>
      </trkpt>
      <trkpt lat="44.11229" lon="3.11215">
        <ele>778</ele>
        <time>2012-10-28T11:42:36Z</time>
      </trkpt>
      <trkpt lat="44.11225" lon="3.11212">
        <ele>777</ele>
        <time>2012-10-28T11:42:39Z</time>
      </trkpt>
      <trkpt lat="44.1122" lon="3.11211">
        <ele>775.59997558594</ele>
        <time>2012-10-28T11:42:43Z</time>
      </trkpt>
      <trkpt lat="44.11211" lon="3.11208">
        <ele>773.79998779297</ele>
        <time>2012-10-28T11:42:48Z</time>
      </trkpt>
      <trkpt lat="44.11193" lon="3.11198">
        <ele>771</ele>
        <time>2012-10-28T11:42:57Z</time>
      </trkpt>
      <trkpt lat="44.11187" lon="3.11197">
        <ele>770.20001220703</ele>
        <time>2012-10-28T11:43:00Z</time>
      </trkpt>
      <trkpt lat="44.11179" lon="3.11196">
        <ele>768.79998779297</ele>
        <time>2012-10-28T11:43:04Z</time>
      </trkpt>
      <trkpt lat="44.11175" lon="3.11194">
        <ele>768.20001220703</ele>
        <time>2012-10-28T11:43:06Z</time>
      </trkpt>
      <trkpt lat="44.11156" lon="3.11187">
        <ele>764.79998779297</ele>
        <time>2012-10-28T11:43:16Z</time>
      </trkpt>
      <trkpt lat="44.11139" lon="3.11177">
        <ele>761.20001220703</ele>
        <time>2012-10-28T11:43:26Z</time>
      </trkpt>
      <trkpt lat="44.11121" lon="3.11171">
        <ele>757.20001220703</ele>
        <time>2012-10-28T11:43:35Z</time>
      </trkpt>
      <trkpt lat="44.11111" lon="3.11173">
        <ele>755</ele>
        <time>2012-10-28T11:43:40Z</time>
      </trkpt>
      <trkpt lat="44.11102" lon="3.11178">
        <ele>753.20001220703</ele>
        <time>2012-10-28T11:43:44Z</time>
      </trkpt>
      <trkpt lat="44.11094" lon="3.11184">
        <ele>751.40002441406</ele>
        <time>2012-10-28T11:43:48Z</time>
      </trkpt>
      <trkpt lat="44.11092" lon="3.11184">
        <ele>751</ele>
        <time>2012-10-28T11:43:49Z</time>
      </trkpt>
      <trkpt lat="44.11084" lon="3.11187">
        <ele>749.40002441406</ele>
        <time>2012-10-28T11:43:53Z</time>
      </trkpt>
      <trkpt lat="44.1108" lon="3.1119">
        <ele>748.59997558594</ele>
        <time>2012-10-28T11:43:55Z</time>
      </trkpt>
      <trkpt lat="44.11066" lon="3.11201">
        <ele>745.79998779297</ele>
        <time>2012-10-28T11:44:02Z</time>
      </trkpt>
      <trkpt lat="44.11064" lon="3.11202">
        <ele>745.40002441406</ele>
        <time>2012-10-28T11:44:03Z</time>
      </trkpt>
      <trkpt lat="44.11054" lon="3.11208">
        <ele>744</ele>
        <time>2012-10-28T11:44:07Z</time>
      </trkpt>
      <trkpt lat="44.1105" lon="3.11213">
        <ele>743.20001220703</ele>
        <time>2012-10-28T11:44:09Z</time>
      </trkpt>
      <trkpt lat="44.11037" lon="3.11223">
        <ele>740.59997558594</ele>
        <time>2012-10-28T11:44:16Z</time>
      </trkpt>
      <trkpt lat="44.11032" lon="3.11224">
        <ele>739.79998779297</ele>
        <time>2012-10-28T11:44:18Z</time>
      </trkpt>
      <trkpt lat="44.11015" lon="3.11238">
        <ele>736.59997558594</ele>
        <time>2012-10-28T11:44:27Z</time>
      </trkpt>
      <trkpt lat="44.11013" lon="3.11239">
        <ele>736.20001220703</ele>
        <time>2012-10-28T11:44:28Z</time>
      </trkpt>
      <trkpt lat="44.11" lon="3.11248">
        <ele>733.20001220703</ele>
        <time>2012-10-28T11:44:35Z</time>
      </trkpt>
      <trkpt lat="44.10999" lon="3.1125">
        <ele>732.79998779297</ele>
        <time>2012-10-28T11:44:36Z</time>
      </trkpt>
      <trkpt lat="44.10991" lon="3.11258">
        <ele>730.79998779297</ele>
        <time>2012-10-28T11:44:41Z</time>
      </trkpt>
      <trkpt lat="44.10983" lon="3.11265">
        <ele>729.20001220703</ele>
        <time>2012-10-28T11:44:45Z</time>
      </trkpt>
      <trkpt lat="44.10965" lon="3.11275">
        <ele>725.59997558594</ele>
        <time>2012-10-28T11:44:54Z</time>
      </trkpt>
      <trkpt lat="44.10957" lon="3.11279">
        <ele>723.79998779297</ele>
        <time>2012-10-28T11:44:58Z</time>
      </trkpt>
      <trkpt lat="44.10949" lon="3.11287">
        <ele>721.79998779297</ele>
        <time>2012-10-28T11:45:03Z</time>
      </trkpt>
      <trkpt lat="44.10941" lon="3.11292">
        <ele>719</ele>
        <time>2012-10-28T11:45:09Z</time>
      </trkpt>
      <trkpt lat="44.10939" lon="3.11294">
        <ele>718.20001220703</ele>
        <time>2012-10-28T11:45:11Z</time>
      </trkpt>
      <trkpt lat="44.10933" lon="3.11301">
        <ele>716.20001220703</ele>
        <time>2012-10-28T11:45:16Z</time>
      </trkpt>
      <trkpt lat="44.10931" lon="3.11303">
        <ele>715.40002441406</ele>
        <time>2012-10-28T11:45:18Z</time>
      </trkpt>
      <trkpt lat="44.10931" lon="3.11302">
        <ele>715</ele>
        <time>2012-10-28T11:45:19Z</time>
      </trkpt>
      <trkpt lat="44.10926" lon="3.11304">
        <ele>711.59997558594</ele>
        <time>2012-10-28T11:45:27Z</time>
      </trkpt>
      <trkpt lat="44.10925" lon="3.11304">
        <ele>711.20001220703</ele>
        <time>2012-10-28T11:45:28Z</time>
      </trkpt>
      <trkpt lat="44.10923" lon="3.113">
        <ele>709.59997558594</ele>
        <time>2012-10-28T11:45:32Z</time>
      </trkpt>
      <trkpt lat="44.10922" lon="3.113">
        <ele>709</ele>
        <time>2012-10-28T11:45:33Z</time>
      </trkpt>
      <trkpt lat="44.10919" lon="3.11298">
        <ele>707.79998779297</ele>
        <time>2012-10-28T11:45:36Z</time>
      </trkpt>
      <trkpt lat="44.10917" lon="3.11298">
        <ele>706.59997558594</ele>
        <time>2012-10-28T11:45:39Z</time>
      </trkpt>
      <trkpt lat="44.10913" lon="3.11294">
        <ele>704.79998779297</ele>
        <time>2012-10-28T11:45:43Z</time>
      </trkpt>
      <trkpt lat="44.10909" lon="3.11293">
        <ele>702.79998779297</ele>
        <time>2012-10-28T11:45:48Z</time>
      </trkpt>
      <trkpt lat="44.10906" lon="3.11291">
        <ele>702.20001220703</ele>
        <time>2012-10-28T11:45:50Z</time>
      </trkpt>
      <trkpt lat="44.10902" lon="3.1129">
        <ele>700.79998779297</ele>
        <time>2012-10-28T11:45:54Z</time>
      </trkpt>
      <trkpt lat="44.10891" lon="3.11273">
        <ele>695.40002441406</ele>
        <time>2012-10-28T11:46:10Z</time>
      </trkpt>
      <trkpt lat="44.10886" lon="3.11274">
        <ele>693.40002441406</ele>
        <time>2012-10-28T11:46:15Z</time>
      </trkpt>
      <trkpt lat="44.10875" lon="3.11264">
        <ele>689.79998779297</ele>
        <time>2012-10-28T11:46:24Z</time>
      </trkpt>
      <trkpt lat="44.1087" lon="3.1126">
        <ele>688.40002441406</ele>
        <time>2012-10-28T11:46:28Z</time>
      </trkpt>
      <trkpt lat="44.10869" lon="3.11259">
        <ele>688</ele>
        <time>2012-10-28T11:46:29Z</time>
      </trkpt>
      <trkpt lat="44.10864" lon="3.11255">
        <ele>686.59997558594</ele>
        <time>2012-10-28T11:46:33Z</time>
      </trkpt>
      <trkpt lat="44.1086" lon="3.11252">
        <ele>685.40002441406</ele>
        <time>2012-10-28T11:46:36Z</time>
      </trkpt>
      <trkpt lat="44.10859" lon="3.11251">
        <ele>684.40002441406</ele>
        <time>2012-10-28T11:46:38Z</time>
      </trkpt>
      <trkpt lat="44.10854" lon="3.11252">
        <ele>682.40002441406</ele>
        <time>2012-10-28T11:46:43Z</time>
      </trkpt>
      <trkpt lat="44.10847" lon="3.11249">
        <ele>679</ele>
        <time>2012-10-28T11:46:50Z</time>
      </trkpt>
      <trkpt lat="44.10841" lon="3.11245">
        <ele>676.40002441406</ele>
        <time>2012-10-28T11:46:55Z</time>
      </trkpt>
      <trkpt lat="44.10828" lon="3.11236">
        <ele>671</ele>
        <time>2012-10-28T11:47:05Z</time>
      </trkpt>
      <trkpt lat="44.10823" lon="3.11233">
        <ele>668.79998779297</ele>
        <time>2012-10-28T11:47:09Z</time>
      </trkpt>
      <trkpt lat="44.10822" lon="3.11232">
        <ele>668.20001220703</ele>
        <time>2012-10-28T11:47:10Z</time>
      </trkpt>
      <trkpt lat="44.10821" lon="3.11231">
        <ele>667.59997558594</ele>
        <time>2012-10-28T11:47:11Z</time>
      </trkpt>
      <trkpt lat="44.10815" lon="3.11233">
        <ele>664</ele>
        <time>2012-10-28T11:47:17Z</time>
      </trkpt>
      <trkpt lat="44.10812" lon="3.1124">
        <ele>661.59997558594</ele>
        <time>2012-10-28T11:47:21Z</time>
      </trkpt>
      <trkpt lat="44.10809" lon="3.11241">
        <ele>660.20001220703</ele>
        <time>2012-10-28T11:47:23Z</time>
      </trkpt>
      <trkpt lat="44.10803" lon="3.1124">
        <ele>657.40002441406</ele>
        <time>2012-10-28T11:47:27Z</time>
      </trkpt>
      <trkpt lat="44.10792" lon="3.11236">
        <ele>652.79998779297</ele>
        <time>2012-10-28T11:47:34Z</time>
      </trkpt>
      <trkpt lat="44.10789" lon="3.11234">
        <ele>651.40002441406</ele>
        <time>2012-10-28T11:47:36Z</time>
      </trkpt>
      <trkpt lat="44.10786" lon="3.11233">
        <ele>650</ele>
        <time>2012-10-28T11:47:38Z</time>
      </trkpt>
      <trkpt lat="44.10776" lon="3.11234">
        <ele>645</ele>
        <time>2012-10-28T11:47:45Z</time>
      </trkpt>
      <trkpt lat="44.10774" lon="3.11234">
        <ele>644.40002441406</ele>
        <time>2012-10-28T11:47:46Z</time>
      </trkpt>
      <trkpt lat="44.10772" lon="3.11233">
        <ele>643.79998779297</ele>
        <time>2012-10-28T11:47:47Z</time>
      </trkpt>
      <trkpt lat="44.10754" lon="3.11232">
        <ele>635.59997558594</ele>
        <time>2012-10-28T11:47:59Z</time>
      </trkpt>
      <trkpt lat="44.10752" lon="3.11231">
        <ele>634.79998779297</ele>
        <time>2012-10-28T11:48:00Z</time>
      </trkpt>
      <trkpt lat="44.10749" lon="3.1123">
        <ele>633.59997558594</ele>
        <time>2012-10-28T11:48:02Z</time>
      </trkpt>
      <trkpt lat="44.10742" lon="3.1123">
        <ele>631</ele>
        <time>2012-10-28T11:48:06Z</time>
      </trkpt>
      <trkpt lat="44.10741" lon="3.1123">
        <ele>630.40002441406</ele>
        <time>2012-10-28T11:48:07Z</time>
      </trkpt>
      <trkpt lat="44.10735" lon="3.11232">
        <ele>627.79998779297</ele>
        <time>2012-10-28T11:48:11Z</time>
      </trkpt>
      <trkpt lat="44.10728" lon="3.11235">
        <ele>625.40002441406</ele>
        <time>2012-10-28T11:48:15Z</time>
      </trkpt>
      <trkpt lat="44.10727" lon="3.11235">
        <ele>624.79998779297</ele>
        <time>2012-10-28T11:48:16Z</time>
      </trkpt>
      <trkpt lat="44.10721" lon="3.11235">
        <ele>622.20001220703</ele>
        <time>2012-10-28T11:48:20Z</time>
      </trkpt>
      <trkpt lat="44.10719" lon="3.11235">
        <ele>621</ele>
        <time>2012-10-28T11:48:22Z</time>
      </trkpt>
      <trkpt lat="44.10716" lon="3.11233">
        <ele>619.79998779297</ele>
        <time>2012-10-28T11:48:24Z</time>
      </trkpt>
      <trkpt lat="44.10707" lon="3.11234">
        <ele>617.40002441406</ele>
        <time>2012-10-28T11:48:29Z</time>
      </trkpt>
      <trkpt lat="44.10706" lon="3.11234">
        <ele>617</ele>
        <time>2012-10-28T11:48:30Z</time>
      </trkpt>
      <trkpt lat="44.10699" lon="3.11229">
        <ele>614.40002441406</ele>
        <time>2012-10-28T11:48:35Z</time>
      </trkpt>
      <trkpt lat="44.10697" lon="3.11232">
        <ele>613.40002441406</ele>
        <time>2012-10-28T11:48:37Z</time>
      </trkpt>
      <trkpt lat="44.10695" lon="3.11233">
        <ele>613</ele>
        <time>2012-10-28T11:48:38Z</time>
      </trkpt>
      <trkpt lat="44.10687" lon="3.11234">
        <ele>610.40002441406</ele>
        <time>2012-10-28T11:48:43Z</time>
      </trkpt>
      <trkpt lat="44.10683" lon="3.11236">
        <ele>608.20001220703</ele>
        <time>2012-10-28T11:48:47Z</time>
      </trkpt>
      <trkpt lat="44.10678" lon="3.11238">
        <ele>606.59997558594</ele>
        <time>2012-10-28T11:48:50Z</time>
      </trkpt>
      <trkpt lat="44.1067" lon="3.11242">
        <ele>603.20001220703</ele>
        <time>2012-10-28T11:48:56Z</time>
      </trkpt>
      <trkpt lat="44.10665" lon="3.11243">
        <ele>601.59997558594</ele>
        <time>2012-10-28T11:48:59Z</time>
      </trkpt>
      <trkpt lat="44.10656" lon="3.11247">
        <ele>598.20001220703</ele>
        <time>2012-10-28T11:49:05Z</time>
      </trkpt>
      <trkpt lat="44.10651" lon="3.11239">
        <ele>594.79998779297</ele>
        <time>2012-10-28T11:49:11Z</time>
      </trkpt>
      <trkpt lat="44.10649" lon="3.11226">
        <ele>590.40002441406</ele>
        <time>2012-10-28T11:49:19Z</time>
      </trkpt>
      <trkpt lat="44.10648" lon="3.11225">
        <ele>589.40002441406</ele>
        <time>2012-10-28T11:49:21Z</time>
      </trkpt>
      <trkpt lat="44.10646" lon="3.11221">
        <ele>587</ele>
        <time>2012-10-28T11:49:26Z</time>
      </trkpt>
      <trkpt lat="44.10642" lon="3.11217">
        <ele>584.79998779297</ele>
        <time>2012-10-28T11:49:31Z</time>
      </trkpt>
      <trkpt lat="44.10637" lon="3.1121">
        <ele>581.20001220703</ele>
        <time>2012-10-28T11:49:40Z</time>
      </trkpt>
      <trkpt lat="44.10632" lon="3.11201">
        <ele>578.20001220703</ele>
        <time>2012-10-28T11:49:49Z</time>
      </trkpt>
      <trkpt lat="44.10632" lon="3.11196">
        <ele>576.79998779297</ele>
        <time>2012-10-28T11:49:53Z</time>
      </trkpt>
      <trkpt lat="44.10627" lon="3.11187">
        <ele>573.79998779297</ele>
        <time>2012-10-28T11:50:03Z</time>
      </trkpt>
      <trkpt lat="44.1062" lon="3.11178">
        <ele>571.20001220703</ele>
        <time>2012-10-28T11:50:13Z</time>
      </trkpt>
      <trkpt lat="44.10619" lon="3.11174">
        <ele>570.40002441406</ele>
        <time>2012-10-28T11:50:16Z</time>
      </trkpt>
      <trkpt lat="44.10619" lon="3.11173">
        <ele>569.79998779297</ele>
        <time>2012-10-28T11:50:19Z</time>
      </trkpt>
      <trkpt lat="44.10609" lon="3.11159">
        <ele>567.79998779297</ele>
        <time>2012-10-28T11:50:31Z</time>
      </trkpt>
      <trkpt lat="44.10595" lon="3.11142">
        <ele>566.79998779297</ele>
        <time>2012-10-28T11:50:40Z</time>
      </trkpt>
      <trkpt lat="44.10584" lon="3.1113">
        <ele>566.20001220703</ele>
        <time>2012-10-28T11:50:47Z</time>
      </trkpt>
      <trkpt lat="44.10582" lon="3.11126">
        <ele>566.20001220703</ele>
        <time>2012-10-28T11:50:49Z</time>
      </trkpt>
      <trkpt lat="44.1058" lon="3.11113">
        <ele>566</ele>
        <time>2012-10-28T11:50:54Z</time>
      </trkpt>
      <trkpt lat="44.10582" lon="3.11107">
        <ele>565.79998779297</ele>
        <time>2012-10-28T11:50:58Z</time>
      </trkpt>
      <trkpt lat="44.10585" lon="3.11101">
        <ele>565.59997558594</ele>
        <time>2012-10-28T11:51:03Z</time>
      </trkpt>
      <trkpt lat="44.10588" lon="3.11091">
        <ele>565.40002441406</ele>
        <time>2012-10-28T11:51:10Z</time>
      </trkpt>
      <trkpt lat="44.10591" lon="3.11088">
        <ele>565.40002441406</ele>
        <time>2012-10-28T11:51:13Z</time>
      </trkpt>
      <trkpt lat="44.10593" lon="3.1108">
        <ele>565.20001220703</ele>
        <time>2012-10-28T11:51:17Z</time>
      </trkpt>
      <trkpt lat="44.10593" lon="3.11078">
        <ele>565.20001220703</ele>
        <time>2012-10-28T11:51:18Z</time>
      </trkpt>
      <trkpt lat="44.10595" lon="3.11058">
        <ele>565.20001220703</ele>
        <time>2012-10-28T11:51:26Z</time>
      </trkpt>
      <trkpt lat="44.10596" lon="3.11053">
        <ele>565.20001220703</ele>
        <time>2012-10-28T11:51:28Z</time>
      </trkpt>
      <trkpt lat="44.10603" lon="3.11042">
        <ele>565.59997558594</ele>
        <time>2012-10-28T11:51:35Z</time>
      </trkpt>
      <trkpt lat="44.10608" lon="3.11032">
        <ele>565.79998779297</ele>
        <time>2012-10-28T11:51:40Z</time>
      </trkpt>
      <trkpt lat="44.10605" lon="3.11006">
        <ele>566.59997558594</ele>
        <time>2012-10-28T11:51:49Z</time>
      </trkpt>
      <trkpt lat="44.10606" lon="3.11004">
        <ele>566.59997558594</ele>
        <time>2012-10-28T11:51:50Z</time>
      </trkpt>
      <trkpt lat="44.1061" lon="3.10995">
        <ele>567</ele>
        <time>2012-10-28T11:51:54Z</time>
      </trkpt>
      <trkpt lat="44.10609" lon="3.10983">
        <ele>567.40002441406</ele>
        <time>2012-10-28T11:51:58Z</time>
      </trkpt>
      <trkpt lat="44.10609" lon="3.10961">
        <ele>568.40002441406</ele>
        <time>2012-10-28T11:52:10Z</time>
      </trkpt>
      <trkpt lat="44.1061" lon="3.10957">
        <ele>568.40002441406</ele>
        <time>2012-10-28T11:52:12Z</time>
      </trkpt>
      <trkpt lat="44.10612" lon="3.10952">
        <ele>568.79998779297</ele>
        <time>2012-10-28T11:52:16Z</time>
      </trkpt>
      <trkpt lat="44.10608" lon="3.10933">
        <ele>569.79998779297</ele>
        <time>2012-10-28T11:52:24Z</time>
      </trkpt>
      <trkpt lat="44.10609" lon="3.10923">
        <ele>570.40002441406</ele>
        <time>2012-10-28T11:52:28Z</time>
      </trkpt>
      <trkpt lat="44.10615" lon="3.10909">
        <ele>571.20001220703</ele>
        <time>2012-10-28T11:52:34Z</time>
      </trkpt>
      <trkpt lat="44.10617" lon="3.10904">
        <ele>571.59997558594</ele>
        <time>2012-10-28T11:52:38Z</time>
      </trkpt>
      <trkpt lat="44.1062" lon="3.10887">
        <ele>573</ele>
        <time>2012-10-28T11:52:48Z</time>
      </trkpt>
      <trkpt lat="44.10622" lon="3.10885">
        <ele>573.20001220703</ele>
        <time>2012-10-28T11:52:49Z</time>
      </trkpt>
      <trkpt lat="44.10622" lon="3.10885">
        <ele>573.40002441406</ele>
        <time>2012-10-28T11:52:50Z</time>
      </trkpt>
      <trkpt lat="44.10633" lon="3.10869">
        <ele>575</ele>
        <time>2012-10-28T11:53:03Z</time>
      </trkpt>
      <trkpt lat="44.10634" lon="3.10868">
        <ele>575.20001220703</ele>
        <time>2012-10-28T11:53:04Z</time>
      </trkpt>
      <trkpt lat="44.10635" lon="3.10862">
        <ele>575.79998779297</ele>
        <time>2012-10-28T11:53:08Z</time>
      </trkpt>
      <trkpt lat="44.10639" lon="3.10853">
        <ele>577.79998779297</ele>
        <time>2012-10-28T11:53:18Z</time>
      </trkpt>
      <trkpt lat="44.10639" lon="3.10852">
        <ele>577.79998779297</ele>
        <time>2012-10-28T11:53:19Z</time>
      </trkpt>
      <trkpt lat="44.10639" lon="3.10845">
        <ele>579.40002441406</ele>
        <time>2012-10-28T11:53:25Z</time>
      </trkpt>
      <trkpt lat="44.10643" lon="3.10832">
        <ele>580.40002441406</ele>
        <time>2012-10-28T11:53:31Z</time>
      </trkpt>
      <trkpt lat="44.1065" lon="3.10826">
        <ele>581.20001220703</ele>
        <time>2012-10-28T11:53:35Z</time>
      </trkpt>
      <trkpt lat="44.10651" lon="3.10826">
        <ele>581.40002441406</ele>
        <time>2012-10-28T11:53:36Z</time>
      </trkpt>
      <trkpt lat="44.10658" lon="3.10803">
        <ele>582.40002441406</ele>
        <time>2012-10-28T11:53:50Z</time>
      </trkpt>
      <trkpt lat="44.10661" lon="3.10777">
        <ele>583.79998779297</ele>
        <time>2012-10-28T11:54:05Z</time>
      </trkpt>
      <trkpt lat="44.10662" lon="3.10775">
        <ele>583.79998779297</ele>
        <time>2012-10-28T11:54:06Z</time>
      </trkpt>
      <trkpt lat="44.10673" lon="3.10758">
        <ele>584.59997558594</ele>
        <time>2012-10-28T11:54:14Z</time>
      </trkpt>
      <trkpt lat="44.10676" lon="3.10746">
        <ele>585.20001220703</ele>
        <time>2012-10-28T11:54:19Z</time>
      </trkpt>
      <trkpt lat="44.10676" lon="3.10734">
        <ele>585.79998779297</ele>
        <time>2012-10-28T11:54:23Z</time>
      </trkpt>
      <trkpt lat="44.10676" lon="3.10732">
        <ele>586</ele>
        <time>2012-10-28T11:54:24Z</time>
      </trkpt>
      <trkpt lat="44.10677" lon="3.10715">
        <ele>587</ele>
        <time>2012-10-28T11:54:31Z</time>
      </trkpt>
      <trkpt lat="44.10676" lon="3.10707">
        <ele>588.20001220703</ele>
        <time>2012-10-28T11:54:36Z</time>
      </trkpt>
      <trkpt lat="44.10671" lon="3.10685">
        <ele>589.79998779297</ele>
        <time>2012-10-28T11:54:50Z</time>
      </trkpt>
      <trkpt lat="44.10672" lon="3.10683">
        <ele>590</ele>
        <time>2012-10-28T11:54:51Z</time>
      </trkpt>
      <trkpt lat="44.10675" lon="3.10671">
        <ele>591</ele>
        <time>2012-10-28T11:54:59Z</time>
      </trkpt>
      <trkpt lat="44.1068" lon="3.10661">
        <ele>591.79998779297</ele>
        <time>2012-10-28T11:55:06Z</time>
      </trkpt>
      <trkpt lat="44.10693" lon="3.1065">
        <ele>592.40002441406</ele>
        <time>2012-10-28T11:55:16Z</time>
      </trkpt>
      <trkpt lat="44.10695" lon="3.10645">
        <ele>592.40002441406</ele>
        <time>2012-10-28T11:55:18Z</time>
      </trkpt>
      <trkpt lat="44.10696" lon="3.10636">
        <ele>592.59997558594</ele>
        <time>2012-10-28T11:55:21Z</time>
      </trkpt>
      <trkpt lat="44.10688" lon="3.10622">
        <ele>593.20001220703</ele>
        <time>2012-10-28T11:55:26Z</time>
      </trkpt>
      <trkpt lat="44.10686" lon="3.10605">
        <ele>593.59997558594</ele>
        <time>2012-10-28T11:55:31Z</time>
      </trkpt>
      <trkpt lat="44.10687" lon="3.10598">
        <ele>593.79998779297</ele>
        <time>2012-10-28T11:55:33Z</time>
      </trkpt>
      <trkpt lat="44.10691" lon="3.10574">
        <ele>594.20001220703</ele>
        <time>2012-10-28T11:55:40Z</time>
      </trkpt>
      <trkpt lat="44.1069" lon="3.10545">
        <ele>594.40002441406</ele>
        <time>2012-10-28T11:55:48Z</time>
      </trkpt>
      <trkpt lat="44.10688" lon="3.10525">
        <ele>594.40002441406</ele>
        <time>2012-10-28T11:55:54Z</time>
      </trkpt>
      <trkpt lat="44.10687" lon="3.10519">
        <ele>594.40002441406</ele>
        <time>2012-10-28T11:55:56Z</time>
      </trkpt>
      <trkpt lat="44.10682" lon="3.10495">
        <ele>594.20001220703</ele>
        <time>2012-10-28T11:56:03Z</time>
      </trkpt>
      <trkpt lat="44.10679" lon="3.1047">
        <ele>593.40002441406</ele>
        <time>2012-10-28T11:56:12Z</time>
      </trkpt>
      <trkpt lat="44.10674" lon="3.10445">
        <ele>592.40002441406</ele>
        <time>2012-10-28T11:56:21Z</time>
      </trkpt>
      <trkpt lat="44.10676" lon="3.1042">
        <ele>590.79998779297</ele>
        <time>2012-10-28T11:56:35Z</time>
      </trkpt>
      <trkpt lat="44.10676" lon="3.10419">
        <ele>590.59997558594</ele>
        <time>2012-10-28T11:56:36Z</time>
      </trkpt>
      <trkpt lat="44.10678" lon="3.10414">
        <ele>590.20001220703</ele>
        <time>2012-10-28T11:56:40Z</time>
      </trkpt>
      <trkpt lat="44.10681" lon="3.10407">
        <ele>589.79998779297</ele>
        <time>2012-10-28T11:56:45Z</time>
      </trkpt>
      <trkpt lat="44.10682" lon="3.10405">
        <ele>589.59997558594</ele>
        <time>2012-10-28T11:56:47Z</time>
      </trkpt>
      <trkpt lat="44.10685" lon="3.10401">
        <ele>589.40002441406</ele>
        <time>2012-10-28T11:56:52Z</time>
      </trkpt>
      <trkpt lat="44.10685" lon="3.10399">
        <ele>589.20001220703</ele>
        <time>2012-10-28T11:56:54Z</time>
      </trkpt>
      <trkpt lat="44.10688" lon="3.10392">
        <ele>588.79998779297</ele>
        <time>2012-10-28T11:57:00Z</time>
      </trkpt>
      <trkpt lat="44.10688" lon="3.10391">
        <ele>588.79998779297</ele>
        <time>2012-10-28T11:57:01Z</time>
      </trkpt>
      <trkpt lat="44.1069" lon="3.10389">
        <ele>588.79998779297</ele>
        <time>2012-10-28T11:57:04Z</time>
      </trkpt>
      <trkpt lat="44.1069" lon="3.10383">
        <ele>588.59997558594</ele>
        <time>2012-10-28T11:57:08Z</time>
      </trkpt>
      <trkpt lat="44.10691" lon="3.10379">
        <ele>588.59997558594</ele>
        <time>2012-10-28T11:57:11Z</time>
      </trkpt>
      <trkpt lat="44.10692" lon="3.10375">
        <ele>588.40002441406</ele>
        <time>2012-10-28T11:57:13Z</time>
      </trkpt>
      <trkpt lat="44.10693" lon="3.1037">
        <ele>588.40002441406</ele>
        <time>2012-10-28T11:57:16Z</time>
      </trkpt>
      <trkpt lat="44.10694" lon="3.10354">
        <ele>588.59997558594</ele>
        <time>2012-10-28T11:57:25Z</time>
      </trkpt>
      <trkpt lat="44.10695" lon="3.10351">
        <ele>588.79998779297</ele>
        <time>2012-10-28T11:57:28Z</time>
      </trkpt>
      <trkpt lat="44.10696" lon="3.10348">
        <ele>588.79998779297</ele>
        <time>2012-10-28T11:57:30Z</time>
      </trkpt>
      <trkpt lat="44.10698" lon="3.10336">
        <ele>589.79998779297</ele>
        <time>2012-10-28T11:57:38Z</time>
      </trkpt>
      <trkpt lat="44.10699" lon="3.10329">
        <ele>590.59997558594</ele>
        <time>2012-10-28T11:57:43Z</time>
      </trkpt>
      <trkpt lat="44.107" lon="3.10327">
        <ele>590.79998779297</ele>
        <time>2012-10-28T11:57:45Z</time>
      </trkpt>
      <trkpt lat="44.10701" lon="3.10321">
        <ele>591.59997558594</ele>
        <time>2012-10-28T11:57:50Z</time>
      </trkpt>
      <trkpt lat="44.10703" lon="3.10315">
        <ele>592.59997558594</ele>
        <time>2012-10-28T11:57:56Z</time>
      </trkpt>
      <trkpt lat="44.10703" lon="3.10305">
        <ele>594.20001220703</ele>
        <time>2012-10-28T11:58:06Z</time>
      </trkpt>
      <trkpt lat="44.10703" lon="3.10303">
        <ele>594.40002441406</ele>
        <time>2012-10-28T11:58:07Z</time>
      </trkpt>
      <trkpt lat="44.10707" lon="3.10297">
        <ele>595.59997558594</ele>
        <time>2012-10-28T11:58:15Z</time>
      </trkpt>
      <trkpt lat="44.10709" lon="3.10283">
        <ele>597.79998779297</ele>
        <time>2012-10-28T11:58:28Z</time>
      </trkpt>
      <trkpt lat="44.1071" lon="3.10278">
        <ele>598.20001220703</ele>
        <time>2012-10-28T11:58:31Z</time>
      </trkpt>
      <trkpt lat="44.10715" lon="3.10261">
        <ele>599.59997558594</ele>
        <time>2012-10-28T11:58:44Z</time>
      </trkpt>
      <trkpt lat="44.10715" lon="3.1026">
        <ele>599.79998779297</ele>
        <time>2012-10-28T11:58:46Z</time>
      </trkpt>
      <trkpt lat="44.10716" lon="3.10259">
        <ele>599.79998779297</ele>
        <time>2012-10-28T11:58:47Z</time>
      </trkpt>
      <trkpt lat="44.10719" lon="3.10246">
        <ele>601</ele>
        <time>2012-10-28T11:58:57Z</time>
      </trkpt>
      <trkpt lat="44.10725" lon="3.10239">
        <ele>602.59997558594</ele>
        <time>2012-10-28T11:59:10Z</time>
      </trkpt>
      <trkpt lat="44.10727" lon="3.10232">
        <ele>603.59997558594</ele>
        <time>2012-10-28T11:59:16Z</time>
      </trkpt>
      <trkpt lat="44.10731" lon="3.10218">
        <ele>606</ele>
        <time>2012-10-28T11:59:27Z</time>
      </trkpt>
      <trkpt lat="44.10732" lon="3.10216">
        <ele>606.59997558594</ele>
        <time>2012-10-28T11:59:30Z</time>
      </trkpt>
      <trkpt lat="44.10735" lon="3.10209">
        <ele>607.59997558594</ele>
        <time>2012-10-28T11:59:36Z</time>
      </trkpt>
      <trkpt lat="44.1074" lon="3.10193">
        <ele>610.20001220703</ele>
        <time>2012-10-28T11:59:49Z</time>
      </trkpt>
      <trkpt lat="44.10745" lon="3.10183">
        <ele>612.20001220703</ele>
        <time>2012-10-28T11:59:58Z</time>
      </trkpt>
      <trkpt lat="44.1075" lon="3.10171">
        <ele>615</ele>
        <time>2012-10-28T12:00:09Z</time>
      </trkpt>
      <trkpt lat="44.10752" lon="3.10165">
        <ele>616.40002441406</ele>
        <time>2012-10-28T12:00:14Z</time>
      </trkpt>
      <trkpt lat="44.10754" lon="3.10162">
        <ele>617.40002441406</ele>
        <time>2012-10-28T12:00:18Z</time>
      </trkpt>
      <trkpt lat="44.10755" lon="3.10161">
        <ele>617.79998779297</ele>
        <time>2012-10-28T12:00:20Z</time>
      </trkpt>
      <trkpt lat="44.1076" lon="3.1015">
        <ele>621.20001220703</ele>
        <time>2012-10-28T12:00:33Z</time>
      </trkpt>
      <trkpt lat="44.10762" lon="3.10142">
        <ele>623.20001220703</ele>
        <time>2012-10-28T12:00:40Z</time>
      </trkpt>
      <trkpt lat="44.1077" lon="3.1013">
        <ele>628.40002441406</ele>
        <time>2012-10-28T12:00:57Z</time>
      </trkpt>
      <trkpt lat="44.10771" lon="3.10128">
        <ele>629.20001220703</ele>
        <time>2012-10-28T12:01:00Z</time>
      </trkpt>
      <trkpt lat="44.10779" lon="3.10138">
        <ele>633.20001220703</ele>
        <time>2012-10-28T12:01:24Z</time>
      </trkpt>
      <trkpt lat="44.10788" lon="3.10161">
        <ele>643.40002441406</ele>
        <time>2012-10-28T12:02:05Z</time>
      </trkpt>
      <trkpt lat="44.10798" lon="3.10181">
        <ele>650.79998779297</ele>
        <time>2012-10-28T12:02:32Z</time>
      </trkpt>
      <trkpt lat="44.1081" lon="3.10193">
        <ele>660.59997558594</ele>
        <time>2012-10-28T12:03:13Z</time>
      </trkpt>
      <trkpt lat="44.10818" lon="3.10214">
        <ele>672</ele>
        <time>2012-10-28T12:03:55Z</time>
      </trkpt>
      <trkpt lat="44.10823" lon="3.10215">
        <ele>684.20001220703</ele>
        <time>2012-10-28T12:04:31Z</time>
      </trkpt>
      <trkpt lat="44.10828" lon="3.10215">
        <ele>688.59997558594</ele>
        <time>2012-10-28T12:04:49Z</time>
      </trkpt>
      <trkpt lat="44.10837" lon="3.10199">
        <ele>699.20001220703</ele>
        <time>2012-10-28T12:05:41Z</time>
      </trkpt>
      <trkpt lat="44.10843" lon="3.10196">
        <ele>702.20001220703</ele>
        <time>2012-10-28T12:06:03Z</time>
      </trkpt>
      <trkpt lat="44.10851" lon="3.10202">
        <ele>708.59997558594</ele>
        <time>2012-10-28T12:06:25Z</time>
      </trkpt>
      <trkpt lat="44.10847" lon="3.1018">
        <ele>718.59997558594</ele>
        <time>2012-10-28T12:07:18Z</time>
      </trkpt>
      <trkpt lat="44.10845" lon="3.10157">
        <ele>721</ele>
        <time>2012-10-28T12:07:40Z</time>
      </trkpt>
      <trkpt lat="44.10845" lon="3.10153">
        <ele>721.20001220703</ele>
        <time>2012-10-28T12:07:43Z</time>
      </trkpt>
      <trkpt lat="44.10841" lon="3.10144">
        <ele>722</ele>
        <time>2012-10-28T12:07:49Z</time>
      </trkpt>
      <trkpt lat="44.10843" lon="3.10139">
        <ele>722.79998779297</ele>
        <time>2012-10-28T12:07:55Z</time>
      </trkpt>
      <trkpt lat="44.10845" lon="3.10136">
        <ele>722.79998779297</ele>
        <time>2012-10-28T12:07:59Z</time>
      </trkpt>
      <trkpt lat="44.10849" lon="3.10116">
        <ele>723.40002441406</ele>
        <time>2012-10-28T12:08:12Z</time>
      </trkpt>
      <trkpt lat="44.10849" lon="3.10111">
        <ele>723.40002441406</ele>
        <time>2012-10-28T12:08:15Z</time>
      </trkpt>
      <trkpt lat="44.1086" lon="3.10091">
        <ele>724.20001220703</ele>
        <time>2012-10-28T12:08:31Z</time>
      </trkpt>
      <trkpt lat="44.10863" lon="3.10084">
        <ele>724.59997558594</ele>
        <time>2012-10-28T12:08:35Z</time>
      </trkpt>
      <trkpt lat="44.10866" lon="3.10074">
        <ele>725</ele>
        <time>2012-10-28T12:08:39Z</time>
      </trkpt>
      <trkpt lat="44.10867" lon="3.10068">
        <ele>725.40002441406</ele>
        <time>2012-10-28T12:08:41Z</time>
      </trkpt>
      <trkpt lat="44.10868" lon="3.10063">
        <ele>725.59997558594</ele>
        <time>2012-10-28T12:08:43Z</time>
      </trkpt>
      <trkpt lat="44.10867" lon="3.10054">
        <ele>726.20001220703</ele>
        <time>2012-10-28T12:08:48Z</time>
      </trkpt>
      <trkpt lat="44.10861" lon="3.10047">
        <ele>726.59997558594</ele>
        <time>2012-10-28T12:08:53Z</time>
      </trkpt>
      <trkpt lat="44.1086" lon="3.10044">
        <ele>726.79998779297</ele>
        <time>2012-10-28T12:08:54Z</time>
      </trkpt>
      <trkpt lat="44.10859" lon="3.10038">
        <ele>726.79998779297</ele>
        <time>2012-10-28T12:08:56Z</time>
      </trkpt>
      <trkpt lat="44.10865" lon="3.10024">
        <ele>726.79998779297</ele>
        <time>2012-10-28T12:09:03Z</time>
      </trkpt>
      <trkpt lat="44.10867" lon="3.10019">
        <ele>727</ele>
        <time>2012-10-28T12:09:05Z</time>
      </trkpt>
      <trkpt lat="44.10873" lon="3.10001">
        <ele>727</ele>
        <time>2012-10-28T12:09:12Z</time>
      </trkpt>
      <trkpt lat="44.10878" lon="3.09983">
        <ele>727.40002441406</ele>
        <time>2012-10-28T12:09:19Z</time>
      </trkpt>
      <trkpt lat="44.10877" lon="3.09976">
        <ele>727.40002441406</ele>
        <time>2012-10-28T12:09:23Z</time>
      </trkpt>
      <trkpt lat="44.10878" lon="3.09973">
        <ele>727.59997558594</ele>
        <time>2012-10-28T12:09:25Z</time>
      </trkpt>
      <trkpt lat="44.10879" lon="3.09973">
        <ele>727.59997558594</ele>
        <time>2012-10-28T12:09:26Z</time>
      </trkpt>
      <trkpt lat="44.10888" lon="3.09979">
        <ele>727.40002441406</ele>
        <time>2012-10-28T12:09:45Z</time>
      </trkpt>
      <trkpt lat="44.10892" lon="3.09981">
        <ele>727.40002441406</ele>
        <time>2012-10-28T12:09:52Z</time>
      </trkpt>
      <trkpt lat="44.10902" lon="3.09972">
        <ele>734.20001220703</ele>
        <time>2012-10-28T12:10:37Z</time>
      </trkpt>
      <trkpt lat="44.10909" lon="3.09989">
        <ele>737.20001220703</ele>
        <time>2012-10-28T12:11:02Z</time>
      </trkpt>
      <trkpt lat="44.1092" lon="3.10008">
        <ele>747.20001220703</ele>
        <time>2012-10-28T12:11:52Z</time>
      </trkpt>
      <trkpt lat="44.10931" lon="3.10026">
        <ele>757</ele>
        <time>2012-10-28T12:12:35Z</time>
      </trkpt>
      <trkpt lat="44.10932" lon="3.10038">
        <ele>762.20001220703</ele>
        <time>2012-10-28T12:12:57Z</time>
      </trkpt>
      <trkpt lat="44.10932" lon="3.10046">
        <ele>763.79998779297</ele>
        <time>2012-10-28T12:13:07Z</time>
      </trkpt>
      <trkpt lat="44.10939" lon="3.10038">
        <ele>769</ele>
        <time>2012-10-28T12:13:33Z</time>
      </trkpt>
      <trkpt lat="44.10941" lon="3.1004">
        <ele>769.79998779297</ele>
        <time>2012-10-28T12:13:38Z</time>
      </trkpt>
      <trkpt lat="44.10952" lon="3.10058">
        <ele>776.40002441406</ele>
        <time>2012-10-28T12:14:10Z</time>
      </trkpt>
      <trkpt lat="44.10954" lon="3.10078">
        <ele>782.59997558594</ele>
        <time>2012-10-28T12:14:40Z</time>
      </trkpt>
      <trkpt lat="44.10954" lon="3.10079">
        <ele>782.79998779297</ele>
        <time>2012-10-28T12:14:41Z</time>
      </trkpt>
      <trkpt lat="44.10964" lon="3.1007">
        <ele>791.79998779297</ele>
        <time>2012-10-28T12:15:18Z</time>
      </trkpt>
      <trkpt lat="44.10966" lon="3.10073">
        <ele>793</ele>
        <time>2012-10-28T12:15:23Z</time>
      </trkpt>
      <trkpt lat="44.10972" lon="3.10092">
        <ele>800</ele>
        <time>2012-10-28T12:15:57Z</time>
      </trkpt>
      <trkpt lat="44.10984" lon="3.10098">
        <ele>803.79998779297</ele>
        <time>2012-10-28T12:16:16Z</time>
      </trkpt>
      <trkpt lat="44.10987" lon="3.10102">
        <ele>805</ele>
        <time>2012-10-28T12:16:22Z</time>
      </trkpt>
      <trkpt lat="44.10994" lon="3.10109">
        <ele>807.59997558594</ele>
        <time>2012-10-28T12:16:33Z</time>
      </trkpt>
      <trkpt lat="44.10999" lon="3.10119">
        <ele>810.79998779297</ele>
        <time>2012-10-28T12:16:45Z</time>
      </trkpt>
      <trkpt lat="44.11002" lon="3.10122">
        <ele>811.59997558594</ele>
        <time>2012-10-28T12:16:48Z</time>
      </trkpt>
      <trkpt lat="44.11006" lon="3.10142">
        <ele>815.20001220703</ele>
        <time>2012-10-28T12:17:03Z</time>
      </trkpt>
      <trkpt lat="44.1101" lon="3.10166">
        <ele>818.79998779297</ele>
        <time>2012-10-28T12:17:20Z</time>
      </trkpt>
      <trkpt lat="44.11013" lon="3.10187">
        <ele>821.79998779297</ele>
        <time>2012-10-28T12:17:35Z</time>
      </trkpt>
      <trkpt lat="44.11013" lon="3.10192">
        <ele>822.59997558594</ele>
        <time>2012-10-28T12:17:39Z</time>
      </trkpt>
      <trkpt lat="44.11014" lon="3.10196">
        <ele>823.20001220703</ele>
        <time>2012-10-28T12:17:42Z</time>
      </trkpt>
      <trkpt lat="44.11018" lon="3.10217">
        <ele>828.40002441406</ele>
        <time>2012-10-28T12:18:04Z</time>
      </trkpt>
      <trkpt lat="44.11029" lon="3.10239">
        <ele>832.20001220703</ele>
        <time>2012-10-28T12:18:20Z</time>
      </trkpt>
      <trkpt lat="44.11043" lon="3.10257">
        <ele>834.20001220703</ele>
        <time>2012-10-28T12:18:29Z</time>
      </trkpt>
      <trkpt lat="44.1106" lon="3.10268">
        <ele>835.59997558594</ele>
        <time>2012-10-28T12:18:37Z</time>
      </trkpt>
      <trkpt lat="44.11076" lon="3.1027">
        <ele>836.20001220703</ele>
        <time>2012-10-28T12:18:45Z</time>
      </trkpt>
      <trkpt lat="44.11077" lon="3.10272">
        <ele>836.20001220703</ele>
        <time>2012-10-28T12:18:46Z</time>
      </trkpt>
      <trkpt lat="44.11079" lon="3.10281">
        <ele>836.20001220703</ele>
        <time>2012-10-28T12:18:49Z</time>
      </trkpt>
      <trkpt lat="44.11082" lon="3.10293">
        <ele>836.20001220703</ele>
        <time>2012-10-28T12:18:53Z</time>
      </trkpt>
      <trkpt lat="44.11083" lon="3.10298">
        <ele>836.20001220703</ele>
        <time>2012-10-28T12:18:55Z</time>
      </trkpt>
      <trkpt lat="44.11089" lon="3.10324">
        <ele>836</ele>
        <time>2012-10-28T12:19:04Z</time>
      </trkpt>
      <trkpt lat="44.11091" lon="3.1033">
        <ele>835.79998779297</ele>
        <time>2012-10-28T12:19:07Z</time>
      </trkpt>
      <trkpt lat="44.111" lon="3.10345">
        <ele>835.59997558594</ele>
        <time>2012-10-28T12:19:14Z</time>
      </trkpt>
      <trkpt lat="44.11113" lon="3.10365">
        <ele>835</ele>
        <time>2012-10-28T12:19:24Z</time>
      </trkpt>
      <trkpt lat="44.11123" lon="3.10385">
        <ele>834.59997558594</ele>
        <time>2012-10-28T12:19:32Z</time>
      </trkpt>
      <trkpt lat="44.11133" lon="3.10399">
        <ele>834</ele>
        <time>2012-10-28T12:19:39Z</time>
      </trkpt>
      <trkpt lat="44.11137" lon="3.10401">
        <ele>833.79998779297</ele>
        <time>2012-10-28T12:19:41Z</time>
      </trkpt>
      <trkpt lat="44.11144" lon="3.10412">
        <ele>833.59997558594</ele>
        <time>2012-10-28T12:19:45Z</time>
      </trkpt>
      <trkpt lat="44.11149" lon="3.10421">
        <ele>833.20001220703</ele>
        <time>2012-10-28T12:19:49Z</time>
      </trkpt>
      <trkpt lat="44.1116" lon="3.10441">
        <ele>832.40002441406</ele>
        <time>2012-10-28T12:19:57Z</time>
      </trkpt>
      <trkpt lat="44.11162" lon="3.10448">
        <ele>832.20001220703</ele>
        <time>2012-10-28T12:20:00Z</time>
      </trkpt>
      <trkpt lat="44.11174" lon="3.10442">
        <ele>831.59997558594</ele>
        <time>2012-10-28T12:20:06Z</time>
      </trkpt>
      <trkpt lat="44.11185" lon="3.10431">
        <ele>831.40002441406</ele>
        <time>2012-10-28T12:20:11Z</time>
      </trkpt>
      <trkpt lat="44.1119" lon="3.10429">
        <ele>831.20001220703</ele>
        <time>2012-10-28T12:20:13Z</time>
      </trkpt>
      <trkpt lat="44.11206" lon="3.10418">
        <ele>830.20001220703</ele>
        <time>2012-10-28T12:20:22Z</time>
      </trkpt>
      <trkpt lat="44.11224" lon="3.10412">
        <ele>829</ele>
        <time>2012-10-28T12:20:30Z</time>
      </trkpt>
      <trkpt lat="44.1124" lon="3.10397">
        <ele>827.59997558594</ele>
        <time>2012-10-28T12:20:39Z</time>
      </trkpt>
      <trkpt lat="44.11249" lon="3.10389">
        <ele>826.20001220703</ele>
        <time>2012-10-28T12:20:47Z</time>
      </trkpt>
      <trkpt lat="44.11251" lon="3.10379">
        <ele>824.59997558594</ele>
        <time>2012-10-28T12:20:55Z</time>
      </trkpt>
      <trkpt lat="44.11257" lon="3.10368">
        <ele>822.79998779297</ele>
        <time>2012-10-28T12:21:03Z</time>
      </trkpt>
      <trkpt lat="44.11258" lon="3.10367">
        <ele>822.59997558594</ele>
        <time>2012-10-28T12:21:04Z</time>
      </trkpt>
      <trkpt lat="44.11258" lon="3.1036">
        <ele>821.20001220703</ele>
        <time>2012-10-28T12:21:10Z</time>
      </trkpt>
      <trkpt lat="44.11258" lon="3.1036">
        <ele>820.79998779297</ele>
        <time>2012-10-28T12:21:11Z</time>
      </trkpt>
      <trkpt lat="44.11255" lon="3.10357">
        <ele>820.20001220703</ele>
        <time>2012-10-28T12:21:14Z</time>
      </trkpt>
      <trkpt lat="44.11257" lon="3.10354">
        <ele>819</ele>
        <time>2012-10-28T12:21:18Z</time>
      </trkpt>
      <trkpt lat="44.11263" lon="3.10356">
        <ele>818</ele>
        <time>2012-10-28T12:21:22Z</time>
      </trkpt>
      <trkpt lat="44.11267" lon="3.10355">
        <ele>817</ele>
        <time>2012-10-28T12:21:26Z</time>
      </trkpt>
      <trkpt lat="44.11268" lon="3.10354">
        <ele>816.79998779297</ele>
        <time>2012-10-28T12:21:27Z</time>
      </trkpt>
      <trkpt lat="44.11271" lon="3.10351">
        <ele>816</ele>
        <time>2012-10-28T12:21:30Z</time>
      </trkpt>
      <trkpt lat="44.11272" lon="3.10351">
        <ele>815.40002441406</ele>
        <time>2012-10-28T12:21:32Z</time>
      </trkpt>
      <trkpt lat="44.11274" lon="3.10344">
        <ele>813.79998779297</ele>
        <time>2012-10-28T12:21:38Z</time>
      </trkpt>
      <trkpt lat="44.11277" lon="3.10339">
        <ele>813</ele>
        <time>2012-10-28T12:21:41Z</time>
      </trkpt>
      <trkpt lat="44.1128" lon="3.1034">
        <ele>812.59997558594</ele>
        <time>2012-10-28T12:21:43Z</time>
      </trkpt>
      <trkpt lat="44.11287" lon="3.1034">
        <ele>811.20001220703</ele>
        <time>2012-10-28T12:21:48Z</time>
      </trkpt>
      <trkpt lat="44.11288" lon="3.10339">
        <ele>810.79998779297</ele>
        <time>2012-10-28T12:21:49Z</time>
      </trkpt>
      <trkpt lat="44.11288" lon="3.10338">
        <ele>810.40002441406</ele>
        <time>2012-10-28T12:21:51Z</time>
      </trkpt>
      <trkpt lat="44.11282" lon="3.10328">
        <ele>808.40002441406</ele>
        <time>2012-10-28T12:21:58Z</time>
      </trkpt>
      <trkpt lat="44.11274" lon="3.10324">
        <ele>807</ele>
        <time>2012-10-28T12:22:03Z</time>
      </trkpt>
      <trkpt lat="44.11274" lon="3.10323">
        <ele>806.79998779297</ele>
        <time>2012-10-28T12:22:04Z</time>
      </trkpt>
      <trkpt lat="44.11269" lon="3.1032">
        <ele>805.79998779297</ele>
        <time>2012-10-28T12:22:08Z</time>
      </trkpt>
      <trkpt lat="44.11265" lon="3.10321">
        <ele>805</ele>
        <time>2012-10-28T12:22:11Z</time>
      </trkpt>
      <trkpt lat="44.11264" lon="3.10321">
        <ele>804.79998779297</ele>
        <time>2012-10-28T12:22:12Z</time>
      </trkpt>
      <trkpt lat="44.11264" lon="3.1032">
        <ele>804.40002441406</ele>
        <time>2012-10-28T12:22:13Z</time>
      </trkpt>
      <trkpt lat="44.11267" lon="3.10313">
        <ele>802.79998779297</ele>
        <time>2012-10-28T12:22:20Z</time>
      </trkpt>
      <trkpt lat="44.11271" lon="3.10313">
        <ele>801.79998779297</ele>
        <time>2012-10-28T12:22:24Z</time>
      </trkpt>
      <trkpt lat="44.11275" lon="3.10314">
        <ele>800.59997558594</ele>
        <time>2012-10-28T12:22:28Z</time>
      </trkpt>
      <trkpt lat="44.11279" lon="3.10313">
        <ele>800</ele>
        <time>2012-10-28T12:22:31Z</time>
      </trkpt>
      <trkpt lat="44.11279" lon="3.10311">
        <ele>799</ele>
        <time>2012-10-28T12:22:34Z</time>
      </trkpt>
      <trkpt lat="44.1128" lon="3.10299">
        <ele>795.79998779297</ele>
        <time>2012-10-28T12:22:46Z</time>
      </trkpt>
      <trkpt lat="44.11295" lon="3.10292">
        <ele>790.79998779297</ele>
        <time>2012-10-28T12:23:04Z</time>
      </trkpt>
      <trkpt lat="44.11282" lon="3.1028">
        <ele>788</ele>
        <time>2012-10-28T12:23:14Z</time>
      </trkpt>
      <trkpt lat="44.1128" lon="3.1028">
        <ele>787.40002441406</ele>
        <time>2012-10-28T12:23:16Z</time>
      </trkpt>
      <trkpt lat="44.11279" lon="3.10279">
        <ele>787</ele>
        <time>2012-10-28T12:23:17Z</time>
      </trkpt>
      <trkpt lat="44.11269" lon="3.10279">
        <ele>783.79998779297</ele>
        <time>2012-10-28T12:23:30Z</time>
      </trkpt>
      <trkpt lat="44.11266" lon="3.10276">
        <ele>783.20001220703</ele>
        <time>2012-10-28T12:23:33Z</time>
      </trkpt>
      <trkpt lat="44.11263" lon="3.10274">
        <ele>782.40002441406</ele>
        <time>2012-10-28T12:23:36Z</time>
      </trkpt>
      <trkpt lat="44.11264" lon="3.10269">
        <ele>780.79998779297</ele>
        <time>2012-10-28T12:23:43Z</time>
      </trkpt>
      <trkpt lat="44.11265" lon="3.10267">
        <ele>780.40002441406</ele>
        <time>2012-10-28T12:23:45Z</time>
      </trkpt>
      <trkpt lat="44.11275" lon="3.10262">
        <ele>777.79998779297</ele>
        <time>2012-10-28T12:23:56Z</time>
      </trkpt>
      <trkpt lat="44.11276" lon="3.10262">
        <ele>777.59997558594</ele>
        <time>2012-10-28T12:23:57Z</time>
      </trkpt>
      <trkpt lat="44.11278" lon="3.10259">
        <ele>777</ele>
        <time>2012-10-28T12:23:59Z</time>
      </trkpt>
      <trkpt lat="44.1128" lon="3.10254">
        <ele>776</ele>
        <time>2012-10-28T12:24:03Z</time>
      </trkpt>
      <trkpt lat="44.11277" lon="3.10246">
        <ele>774.59997558594</ele>
        <time>2012-10-28T12:24:08Z</time>
      </trkpt>
      <trkpt lat="44.11275" lon="3.1024">
        <ele>773.59997558594</ele>
        <time>2012-10-28T12:24:11Z</time>
      </trkpt>
      <trkpt lat="44.11283" lon="3.10233">
        <ele>771</ele>
        <time>2012-10-28T12:24:19Z</time>
      </trkpt>
      <trkpt lat="44.11287" lon="3.10231">
        <ele>770.40002441406</ele>
        <time>2012-10-28T12:24:21Z</time>
      </trkpt>
      <trkpt lat="44.1129" lon="3.10227">
        <ele>769.40002441406</ele>
        <time>2012-10-28T12:24:24Z</time>
      </trkpt>
      <trkpt lat="44.11291" lon="3.10224">
        <ele>768.79998779297</ele>
        <time>2012-10-28T12:24:26Z</time>
      </trkpt>
      <trkpt lat="44.11292" lon="3.10223">
        <ele>768.59997558594</ele>
        <time>2012-10-28T12:24:27Z</time>
      </trkpt>
      <trkpt lat="44.11306" lon="3.1022">
        <ele>765.59997558594</ele>
        <time>2012-10-28T12:24:36Z</time>
      </trkpt>
      <trkpt lat="44.11306" lon="3.10219">
        <ele>765.20001220703</ele>
        <time>2012-10-28T12:24:37Z</time>
      </trkpt>
      <trkpt lat="44.11298" lon="3.10204">
        <ele>762.20001220703</ele>
        <time>2012-10-28T12:24:46Z</time>
      </trkpt>
      <trkpt lat="44.11296" lon="3.10199">
        <ele>761.40002441406</ele>
        <time>2012-10-28T12:24:48Z</time>
      </trkpt>
      <trkpt lat="44.11295" lon="3.10197">
        <ele>761</ele>
        <time>2012-10-28T12:24:49Z</time>
      </trkpt>
      <trkpt lat="44.11292" lon="3.10192">
        <ele>760.20001220703</ele>
        <time>2012-10-28T12:24:51Z</time>
      </trkpt>
      <trkpt lat="44.11287" lon="3.10182">
        <ele>758.40002441406</ele>
        <time>2012-10-28T12:24:56Z</time>
      </trkpt>
      <trkpt lat="44.11285" lon="3.10178">
        <ele>757.59997558594</ele>
        <time>2012-10-28T12:24:58Z</time>
      </trkpt>
      <trkpt lat="44.11286" lon="3.10175">
        <ele>756.79998779297</ele>
        <time>2012-10-28T12:25:00Z</time>
      </trkpt>
      <trkpt lat="44.11287" lon="3.10175">
        <ele>756.40002441406</ele>
        <time>2012-10-28T12:25:01Z</time>
      </trkpt>
      <trkpt lat="44.11288" lon="3.10165">
        <ele>754.40002441406</ele>
        <time>2012-10-28T12:25:06Z</time>
      </trkpt>
      <trkpt lat="44.11288" lon="3.10166">
        <ele>754</ele>
        <time>2012-10-28T12:25:07Z</time>
      </trkpt>
      <trkpt lat="44.11293" lon="3.10172">
        <ele>752.59997558594</ele>
        <time>2012-10-28T12:25:10Z</time>
      </trkpt>
      <trkpt lat="44.11306" lon="3.10169">
        <ele>748.79998779297</ele>
        <time>2012-10-28T12:25:20Z</time>
      </trkpt>
      <trkpt lat="44.11307" lon="3.10167">
        <ele>748.40002441406</ele>
        <time>2012-10-28T12:25:21Z</time>
      </trkpt>
      <trkpt lat="44.11309" lon="3.10164">
        <ele>747.79998779297</ele>
        <time>2012-10-28T12:25:23Z</time>
      </trkpt>
      <trkpt lat="44.11312" lon="3.10161">
        <ele>746.20001220703</ele>
        <time>2012-10-28T12:25:27Z</time>
      </trkpt>
      <trkpt lat="44.11311" lon="3.10159">
        <ele>745.20001220703</ele>
        <time>2012-10-28T12:25:30Z</time>
      </trkpt>
      <trkpt lat="44.11308" lon="3.10159">
        <ele>743.79998779297</ele>
        <time>2012-10-28T12:25:34Z</time>
      </trkpt>
      <trkpt lat="44.11301" lon="3.10152">
        <ele>741.59997558594</ele>
        <time>2012-10-28T12:25:40Z</time>
      </trkpt>
      <trkpt lat="44.113" lon="3.10148">
        <ele>740.59997558594</ele>
        <time>2012-10-28T12:25:43Z</time>
      </trkpt>
      <trkpt lat="44.113" lon="3.10146">
        <ele>740.20001220703</ele>
        <time>2012-10-28T12:25:44Z</time>
      </trkpt>
      <trkpt lat="44.113" lon="3.10136">
        <ele>736.20001220703</ele>
        <time>2012-10-28T12:25:55Z</time>
      </trkpt>
      <trkpt lat="44.11304" lon="3.10132">
        <ele>733.20001220703</ele>
        <time>2012-10-28T12:26:03Z</time>
      </trkpt>
      <trkpt lat="44.11308" lon="3.1013">
        <ele>731.40002441406</ele>
        <time>2012-10-28T12:26:08Z</time>
      </trkpt>
      <trkpt lat="44.11312" lon="3.10135">
        <ele>729.79998779297</ele>
        <time>2012-10-28T12:26:12Z</time>
      </trkpt>
      <trkpt lat="44.11313" lon="3.10135">
        <ele>729</ele>
        <time>2012-10-28T12:26:14Z</time>
      </trkpt>
      <trkpt lat="44.11317" lon="3.10128">
        <ele>726.59997558594</ele>
        <time>2012-10-28T12:26:20Z</time>
      </trkpt>
      <trkpt lat="44.11317" lon="3.10125">
        <ele>725.79998779297</ele>
        <time>2012-10-28T12:26:22Z</time>
      </trkpt>
      <trkpt lat="44.11333" lon="3.10121">
        <ele>720</ele>
        <time>2012-10-28T12:26:36Z</time>
      </trkpt>
      <trkpt lat="44.11351" lon="3.10116">
        <ele>712</ele>
        <time>2012-10-28T12:26:58Z</time>
      </trkpt>
      <trkpt lat="44.11353" lon="3.10116">
        <ele>711.59997558594</ele>
        <time>2012-10-28T12:26:59Z</time>
      </trkpt>
      <trkpt lat="44.11365" lon="3.10128">
        <ele>704.59997558594</ele>
        <time>2012-10-28T12:27:26Z</time>
      </trkpt>
      <trkpt lat="44.11376" lon="3.1015">
        <ele>700</ele>
        <time>2012-10-28T12:28:04Z</time>
      </trkpt>
      <trkpt lat="44.1138" lon="3.10154">
        <ele>699.40002441406</ele>
        <time>2012-10-28T12:28:10Z</time>
      </trkpt>
      <trkpt lat="44.11391" lon="3.10162">
        <ele>698.79998779297</ele>
        <time>2012-10-28T12:28:17Z</time>
      </trkpt>
      <trkpt lat="44.11395" lon="3.10165">
        <ele>698.59997558594</ele>
        <time>2012-10-28T12:28:19Z</time>
      </trkpt>
      <trkpt lat="44.11398" lon="3.1017">
        <ele>698.40002441406</ele>
        <time>2012-10-28T12:28:22Z</time>
      </trkpt>
      <trkpt lat="44.11407" lon="3.10178">
        <ele>697.59997558594</ele>
        <time>2012-10-28T12:28:32Z</time>
      </trkpt>
      <trkpt lat="44.11409" lon="3.10179">
        <ele>697.40002441406</ele>
        <time>2012-10-28T12:28:35Z</time>
      </trkpt>
      <trkpt lat="44.1142" lon="3.10183">
        <ele>696.79998779297</ele>
        <time>2012-10-28T12:28:46Z</time>
      </trkpt>
      <trkpt lat="44.11425" lon="3.10183">
        <ele>696.59997558594</ele>
        <time>2012-10-28T12:28:50Z</time>
      </trkpt>
      <trkpt lat="44.11427" lon="3.10185">
        <ele>696.59997558594</ele>
        <time>2012-10-28T12:28:51Z</time>
      </trkpt>
      <trkpt lat="44.11427" lon="3.10186">
        <ele>696.59997558594</ele>
        <time>2012-10-28T12:28:52Z</time>
      </trkpt>
      <trkpt lat="44.11432" lon="3.10199">
        <ele>696.20001220703</ele>
        <time>2012-10-28T12:29:00Z</time>
      </trkpt>
      <trkpt lat="44.11428" lon="3.10193">
        <ele>698.79998779297</ele>
        <time>2012-10-28T12:29:16Z</time>
      </trkpt>
      <trkpt lat="44.11435" lon="3.10169">
        <ele>703</ele>
        <time>2012-10-28T12:29:25Z</time>
      </trkpt>
      <trkpt lat="44.11441" lon="3.10144">
        <ele>707.59997558594</ele>
        <time>2012-10-28T12:29:33Z</time>
      </trkpt>
      <trkpt lat="44.11448" lon="3.1012">
        <ele>712.79998779297</ele>
        <time>2012-10-28T12:29:41Z</time>
      </trkpt>
      <trkpt lat="44.11454" lon="3.10095">
        <ele>718.59997558594</ele>
        <time>2012-10-28T12:29:49Z</time>
      </trkpt>
      <trkpt lat="44.11442" lon="3.10207">
        <ele>716</ele>
        <time>2012-10-28T12:30:01Z</time>
      </trkpt>
      <trkpt lat="44.11443" lon="3.10212">
        <ele>715.20001220703</ele>
        <time>2012-10-28T12:30:07Z</time>
      </trkpt>
      <trkpt lat="44.11447" lon="3.10211">
        <ele>714</ele>
        <time>2012-10-28T12:30:13Z</time>
      </trkpt>
      <trkpt lat="44.1145" lon="3.10213">
        <ele>713.40002441406</ele>
        <time>2012-10-28T12:30:15Z</time>
      </trkpt>
      <trkpt lat="44.11453" lon="3.10214">
        <ele>713</ele>
        <time>2012-10-28T12:30:17Z</time>
      </trkpt>
      <trkpt lat="44.11467" lon="3.10218">
        <ele>710</ele>
        <time>2012-10-28T12:30:29Z</time>
      </trkpt>
      <trkpt lat="44.11468" lon="3.10217">
        <ele>709.79998779297</ele>
        <time>2012-10-28T12:30:30Z</time>
      </trkpt>
      <trkpt lat="44.11477" lon="3.10221">
        <ele>707.59997558594</ele>
        <time>2012-10-28T12:30:37Z</time>
      </trkpt>
      <trkpt lat="44.11478" lon="3.10221">
        <ele>707.20001220703</ele>
        <time>2012-10-28T12:30:38Z</time>
      </trkpt>
      <trkpt lat="44.11483" lon="3.10228">
        <ele>705.59997558594</ele>
        <time>2012-10-28T12:30:43Z</time>
      </trkpt>
      <trkpt lat="44.11493" lon="3.10235">
        <ele>702.40002441406</ele>
        <time>2012-10-28T12:30:52Z</time>
      </trkpt>
      <trkpt lat="44.11495" lon="3.10235">
        <ele>701.79998779297</ele>
        <time>2012-10-28T12:30:54Z</time>
      </trkpt>
      <trkpt lat="44.115" lon="3.10235">
        <ele>700.79998779297</ele>
        <time>2012-10-28T12:30:57Z</time>
      </trkpt>
      <trkpt lat="44.11514" lon="3.10234">
        <ele>697.20001220703</ele>
        <time>2012-10-28T12:31:07Z</time>
      </trkpt>
      <trkpt lat="44.11518" lon="3.10234">
        <ele>696</ele>
        <time>2012-10-28T12:31:10Z</time>
      </trkpt>
      <trkpt lat="44.11523" lon="3.10234">
        <ele>694</ele>
        <time>2012-10-28T12:31:15Z</time>
      </trkpt>
      <trkpt lat="44.11531" lon="3.10231">
        <ele>692</ele>
        <time>2012-10-28T12:31:20Z</time>
      </trkpt>
      <trkpt lat="44.11535" lon="3.10234">
        <ele>690.20001220703</ele>
        <time>2012-10-28T12:31:24Z</time>
      </trkpt>
      <trkpt lat="44.11544" lon="3.10224">
        <ele>686</ele>
        <time>2012-10-28T12:31:34Z</time>
      </trkpt>
      <trkpt lat="44.11544" lon="3.10221">
        <ele>685</ele>
        <time>2012-10-28T12:31:36Z</time>
      </trkpt>
      <trkpt lat="44.11545" lon="3.1021">
        <ele>682.40002441406</ele>
        <time>2012-10-28T12:31:42Z</time>
      </trkpt>
      <trkpt lat="44.11552" lon="3.10203">
        <ele>679</ele>
        <time>2012-10-28T12:31:50Z</time>
      </trkpt>
      <trkpt lat="44.11543" lon="3.10181">
        <ele>675</ele>
        <time>2012-10-28T12:31:59Z</time>
      </trkpt>
      <trkpt lat="44.1154" lon="3.10172">
        <ele>673.40002441406</ele>
        <time>2012-10-28T12:32:03Z</time>
      </trkpt>
      <trkpt lat="44.11542" lon="3.10168">
        <ele>672.20001220703</ele>
        <time>2012-10-28T12:32:06Z</time>
      </trkpt>
      <trkpt lat="44.11543" lon="3.10165">
        <ele>671</ele>
        <time>2012-10-28T12:32:09Z</time>
      </trkpt>
      <trkpt lat="44.11549" lon="3.10164">
        <ele>669.20001220703</ele>
        <time>2012-10-28T12:32:13Z</time>
      </trkpt>
      <trkpt lat="44.11551" lon="3.10162">
        <ele>668</ele>
        <time>2012-10-28T12:32:16Z</time>
      </trkpt>
      <trkpt lat="44.11552" lon="3.1016">
        <ele>666.79998779297</ele>
        <time>2012-10-28T12:32:19Z</time>
      </trkpt>
      <trkpt lat="44.11553" lon="3.10149">
        <ele>664.20001220703</ele>
        <time>2012-10-28T12:32:25Z</time>
      </trkpt>
      <trkpt lat="44.11555" lon="3.10142">
        <ele>662.79998779297</ele>
        <time>2012-10-28T12:32:28Z</time>
      </trkpt>
      <trkpt lat="44.11555" lon="3.1014">
        <ele>662.40002441406</ele>
        <time>2012-10-28T12:32:29Z</time>
      </trkpt>
      <trkpt lat="44.11554" lon="3.10133">
        <ele>660.20001220703</ele>
        <time>2012-10-28T12:32:34Z</time>
      </trkpt>
      <trkpt lat="44.11548" lon="3.10123">
        <ele>657.79998779297</ele>
        <time>2012-10-28T12:32:39Z</time>
      </trkpt>
      <trkpt lat="44.11548" lon="3.10121">
        <ele>657.20001220703</ele>
        <time>2012-10-28T12:32:40Z</time>
      </trkpt>
      <trkpt lat="44.11548" lon="3.10119">
        <ele>656.79998779297</ele>
        <time>2012-10-28T12:32:41Z</time>
      </trkpt>
      <trkpt lat="44.11547" lon="3.10097">
        <ele>651</ele>
        <time>2012-10-28T12:32:53Z</time>
      </trkpt>
      <trkpt lat="44.11547" lon="3.10097">
        <ele>650.59997558594</ele>
        <time>2012-10-28T12:32:54Z</time>
      </trkpt>
      <trkpt lat="44.11542" lon="3.1009">
        <ele>648.40002441406</ele>
        <time>2012-10-28T12:32:59Z</time>
      </trkpt>
      <trkpt lat="44.11541" lon="3.1009">
        <ele>648</ele>
        <time>2012-10-28T12:33:00Z</time>
      </trkpt>
      <trkpt lat="44.11538" lon="3.1009">
        <ele>646.20001220703</ele>
        <time>2012-10-28T12:33:04Z</time>
      </trkpt>
      <trkpt lat="44.11533" lon="3.10087">
        <ele>644.20001220703</ele>
        <time>2012-10-28T12:33:09Z</time>
      </trkpt>
      <trkpt lat="44.11531" lon="3.10085">
        <ele>643</ele>
        <time>2012-10-28T12:33:12Z</time>
      </trkpt>
      <trkpt lat="44.1153" lon="3.10084">
        <ele>642.59997558594</ele>
        <time>2012-10-28T12:33:13Z</time>
      </trkpt>
      <trkpt lat="44.11529" lon="3.10084">
        <ele>642.20001220703</ele>
        <time>2012-10-28T12:33:14Z</time>
      </trkpt>
      <trkpt lat="44.1152" lon="3.10075">
        <ele>638.59997558594</ele>
        <time>2012-10-28T12:33:25Z</time>
      </trkpt>
      <trkpt lat="44.11518" lon="3.10073">
        <ele>638</ele>
        <time>2012-10-28T12:33:27Z</time>
      </trkpt>
      <trkpt lat="44.11516" lon="3.10071">
        <ele>637.40002441406</ele>
        <time>2012-10-28T12:33:29Z</time>
      </trkpt>
      <trkpt lat="44.11502" lon="3.10058">
        <ele>633</ele>
        <time>2012-10-28T12:33:45Z</time>
      </trkpt>
      <trkpt lat="44.11501" lon="3.10054">
        <ele>632.40002441406</ele>
        <time>2012-10-28T12:33:47Z</time>
      </trkpt>
      <trkpt lat="44.11495" lon="3.10042">
        <ele>631</ele>
        <time>2012-10-28T12:33:53Z</time>
      </trkpt>
      <trkpt lat="44.11493" lon="3.10038">
        <ele>630.40002441406</ele>
        <time>2012-10-28T12:33:55Z</time>
      </trkpt>
      <trkpt lat="44.11492" lon="3.10036">
        <ele>630.20001220703</ele>
        <time>2012-10-28T12:33:56Z</time>
      </trkpt>
      <trkpt lat="44.11478" lon="3.10019">
        <ele>627.20001220703</ele>
        <time>2012-10-28T12:34:09Z</time>
      </trkpt>
      <trkpt lat="44.1147" lon="3.10007">
        <ele>625.40002441406</ele>
        <time>2012-10-28T12:34:17Z</time>
      </trkpt>
      <trkpt lat="44.11467" lon="3.09999">
        <ele>624.40002441406</ele>
        <time>2012-10-28T12:34:21Z</time>
      </trkpt>
      <trkpt lat="44.11459" lon="3.09976">
        <ele>622.40002441406</ele>
        <time>2012-10-28T12:34:30Z</time>
      </trkpt>
      <trkpt lat="44.11457" lon="3.09974">
        <ele>622.20001220703</ele>
        <time>2012-10-28T12:34:31Z</time>
      </trkpt>
      <trkpt lat="44.11449" lon="3.09952">
        <ele>620.40002441406</ele>
        <time>2012-10-28T12:34:39Z</time>
      </trkpt>
      <trkpt lat="44.11442" lon="3.09939">
        <ele>618.79998779297</ele>
        <time>2012-10-28T12:34:45Z</time>
      </trkpt>
      <trkpt lat="44.11442" lon="3.0993">
        <ele>617.79998779297</ele>
        <time>2012-10-28T12:34:49Z</time>
      </trkpt>
      <trkpt lat="44.11449" lon="3.09929">
        <ele>615.59997558594</ele>
        <time>2012-10-28T12:34:56Z</time>
      </trkpt>
      <trkpt lat="44.1145" lon="3.0993">
        <ele>615.20001220703</ele>
        <time>2012-10-28T12:34:57Z</time>
      </trkpt>
      <trkpt lat="44.11456" lon="3.09932">
        <ele>613.79998779297</ele>
        <time>2012-10-28T12:35:01Z</time>
      </trkpt>
      <trkpt lat="44.11462" lon="3.09928">
        <ele>612</ele>
        <time>2012-10-28T12:35:06Z</time>
      </trkpt>
      <trkpt lat="44.11463" lon="3.09926">
        <ele>611.40002441406</ele>
        <time>2012-10-28T12:35:08Z</time>
      </trkpt>
      <trkpt lat="44.1147" lon="3.09928">
        <ele>608.79998779297</ele>
        <time>2012-10-28T12:35:15Z</time>
      </trkpt>
      <trkpt lat="44.11473" lon="3.09927">
        <ele>608</ele>
        <time>2012-10-28T12:35:17Z</time>
      </trkpt>
      <trkpt lat="44.11475" lon="3.09929">
        <ele>607.40002441406</ele>
        <time>2012-10-28T12:35:19Z</time>
      </trkpt>
      <trkpt lat="44.11477" lon="3.09928">
        <ele>606.20001220703</ele>
        <time>2012-10-28T12:35:22Z</time>
      </trkpt>
      <trkpt lat="44.11481" lon="3.09908">
        <ele>603.79998779297</ele>
        <time>2012-10-28T12:35:28Z</time>
      </trkpt>
      <trkpt lat="44.11485" lon="3.09882">
        <ele>601.20001220703</ele>
        <time>2012-10-28T12:35:35Z</time>
      </trkpt>
      <trkpt lat="44.11493" lon="3.09866">
        <ele>598.79998779297</ele>
        <time>2012-10-28T12:35:41Z</time>
      </trkpt>
      <trkpt lat="44.11498" lon="3.09868">
        <ele>597.59997558594</ele>
        <time>2012-10-28T12:35:44Z</time>
      </trkpt>
      <trkpt lat="44.11502" lon="3.0987">
        <ele>596.79998779297</ele>
        <time>2012-10-28T12:35:46Z</time>
      </trkpt>
      <trkpt lat="44.11506" lon="3.09861">
        <ele>595</ele>
        <time>2012-10-28T12:35:50Z</time>
      </trkpt>
      <trkpt lat="44.11509" lon="3.09851">
        <ele>593.79998779297</ele>
        <time>2012-10-28T12:35:53Z</time>
      </trkpt>
      <trkpt lat="44.11515" lon="3.09828">
        <ele>590.79998779297</ele>
        <time>2012-10-28T12:36:00Z</time>
      </trkpt>
      <trkpt lat="44.11516" lon="3.09815">
        <ele>589.20001220703</ele>
        <time>2012-10-28T12:36:04Z</time>
      </trkpt>
      <trkpt lat="44.11514" lon="3.09803">
        <ele>587.59997558594</ele>
        <time>2012-10-28T12:36:08Z</time>
      </trkpt>
      <trkpt lat="44.11515" lon="3.09788">
        <ele>585.59997558594</ele>
        <time>2012-10-28T12:36:13Z</time>
      </trkpt>
      <trkpt lat="44.11516" lon="3.09776">
        <ele>584</ele>
        <time>2012-10-28T12:36:17Z</time>
      </trkpt>
      <trkpt lat="44.11517" lon="3.09763">
        <ele>582.40002441406</ele>
        <time>2012-10-28T12:36:21Z</time>
      </trkpt>
      <trkpt lat="44.11517" lon="3.09749">
        <ele>580.79998779297</ele>
        <time>2012-10-28T12:36:25Z</time>
      </trkpt>
      <trkpt lat="44.11516" lon="3.09722">
        <ele>577.20001220703</ele>
        <time>2012-10-28T12:36:34Z</time>
      </trkpt>
      <trkpt lat="44.11518" lon="3.09695">
        <ele>574.20001220703</ele>
        <time>2012-10-28T12:36:42Z</time>
      </trkpt>
      <trkpt lat="44.11515" lon="3.09671">
        <ele>571</ele>
        <time>2012-10-28T12:36:50Z</time>
      </trkpt>
      <trkpt lat="44.11514" lon="3.09665">
        <ele>570.20001220703</ele>
        <time>2012-10-28T12:36:52Z</time>
      </trkpt>
      <trkpt lat="44.11512" lon="3.09654">
        <ele>568.59997558594</ele>
        <time>2012-10-28T12:36:56Z</time>
      </trkpt>
      <trkpt lat="44.11511" lon="3.09644">
        <ele>567.40002441406</ele>
        <time>2012-10-28T12:36:59Z</time>
      </trkpt>
      <trkpt lat="44.11505" lon="3.09619">
        <ele>564.20001220703</ele>
        <time>2012-10-28T12:37:07Z</time>
      </trkpt>
      <trkpt lat="44.11499" lon="3.09596">
        <ele>561.59997558594</ele>
        <time>2012-10-28T12:37:14Z</time>
      </trkpt>
      <trkpt lat="44.11493" lon="3.0957">
        <ele>558.79998779297</ele>
        <time>2012-10-28T12:37:22Z</time>
      </trkpt>
      <trkpt lat="44.11487" lon="3.09543">
        <ele>555.59997558594</ele>
        <time>2012-10-28T12:37:31Z</time>
      </trkpt>
      <trkpt lat="44.1148" lon="3.09518">
        <ele>552</ele>
        <time>2012-10-28T12:37:41Z</time>
      </trkpt>
      <trkpt lat="44.11478" lon="3.09492">
        <ele>548.59997558594</ele>
        <time>2012-10-28T12:37:50Z</time>
      </trkpt>
      <trkpt lat="44.11472" lon="3.09467">
        <ele>545.59997558594</ele>
        <time>2012-10-28T12:37:58Z</time>
      </trkpt>
      <trkpt lat="44.11476" lon="3.09441">
        <ele>542.40002441406</ele>
        <time>2012-10-28T12:38:06Z</time>
      </trkpt>
      <trkpt lat="44.11483" lon="3.09417">
        <ele>539</ele>
        <time>2012-10-28T12:38:15Z</time>
      </trkpt>
      <trkpt lat="44.11482" lon="3.09414">
        <ele>538.59997558594</ele>
        <time>2012-10-28T12:38:16Z</time>
      </trkpt>
      <trkpt lat="44.11467" lon="3.09403">
        <ele>536</ele>
        <time>2012-10-28T12:38:23Z</time>
      </trkpt>
      <trkpt lat="44.1145" lon="3.09391">
        <ele>532.59997558594</ele>
        <time>2012-10-28T12:38:31Z</time>
      </trkpt>
      <trkpt lat="44.11436" lon="3.09372">
        <ele>528.40002441406</ele>
        <time>2012-10-28T12:38:41Z</time>
      </trkpt>
      <trkpt lat="44.11432" lon="3.09365">
        <ele>527</ele>
        <time>2012-10-28T12:38:44Z</time>
      </trkpt>
      <trkpt lat="44.11425" lon="3.09352">
        <ele>524.59997558594</ele>
        <time>2012-10-28T12:38:50Z</time>
      </trkpt>
      <trkpt lat="44.11443" lon="3.09351">
        <ele>521.40002441406</ele>
        <time>2012-10-28T12:38:58Z</time>
      </trkpt>
      <trkpt lat="44.11464" lon="3.0935">
        <ele>518.20001220703</ele>
        <time>2012-10-28T12:39:06Z</time>
      </trkpt>
      <trkpt lat="44.11482" lon="3.09347">
        <ele>515.40002441406</ele>
        <time>2012-10-28T12:39:13Z</time>
      </trkpt>
      <trkpt lat="44.11501" lon="3.09342">
        <ele>512.79998779297</ele>
        <time>2012-10-28T12:39:20Z</time>
      </trkpt>
      <trkpt lat="44.11521" lon="3.0934">
        <ele>510.20001220703</ele>
        <time>2012-10-28T12:39:27Z</time>
      </trkpt>
      <trkpt lat="44.11541" lon="3.09333">
        <ele>507.79998779297</ele>
        <time>2012-10-28T12:39:34Z</time>
      </trkpt>
      <trkpt lat="44.11559" lon="3.09327">
        <ele>505.39999389648</ele>
        <time>2012-10-28T12:39:41Z</time>
      </trkpt>
      <trkpt lat="44.11579" lon="3.0932">
        <ele>503.20001220703</ele>
        <time>2012-10-28T12:39:48Z</time>
      </trkpt>
      <trkpt lat="44.11598" lon="3.09317">
        <ele>501</ele>
        <time>2012-10-28T12:39:55Z</time>
      </trkpt>
      <trkpt lat="44.11617" lon="3.09317">
        <ele>498.79998779297</ele>
        <time>2012-10-28T12:40:02Z</time>
      </trkpt>
      <trkpt lat="44.11624" lon="3.09318">
        <ele>497.79998779297</ele>
        <time>2012-10-28T12:40:05Z</time>
      </trkpt>
      <trkpt lat="44.11628" lon="3.09302">
        <ele>496.39999389648</ele>
        <time>2012-10-28T12:40:10Z</time>
      </trkpt>
      <trkpt lat="44.11623" lon="3.09288">
        <ele>495</ele>
        <time>2012-10-28T12:40:14Z</time>
      </trkpt>
      <trkpt lat="44.11619" lon="3.09277">
        <ele>494.20001220703</ele>
        <time>2012-10-28T12:40:17Z</time>
      </trkpt>
      <trkpt lat="44.11607" lon="3.09257">
        <ele>492</ele>
        <time>2012-10-28T12:40:24Z</time>
      </trkpt>
      <trkpt lat="44.11592" lon="3.0924">
        <ele>489.60000610352</ele>
        <time>2012-10-28T12:40:32Z</time>
      </trkpt>
      <trkpt lat="44.11575" lon="3.09226">
        <ele>487</ele>
        <time>2012-10-28T12:40:40Z</time>
      </trkpt>
      <trkpt lat="44.11556" lon="3.09217">
        <ele>484.60000610352</ele>
        <time>2012-10-28T12:40:48Z</time>
      </trkpt>
      <trkpt lat="44.11544" lon="3.09209">
        <ele>482.79998779297</ele>
        <time>2012-10-28T12:40:54Z</time>
      </trkpt>
      <trkpt lat="44.11545" lon="3.09203">
        <ele>482.20001220703</ele>
        <time>2012-10-28T12:40:56Z</time>
      </trkpt>
      <trkpt lat="44.11563" lon="3.09195">
        <ele>479.60000610352</ele>
        <time>2012-10-28T12:41:04Z</time>
      </trkpt>
      <trkpt lat="44.11582" lon="3.09197">
        <ele>477</ele>
        <time>2012-10-28T12:41:12Z</time>
      </trkpt>
      <trkpt lat="44.11601" lon="3.09206">
        <ele>474.39999389648</ele>
        <time>2012-10-28T12:41:20Z</time>
      </trkpt>
      <trkpt lat="44.11617" lon="3.09219">
        <ele>472.39999389648</ele>
        <time>2012-10-28T12:41:27Z</time>
      </trkpt>
      <trkpt lat="44.11633" lon="3.09229">
        <ele>470.20001220703</ele>
        <time>2012-10-28T12:41:34Z</time>
      </trkpt>
      <trkpt lat="44.1165" lon="3.09242">
        <ele>468</ele>
        <time>2012-10-28T12:41:41Z</time>
      </trkpt>
      <trkpt lat="44.11665" lon="3.09254">
        <ele>466</ele>
        <time>2012-10-28T12:41:48Z</time>
      </trkpt>
      <trkpt lat="44.11683" lon="3.09268">
        <ele>463.79998779297</ele>
        <time>2012-10-28T12:41:56Z</time>
      </trkpt>
      <trkpt lat="44.11699" lon="3.0928">
        <ele>461.60000610352</ele>
        <time>2012-10-28T12:42:04Z</time>
      </trkpt>
      <trkpt lat="44.11696" lon="3.0927">
        <ele>460.20001220703</ele>
        <time>2012-10-28T12:42:09Z</time>
      </trkpt>
      <trkpt lat="44.1169" lon="3.09263">
        <ele>459.39999389648</ele>
        <time>2012-10-28T12:42:12Z</time>
      </trkpt>
      <trkpt lat="44.11674" lon="3.09246">
        <ele>457.39999389648</ele>
        <time>2012-10-28T12:42:20Z</time>
      </trkpt>
      <trkpt lat="44.11658" lon="3.09229">
        <ele>455.39999389648</ele>
        <time>2012-10-28T12:42:28Z</time>
      </trkpt>
      <trkpt lat="44.11644" lon="3.09214">
        <ele>454</ele>
        <time>2012-10-28T12:42:35Z</time>
      </trkpt>
      <trkpt lat="44.11629" lon="3.09199">
        <ele>452.60000610352</ele>
        <time>2012-10-28T12:42:42Z</time>
      </trkpt>
      <trkpt lat="44.11613" lon="3.09181">
        <ele>451</ele>
        <time>2012-10-28T12:42:50Z</time>
      </trkpt>
      <trkpt lat="44.11596" lon="3.09167">
        <ele>449.39999389648</ele>
        <time>2012-10-28T12:42:58Z</time>
      </trkpt>
      <trkpt lat="44.1158" lon="3.09156">
        <ele>448</ele>
        <time>2012-10-28T12:43:05Z</time>
      </trkpt>
      <trkpt lat="44.11562" lon="3.09144">
        <ele>446.20001220703</ele>
        <time>2012-10-28T12:43:13Z</time>
      </trkpt>
      <trkpt lat="44.11545" lon="3.09133">
        <ele>444.79998779297</ele>
        <time>2012-10-28T12:43:20Z</time>
      </trkpt>
      <trkpt lat="44.11528" lon="3.09123">
        <ele>443.20001220703</ele>
        <time>2012-10-28T12:43:27Z</time>
      </trkpt>
      <trkpt lat="44.1151" lon="3.09111">
        <ele>441.60000610352</ele>
        <time>2012-10-28T12:43:35Z</time>
      </trkpt>
      <trkpt lat="44.11493" lon="3.09094">
        <ele>440</ele>
        <time>2012-10-28T12:43:43Z</time>
      </trkpt>
      <trkpt lat="44.11477" lon="3.09077">
        <ele>438.39999389648</ele>
        <time>2012-10-28T12:43:51Z</time>
      </trkpt>
      <trkpt lat="44.1146" lon="3.09063">
        <ele>437</ele>
        <time>2012-10-28T12:43:58Z</time>
      </trkpt>
      <trkpt lat="44.11445" lon="3.09048">
        <ele>435.79998779297</ele>
        <time>2012-10-28T12:44:05Z</time>
      </trkpt>
      <trkpt lat="44.1143" lon="3.09029">
        <ele>434.60000610352</ele>
        <time>2012-10-28T12:44:12Z</time>
      </trkpt>
      <trkpt lat="44.11418" lon="3.09011">
        <ele>433.20001220703</ele>
        <time>2012-10-28T12:44:20Z</time>
      </trkpt>
      <trkpt lat="44.11413" lon="3.09003">
        <ele>432.39999389648</ele>
        <time>2012-10-28T12:44:24Z</time>
      </trkpt>
      <trkpt lat="44.11405" lon="3.0899">
        <ele>430.79998779297</ele>
        <time>2012-10-28T12:44:31Z</time>
      </trkpt>
      <trkpt lat="44.11397" lon="3.08968">
        <ele>428.79998779297</ele>
        <time>2012-10-28T12:44:39Z</time>
      </trkpt>
      <trkpt lat="44.11391" lon="3.08957">
        <ele>427.79998779297</ele>
        <time>2012-10-28T12:44:43Z</time>
      </trkpt>
      <trkpt lat="44.11398" lon="3.08954">
        <ele>427</ele>
        <time>2012-10-28T12:44:46Z</time>
      </trkpt>
      <trkpt lat="44.11404" lon="3.08954">
        <ele>426.60000610352</ele>
        <time>2012-10-28T12:44:48Z</time>
      </trkpt>
      <trkpt lat="44.11418" lon="3.08955">
        <ele>425.20001220703</ele>
        <time>2012-10-28T12:44:52Z</time>
      </trkpt>
      <trkpt lat="44.11438" lon="3.08954">
        <ele>423.60000610352</ele>
        <time>2012-10-28T12:45:00Z</time>
      </trkpt>
      <trkpt lat="44.11458" lon="3.08955">
        <ele>422</ele>
        <time>2012-10-28T12:45:07Z</time>
      </trkpt>
      <trkpt lat="44.11476" lon="3.08955">
        <ele>420.60000610352</ele>
        <time>2012-10-28T12:45:13Z</time>
      </trkpt>
      <trkpt lat="44.11496" lon="3.08957">
        <ele>419</ele>
        <time>2012-10-28T12:45:20Z</time>
      </trkpt>
      <trkpt lat="44.11504" lon="3.08957">
        <ele>418</ele>
        <time>2012-10-28T12:45:24Z</time>
      </trkpt>
      <trkpt lat="44.115" lon="3.08948">
        <ele>417.20001220703</ele>
        <time>2012-10-28T12:45:28Z</time>
      </trkpt>
      <trkpt lat="44.11491" lon="3.08944">
        <ele>416.60000610352</ele>
        <time>2012-10-28T12:45:31Z</time>
      </trkpt>
      <trkpt lat="44.11481" lon="3.08939">
        <ele>415.79998779297</ele>
        <time>2012-10-28T12:45:35Z</time>
      </trkpt>
      <trkpt lat="44.11462" lon="3.08931">
        <ele>414.20001220703</ele>
        <time>2012-10-28T12:45:42Z</time>
      </trkpt>
      <trkpt lat="44.11444" lon="3.08921">
        <ele>412.60000610352</ele>
        <time>2012-10-28T12:45:49Z</time>
      </trkpt>
      <trkpt lat="44.1144" lon="3.08915">
        <ele>412</ele>
        <time>2012-10-28T12:45:52Z</time>
      </trkpt>
      <trkpt lat="44.11447" lon="3.08903">
        <ele>410.79998779297</ele>
        <time>2012-10-28T12:45:57Z</time>
      </trkpt>
      <trkpt lat="44.11449" lon="3.08901">
        <ele>410.60000610352</ele>
        <time>2012-10-28T12:45:58Z</time>
      </trkpt>
      <trkpt lat="44.1145" lon="3.08899">
        <ele>410.39999389648</ele>
        <time>2012-10-28T12:45:59Z</time>
      </trkpt>
      <trkpt lat="44.11443" lon="3.08889">
        <ele>409</ele>
        <time>2012-10-28T12:46:05Z</time>
      </trkpt>
      <trkpt lat="44.11443" lon="3.08886">
        <ele>408.60000610352</ele>
        <time>2012-10-28T12:46:06Z</time>
      </trkpt>
      <trkpt lat="44.11436" lon="3.08876">
        <ele>407</ele>
        <time>2012-10-28T12:46:12Z</time>
      </trkpt>
      <trkpt lat="44.1143" lon="3.08876">
        <ele>406.39999389648</ele>
        <time>2012-10-28T12:46:14Z</time>
      </trkpt>
      <trkpt lat="44.11415" lon="3.0887">
        <ele>404.60000610352</ele>
        <time>2012-10-28T12:46:21Z</time>
      </trkpt>
      <trkpt lat="44.11412" lon="3.08866">
        <ele>404</ele>
        <time>2012-10-28T12:46:22Z</time>
      </trkpt>
      <trkpt lat="44.11411" lon="3.08861">
        <ele>403.20001220703</ele>
        <time>2012-10-28T12:46:26Z</time>
      </trkpt>
      <trkpt lat="44.11411" lon="3.08857">
        <ele>402</ele>
        <time>2012-10-28T12:46:30Z</time>
      </trkpt>
      <trkpt lat="44.11406" lon="3.08852">
        <ele>401</ele>
        <time>2012-10-28T12:46:34Z</time>
      </trkpt>
      <trkpt lat="44.11402" lon="3.08849">
        <ele>400.39999389648</ele>
        <time>2012-10-28T12:46:36Z</time>
      </trkpt>
      <trkpt lat="44.11383" lon="3.08839">
        <ele>398.39999389648</ele>
        <time>2012-10-28T12:46:42Z</time>
      </trkpt>
      <trkpt lat="44.11372" lon="3.0882">
        <ele>396.60000610352</ele>
        <time>2012-10-28T12:46:49Z</time>
      </trkpt>
      <trkpt lat="44.11366" lon="3.08794">
        <ele>394.39999389648</ele>
        <time>2012-10-28T12:46:57Z</time>
      </trkpt>
      <trkpt lat="44.11368" lon="3.08768">
        <ele>392</ele>
        <time>2012-10-28T12:47:06Z</time>
      </trkpt>
      <trkpt lat="44.11368" lon="3.0875">
        <ele>390.60000610352</ele>
        <time>2012-10-28T12:47:12Z</time>
      </trkpt>
      <trkpt lat="44.11365" lon="3.08744">
        <ele>389.39999389648</ele>
        <time>2012-10-28T12:47:16Z</time>
      </trkpt>
      <trkpt lat="44.11348" lon="3.08732">
        <ele>386</ele>
        <time>2012-10-28T12:47:31Z</time>
      </trkpt>
      <trkpt lat="44.11331" lon="3.08727">
        <ele>382</ele>
        <time>2012-10-28T12:47:50Z</time>
      </trkpt>
    </trkseg>
  </trk>
</gpx>